<?xml version='1.0' encoding='UTF-8'?><gpx version="1.1" creator="JPX - https://github.com/jenetics/jpx" xmlns="http://www.topografix.com/GPX/1/1"><trk><trkseg><trkpt lat="40.4194512" lon="15.0922034"><ele>445.0</ele><time>2026-04-19T08:10:32.405Z</time></trkpt><trkpt lat="40.4194867" lon="15.092297"><ele>445.0</ele><time>2026-04-19T08:10:35.405Z</time></trkpt><trkpt lat="40.4194842" lon="15.0924047"><ele>445.0</ele><time>2026-04-19T08:10:37.374Z</time></trkpt><trkpt lat="40.4195519" lon="15.092577"><ele>445.0</ele><time>2026-04-19T08:10:38.405Z</time></trkpt><trkpt lat="40.4195894" lon="15.0926681"><ele>445.0</ele><time>2026-04-19T08:10:39.405Z</time></trkpt><trkpt lat="40.4196494" lon="15.0927512"><ele>447.50000000000006</ele><time>2026-04-19T08:10:40.406Z</time></trkpt><trkpt lat="40.4196922" lon="15.0928464"><ele>450.0</ele><time>2026-04-19T08:10:41.405Z</time></trkpt><trkpt lat="40.4197321" lon="15.0929445"><ele>452.5</ele><time>2026-04-19T08:10:42.405Z</time></trkpt><trkpt lat="40.4197694" lon="15.093047"><ele>455.0</ele><time>2026-04-19T08:10:43.405Z</time></trkpt><trkpt lat="40.4198075" lon="15.0931501"><ele>457.50000000000006</ele><time>2026-04-19T08:10:44.406Z</time></trkpt><trkpt lat="40.4198452" lon="15.0932535"><ele>460.0</ele><time>2026-04-19T08:10:45.405Z</time></trkpt><trkpt lat="40.4198819" lon="15.0933628"><ele>461.4</ele><time>2026-04-19T08:10:46.406Z</time></trkpt><trkpt lat="40.4199185" lon="15.0934878"><ele>462.8</ele><time>2026-04-19T08:10:47.405Z</time></trkpt><trkpt lat="40.4199393" lon="15.0936227"><ele>464.20000000000005</ele><time>2026-04-19T08:10:48.405Z</time></trkpt><trkpt lat="40.4199337" lon="15.0937542"><ele>465.6</ele><time>2026-04-19T08:10:49.405Z</time></trkpt><trkpt lat="40.4199062" lon="15.0938892"><ele>467.0</ele><time>2026-04-19T08:10:50.405Z</time></trkpt><trkpt lat="40.4198636" lon="15.0940282"><ele>469.20000000000005</ele><time>2026-04-19T08:10:51.405Z</time></trkpt><trkpt lat="40.4198267" lon="15.0941644"><ele>471.40000000000003</ele><time>2026-04-19T08:10:52.407Z</time></trkpt><trkpt lat="40.4198028" lon="15.094289"><ele>473.59999999999997</ele><time>2026-04-19T08:10:53.405Z</time></trkpt><trkpt lat="40.419778" lon="15.094399"><ele>475.79999999999995</ele><time>2026-04-19T08:10:54.405Z</time></trkpt><trkpt lat="40.4197548" lon="15.0945104"><ele>478.0</ele><time>2026-04-19T08:10:55.405Z</time></trkpt><trkpt lat="40.4197308" lon="15.0946351"><ele>478.0</ele><time>2026-04-19T08:10:56.405Z</time></trkpt><trkpt lat="40.4197226" lon="15.0947653"><ele>477.99999999999994</ele><time>2026-04-19T08:10:57.406Z</time></trkpt><trkpt lat="40.4197366" lon="15.0949001"><ele>477.99999999999994</ele><time>2026-04-19T08:10:58.406Z</time></trkpt><trkpt lat="40.4197535" lon="15.0950377"><ele>478.0</ele><time>2026-04-19T08:10:59.405Z</time></trkpt><trkpt lat="40.4197514" lon="15.0951781"><ele>478.0</ele><time>2026-04-19T08:11:00.405Z</time></trkpt><trkpt lat="40.4197406" lon="15.0953111"><ele>480.0</ele><time>2026-04-19T08:11:01.405Z</time></trkpt><trkpt lat="40.419735" lon="15.095456"><ele>481.99999999999994</ele><time>2026-04-19T08:11:02.405Z</time></trkpt><trkpt lat="40.4197341" lon="15.0955924"><ele>483.99999999999994</ele><time>2026-04-19T08:11:03.406Z</time></trkpt><trkpt lat="40.4197329" lon="15.095733"><ele>486.0</ele><time>2026-04-19T08:11:04.405Z</time></trkpt><trkpt lat="40.4197337" lon="15.0958774"><ele>488.0</ele><time>2026-04-19T08:11:05.406Z</time></trkpt><trkpt lat="40.4197348" lon="15.0960573"><ele>489.75</ele><time>2026-04-19T08:11:06.405Z</time></trkpt><trkpt lat="40.4197373" lon="15.096243"><ele>491.5</ele><time>2026-04-19T08:11:07.405Z</time></trkpt><trkpt lat="40.419736" lon="15.0964318"><ele>493.25</ele><time>2026-04-19T08:11:08.405Z</time></trkpt><trkpt lat="40.4197346" lon="15.0966186"><ele>495.0</ele><time>2026-04-19T08:11:09.405Z</time></trkpt><trkpt lat="40.4197343" lon="15.0968027"><ele>497.75</ele><time>2026-04-19T08:11:10.405Z</time></trkpt><trkpt lat="40.4197376" lon="15.0969888"><ele>500.5</ele><time>2026-04-19T08:11:11.405Z</time></trkpt><trkpt lat="40.4197449" lon="15.0971699"><ele>503.25</ele><time>2026-04-19T08:11:12.405Z</time></trkpt><trkpt lat="40.4197515" lon="15.0973326"><ele>506.0</ele><time>2026-04-19T08:11:13.405Z</time></trkpt><trkpt lat="40.4197585" lon="15.0974708"><ele>507.4</ele><time>2026-04-19T08:11:14.406Z</time></trkpt><trkpt lat="40.4197593" lon="15.0975999"><ele>508.8</ele><time>2026-04-19T08:11:15.405Z</time></trkpt><trkpt lat="40.4197386" lon="15.097744"><ele>510.19999999999993</ele><time>2026-04-19T08:11:16.405Z</time></trkpt><trkpt lat="40.4196991" lon="15.0978828"><ele>511.59999999999997</ele><time>2026-04-19T08:11:17.405Z</time></trkpt><trkpt lat="40.4196718" lon="15.0980229"><ele>513.0</ele><time>2026-04-19T08:11:18.405Z</time></trkpt><trkpt lat="40.4196664" lon="15.0981562"><ele>515.75</ele><time>2026-04-19T08:11:19.406Z</time></trkpt><trkpt lat="40.4196813" lon="15.0983058"><ele>518.5</ele><time>2026-04-19T08:11:20.405Z</time></trkpt><trkpt lat="40.4197039" lon="15.0984476"><ele>521.25</ele><time>2026-04-19T08:11:21.405Z</time></trkpt><trkpt lat="40.4197245" lon="15.0985999"><ele>524.0</ele><time>2026-04-19T08:11:22.405Z</time></trkpt><trkpt lat="40.4197445" lon="15.0987509"><ele>524.0</ele><time>2026-04-19T08:11:23.405Z</time></trkpt><trkpt lat="40.4197588" lon="15.098903"><ele>524.0</ele><time>2026-04-19T08:11:24.405Z</time></trkpt><trkpt lat="40.4197689" lon="15.0990325"><ele>524.0</ele><time>2026-04-19T08:11:25.406Z</time></trkpt><trkpt lat="40.4197855" lon="15.0991606"><ele>524.0</ele><time>2026-04-19T08:11:26.405Z</time></trkpt><trkpt lat="40.4198019" lon="15.0992821"><ele>524.0</ele><time>2026-04-19T08:11:27.405Z</time></trkpt><trkpt lat="40.419817" lon="15.0993769"><ele>525.2857142857143</ele><time>2026-04-19T08:11:28.406Z</time></trkpt><trkpt lat="40.4198258" lon="15.0994751"><ele>526.5714285714287</ele><time>2026-04-19T08:11:29.405Z</time></trkpt><trkpt lat="40.4198408" lon="15.0995699"><ele>527.8571428571429</ele><time>2026-04-19T08:11:30.406Z</time></trkpt><trkpt lat="40.4198659" lon="15.099661"><ele>529.1428571428571</ele><time>2026-04-19T08:11:31.405Z</time></trkpt><trkpt lat="40.4198957" lon="15.0997483"><ele>530.4285714285713</ele><time>2026-04-19T08:11:32.405Z</time></trkpt><trkpt lat="40.4199262" lon="15.0998322"><ele>531.7142857142857</ele><time>2026-04-19T08:11:33.405Z</time></trkpt><trkpt lat="40.4199532" lon="15.0999213"><ele>533.0</ele><time>2026-04-19T08:11:34.405Z</time></trkpt><trkpt lat="40.419958" lon="15.1000234"><ele>534.0</ele><time>2026-04-19T08:11:35.405Z</time></trkpt><trkpt lat="40.4199476" lon="15.1001255"><ele>535.0</ele><time>2026-04-19T08:11:36.405Z</time></trkpt><trkpt lat="40.4199285" lon="15.1002251"><ele>536.0</ele><time>2026-04-19T08:11:37.406Z</time></trkpt><trkpt lat="40.4199217" lon="15.1003354"><ele>537.0</ele><time>2026-04-19T08:11:38.405Z</time></trkpt><trkpt lat="40.4199074" lon="15.1004348"><ele>538.0</ele><time>2026-04-19T08:11:39.405Z</time></trkpt><trkpt lat="40.4198877" lon="15.1005188"><ele>539.0</ele><time>2026-04-19T08:11:40.405Z</time></trkpt><trkpt lat="40.4198588" lon="15.1005933"><ele>540.0</ele><time>2026-04-19T08:11:41.405Z</time></trkpt><trkpt lat="40.4198284" lon="15.1006913"><ele>542.4</ele><time>2026-04-19T08:11:43.405Z</time></trkpt><trkpt lat="40.4197996" lon="15.100783"><ele>544.8</ele><time>2026-04-19T08:12:29.406Z</time></trkpt><trkpt lat="40.4197674" lon="15.1008868"><ele>547.2</ele><time>2026-04-19T08:12:31.405Z</time></trkpt><trkpt lat="40.4197725" lon="15.1010478"><ele>549.6</ele><time>2026-04-19T08:12:33.405Z</time></trkpt><trkpt lat="40.4197818" lon="15.10115"><ele>552.0</ele><time>2026-04-19T08:12:34.405Z</time></trkpt><trkpt lat="40.4198122" lon="15.101284"><ele>552.0</ele><time>2026-04-19T08:12:35.405Z</time></trkpt><trkpt lat="40.4198464" lon="15.1014088"><ele>552.0</ele><time>2026-04-19T08:12:36.405Z</time></trkpt><trkpt lat="40.4198877" lon="15.1015222"><ele>552.0</ele><time>2026-04-19T08:12:37.405Z</time></trkpt><trkpt lat="40.4199201" lon="15.1016217"><ele>552.0</ele><time>2026-04-19T08:12:38.406Z</time></trkpt><trkpt lat="40.4199602" lon="15.1017315"><ele>552.0</ele><time>2026-04-19T08:12:39.405Z</time></trkpt><trkpt lat="40.4199982" lon="15.1018341"><ele>552.4285714285714</ele><time>2026-04-19T08:12:40.406Z</time></trkpt><trkpt lat="40.4200133" lon="15.1019229"><ele>552.8571428571429</ele><time>2026-04-19T08:12:41.405Z</time></trkpt><trkpt lat="40.4200285" lon="15.1020253"><ele>553.2857142857143</ele><time>2026-04-19T08:12:42.405Z</time></trkpt><trkpt lat="40.4200493" lon="15.1021188"><ele>553.7142857142858</ele><time>2026-04-19T08:12:43.405Z</time></trkpt><trkpt lat="40.4200762" lon="15.1022258"><ele>554.1428571428571</ele><time>2026-04-19T08:12:44.405Z</time></trkpt><trkpt lat="40.4200866" lon="15.1023185"><ele>554.5714285714287</ele><time>2026-04-19T08:12:45.405Z</time></trkpt><trkpt lat="40.420104" lon="15.1024063"><ele>555.0</ele><time>2026-04-19T08:12:46.406Z</time></trkpt><trkpt lat="40.4200704" lon="15.1025771"><ele>555.8</ele><time>2026-04-19T08:12:48.405Z</time></trkpt><trkpt lat="40.42004" lon="15.1026782"><ele>556.6</ele><time>2026-04-19T08:12:49.405Z</time></trkpt><trkpt lat="40.4200165" lon="15.1027792"><ele>557.4</ele><time>2026-04-19T08:12:50.405Z</time></trkpt><trkpt lat="40.4199798" lon="15.1028804"><ele>558.2</ele><time>2026-04-19T08:12:51.405Z</time></trkpt><trkpt lat="40.4199521" lon="15.1030656"><ele>559.0</ele><time>2026-04-19T08:12:53.405Z</time></trkpt><trkpt lat="40.4199351" lon="15.1031681"><ele>559.6666666666667</ele><time>2026-04-19T08:12:54.405Z</time></trkpt><trkpt lat="40.4199072" lon="15.1032698"><ele>560.3333333333334</ele><time>2026-04-19T08:12:55.405Z</time></trkpt><trkpt lat="40.4198826" lon="15.1033501"><ele>561.0</ele><time>2026-04-19T08:12:56.405Z</time></trkpt><trkpt lat="40.4198568" lon="15.1034425"><ele>561.6666666666666</ele><time>2026-04-19T08:12:57.405Z</time></trkpt><trkpt lat="40.4198188" lon="15.1035529"><ele>562.3333333333333</ele><time>2026-04-19T08:12:58.405Z</time></trkpt><trkpt lat="40.4197792" lon="15.1036433"><ele>563.0</ele><time>2026-04-19T08:12:59.405Z</time></trkpt><trkpt lat="40.4197283" lon="15.1037351"><ele>563.0</ele><time>2026-04-19T08:13:00.407Z</time></trkpt><trkpt lat="40.4196991" lon="15.1038133"><ele>563.0</ele><time>2026-04-19T08:13:01.406Z</time></trkpt><trkpt lat="40.4196227" lon="15.1039592"><ele>563.0</ele><time>2026-04-19T08:13:03.405Z</time></trkpt><trkpt lat="40.4195748" lon="15.1040304"><ele>563.0</ele><time>2026-04-19T08:13:04.405Z</time></trkpt><trkpt lat="40.4195127" lon="15.104116"><ele>563.0</ele><time>2026-04-19T08:13:05.405Z</time></trkpt><trkpt lat="40.4194518" lon="15.1041756"><ele>563.0</ele><time>2026-04-19T08:13:06.406Z</time></trkpt><trkpt lat="40.4193824" lon="15.1042484"><ele>562.0</ele><time>2026-04-19T08:13:07.405Z</time></trkpt><trkpt lat="40.4193226" lon="15.1042962"><ele>561.0</ele><time>2026-04-19T08:13:08.405Z</time></trkpt><trkpt lat="40.4192474" lon="15.1044172"><ele>560.0</ele><time>2026-04-19T08:13:10.405Z</time></trkpt><trkpt lat="40.4192199" lon="15.1045126"><ele>559.0</ele><time>2026-04-19T08:13:11.405Z</time></trkpt><trkpt lat="40.4192046" lon="15.1046236"><ele>558.0</ele><time>2026-04-19T08:13:12.405Z</time></trkpt><trkpt lat="40.4192007" lon="15.1047315"><ele>557.0</ele><time>2026-04-19T08:13:13.406Z</time></trkpt><trkpt lat="40.4191903" lon="15.1048463"><ele>557.8000000000001</ele><time>2026-04-19T08:13:14.405Z</time></trkpt><trkpt lat="40.4191924" lon="15.1049693"><ele>558.6</ele><time>2026-04-19T08:13:15.405Z</time></trkpt><trkpt lat="40.4191919" lon="15.1050976"><ele>559.4000000000001</ele><time>2026-04-19T08:13:16.405Z</time></trkpt><trkpt lat="40.419199" lon="15.1052185"><ele>560.2</ele><time>2026-04-19T08:13:17.406Z</time></trkpt><trkpt lat="40.4191797" lon="15.1053197"><ele>561.0</ele><time>2026-04-19T08:13:18.406Z</time></trkpt><trkpt lat="40.4191569" lon="15.1054345"><ele>561.0</ele><time>2026-04-19T08:13:19.405Z</time></trkpt><trkpt lat="40.4191417" lon="15.105543"><ele>561.0</ele><time>2026-04-19T08:13:20.405Z</time></trkpt><trkpt lat="40.4191079" lon="15.1056334"><ele>561.0</ele><time>2026-04-19T08:13:21.405Z</time></trkpt><trkpt lat="40.4190823" lon="15.1057189"><ele>561.0</ele><time>2026-04-19T08:13:22.405Z</time></trkpt><trkpt lat="40.4190466" lon="15.1058084"><ele>561.0</ele><time>2026-04-19T08:13:23.405Z</time></trkpt><trkpt lat="40.4190072" lon="15.1059205"><ele>561.0</ele><time>2026-04-19T08:13:24.405Z</time></trkpt><trkpt lat="40.4189756" lon="15.1060307"><ele>561.2</ele><time>2026-04-19T08:13:25.405Z</time></trkpt><trkpt lat="40.4189447" lon="15.1061532"><ele>561.4000000000001</ele><time>2026-04-19T08:13:26.405Z</time></trkpt><trkpt lat="40.4189106" lon="15.1062688"><ele>561.6</ele><time>2026-04-19T08:13:27.405Z</time></trkpt><trkpt lat="40.4188834" lon="15.1063891"><ele>561.8000000000001</ele><time>2026-04-19T08:13:28.405Z</time></trkpt><trkpt lat="40.4188673" lon="15.1065182"><ele>562.0</ele><time>2026-04-19T08:13:29.406Z</time></trkpt><trkpt lat="40.4188579" lon="15.1066429"><ele>563.0</ele><time>2026-04-19T08:13:30.405Z</time></trkpt><trkpt lat="40.4188495" lon="15.1067775"><ele>564.0</ele><time>2026-04-19T08:13:31.405Z</time></trkpt><trkpt lat="40.4188387" lon="15.1069043"><ele>565.0</ele><time>2026-04-19T08:13:32.405Z</time></trkpt><trkpt lat="40.4188302" lon="15.1070472"><ele>566.0</ele><time>2026-04-19T08:13:33.405Z</time></trkpt><trkpt lat="40.4188104" lon="15.1071674"><ele>567.0</ele><time>2026-04-19T08:13:34.405Z</time></trkpt><trkpt lat="40.4187893" lon="15.1072949"><ele>564.5</ele><time>2026-04-19T08:13:35.405Z</time></trkpt><trkpt lat="40.4187613" lon="15.1074181"><ele>562.0</ele><time>2026-04-19T08:13:36.406Z</time></trkpt><trkpt lat="40.4187299" lon="15.1075364"><ele>559.5</ele><time>2026-04-19T08:13:37.405Z</time></trkpt><trkpt lat="40.4186948" lon="15.1076483"><ele>557.0</ele><time>2026-04-19T08:13:38.405Z</time></trkpt><trkpt lat="40.4186691" lon="15.1077439"><ele>554.5</ele><time>2026-04-19T08:13:39.405Z</time></trkpt><trkpt lat="40.4186425" lon="15.1078289"><ele>552.0</ele><time>2026-04-19T08:13:40.405Z</time></trkpt><trkpt lat="40.4185633" lon="15.1079449"><ele>552.0</ele><time>2026-04-19T08:13:42.406Z</time></trkpt><trkpt lat="40.4184964" lon="15.1080161"><ele>552.0</ele><time>2026-04-19T08:13:43.405Z</time></trkpt><trkpt lat="40.418421" lon="15.1080956"><ele>552.0</ele><time>2026-04-19T08:13:44.405Z</time></trkpt><trkpt lat="40.4183591" lon="15.1081842"><ele>552.0</ele><time>2026-04-19T08:13:45.405Z</time></trkpt><trkpt lat="40.4183007" lon="15.1082873"><ele>552.0</ele><time>2026-04-19T08:13:46.405Z</time></trkpt><trkpt lat="40.4182363" lon="15.1083872"><ele>551.2</ele><time>2026-04-19T08:13:47.405Z</time></trkpt><trkpt lat="40.4181584" lon="15.1084916"><ele>550.4000000000001</ele><time>2026-04-19T08:13:48.405Z</time></trkpt><trkpt lat="40.4180705" lon="15.1085844"><ele>549.5999999999999</ele><time>2026-04-19T08:13:49.405Z</time></trkpt><trkpt lat="40.4179834" lon="15.1086672"><ele>548.8</ele><time>2026-04-19T08:13:50.406Z</time></trkpt><trkpt lat="40.4178982" lon="15.1087451"><ele>548.0</ele><time>2026-04-19T08:13:51.405Z</time></trkpt><trkpt lat="40.4178126" lon="15.1088176"><ele>548.0</ele><time>2026-04-19T08:13:52.406Z</time></trkpt><trkpt lat="40.4177321" lon="15.1088854"><ele>548.0</ele><time>2026-04-19T08:13:53.406Z</time></trkpt><trkpt lat="40.4176515" lon="15.1089544"><ele>548.0</ele><time>2026-04-19T08:13:54.406Z</time></trkpt><trkpt lat="40.4175723" lon="15.1090414"><ele>548.0</ele><time>2026-04-19T08:13:55.405Z</time></trkpt><trkpt lat="40.4175075" lon="15.109142"><ele>548.0</ele><time>2026-04-19T08:13:56.405Z</time></trkpt><trkpt lat="40.41744" lon="15.1092479"><ele>547.6</ele><time>2026-04-19T08:13:57.405Z</time></trkpt><trkpt lat="40.4173759" lon="15.1093481"><ele>547.1999999999999</ele><time>2026-04-19T08:13:58.405Z</time></trkpt><trkpt lat="40.4173153" lon="15.1094507"><ele>546.8</ele><time>2026-04-19T08:13:59.405Z</time></trkpt><trkpt lat="40.4172457" lon="15.1095525"><ele>546.4</ele><time>2026-04-19T08:14:00.405Z</time></trkpt><trkpt lat="40.4171704" lon="15.1096299"><ele>546.0</ele><time>2026-04-19T08:14:01.405Z</time></trkpt><trkpt lat="40.4170766" lon="15.1097039"><ele>546.0</ele><time>2026-04-19T08:14:02.405Z</time></trkpt><trkpt lat="40.4170054" lon="15.1097738"><ele>546.0</ele><time>2026-04-19T08:14:03.405Z</time></trkpt><trkpt lat="40.4169488" lon="15.1098423"><ele>546.0</ele><time>2026-04-19T08:14:04.405Z</time></trkpt><trkpt lat="40.4168901" lon="15.1099116"><ele>546.0</ele><time>2026-04-19T08:14:05.405Z</time></trkpt><trkpt lat="40.4168683" lon="15.1100266"><ele>546.0</ele><time>2026-04-19T08:14:06.405Z</time></trkpt><trkpt lat="40.4168285" lon="15.1101266"><ele>546.0</ele><time>2026-04-19T08:14:07.405Z</time></trkpt><trkpt lat="40.4168244" lon="15.1102621"><ele>547.6666666666666</ele><time>2026-04-19T08:14:08.405Z</time></trkpt><trkpt lat="40.4168155" lon="15.110373"><ele>549.3333333333334</ele><time>2026-04-19T08:14:09.407Z</time></trkpt><trkpt lat="40.4168147" lon="15.1104851"><ele>551.0</ele><time>2026-04-19T08:14:10.405Z</time></trkpt><trkpt lat="40.4168161" lon="15.1106023"><ele>552.6666666666667</ele><time>2026-04-19T08:14:11.405Z</time></trkpt><trkpt lat="40.4167983" lon="15.1107132"><ele>554.3333333333334</ele><time>2026-04-19T08:14:12.406Z</time></trkpt><trkpt lat="40.4167785" lon="15.1108394"><ele>556.0</ele><time>2026-04-19T08:14:13.405Z</time></trkpt><trkpt lat="40.4167625" lon="15.1109628"><ele>556.0</ele><time>2026-04-19T08:14:14.405Z</time></trkpt><trkpt lat="40.4167389" lon="15.1110915"><ele>556.0</ele><time>2026-04-19T08:14:15.405Z</time></trkpt><trkpt lat="40.4167149" lon="15.1112066"><ele>556.0</ele><time>2026-04-19T08:14:16.405Z</time></trkpt><trkpt lat="40.4166791" lon="15.1113378"><ele>556.0</ele><time>2026-04-19T08:14:17.405Z</time></trkpt><trkpt lat="40.4166423" lon="15.1114679"><ele>556.0</ele><time>2026-04-19T08:14:18.405Z</time></trkpt><trkpt lat="40.4166046" lon="15.1116075"><ele>556.4</ele><time>2026-04-19T08:14:19.405Z</time></trkpt><trkpt lat="40.4165715" lon="15.1117369"><ele>556.8</ele><time>2026-04-19T08:14:20.406Z</time></trkpt><trkpt lat="40.4165355" lon="15.1118739"><ele>557.1999999999999</ele><time>2026-04-19T08:14:21.405Z</time></trkpt><trkpt lat="40.4164958" lon="15.1120068"><ele>557.6</ele><time>2026-04-19T08:14:22.405Z</time></trkpt><trkpt lat="40.4164587" lon="15.1121268"><ele>558.0</ele><time>2026-04-19T08:14:23.405Z</time></trkpt><trkpt lat="40.4164251" lon="15.1122551"><ele>558.0</ele><time>2026-04-19T08:14:24.405Z</time></trkpt><trkpt lat="40.4163889" lon="15.1123748"><ele>558.0</ele><time>2026-04-19T08:14:25.405Z</time></trkpt><trkpt lat="40.416347" lon="15.1124884"><ele>558.0</ele><time>2026-04-19T08:14:26.405Z</time></trkpt><trkpt lat="40.4163072" lon="15.1126049"><ele>558.0</ele><time>2026-04-19T08:14:27.405Z</time></trkpt><trkpt lat="40.4162596" lon="15.1127313"><ele>558.0</ele><time>2026-04-19T08:14:28.405Z</time></trkpt><trkpt lat="40.4162243" lon="15.1128319"><ele>557.8</ele><time>2026-04-19T08:14:29.405Z</time></trkpt><trkpt lat="40.4161802" lon="15.112955"><ele>557.5999999999999</ele><time>2026-04-19T08:14:30.405Z</time></trkpt><trkpt lat="40.4161224" lon="15.113062"><ele>557.4000000000001</ele><time>2026-04-19T08:14:31.405Z</time></trkpt><trkpt lat="40.41607" lon="15.1131694"><ele>557.2</ele><time>2026-04-19T08:14:32.405Z</time></trkpt><trkpt lat="40.4160239" lon="15.1132679"><ele>557.0</ele><time>2026-04-19T08:14:33.405Z</time></trkpt><trkpt lat="40.4159718" lon="15.1133732"><ele>557.0</ele><time>2026-04-19T08:14:34.405Z</time></trkpt><trkpt lat="40.4159256" lon="15.1134835"><ele>557.0</ele><time>2026-04-19T08:14:35.406Z</time></trkpt><trkpt lat="40.415883" lon="15.1135959"><ele>557.0</ele><time>2026-04-19T08:14:36.406Z</time></trkpt><trkpt lat="40.4158425" lon="15.1136988"><ele>557.0</ele><time>2026-04-19T08:14:37.405Z</time></trkpt><trkpt lat="40.4158236" lon="15.1138031"><ele>557.0</ele><time>2026-04-19T08:14:38.406Z</time></trkpt><trkpt lat="40.4158153" lon="15.1139171"><ele>557.0</ele><time>2026-04-19T08:14:39.406Z</time></trkpt><trkpt lat="40.4157991" lon="15.1140181"><ele>557.5</ele><time>2026-04-19T08:14:40.405Z</time></trkpt><trkpt lat="40.4157711" lon="15.1141167"><ele>558.0</ele><time>2026-04-19T08:14:42.405Z</time></trkpt><trkpt lat="40.4157356" lon="15.1141963"><ele>558.5</ele><time>2026-04-19T08:14:45.405Z</time></trkpt><trkpt lat="40.4156887" lon="15.1142936"><ele>559.0</ele><time>2026-04-19T08:14:48.405Z</time></trkpt><trkpt lat="40.4156269" lon="15.1144391"><ele>559.5</ele><time>2026-04-19T08:14:50.406Z</time></trkpt><trkpt lat="40.4155871" lon="15.114537"><ele>560.0</ele><time>2026-04-19T08:14:51.406Z</time></trkpt><trkpt lat="40.4155545" lon="15.1146351"><ele>560.0</ele><time>2026-04-19T08:14:52.405Z</time></trkpt><trkpt lat="40.415526" lon="15.1147445"><ele>560.0</ele><time>2026-04-19T08:14:53.406Z</time></trkpt><trkpt lat="40.4154912" lon="15.1148592"><ele>560.0</ele><time>2026-04-19T08:14:54.406Z</time></trkpt><trkpt lat="40.4154629" lon="15.1149682"><ele>560.0</ele><time>2026-04-19T08:14:55.406Z</time></trkpt><trkpt lat="40.4154293" lon="15.1150726"><ele>560.0</ele><time>2026-04-19T08:14:56.405Z</time></trkpt><trkpt lat="40.4153842" lon="15.1151658"><ele>560.0</ele><time>2026-04-19T08:14:57.405Z</time></trkpt><trkpt lat="40.4153479" lon="15.1152431"><ele>559.8333333333333</ele><time>2026-04-19T08:14:58.405Z</time></trkpt><trkpt lat="40.4153069" lon="15.1153422"><ele>559.6666666666666</ele><time>2026-04-19T08:14:59.405Z</time></trkpt><trkpt lat="40.4152656" lon="15.1154413"><ele>559.5</ele><time>2026-04-19T08:15:00.406Z</time></trkpt><trkpt lat="40.4152257" lon="15.115528"><ele>559.3333333333334</ele><time>2026-04-19T08:15:01.405Z</time></trkpt><trkpt lat="40.415182" lon="15.1156104"><ele>559.1666666666667</ele><time>2026-04-19T08:15:02.405Z</time></trkpt><trkpt lat="40.415144" lon="15.115699"><ele>559.0</ele><time>2026-04-19T08:15:03.405Z</time></trkpt><trkpt lat="40.4150984" lon="15.1157869"><ele>559.8333333333334</ele><time>2026-04-19T08:15:04.406Z</time></trkpt><trkpt lat="40.415059" lon="15.1158791"><ele>560.6666666666667</ele><time>2026-04-19T08:15:05.406Z</time></trkpt><trkpt lat="40.4150075" lon="15.1159731"><ele>561.5</ele><time>2026-04-19T08:15:06.405Z</time></trkpt><trkpt lat="40.4149635" lon="15.1160737"><ele>562.3333333333334</ele><time>2026-04-19T08:15:07.405Z</time></trkpt><trkpt lat="40.4149178" lon="15.1161716"><ele>563.1666666666666</ele><time>2026-04-19T08:15:08.405Z</time></trkpt><trkpt lat="40.4148755" lon="15.1162697"><ele>564.0</ele><time>2026-04-19T08:15:09.405Z</time></trkpt><trkpt lat="40.4148327" lon="15.116373"><ele>564.0</ele><time>2026-04-19T08:15:10.406Z</time></trkpt><trkpt lat="40.4147976" lon="15.1164751"><ele>564.0</ele><time>2026-04-19T08:15:11.405Z</time></trkpt><trkpt lat="40.4147569" lon="15.116582"><ele>564.0</ele><time>2026-04-19T08:15:12.405Z</time></trkpt><trkpt lat="40.414712" lon="15.1166726"><ele>564.0</ele><time>2026-04-19T08:15:13.405Z</time></trkpt><trkpt lat="40.414665" lon="15.1167783"><ele>564.0</ele><time>2026-04-19T08:15:14.405Z</time></trkpt><trkpt lat="40.4146209" lon="15.11689"><ele>564.0</ele><time>2026-04-19T08:15:15.405Z</time></trkpt><trkpt lat="40.4145829" lon="15.1170096"><ele>564.8</ele><time>2026-04-19T08:15:16.405Z</time></trkpt><trkpt lat="40.4145425" lon="15.1171252"><ele>565.5999999999999</ele><time>2026-04-19T08:15:17.405Z</time></trkpt><trkpt lat="40.4145033" lon="15.1172332"><ele>566.4</ele><time>2026-04-19T08:15:18.405Z</time></trkpt><trkpt lat="40.4144645" lon="15.1173418"><ele>567.1999999999999</ele><time>2026-04-19T08:15:19.405Z</time></trkpt><trkpt lat="40.4144269" lon="15.1174477"><ele>568.0</ele><time>2026-04-19T08:15:20.405Z</time></trkpt><trkpt lat="40.4143914" lon="15.117544"><ele>568.0</ele><time>2026-04-19T08:15:21.405Z</time></trkpt><trkpt lat="40.4143623" lon="15.1176371"><ele>568.0</ele><time>2026-04-19T08:15:22.406Z</time></trkpt><trkpt lat="40.4143436" lon="15.1177408"><ele>568.0</ele><time>2026-04-19T08:15:23.405Z</time></trkpt><trkpt lat="40.4143241" lon="15.1178406"><ele>568.0</ele><time>2026-04-19T08:15:24.405Z</time></trkpt><trkpt lat="40.4143125" lon="15.117949"><ele>568.0</ele><time>2026-04-19T08:15:25.406Z</time></trkpt><trkpt lat="40.4143035" lon="15.1180609"><ele>568.0</ele><time>2026-04-19T08:15:26.405Z</time></trkpt><trkpt lat="40.4142915" lon="15.1181909"><ele>569.4</ele><time>2026-04-19T08:15:27.405Z</time></trkpt><trkpt lat="40.4142687" lon="15.1183097"><ele>570.8</ele><time>2026-04-19T08:15:28.405Z</time></trkpt><trkpt lat="40.4142474" lon="15.1184378"><ele>572.2</ele><time>2026-04-19T08:15:29.405Z</time></trkpt><trkpt lat="40.4142298" lon="15.1185686"><ele>573.6</ele><time>2026-04-19T08:15:30.405Z</time></trkpt><trkpt lat="40.4142086" lon="15.1187026"><ele>575.0</ele><time>2026-04-19T08:15:31.405Z</time></trkpt><trkpt lat="40.4141989" lon="15.1188288"><ele>575.0</ele><time>2026-04-19T08:15:32.404Z</time></trkpt><trkpt lat="40.414193" lon="15.1189545"><ele>575.0</ele><time>2026-04-19T08:15:33.405Z</time></trkpt><trkpt lat="40.4141781" lon="15.1190732"><ele>575.0</ele><time>2026-04-19T08:15:34.404Z</time></trkpt><trkpt lat="40.4141535" lon="15.1192047"><ele>575.0</ele><time>2026-04-19T08:15:35.404Z</time></trkpt><trkpt lat="40.4141231" lon="15.1193249"><ele>575.0</ele><time>2026-04-19T08:15:36.404Z</time></trkpt><trkpt lat="40.4140879" lon="15.1194209"><ele>575.4</ele><time>2026-04-19T08:15:37.404Z</time></trkpt><trkpt lat="40.4140471" lon="15.1194988"><ele>575.8</ele><time>2026-04-19T08:15:38.404Z</time></trkpt><trkpt lat="40.4139865" lon="15.1195741"><ele>576.2</ele><time>2026-04-19T08:15:39.404Z</time></trkpt><trkpt lat="40.4139192" lon="15.1196834"><ele>576.6</ele><time>2026-04-19T08:15:40.404Z</time></trkpt><trkpt lat="40.4138496" lon="15.1197974"><ele>577.0</ele><time>2026-04-19T08:15:41.405Z</time></trkpt><trkpt lat="40.413781" lon="15.1199059"><ele>577.0</ele><time>2026-04-19T08:15:42.404Z</time></trkpt><trkpt lat="40.4137167" lon="15.1200154"><ele>577.0</ele><time>2026-04-19T08:15:43.404Z</time></trkpt><trkpt lat="40.4136495" lon="15.1201411"><ele>577.0</ele><time>2026-04-19T08:15:44.404Z</time></trkpt><trkpt lat="40.4135841" lon="15.1202542"><ele>577.0</ele><time>2026-04-19T08:15:45.404Z</time></trkpt><trkpt lat="40.413525" lon="15.1203511"><ele>577.0</ele><time>2026-04-19T08:15:46.405Z</time></trkpt><trkpt lat="40.4134697" lon="15.1204422"><ele>577.0</ele><time>2026-04-19T08:15:47.404Z</time></trkpt><trkpt lat="40.4134102" lon="15.1205338"><ele>577.0</ele><time>2026-04-19T08:15:48.405Z</time></trkpt><trkpt lat="40.4133606" lon="15.120592"><ele>577.0</ele><time>2026-04-19T08:15:49.404Z</time></trkpt><trkpt lat="40.4132795" lon="15.1207052"><ele>577.0</ele><time>2026-04-19T08:15:51.405Z</time></trkpt><trkpt lat="40.4132068" lon="15.1208342"><ele>577.0</ele><time>2026-04-19T08:15:53.404Z</time></trkpt><trkpt lat="40.4131805" lon="15.1209172"><ele>578.5</ele><time>2026-04-19T08:15:54.404Z</time></trkpt><trkpt lat="40.4131519" lon="15.1210111"><ele>580.0</ele><time>2026-04-19T08:15:55.404Z</time></trkpt><trkpt lat="40.4131185" lon="15.1210851"><ele>581.5</ele><time>2026-04-19T08:15:56.404Z</time></trkpt><trkpt lat="40.4130904" lon="15.121177"><ele>583.0</ele><time>2026-04-19T08:15:57.404Z</time></trkpt><trkpt lat="40.4130589" lon="15.1212707"><ele>584.5</ele><time>2026-04-19T08:15:58.404Z</time></trkpt><trkpt lat="40.4130311" lon="15.1213723"><ele>586.0</ele><time>2026-04-19T08:15:59.404Z</time></trkpt><trkpt lat="40.4130162" lon="15.1214757"><ele>585.6666666666667</ele><time>2026-04-19T08:16:00.404Z</time></trkpt><trkpt lat="40.4130003" lon="15.1215785"><ele>585.3333333333334</ele><time>2026-04-19T08:16:01.404Z</time></trkpt><trkpt lat="40.4129831" lon="15.1216739"><ele>585.0</ele><time>2026-04-19T08:16:02.404Z</time></trkpt><trkpt lat="40.4129654" lon="15.1218441"><ele>584.6666666666666</ele><time>2026-04-19T08:16:04.405Z</time></trkpt><trkpt lat="40.4129525" lon="15.1219434"><ele>584.3333333333333</ele><time>2026-04-19T08:16:05.404Z</time></trkpt><trkpt lat="40.4129352" lon="15.1220486"><ele>584.0</ele><time>2026-04-19T08:16:06.404Z</time></trkpt><trkpt lat="40.4129218" lon="15.1221542"><ele>584.0</ele><time>2026-04-19T08:16:07.404Z</time></trkpt><trkpt lat="40.4129033" lon="15.1222592"><ele>584.0</ele><time>2026-04-19T08:16:08.404Z</time></trkpt><trkpt lat="40.4128806" lon="15.1223591"><ele>584.0</ele><time>2026-04-19T08:16:09.404Z</time></trkpt><trkpt lat="40.4128501" lon="15.1224564"><ele>584.0</ele><time>2026-04-19T08:16:10.404Z</time></trkpt><trkpt lat="40.412823" lon="15.1225508"><ele>584.0</ele><time>2026-04-19T08:16:11.404Z</time></trkpt><trkpt lat="40.4127934" lon="15.1226467"><ele>584.0</ele><time>2026-04-19T08:16:12.404Z</time></trkpt><trkpt lat="40.4127656" lon="15.1227427"><ele>584.6666666666666</ele><time>2026-04-19T08:16:13.404Z</time></trkpt><trkpt lat="40.4127375" lon="15.1228405"><ele>585.3333333333333</ele><time>2026-04-19T08:16:14.404Z</time></trkpt><trkpt lat="40.412703" lon="15.1229253"><ele>586.0</ele><time>2026-04-19T08:16:15.404Z</time></trkpt><trkpt lat="40.412674" lon="15.1230104"><ele>586.6666666666666</ele><time>2026-04-19T08:16:16.404Z</time></trkpt><trkpt lat="40.4126275" lon="15.1231149"><ele>587.3333333333334</ele><time>2026-04-19T08:16:17.404Z</time></trkpt><trkpt lat="40.4125869" lon="15.1232149"><ele>588.0</ele><time>2026-04-19T08:16:18.405Z</time></trkpt><trkpt lat="40.4125535" lon="15.1233228"><ele>589.5</ele><time>2026-04-19T08:16:19.404Z</time></trkpt><trkpt lat="40.412524" lon="15.1234224"><ele>591.0</ele><time>2026-04-19T08:16:20.404Z</time></trkpt><trkpt lat="40.4124917" lon="15.1235235"><ele>592.5</ele><time>2026-04-19T08:16:21.404Z</time></trkpt><trkpt lat="40.4124553" lon="15.1236165"><ele>594.0</ele><time>2026-04-19T08:16:22.404Z</time></trkpt><trkpt lat="40.4124188" lon="15.1237048"><ele>595.5</ele><time>2026-04-19T08:16:23.404Z</time></trkpt><trkpt lat="40.4123744" lon="15.1238051"><ele>597.0</ele><time>2026-04-19T08:16:24.404Z</time></trkpt><trkpt lat="40.4123312" lon="15.1239205"><ele>597.0</ele><time>2026-04-19T08:16:25.405Z</time></trkpt><trkpt lat="40.4122791" lon="15.1240086"><ele>597.0</ele><time>2026-04-19T08:16:26.404Z</time></trkpt><trkpt lat="40.4122291" lon="15.1241088"><ele>597.0</ele><time>2026-04-19T08:16:27.404Z</time></trkpt><trkpt lat="40.4121846" lon="15.1242019"><ele>597.0</ele><time>2026-04-19T08:16:28.404Z</time></trkpt><trkpt lat="40.4121529" lon="15.1242879"><ele>597.0</ele><time>2026-04-19T08:16:29.405Z</time></trkpt><trkpt lat="40.4121248" lon="15.1243817"><ele>597.0</ele><time>2026-04-19T08:16:30.404Z</time></trkpt><trkpt lat="40.4120837" lon="15.1244647"><ele>596.2</ele><time>2026-04-19T08:16:31.404Z</time></trkpt><trkpt lat="40.4119825" lon="15.1245944"><ele>595.4000000000001</ele><time>2026-04-19T08:16:33.404Z</time></trkpt><trkpt lat="40.411909" lon="15.1246458"><ele>594.5999999999999</ele><time>2026-04-19T08:16:34.406Z</time></trkpt><trkpt lat="40.4118313" lon="15.1247052"><ele>593.8</ele><time>2026-04-19T08:16:35.404Z</time></trkpt><trkpt lat="40.411727" lon="15.1247587"><ele>593.0</ele><time>2026-04-19T08:16:36.404Z</time></trkpt><trkpt lat="40.4116351" lon="15.1248127"><ele>593.0</ele><time>2026-04-19T08:16:37.404Z</time></trkpt><trkpt lat="40.4115437" lon="15.1248944"><ele>593.0</ele><time>2026-04-19T08:16:38.406Z</time></trkpt><trkpt lat="40.4114572" lon="15.1249897"><ele>593.0</ele><time>2026-04-19T08:16:39.404Z</time></trkpt><trkpt lat="40.4113824" lon="15.1250776"><ele>593.0</ele><time>2026-04-19T08:16:40.405Z</time></trkpt><trkpt lat="40.4113212" lon="15.1251648"><ele>593.0</ele><time>2026-04-19T08:16:41.405Z</time></trkpt><trkpt lat="40.4112426" lon="15.1252395"><ele>594.0</ele><time>2026-04-19T08:16:42.404Z</time></trkpt><trkpt lat="40.4111491" lon="15.1252972"><ele>595.0</ele><time>2026-04-19T08:16:43.405Z</time></trkpt><trkpt lat="40.4110637" lon="15.1253532"><ele>596.0</ele><time>2026-04-19T08:16:44.404Z</time></trkpt><trkpt lat="40.4109859" lon="15.1254148"><ele>597.0</ele><time>2026-04-19T08:16:45.404Z</time></trkpt><trkpt lat="40.4109087" lon="15.1254418"><ele>598.0</ele><time>2026-04-19T08:16:46.404Z</time></trkpt><trkpt lat="40.4108246" lon="15.1254711"><ele>598.0</ele><time>2026-04-19T08:16:47.404Z</time></trkpt><trkpt lat="40.4107137" lon="15.1254643"><ele>598.0</ele><time>2026-04-19T08:16:48.404Z</time></trkpt><trkpt lat="40.4106172" lon="15.1254774"><ele>598.0</ele><time>2026-04-19T08:16:49.404Z</time></trkpt><trkpt lat="40.4105158" lon="15.1254965"><ele>598.0</ele><time>2026-04-19T08:16:50.404Z</time></trkpt><trkpt lat="40.4104066" lon="15.1255085"><ele>598.0</ele><time>2026-04-19T08:16:51.404Z</time></trkpt><trkpt lat="40.4102921" lon="15.1255208"><ele>598.0</ele><time>2026-04-19T08:16:52.404Z</time></trkpt><trkpt lat="40.4101977" lon="15.1255384"><ele>598.0</ele><time>2026-04-19T08:16:53.404Z</time></trkpt><trkpt lat="40.410098" lon="15.1255729"><ele>598.0</ele><time>2026-04-19T08:16:54.405Z</time></trkpt><trkpt lat="40.4099937" lon="15.1256296"><ele>598.0</ele><time>2026-04-19T08:16:55.404Z</time></trkpt><trkpt lat="40.4098908" lon="15.1256935"><ele>598.0</ele><time>2026-04-19T08:16:56.404Z</time></trkpt><trkpt lat="40.4097846" lon="15.1257526"><ele>600.0</ele><time>2026-04-19T08:16:57.404Z</time></trkpt><trkpt lat="40.4096825" lon="15.1258132"><ele>602.0</ele><time>2026-04-19T08:16:58.404Z</time></trkpt><trkpt lat="40.4095861" lon="15.125898"><ele>604.0</ele><time>2026-04-19T08:16:59.405Z</time></trkpt><trkpt lat="40.4095003" lon="15.1259823"><ele>606.0</ele><time>2026-04-19T08:17:00.405Z</time></trkpt><trkpt lat="40.4094152" lon="15.1260343"><ele>608.0</ele><time>2026-04-19T08:17:01.405Z</time></trkpt><trkpt lat="40.4093402" lon="15.126089"><ele>608.5</ele><time>2026-04-19T08:17:02.404Z</time></trkpt><trkpt lat="40.409287" lon="15.1261651"><ele>609.0</ele><time>2026-04-19T08:17:03.405Z</time></trkpt><trkpt lat="40.4092545" lon="15.1262662"><ele>609.5</ele><time>2026-04-19T08:17:04.405Z</time></trkpt><trkpt lat="40.4092427" lon="15.1263939"><ele>610.0</ele><time>2026-04-19T08:17:05.405Z</time></trkpt><trkpt lat="40.4092381" lon="15.1265178"><ele>610.5</ele><time>2026-04-19T08:17:06.404Z</time></trkpt><trkpt lat="40.4092211" lon="15.126615"><ele>611.0</ele><time>2026-04-19T08:17:07.404Z</time></trkpt><trkpt lat="40.4091427" lon="15.1267296"><ele>611.4</ele><time>2026-04-19T08:17:09.404Z</time></trkpt><trkpt lat="40.4090798" lon="15.1267514"><ele>611.8</ele><time>2026-04-19T08:17:10.404Z</time></trkpt><trkpt lat="40.4089955" lon="15.1267576"><ele>612.1999999999999</ele><time>2026-04-19T08:17:11.404Z</time></trkpt><trkpt lat="40.408892" lon="15.126751"><ele>612.6</ele><time>2026-04-19T08:17:12.405Z</time></trkpt><trkpt lat="40.4087837" lon="15.1267436"><ele>613.0</ele><time>2026-04-19T08:17:13.405Z</time></trkpt><trkpt lat="40.4086844" lon="15.1267335"><ele>613.0</ele><time>2026-04-19T08:17:14.406Z</time></trkpt><trkpt lat="40.4085933" lon="15.1267191"><ele>613.0</ele><time>2026-04-19T08:17:15.404Z</time></trkpt><trkpt lat="40.408496" lon="15.1266939"><ele>613.0</ele><time>2026-04-19T08:17:16.404Z</time></trkpt><trkpt lat="40.4084122" lon="15.1266616"><ele>613.0</ele><time>2026-04-19T08:17:17.404Z</time></trkpt><trkpt lat="40.40834" lon="15.1266225"><ele>613.0</ele><time>2026-04-19T08:17:18.404Z</time></trkpt><trkpt lat="40.4082782" lon="15.1265969"><ele>613.0</ele><time>2026-04-19T08:17:19.405Z</time></trkpt><trkpt lat="40.4082022" lon="15.1266044"><ele>613.0</ele><time>2026-04-19T08:17:21.404Z</time></trkpt><trkpt lat="40.4081348" lon="15.1266645"><ele>613.0</ele><time>2026-04-19T08:17:24.404Z</time></trkpt><trkpt lat="40.4080771" lon="15.1267368"><ele>613.0</ele><time>2026-04-19T08:18:15.405Z</time></trkpt><trkpt lat="40.4080218" lon="15.1267818"><ele>613.0</ele><time>2026-04-19T08:18:16.404Z</time></trkpt><trkpt lat="40.4079608" lon="15.1268246"><ele>613.0</ele><time>2026-04-19T08:18:17.404Z</time></trkpt><trkpt lat="40.407866" lon="15.1268978"><ele>613.0</ele><time>2026-04-19T08:18:19.405Z</time></trkpt><trkpt lat="40.4077534" lon="15.1269885"><ele>611.8</ele><time>2026-04-19T08:18:21.404Z</time></trkpt><trkpt lat="40.4076826" lon="15.1270454"><ele>610.5999999999999</ele><time>2026-04-19T08:18:22.404Z</time></trkpt><trkpt lat="40.4076095" lon="15.1271136"><ele>609.4000000000001</ele><time>2026-04-19T08:18:23.404Z</time></trkpt><trkpt lat="40.4075338" lon="15.1271973"><ele>608.2</ele><time>2026-04-19T08:18:24.404Z</time></trkpt><trkpt lat="40.4074585" lon="15.1272864"><ele>607.0</ele><time>2026-04-19T08:18:25.405Z</time></trkpt><trkpt lat="40.4073721" lon="15.1273865"><ele>607.75</ele><time>2026-04-19T08:18:26.404Z</time></trkpt><trkpt lat="40.4072757" lon="15.1274836"><ele>608.5</ele><time>2026-04-19T08:18:27.405Z</time></trkpt><trkpt lat="40.4071863" lon="15.1275746"><ele>609.25</ele><time>2026-04-19T08:18:28.404Z</time></trkpt><trkpt lat="40.4071005" lon="15.1276633"><ele>610.0</ele><time>2026-04-19T08:18:29.404Z</time></trkpt><trkpt lat="40.4070099" lon="15.1277384"><ele>610.0</ele><time>2026-04-19T08:18:30.404Z</time></trkpt><trkpt lat="40.4069081" lon="15.1278042"><ele>610.0</ele><time>2026-04-19T08:18:31.405Z</time></trkpt><trkpt lat="40.4068001" lon="15.1278726"><ele>610.0</ele><time>2026-04-19T08:18:32.404Z</time></trkpt><trkpt lat="40.4066939" lon="15.12794"><ele>610.0</ele><time>2026-04-19T08:18:33.404Z</time></trkpt><trkpt lat="40.4065996" lon="15.1280135"><ele>610.0</ele><time>2026-04-19T08:18:34.405Z</time></trkpt><trkpt lat="40.4065211" lon="15.1280947"><ele>610.0</ele><time>2026-04-19T08:18:35.405Z</time></trkpt><trkpt lat="40.4064532" lon="15.1281754"><ele>610.0</ele><time>2026-04-19T08:18:36.404Z</time></trkpt><trkpt lat="40.4063889" lon="15.1282685"><ele>610.0</ele><time>2026-04-19T08:18:37.404Z</time></trkpt><trkpt lat="40.4063346" lon="15.1283728"><ele>610.0</ele><time>2026-04-19T08:18:38.404Z</time></trkpt><trkpt lat="40.406273" lon="15.128501"><ele>612.0</ele><time>2026-04-19T08:18:39.404Z</time></trkpt><trkpt lat="40.4062238" lon="15.1286248"><ele>614.0</ele><time>2026-04-19T08:18:40.404Z</time></trkpt><trkpt lat="40.4061805" lon="15.1287331"><ele>616.0</ele><time>2026-04-19T08:18:41.404Z</time></trkpt><trkpt lat="40.4061287" lon="15.1288243"><ele>618.0</ele><time>2026-04-19T08:18:42.404Z</time></trkpt><trkpt lat="40.406062" lon="15.1289074"><ele>620.0</ele><time>2026-04-19T08:18:43.404Z</time></trkpt><trkpt lat="40.4059835" lon="15.1289833"><ele>621.8</ele><time>2026-04-19T08:18:44.404Z</time></trkpt><trkpt lat="40.4059119" lon="15.1290791"><ele>623.6</ele><time>2026-04-19T08:18:45.404Z</time></trkpt><trkpt lat="40.4058452" lon="15.1291719"><ele>625.4</ele><time>2026-04-19T08:18:46.404Z</time></trkpt><trkpt lat="40.4057802" lon="15.1292636"><ele>627.2</ele><time>2026-04-19T08:18:47.404Z</time></trkpt><trkpt lat="40.4057123" lon="15.1293491"><ele>629.0</ele><time>2026-04-19T08:18:48.404Z</time></trkpt><trkpt lat="40.4056424" lon="15.129409"><ele>629.0</ele><time>2026-04-19T08:18:49.405Z</time></trkpt><trkpt lat="40.4055748" lon="15.1294644"><ele>629.0</ele><time>2026-04-19T08:18:50.404Z</time></trkpt><trkpt lat="40.4054822" lon="15.1294666"><ele>629.0</ele><time>2026-04-19T08:18:51.405Z</time></trkpt><trkpt lat="40.4053852" lon="15.1294634"><ele>629.0</ele><time>2026-04-19T08:18:52.404Z</time></trkpt><trkpt lat="40.4052704" lon="15.1294777"><ele>629.0</ele><time>2026-04-19T08:18:53.404Z</time></trkpt><trkpt lat="40.4051586" lon="15.1295109"><ele>628.4</ele><time>2026-04-19T08:18:54.405Z</time></trkpt><trkpt lat="40.4050491" lon="15.1295571"><ele>627.8</ele><time>2026-04-19T08:18:55.404Z</time></trkpt><trkpt lat="40.4049591" lon="15.1296038"><ele>627.2</ele><time>2026-04-19T08:18:56.404Z</time></trkpt><trkpt lat="40.4048875" lon="15.1296718"><ele>626.6</ele><time>2026-04-19T08:18:57.404Z</time></trkpt><trkpt lat="40.4048233" lon="15.1297559"><ele>626.0</ele><time>2026-04-19T08:18:58.404Z</time></trkpt><trkpt lat="40.4047733" lon="15.1298423"><ele>626.3333333333333</ele><time>2026-04-19T08:18:59.404Z</time></trkpt><trkpt lat="40.4047183" lon="15.1299206"><ele>626.6666666666666</ele><time>2026-04-19T08:19:00.404Z</time></trkpt><trkpt lat="40.404662" lon="15.129998"><ele>627.0</ele><time>2026-04-19T08:19:01.404Z</time></trkpt><trkpt lat="40.4046055" lon="15.130066"><ele>627.3333333333334</ele><time>2026-04-19T08:19:02.404Z</time></trkpt><trkpt lat="40.4045454" lon="15.1301301"><ele>627.6666666666667</ele><time>2026-04-19T08:19:03.405Z</time></trkpt><trkpt lat="40.4044927" lon="15.1301824"><ele>628.0</ele><time>2026-04-19T08:19:04.404Z</time></trkpt><trkpt lat="40.4044038" lon="15.1302475"><ele>628.0</ele><time>2026-04-19T08:19:06.404Z</time></trkpt><trkpt lat="40.4043492" lon="15.1303247"><ele>628.0</ele><time>2026-04-19T08:19:08.404Z</time></trkpt><trkpt lat="40.4043436" lon="15.1304831"><ele>628.0</ele><time>2026-04-19T08:19:10.404Z</time></trkpt><trkpt lat="40.4043551" lon="15.130583"><ele>628.0</ele><time>2026-04-19T08:19:11.405Z</time></trkpt><trkpt lat="40.4043713" lon="15.1307184"><ele>628.0</ele><time>2026-04-19T08:19:12.405Z</time></trkpt><trkpt lat="40.4043944" lon="15.1308638"><ele>629.4</ele><time>2026-04-19T08:19:13.404Z</time></trkpt><trkpt lat="40.4044293" lon="15.1310162"><ele>630.8</ele><time>2026-04-19T08:19:14.404Z</time></trkpt><trkpt lat="40.4044762" lon="15.1311429"><ele>632.2</ele><time>2026-04-19T08:19:15.404Z</time></trkpt><trkpt lat="40.4045339" lon="15.1312492"><ele>633.6</ele><time>2026-04-19T08:19:16.405Z</time></trkpt><trkpt lat="40.4046043" lon="15.1313575"><ele>635.0</ele><time>2026-04-19T08:19:17.404Z</time></trkpt><trkpt lat="40.4046848" lon="15.1314577"><ele>636.25</ele><time>2026-04-19T08:19:18.404Z</time></trkpt><trkpt lat="40.4047841" lon="15.1315567"><ele>637.5</ele><time>2026-04-19T08:19:19.404Z</time></trkpt><trkpt lat="40.4048913" lon="15.1316409"><ele>638.75</ele><time>2026-04-19T08:19:20.404Z</time></trkpt><trkpt lat="40.4049842" lon="15.1317298"><ele>640.0</ele><time>2026-04-19T08:19:21.404Z</time></trkpt><trkpt lat="40.4050569" lon="15.1318371"><ele>642.0</ele><time>2026-04-19T08:19:22.405Z</time></trkpt><trkpt lat="40.4051127" lon="15.1319596"><ele>644.0</ele><time>2026-04-19T08:19:23.404Z</time></trkpt><trkpt lat="40.405166" lon="15.1320979"><ele>646.0</ele><time>2026-04-19T08:19:24.404Z</time></trkpt><trkpt lat="40.4052283" lon="15.1322417"><ele>648.0</ele><time>2026-04-19T08:19:25.405Z</time></trkpt><trkpt lat="40.405296" lon="15.1323711"><ele>650.0</ele><time>2026-04-19T08:19:26.404Z</time></trkpt><trkpt lat="40.4053598" lon="15.1324828"><ele>652.0</ele><time>2026-04-19T08:19:27.404Z</time></trkpt><trkpt lat="40.4053998" lon="15.1326056"><ele>654.0</ele><time>2026-04-19T08:19:28.404Z</time></trkpt><trkpt lat="40.4054218" lon="15.1327579"><ele>656.0</ele><time>2026-04-19T08:19:29.404Z</time></trkpt><trkpt lat="40.4054473" lon="15.1329222"><ele>656.0</ele><time>2026-04-19T08:19:30.405Z</time></trkpt><trkpt lat="40.4054663" lon="15.1330888"><ele>656.0</ele><time>2026-04-19T08:19:31.404Z</time></trkpt><trkpt lat="40.4054757" lon="15.1332554"><ele>656.0</ele><time>2026-04-19T08:19:32.404Z</time></trkpt><trkpt lat="40.4054881" lon="15.1334235"><ele>656.0</ele><time>2026-04-19T08:19:33.404Z</time></trkpt><trkpt lat="40.4055114" lon="15.1335798"><ele>659.25</ele><time>2026-04-19T08:19:34.404Z</time></trkpt><trkpt lat="40.4055487" lon="15.1337255"><ele>662.5</ele><time>2026-04-19T08:19:35.404Z</time></trkpt><trkpt lat="40.4055961" lon="15.1338745"><ele>665.75</ele><time>2026-04-19T08:19:36.404Z</time></trkpt><trkpt lat="40.4056338" lon="15.1340272"><ele>669.0</ele><time>2026-04-19T08:19:37.404Z</time></trkpt><trkpt lat="40.4056679" lon="15.1341823"><ele>671.75</ele><time>2026-04-19T08:19:38.404Z</time></trkpt><trkpt lat="40.4057246" lon="15.1343283"><ele>674.5</ele><time>2026-04-19T08:19:39.404Z</time></trkpt><trkpt lat="40.4057892" lon="15.1344565"><ele>677.25</ele><time>2026-04-19T08:19:40.404Z</time></trkpt><trkpt lat="40.4058635" lon="15.1345749"><ele>680.0</ele><time>2026-04-19T08:19:41.404Z</time></trkpt><trkpt lat="40.4059398" lon="15.1346791"><ele>680.0</ele><time>2026-04-19T08:19:42.405Z</time></trkpt><trkpt lat="40.4060078" lon="15.134779"><ele>680.0</ele><time>2026-04-19T08:19:43.404Z</time></trkpt><trkpt lat="40.4060808" lon="15.1348765"><ele>680.0</ele><time>2026-04-19T08:19:44.404Z</time></trkpt><trkpt lat="40.4061665" lon="15.1349536"><ele>680.0</ele><time>2026-04-19T08:19:45.405Z</time></trkpt><trkpt lat="40.40626" lon="15.1349976"><ele>680.0</ele><time>2026-04-19T08:19:46.404Z</time></trkpt><trkpt lat="40.4063549" lon="15.1350292"><ele>683.6666666666666</ele><time>2026-04-19T08:19:47.404Z</time></trkpt><trkpt lat="40.4064219" lon="15.135074"><ele>687.3333333333333</ele><time>2026-04-19T08:19:48.404Z</time></trkpt><trkpt lat="40.4064719" lon="15.1351347"><ele>691.0</ele><time>2026-04-19T08:19:49.404Z</time></trkpt><trkpt lat="40.4065107" lon="15.135216"><ele>694.6666666666666</ele><time>2026-04-19T08:19:50.405Z</time></trkpt><trkpt lat="40.4065319" lon="15.135309"><ele>698.3333333333334</ele><time>2026-04-19T08:19:51.404Z</time></trkpt><trkpt lat="40.4065281" lon="15.1354031"><ele>702.0</ele><time>2026-04-19T08:19:52.404Z</time></trkpt><trkpt lat="40.4064515" lon="15.1355511"><ele>702.0</ele><time>2026-04-19T08:19:54.404Z</time></trkpt><trkpt lat="40.4063898" lon="15.1356193"><ele>702.0</ele><time>2026-04-19T08:19:55.404Z</time></trkpt><trkpt lat="40.4063147" lon="15.1356874"><ele>702.0</ele><time>2026-04-19T08:19:56.404Z</time></trkpt><trkpt lat="40.4062262" lon="15.1357693"><ele>702.0</ele><time>2026-04-19T08:19:57.405Z</time></trkpt><trkpt lat="40.406125" lon="15.135864"><ele>702.0</ele><time>2026-04-19T08:19:58.405Z</time></trkpt><trkpt lat="40.4060297" lon="15.13595"><ele>702.25</ele><time>2026-04-19T08:19:59.404Z</time></trkpt><trkpt lat="40.405932" lon="15.1360388"><ele>702.5</ele><time>2026-04-19T08:20:00.405Z</time></trkpt><trkpt lat="40.4058363" lon="15.1361337"><ele>702.75</ele><time>2026-04-19T08:20:01.404Z</time></trkpt><trkpt lat="40.4057444" lon="15.1362303"><ele>703.0</ele><time>2026-04-19T08:20:02.405Z</time></trkpt><trkpt lat="40.4056582" lon="15.136327"><ele>703.0</ele><time>2026-04-19T08:20:03.405Z</time></trkpt><trkpt lat="40.4055706" lon="15.1364254"><ele>703.0</ele><time>2026-04-19T08:20:04.404Z</time></trkpt><trkpt lat="40.4054796" lon="15.1365283"><ele>703.0</ele><time>2026-04-19T08:20:05.404Z</time></trkpt><trkpt lat="40.4053817" lon="15.1366346"><ele>703.0</ele><time>2026-04-19T08:20:06.404Z</time></trkpt><trkpt lat="40.405272" lon="15.1367498"><ele>706.6666666666667</ele><time>2026-04-19T08:20:07.404Z</time></trkpt><trkpt lat="40.4051456" lon="15.136873"><ele>710.3333333333334</ele><time>2026-04-19T08:20:08.404Z</time></trkpt><trkpt lat="40.4050101" lon="15.1369885"><ele>714.0</ele><time>2026-04-19T08:20:09.404Z</time></trkpt><trkpt lat="40.4048903" lon="15.1370951"><ele>714.0</ele><time>2026-04-19T08:20:10.404Z</time></trkpt><trkpt lat="40.4047824" lon="15.1371873"><ele>714.0</ele><time>2026-04-19T08:20:11.404Z</time></trkpt><trkpt lat="40.4046897" lon="15.1372698"><ele>714.0</ele><time>2026-04-19T08:20:12.404Z</time></trkpt><trkpt lat="40.4046174" lon="15.1373458"><ele>714.0</ele><time>2026-04-19T08:20:13.404Z</time></trkpt><trkpt lat="40.4045686" lon="15.1374076"><ele>714.0</ele><time>2026-04-19T08:20:14.404Z</time></trkpt><trkpt lat="40.4045533" lon="15.1375358"><ele>716.8000000000001</ele><time>2026-04-19T08:20:16.404Z</time></trkpt><trkpt lat="40.4046599" lon="15.1376131"><ele>719.6</ele><time>2026-04-19T08:20:18.404Z</time></trkpt><trkpt lat="40.404748" lon="15.1376184"><ele>722.4</ele><time>2026-04-19T08:20:19.404Z</time></trkpt><trkpt lat="40.4048405" lon="15.1376386"><ele>725.2</ele><time>2026-04-19T08:20:20.405Z</time></trkpt><trkpt lat="40.4049401" lon="15.1376708"><ele>728.0</ele><time>2026-04-19T08:20:21.405Z</time></trkpt><trkpt lat="40.4050531" lon="15.1377215"><ele>728.75</ele><time>2026-04-19T08:20:22.404Z</time></trkpt><trkpt lat="40.4052123" lon="15.1377921"><ele>729.5</ele><time>2026-04-19T08:20:23.404Z</time></trkpt><trkpt lat="40.405342" lon="15.1378622"><ele>730.25</ele><time>2026-04-19T08:20:24.405Z</time></trkpt><trkpt lat="40.4054655" lon="15.137925"><ele>731.0</ele><time>2026-04-19T08:20:25.405Z</time></trkpt><trkpt lat="40.4055882" lon="15.1379784"><ele>732.25</ele><time>2026-04-19T08:20:26.405Z</time></trkpt><trkpt lat="40.4057116" lon="15.1380226"><ele>733.5</ele><time>2026-04-19T08:20:27.405Z</time></trkpt><trkpt lat="40.4058373" lon="15.1380583"><ele>734.75</ele><time>2026-04-19T08:20:28.404Z</time></trkpt><trkpt lat="40.4059588" lon="15.1380924"><ele>736.0</ele><time>2026-04-19T08:20:29.404Z</time></trkpt><trkpt lat="40.4060785" lon="15.1381342"><ele>736.0</ele><time>2026-04-19T08:20:30.404Z</time></trkpt><trkpt lat="40.4061988" lon="15.1381757"><ele>736.0</ele><time>2026-04-19T08:20:31.404Z</time></trkpt><trkpt lat="40.4063139" lon="15.1382115"><ele>736.0</ele><time>2026-04-19T08:20:32.405Z</time></trkpt><trkpt lat="40.4064253" lon="15.1382469"><ele>736.0</ele><time>2026-04-19T08:20:33.405Z</time></trkpt><trkpt lat="40.4065334" lon="15.13828"><ele>742.0</ele><time>2026-04-19T08:20:34.404Z</time></trkpt><trkpt lat="40.4066419" lon="15.1382947"><ele>748.0</ele><time>2026-04-19T08:20:35.405Z</time></trkpt><trkpt lat="40.4067579" lon="15.1382881"><ele>754.0</ele><time>2026-04-19T08:20:36.405Z</time></trkpt><trkpt lat="40.4068804" lon="15.1382665"><ele>760.0</ele><time>2026-04-19T08:20:37.404Z</time></trkpt><trkpt lat="40.4070016" lon="15.1382559"><ele>760.0</ele><time>2026-04-19T08:20:38.404Z</time></trkpt><trkpt lat="40.4070918" lon="15.1382674"><ele>760.0</ele><time>2026-04-19T08:20:39.405Z</time></trkpt><trkpt lat="40.4071649" lon="15.1382954"><ele>760.0</ele><time>2026-04-19T08:20:40.404Z</time></trkpt><trkpt lat="40.4072162" lon="15.138368"><ele>760.0</ele><time>2026-04-19T08:20:41.404Z</time></trkpt><trkpt lat="40.4072507" lon="15.138478"><ele>760.0</ele><time>2026-04-19T08:20:42.404Z</time></trkpt><trkpt lat="40.407273" lon="15.1386258"><ele>760.0</ele><time>2026-04-19T08:20:43.404Z</time></trkpt><trkpt lat="40.4072873" lon="15.1388069"><ele>760.75</ele><time>2026-04-19T08:20:44.404Z</time></trkpt><trkpt lat="40.4072945" lon="15.1390024"><ele>761.5</ele><time>2026-04-19T08:20:45.404Z</time></trkpt><trkpt lat="40.4073197" lon="15.13918"><ele>762.25</ele><time>2026-04-19T08:20:46.404Z</time></trkpt><trkpt lat="40.4073702" lon="15.1393233"><ele>763.0</ele><time>2026-04-19T08:20:47.404Z</time></trkpt><trkpt lat="40.4074273" lon="15.1394426"><ele>764.8333333333334</ele><time>2026-04-19T08:20:48.404Z</time></trkpt><trkpt lat="40.4074722" lon="15.1395693"><ele>766.6666666666667</ele><time>2026-04-19T08:20:49.404Z</time></trkpt><trkpt lat="40.4074787" lon="15.1396903"><ele>768.5</ele><time>2026-04-19T08:20:50.404Z</time></trkpt><trkpt lat="40.4074546" lon="15.1397873"><ele>770.3333333333334</ele><time>2026-04-19T08:20:51.405Z</time></trkpt><trkpt lat="40.4073997" lon="15.1398647"><ele>772.1666666666666</ele><time>2026-04-19T08:20:52.405Z</time></trkpt><trkpt lat="40.4073398" lon="15.1399382"><ele>774.0</ele><time>2026-04-19T08:20:53.404Z</time></trkpt><trkpt lat="40.407292" lon="15.1400116"><ele>776.6</ele><time>2026-04-19T08:20:54.405Z</time></trkpt><trkpt lat="40.4072763" lon="15.1401434"><ele>779.2</ele><time>2026-04-19T08:20:56.405Z</time></trkpt><trkpt lat="40.4073619" lon="15.1402185"><ele>781.8000000000001</ele><time>2026-04-19T08:20:58.404Z</time></trkpt><trkpt lat="40.4074985" lon="15.1402127"><ele>784.4000000000001</ele><time>2026-04-19T08:21:00.404Z</time></trkpt><trkpt lat="40.407585" lon="15.1401966"><ele>787.0</ele><time>2026-04-19T08:21:01.404Z</time></trkpt><trkpt lat="40.4076952" lon="15.140181"><ele>787.0</ele><time>2026-04-19T08:21:02.404Z</time></trkpt><trkpt lat="40.4078151" lon="15.1401693"><ele>787.0</ele><time>2026-04-19T08:21:03.404Z</time></trkpt><trkpt lat="40.4079347" lon="15.1401561"><ele>787.0</ele><time>2026-04-19T08:21:04.404Z</time></trkpt><trkpt lat="40.4080628" lon="15.1401444"><ele>787.0</ele><time>2026-04-19T08:21:05.404Z</time></trkpt><trkpt lat="40.4081967" lon="15.1401347"><ele>788.5</ele><time>2026-04-19T08:21:06.405Z</time></trkpt><trkpt lat="40.4083361" lon="15.1401266"><ele>790.0</ele><time>2026-04-19T08:21:07.404Z</time></trkpt><trkpt lat="40.408466" lon="15.1401252"><ele>791.5</ele><time>2026-04-19T08:21:08.404Z</time></trkpt><trkpt lat="40.4085941" lon="15.1401279"><ele>793.0</ele><time>2026-04-19T08:21:09.404Z</time></trkpt><trkpt lat="40.408726" lon="15.140136"><ele>794.5999999999999</ele><time>2026-04-19T08:21:10.404Z</time></trkpt><trkpt lat="40.4088544" lon="15.140147"><ele>796.1999999999999</ele><time>2026-04-19T08:21:11.404Z</time></trkpt><trkpt lat="40.4089715" lon="15.1401635"><ele>797.8</ele><time>2026-04-19T08:21:12.405Z</time></trkpt><trkpt lat="40.4090735" lon="15.1401913"><ele>799.4</ele><time>2026-04-19T08:21:13.404Z</time></trkpt><trkpt lat="40.4091594" lon="15.1402348"><ele>801.0</ele><time>2026-04-19T08:21:14.404Z</time></trkpt><trkpt lat="40.4092385" lon="15.1403116"><ele>801.0</ele><time>2026-04-19T08:21:15.404Z</time></trkpt><trkpt lat="40.4093023" lon="15.140427"><ele>801.0</ele><time>2026-04-19T08:21:16.405Z</time></trkpt><trkpt lat="40.4093513" lon="15.1405647"><ele>801.0</ele><time>2026-04-19T08:21:17.404Z</time></trkpt><trkpt lat="40.4093828" lon="15.1406914"><ele>801.0</ele><time>2026-04-19T08:21:18.405Z</time></trkpt><trkpt lat="40.4093786" lon="15.1407875"><ele>801.0</ele><time>2026-04-19T08:21:19.404Z</time></trkpt><trkpt lat="40.4093401" lon="15.1408584"><ele>802.0</ele><time>2026-04-19T08:21:20.404Z</time></trkpt><trkpt lat="40.4092728" lon="15.1409182"><ele>803.0</ele><time>2026-04-19T08:21:21.404Z</time></trkpt><trkpt lat="40.4091819" lon="15.1409753"><ele>804.0</ele><time>2026-04-19T08:21:22.404Z</time></trkpt><trkpt lat="40.4090797" lon="15.1410541"><ele>805.0</ele><time>2026-04-19T08:21:23.404Z</time></trkpt><trkpt lat="40.4089732" lon="15.1411379"><ele>806.0</ele><time>2026-04-19T08:21:24.404Z</time></trkpt><trkpt lat="40.4088639" lon="15.1412278"><ele>805.5</ele><time>2026-04-19T08:21:25.404Z</time></trkpt><trkpt lat="40.4087711" lon="15.1413483"><ele>805.0</ele><time>2026-04-19T08:21:26.404Z</time></trkpt><trkpt lat="40.4087184" lon="15.1414838"><ele>804.5</ele><time>2026-04-19T08:21:27.404Z</time></trkpt><trkpt lat="40.4086965" lon="15.1416352"><ele>804.0</ele><time>2026-04-19T08:21:28.404Z</time></trkpt><trkpt lat="40.4087061" lon="15.141786"><ele>807.0</ele><time>2026-04-19T08:21:29.404Z</time></trkpt><trkpt lat="40.4087369" lon="15.1419368"><ele>810.0</ele><time>2026-04-19T08:21:30.404Z</time></trkpt><trkpt lat="40.4087652" lon="15.1420892"><ele>813.0</ele><time>2026-04-19T08:21:31.404Z</time></trkpt><trkpt lat="40.4087983" lon="15.1422463"><ele>816.0</ele><time>2026-04-19T08:21:32.404Z</time></trkpt><trkpt lat="40.4088313" lon="15.1424083"><ele>818.0</ele><time>2026-04-19T08:21:33.405Z</time></trkpt><trkpt lat="40.4088625" lon="15.1425739"><ele>820.0</ele><time>2026-04-19T08:21:34.405Z</time></trkpt><trkpt lat="40.4088957" lon="15.1427422"><ele>822.0</ele><time>2026-04-19T08:21:35.404Z</time></trkpt><trkpt lat="40.408924" lon="15.1429113"><ele>824.0</ele><time>2026-04-19T08:21:36.405Z</time></trkpt><trkpt lat="40.4089504" lon="15.1430793"><ele>827.5</ele><time>2026-04-19T08:21:37.405Z</time></trkpt><trkpt lat="40.40898" lon="15.1432436"><ele>831.0</ele><time>2026-04-19T08:21:38.404Z</time></trkpt><trkpt lat="40.409008" lon="15.1434039"><ele>834.5</ele><time>2026-04-19T08:21:39.404Z</time></trkpt><trkpt lat="40.4090375" lon="15.1435565"><ele>838.0</ele><time>2026-04-19T08:21:40.404Z</time></trkpt><trkpt lat="40.4090655" lon="15.1437069"><ele>838.0</ele><time>2026-04-19T08:21:41.404Z</time></trkpt><trkpt lat="40.4090966" lon="15.1438594"><ele>838.0</ele><time>2026-04-19T08:21:42.405Z</time></trkpt><trkpt lat="40.4091278" lon="15.1440189"><ele>838.0</ele><time>2026-04-19T08:21:43.404Z</time></trkpt><trkpt lat="40.409163" lon="15.1441807"><ele>838.0</ele><time>2026-04-19T08:21:44.405Z</time></trkpt><trkpt lat="40.4092103" lon="15.1443457"><ele>843.25</ele><time>2026-04-19T08:21:45.404Z</time></trkpt><trkpt lat="40.4092585" lon="15.1445185"><ele>848.5</ele><time>2026-04-19T08:21:46.404Z</time></trkpt><trkpt lat="40.4093112" lon="15.1446901"><ele>853.75</ele><time>2026-04-19T08:21:47.404Z</time></trkpt><trkpt lat="40.4093626" lon="15.1448664"><ele>859.0</ele><time>2026-04-19T08:21:48.404Z</time></trkpt><trkpt lat="40.4094197" lon="15.1450269"><ele>863.5</ele><time>2026-04-19T08:21:49.404Z</time></trkpt><trkpt lat="40.4094842" lon="15.1451872"><ele>868.0</ele><time>2026-04-19T08:21:50.404Z</time></trkpt><trkpt lat="40.4095506" lon="15.1453528"><ele>872.5</ele><time>2026-04-19T08:21:51.404Z</time></trkpt><trkpt lat="40.4096046" lon="15.1455077"><ele>877.0</ele><time>2026-04-19T08:21:52.404Z</time></trkpt><trkpt lat="40.4096387" lon="15.1456521"><ele>878.5</ele><time>2026-04-19T08:21:53.404Z</time></trkpt><trkpt lat="40.4096563" lon="15.1457983"><ele>880.0</ele><time>2026-04-19T08:21:54.404Z</time></trkpt><trkpt lat="40.4096524" lon="15.1459513"><ele>881.5</ele><time>2026-04-19T08:21:55.405Z</time></trkpt><trkpt lat="40.4096372" lon="15.1461126"><ele>883.0</ele><time>2026-04-19T08:21:56.405Z</time></trkpt><trkpt lat="40.4096431" lon="15.1462738"><ele>881.5</ele><time>2026-04-19T08:21:57.404Z</time></trkpt><trkpt lat="40.4096686" lon="15.146441"><ele>880.0</ele><time>2026-04-19T08:21:58.404Z</time></trkpt><trkpt lat="40.4096978" lon="15.1466132"><ele>878.5</ele><time>2026-04-19T08:21:59.404Z</time></trkpt><trkpt lat="40.4097422" lon="15.1467812"><ele>877.0</ele><time>2026-04-19T08:22:00.404Z</time></trkpt><trkpt lat="40.4098162" lon="15.1469491"><ele>877.0</ele><time>2026-04-19T08:22:01.404Z</time></trkpt><trkpt lat="40.409889" lon="15.1471192"><ele>877.0</ele><time>2026-04-19T08:22:02.404Z</time></trkpt><trkpt lat="40.409946" lon="15.1473064"><ele>877.0</ele><time>2026-04-19T08:22:03.405Z</time></trkpt><trkpt lat="40.4099907" lon="15.147494"><ele>878.75</ele><time>2026-04-19T08:22:04.404Z</time></trkpt><trkpt lat="40.4100269" lon="15.1476865"><ele>880.5</ele><time>2026-04-19T08:22:05.405Z</time></trkpt><trkpt lat="40.4100599" lon="15.1478604"><ele>882.25</ele><time>2026-04-19T08:22:06.405Z</time></trkpt><trkpt lat="40.410109" lon="15.1480171"><ele>884.0</ele><time>2026-04-19T08:22:07.404Z</time></trkpt><trkpt lat="40.4101657" lon="15.1481533"><ele>883.5000000000001</ele><time>2026-04-19T08:22:08.404Z</time></trkpt><trkpt lat="40.4102301" lon="15.1482658"><ele>883.0</ele><time>2026-04-19T08:22:09.404Z</time></trkpt><trkpt lat="40.4102866" lon="15.1483607"><ele>882.5</ele><time>2026-04-19T08:22:10.404Z</time></trkpt><trkpt lat="40.4103349" lon="15.1484517"><ele>882.0</ele><time>2026-04-19T08:22:11.406Z</time></trkpt><trkpt lat="40.4103927" lon="15.1485062"><ele>881.5000000000001</ele><time>2026-04-19T08:22:12.405Z</time></trkpt><trkpt lat="40.4104618" lon="15.1485249"><ele>881.0</ele><time>2026-04-19T08:22:13.404Z</time></trkpt><trkpt lat="40.4105398" lon="15.1485085"><ele>881.0</ele><time>2026-04-19T08:22:14.404Z</time></trkpt><trkpt lat="40.4106329" lon="15.1484618"><ele>880.9999999999999</ele><time>2026-04-19T08:22:15.404Z</time></trkpt><trkpt lat="40.4107378" lon="15.1484"><ele>880.9999999999999</ele><time>2026-04-19T08:22:16.404Z</time></trkpt><trkpt lat="40.4108409" lon="15.1483503"><ele>881.0</ele><time>2026-04-19T08:22:17.404Z</time></trkpt><trkpt lat="40.41093" lon="15.1483445"><ele>881.0</ele><time>2026-04-19T08:22:18.404Z</time></trkpt><trkpt lat="40.4109956" lon="15.1483754"><ele>881.0</ele><time>2026-04-19T08:22:19.404Z</time></trkpt><trkpt lat="40.4110552" lon="15.1484436"><ele>880.9999999999999</ele><time>2026-04-19T08:22:20.405Z</time></trkpt><trkpt lat="40.4111109" lon="15.1485451"><ele>880.9999999999999</ele><time>2026-04-19T08:22:21.404Z</time></trkpt><trkpt lat="40.4111724" lon="15.1486727"><ele>881.0</ele><time>2026-04-19T08:22:22.404Z</time></trkpt><trkpt lat="40.4112368" lon="15.1487994"><ele>881.0</ele><time>2026-04-19T08:22:23.404Z</time></trkpt><trkpt lat="40.4113046" lon="15.1489234"><ele>884.5999999999999</ele><time>2026-04-19T08:22:24.404Z</time></trkpt><trkpt lat="40.4113678" lon="15.1490454"><ele>888.1999999999999</ele><time>2026-04-19T08:22:25.404Z</time></trkpt><trkpt lat="40.4114251" lon="15.1491456"><ele>891.8000000000001</ele><time>2026-04-19T08:22:26.404Z</time></trkpt><trkpt lat="40.411494" lon="15.149234"><ele>895.4000000000001</ele><time>2026-04-19T08:22:27.405Z</time></trkpt><trkpt lat="40.4115791" lon="15.1492739"><ele>899.0</ele><time>2026-04-19T08:22:28.405Z</time></trkpt><trkpt lat="40.411677" lon="15.1492665"><ele>899.0</ele><time>2026-04-19T08:22:29.404Z</time></trkpt><trkpt lat="40.4117808" lon="15.1492113"><ele>899.0</ele><time>2026-04-19T08:22:30.405Z</time></trkpt><trkpt lat="40.4118851" lon="15.1491288"><ele>899.0</ele><time>2026-04-19T08:22:31.405Z</time></trkpt><trkpt lat="40.4120016" lon="15.1490468"><ele>899.0</ele><time>2026-04-19T08:22:32.405Z</time></trkpt><trkpt lat="40.4121256" lon="15.1489691"><ele>901.75</ele><time>2026-04-19T08:22:33.404Z</time></trkpt><trkpt lat="40.4122413" lon="15.1488663"><ele>904.5</ele><time>2026-04-19T08:22:34.404Z</time></trkpt><trkpt lat="40.4123476" lon="15.1487306"><ele>907.25</ele><time>2026-04-19T08:22:35.405Z</time></trkpt><trkpt lat="40.4124456" lon="15.1485723"><ele>910.0</ele><time>2026-04-19T08:22:36.404Z</time></trkpt><trkpt lat="40.412535" lon="15.1484147"><ele>910.0</ele><time>2026-04-19T08:22:37.404Z</time></trkpt><trkpt lat="40.4126219" lon="15.1482657"><ele>910.0</ele><time>2026-04-19T08:22:38.405Z</time></trkpt><trkpt lat="40.4127105" lon="15.1481291"><ele>910.0</ele><time>2026-04-19T08:22:39.404Z</time></trkpt><trkpt lat="40.4127958" lon="15.147981"><ele>910.0</ele><time>2026-04-19T08:22:40.404Z</time></trkpt><trkpt lat="40.4128656" lon="15.1478111"><ele>908.6666666666666</ele><time>2026-04-19T08:22:41.404Z</time></trkpt><trkpt lat="40.4129254" lon="15.147625"><ele>907.3333333333333</ele><time>2026-04-19T08:22:42.404Z</time></trkpt><trkpt lat="40.4129836" lon="15.1474336"><ele>906.0</ele><time>2026-04-19T08:22:43.404Z</time></trkpt><trkpt lat="40.4130425" lon="15.1472482"><ele>910.75</ele><time>2026-04-19T08:22:44.404Z</time></trkpt><trkpt lat="40.4130956" lon="15.1470775"><ele>915.5</ele><time>2026-04-19T08:22:45.404Z</time></trkpt><trkpt lat="40.4131397" lon="15.1468978"><ele>920.25</ele><time>2026-04-19T08:22:46.404Z</time></trkpt><trkpt lat="40.4131759" lon="15.1467096"><ele>925.0</ele><time>2026-04-19T08:22:47.405Z</time></trkpt><trkpt lat="40.4132119" lon="15.1465215"><ele>925.0</ele><time>2026-04-19T08:22:48.404Z</time></trkpt><trkpt lat="40.4132474" lon="15.1463334"><ele>925.0</ele><time>2026-04-19T08:22:49.404Z</time></trkpt><trkpt lat="40.4132852" lon="15.1461367"><ele>925.0</ele><time>2026-04-19T08:22:50.404Z</time></trkpt><trkpt lat="40.4133286" lon="15.1459364"><ele>925.0</ele><time>2026-04-19T08:22:51.404Z</time></trkpt><trkpt lat="40.4133827" lon="15.1457351"><ele>925.0</ele><time>2026-04-19T08:22:52.404Z</time></trkpt><trkpt lat="40.413441" lon="15.1455536"><ele>925.0</ele><time>2026-04-19T08:22:53.404Z</time></trkpt><trkpt lat="40.4134986" lon="15.1453879"><ele>923.3333333333333</ele><time>2026-04-19T08:22:54.404Z</time></trkpt><trkpt lat="40.4135497" lon="15.1452349"><ele>921.6666666666666</ele><time>2026-04-19T08:22:55.404Z</time></trkpt><trkpt lat="40.4135841" lon="15.1451159"><ele>920.0</ele><time>2026-04-19T08:22:56.404Z</time></trkpt><trkpt lat="40.4136026" lon="15.145027"><ele>918.3333333333333</ele><time>2026-04-19T08:22:57.404Z</time></trkpt><trkpt lat="40.4136667" lon="15.1449624"><ele>916.6666666666666</ele><time>2026-04-19T08:22:59.404Z</time></trkpt><trkpt lat="40.4137063" lon="15.1450277"><ele>915.0</ele><time>2026-04-19T08:23:01.404Z</time></trkpt><trkpt lat="40.4136891" lon="15.1452135"><ele>915.0</ele><time>2026-04-19T08:23:03.405Z</time></trkpt><trkpt lat="40.4136753" lon="15.145354"><ele>915.0</ele><time>2026-04-19T08:23:04.404Z</time></trkpt><trkpt lat="40.4136622" lon="15.1455117"><ele>915.0</ele><time>2026-04-19T08:23:05.404Z</time></trkpt><trkpt lat="40.4136475" lon="15.1456707"><ele>915.0</ele><time>2026-04-19T08:23:06.405Z</time></trkpt><trkpt lat="40.4136326" lon="15.1458523"><ele>917.5</ele><time>2026-04-19T08:23:07.404Z</time></trkpt><trkpt lat="40.4136234" lon="15.1460436"><ele>920.0</ele><time>2026-04-19T08:23:08.404Z</time></trkpt><trkpt lat="40.4136235" lon="15.1462214"><ele>922.5</ele><time>2026-04-19T08:23:09.404Z</time></trkpt><trkpt lat="40.4136342" lon="15.1464245"><ele>925.0</ele><time>2026-04-19T08:23:10.404Z</time></trkpt><trkpt lat="40.4136551" lon="15.1466238"><ele>926.0</ele><time>2026-04-19T08:23:11.404Z</time></trkpt><trkpt lat="40.4136805" lon="15.1468011"><ele>927.0</ele><time>2026-04-19T08:23:12.404Z</time></trkpt><trkpt lat="40.4137154" lon="15.1469826"><ele>928.0</ele><time>2026-04-19T08:23:13.405Z</time></trkpt><trkpt lat="40.413753" lon="15.14716"><ele>929.0</ele><time>2026-04-19T08:23:14.404Z</time></trkpt><trkpt lat="40.4137892" lon="15.1473384"><ele>929.75</ele><time>2026-04-19T08:23:15.404Z</time></trkpt><trkpt lat="40.4138218" lon="15.1475185"><ele>930.5</ele><time>2026-04-19T08:23:16.404Z</time></trkpt><trkpt lat="40.4138561" lon="15.147697"><ele>931.25</ele><time>2026-04-19T08:23:17.404Z</time></trkpt><trkpt lat="40.4138874" lon="15.1478592"><ele>932.0</ele><time>2026-04-19T08:23:18.404Z</time></trkpt><trkpt lat="40.4139161" lon="15.1480269"><ele>942.25</ele><time>2026-04-19T08:23:19.404Z</time></trkpt><trkpt lat="40.4139301" lon="15.1482085"><ele>952.5</ele><time>2026-04-19T08:23:20.404Z</time></trkpt><trkpt lat="40.4139286" lon="15.1484006"><ele>962.75</ele><time>2026-04-19T08:23:21.405Z</time></trkpt><trkpt lat="40.4139224" lon="15.1485961"><ele>973.0</ele><time>2026-04-19T08:23:22.404Z</time></trkpt><trkpt lat="40.4139096" lon="15.1487724"><ele>973.5</ele><time>2026-04-19T08:23:23.404Z</time></trkpt><trkpt lat="40.4139026" lon="15.1489547"><ele>974.0</ele><time>2026-04-19T08:23:24.404Z</time></trkpt><trkpt lat="40.4139007" lon="15.1491369"><ele>974.5</ele><time>2026-04-19T08:23:25.404Z</time></trkpt><trkpt lat="40.4138877" lon="15.1493171"><ele>975.0</ele><time>2026-04-19T08:23:26.404Z</time></trkpt><trkpt lat="40.4138591" lon="15.1495013"><ele>967.0</ele><time>2026-04-19T08:23:27.404Z</time></trkpt><trkpt lat="40.4138163" lon="15.1496882"><ele>959.0</ele><time>2026-04-19T08:23:28.404Z</time></trkpt><trkpt lat="40.4137609" lon="15.1498775"><ele>951.0</ele><time>2026-04-19T08:23:29.404Z</time></trkpt><trkpt lat="40.413697" lon="15.1500648"><ele>951.0</ele><time>2026-04-19T08:23:30.405Z</time></trkpt><trkpt lat="40.4136284" lon="15.1502405"><ele>951.0</ele><time>2026-04-19T08:23:31.405Z</time></trkpt><trkpt lat="40.4135672" lon="15.1504042"><ele>951.0</ele><time>2026-04-19T08:23:32.404Z</time></trkpt><trkpt lat="40.4135174" lon="15.1505774"><ele>951.0</ele><time>2026-04-19T08:23:33.405Z</time></trkpt><trkpt lat="40.4134808" lon="15.1507544"><ele>955.0</ele><time>2026-04-19T08:23:34.404Z</time></trkpt><trkpt lat="40.4134583" lon="15.1509443"><ele>959.0</ele><time>2026-04-19T08:23:35.404Z</time></trkpt><trkpt lat="40.413448" lon="15.1511372"><ele>963.0</ele><time>2026-04-19T08:23:36.404Z</time></trkpt><trkpt lat="40.4134397" lon="15.1513346"><ele>967.0</ele><time>2026-04-19T08:23:37.404Z</time></trkpt><trkpt lat="40.4134314" lon="15.1515384"><ele>970.0</ele><time>2026-04-19T08:23:38.405Z</time></trkpt><trkpt lat="40.4134212" lon="15.1517479"><ele>973.0</ele><time>2026-04-19T08:23:39.404Z</time></trkpt><trkpt lat="40.4134093" lon="15.1519622"><ele>976.0</ele><time>2026-04-19T08:23:40.404Z</time></trkpt><trkpt lat="40.4133982" lon="15.1521828"><ele>978.0</ele><time>2026-04-19T08:23:41.405Z</time></trkpt><trkpt lat="40.4133889" lon="15.152408"><ele>980.0</ele><time>2026-04-19T08:23:42.405Z</time></trkpt><trkpt lat="40.4133828" lon="15.1526282"><ele>982.0</ele><time>2026-04-19T08:23:43.404Z</time></trkpt><trkpt lat="40.4133816" lon="15.1528397"><ele>982.0</ele><time>2026-04-19T08:23:44.404Z</time></trkpt><trkpt lat="40.4133902" lon="15.1530524"><ele>982.0</ele><time>2026-04-19T08:23:45.404Z</time></trkpt><trkpt lat="40.4134187" lon="15.1532684"><ele>982.0</ele><time>2026-04-19T08:23:46.404Z</time></trkpt><trkpt lat="40.4134537" lon="15.1534663"><ele>983.75</ele><time>2026-04-19T08:23:47.405Z</time></trkpt><trkpt lat="40.4134922" lon="15.153651"><ele>985.5</ele><time>2026-04-19T08:23:48.405Z</time></trkpt><trkpt lat="40.4135383" lon="15.1538397"><ele>987.25</ele><time>2026-04-19T08:23:49.404Z</time></trkpt><trkpt lat="40.4135918" lon="15.154024"><ele>989.0</ele><time>2026-04-19T08:23:50.405Z</time></trkpt><trkpt lat="40.4136457" lon="15.154189"><ele>989.5</ele><time>2026-04-19T08:23:51.404Z</time></trkpt><trkpt lat="40.4136925" lon="15.15435"><ele>990.0</ele><time>2026-04-19T08:23:52.405Z</time></trkpt><trkpt lat="40.4137218" lon="15.1545155"><ele>990.5</ele><time>2026-04-19T08:23:53.404Z</time></trkpt><trkpt lat="40.413713" lon="15.1547018"><ele>991.0</ele><time>2026-04-19T08:23:54.404Z</time></trkpt><trkpt lat="40.4136858" lon="15.1548792"><ele>993.0</ele><time>2026-04-19T08:23:55.404Z</time></trkpt><trkpt lat="40.4136441" lon="15.1550651"><ele>995.0</ele><time>2026-04-19T08:23:56.405Z</time></trkpt><trkpt lat="40.4135995" lon="15.1552616"><ele>997.0</ele><time>2026-04-19T08:23:57.405Z</time></trkpt><trkpt lat="40.4135495" lon="15.1554535"><ele>997.0</ele><time>2026-04-19T08:23:58.404Z</time></trkpt><trkpt lat="40.4134917" lon="15.1556285"><ele>997.0</ele><time>2026-04-19T08:23:59.406Z</time></trkpt><trkpt lat="40.4134182" lon="15.1558024"><ele>997.0</ele><time>2026-04-19T08:24:00.405Z</time></trkpt><trkpt lat="40.4133306" lon="15.1559742"><ele>1000.25</ele><time>2026-04-19T08:24:01.405Z</time></trkpt><trkpt lat="40.4132286" lon="15.1561333"><ele>1003.5</ele><time>2026-04-19T08:24:02.405Z</time></trkpt><trkpt lat="40.4131276" lon="15.1562699"><ele>1006.75</ele><time>2026-04-19T08:24:03.405Z</time></trkpt><trkpt lat="40.4130228" lon="15.1563983"><ele>1010.0</ele><time>2026-04-19T08:24:04.404Z</time></trkpt><trkpt lat="40.4129231" lon="15.1565276"><ele>1012.5</ele><time>2026-04-19T08:24:05.404Z</time></trkpt><trkpt lat="40.4128376" lon="15.1566652"><ele>1015.0</ele><time>2026-04-19T08:24:06.404Z</time></trkpt><trkpt lat="40.412765" lon="15.1567967"><ele>1017.5</ele><time>2026-04-19T08:24:07.405Z</time></trkpt><trkpt lat="40.4126897" lon="15.1569338"><ele>1020.0</ele><time>2026-04-19T08:24:08.404Z</time></trkpt><trkpt lat="40.4126166" lon="15.1570689"><ele>1020.0</ele><time>2026-04-19T08:24:09.404Z</time></trkpt><trkpt lat="40.4125457" lon="15.1572052"><ele>1020.0</ele><time>2026-04-19T08:24:10.404Z</time></trkpt><trkpt lat="40.4124694" lon="15.1573477"><ele>1020.0</ele><time>2026-04-19T08:24:11.404Z</time></trkpt><trkpt lat="40.4123949" lon="15.1574909"><ele>1020.0</ele><time>2026-04-19T08:24:12.404Z</time></trkpt><trkpt lat="40.4123325" lon="15.1576346"><ele>1020.5</ele><time>2026-04-19T08:24:13.404Z</time></trkpt><trkpt lat="40.4122753" lon="15.1577777"><ele>1021.0</ele><time>2026-04-19T08:24:14.405Z</time></trkpt><trkpt lat="40.4122223" lon="15.1579215"><ele>1021.5</ele><time>2026-04-19T08:24:15.404Z</time></trkpt><trkpt lat="40.4121658" lon="15.1580696"><ele>1022.0</ele><time>2026-04-19T08:24:16.404Z</time></trkpt><trkpt lat="40.4121131" lon="15.158222"><ele>1027.25</ele><time>2026-04-19T08:24:17.404Z</time></trkpt><trkpt lat="40.4120591" lon="15.1583759"><ele>1032.5</ele><time>2026-04-19T08:24:18.404Z</time></trkpt><trkpt lat="40.4120078" lon="15.1585379"><ele>1037.75</ele><time>2026-04-19T08:24:19.405Z</time></trkpt><trkpt lat="40.4119651" lon="15.1586868"><ele>1043.0</ele><time>2026-04-19T08:24:20.404Z</time></trkpt><trkpt lat="40.4119241" lon="15.158824"><ele>1043.0</ele><time>2026-04-19T08:24:21.404Z</time></trkpt><trkpt lat="40.4118864" lon="15.1589544"><ele>1043.0</ele><time>2026-04-19T08:24:22.404Z</time></trkpt><trkpt lat="40.4118532" lon="15.159068"><ele>1043.0</ele><time>2026-04-19T08:24:23.404Z</time></trkpt><trkpt lat="40.4118246" lon="15.1591699"><ele>1043.0</ele><time>2026-04-19T08:24:24.405Z</time></trkpt><trkpt lat="40.4118043" lon="15.159263"><ele>1043.0</ele><time>2026-04-19T08:24:25.406Z</time></trkpt><trkpt lat="40.411836" lon="15.1593429"><ele>1043.0</ele><time>2026-04-19T08:24:26.405Z</time></trkpt><trkpt lat="40.4118969" lon="15.1594054"><ele>1038.3333333333335</ele><time>2026-04-19T08:24:27.404Z</time></trkpt><trkpt lat="40.4119872" lon="15.1594508"><ele>1033.6666666666667</ele><time>2026-04-19T08:24:28.405Z</time></trkpt><trkpt lat="40.4120778" lon="15.159472"><ele>1029.0</ele><time>2026-04-19T08:24:29.404Z</time></trkpt><trkpt lat="40.4121576" lon="15.1594932"><ele>1024.3333333333333</ele><time>2026-04-19T08:24:30.404Z</time></trkpt><trkpt lat="40.4122357" lon="15.1595246"><ele>1019.6666666666666</ele><time>2026-04-19T08:24:31.405Z</time></trkpt><trkpt lat="40.4123021" lon="15.1595611"><ele>1015.0</ele><time>2026-04-19T08:24:32.404Z</time></trkpt><trkpt lat="40.4123596" lon="15.1596029"><ele>1011.2</ele><time>2026-04-19T08:24:33.404Z</time></trkpt><trkpt lat="40.4124113" lon="15.1597449"><ele>1007.4</ele><time>2026-04-19T08:24:35.405Z</time></trkpt><trkpt lat="40.4123902" lon="15.1598343"><ele>1003.5999999999999</ele><time>2026-04-19T08:24:36.405Z</time></trkpt><trkpt lat="40.4123378" lon="15.1599405"><ele>999.8</ele><time>2026-04-19T08:24:37.404Z</time></trkpt><trkpt lat="40.4122713" lon="15.1600479"><ele>996.0</ele><time>2026-04-19T08:24:38.405Z</time></trkpt><trkpt lat="40.4122211" lon="15.1601696"><ele>994.8</ele><time>2026-04-19T08:24:39.405Z</time></trkpt><trkpt lat="40.4121777" lon="15.160305"><ele>993.5999999999999</ele><time>2026-04-19T08:24:40.405Z</time></trkpt><trkpt lat="40.4121418" lon="15.1604393"><ele>992.4</ele><time>2026-04-19T08:24:41.404Z</time></trkpt><trkpt lat="40.4121098" lon="15.1605658"><ele>991.2</ele><time>2026-04-19T08:24:42.405Z</time></trkpt><trkpt lat="40.412084" lon="15.1606812"><ele>990.0</ele><time>2026-04-19T08:24:43.404Z</time></trkpt><trkpt lat="40.4120578" lon="15.160791"><ele>986.3333333333334</ele><time>2026-04-19T08:24:44.404Z</time></trkpt><trkpt lat="40.4120306" lon="15.1608923"><ele>982.6666666666667</ele><time>2026-04-19T08:24:45.404Z</time></trkpt><trkpt lat="40.4119843" lon="15.1609766"><ele>979.0</ele><time>2026-04-19T08:24:46.404Z</time></trkpt><trkpt lat="40.4119206" lon="15.1610294"><ele>975.3333333333334</ele><time>2026-04-19T08:24:47.405Z</time></trkpt><trkpt lat="40.4118296" lon="15.161057"><ele>971.6666666666667</ele><time>2026-04-19T08:24:48.405Z</time></trkpt><trkpt lat="40.4117196" lon="15.1610555"><ele>968.0</ele><time>2026-04-19T08:24:49.404Z</time></trkpt><trkpt lat="40.41161" lon="15.1610544"><ele>968.0</ele><time>2026-04-19T08:24:50.404Z</time></trkpt><trkpt lat="40.4115028" lon="15.1610699"><ele>968.0</ele><time>2026-04-19T08:24:51.404Z</time></trkpt><trkpt lat="40.4113984" lon="15.1610963"><ele>968.0</ele><time>2026-04-19T08:24:52.404Z</time></trkpt><trkpt lat="40.4112935" lon="15.1611247"><ele>968.0</ele><time>2026-04-19T08:24:53.404Z</time></trkpt><trkpt lat="40.4111864" lon="15.1611527"><ele>968.0</ele><time>2026-04-19T08:24:54.404Z</time></trkpt><trkpt lat="40.4110735" lon="15.1611855"><ele>968.75</ele><time>2026-04-19T08:24:55.404Z</time></trkpt><trkpt lat="40.4109583" lon="15.161226"><ele>969.5</ele><time>2026-04-19T08:24:56.404Z</time></trkpt><trkpt lat="40.4108468" lon="15.1612797"><ele>970.25</ele><time>2026-04-19T08:24:57.404Z</time></trkpt><trkpt lat="40.4107443" lon="15.1613484"><ele>971.0</ele><time>2026-04-19T08:24:58.404Z</time></trkpt><trkpt lat="40.4106611" lon="15.1614296"><ele>971.0</ele><time>2026-04-19T08:24:59.404Z</time></trkpt><trkpt lat="40.4105893" lon="15.1615233"><ele>970.9999999999999</ele><time>2026-04-19T08:25:00.404Z</time></trkpt><trkpt lat="40.4105261" lon="15.1616281"><ele>970.9999999999999</ele><time>2026-04-19T08:25:01.404Z</time></trkpt><trkpt lat="40.4104646" lon="15.1617479"><ele>971.0</ele><time>2026-04-19T08:25:02.404Z</time></trkpt><trkpt lat="40.4104107" lon="15.1618883"><ele>971.0</ele><time>2026-04-19T08:25:03.405Z</time></trkpt><trkpt lat="40.4103675" lon="15.1620383"><ele>965.25</ele><time>2026-04-19T08:25:04.404Z</time></trkpt><trkpt lat="40.4103257" lon="15.1621942"><ele>959.5</ele><time>2026-04-19T08:25:05.404Z</time></trkpt><trkpt lat="40.4102853" lon="15.1623556"><ele>953.75</ele><time>2026-04-19T08:25:06.404Z</time></trkpt><trkpt lat="40.4102416" lon="15.1625056"><ele>948.0</ele><time>2026-04-19T08:25:07.404Z</time></trkpt><trkpt lat="40.4101858" lon="15.1626418"><ele>945.75</ele><time>2026-04-19T08:25:08.404Z</time></trkpt><trkpt lat="40.4101197" lon="15.1627612"><ele>943.5</ele><time>2026-04-19T08:25:09.404Z</time></trkpt><trkpt lat="40.4100458" lon="15.1628745"><ele>941.25</ele><time>2026-04-19T08:25:10.404Z</time></trkpt><trkpt lat="40.4099674" lon="15.1629835"><ele>939.0</ele><time>2026-04-19T08:25:11.404Z</time></trkpt><trkpt lat="40.4098931" lon="15.1630972"><ele>936.6</ele><time>2026-04-19T08:25:12.405Z</time></trkpt><trkpt lat="40.4098214" lon="15.1632166"><ele>934.2</ele><time>2026-04-19T08:25:13.405Z</time></trkpt><trkpt lat="40.4097601" lon="15.1633395"><ele>931.8000000000001</ele><time>2026-04-19T08:25:14.405Z</time></trkpt><trkpt lat="40.4097092" lon="15.1634636"><ele>929.4000000000001</ele><time>2026-04-19T08:25:15.404Z</time></trkpt><trkpt lat="40.4096645" lon="15.1635841"><ele>927.0</ele><time>2026-04-19T08:25:16.404Z</time></trkpt><trkpt lat="40.409613" lon="15.1636889"><ele>927.0</ele><time>2026-04-19T08:25:17.404Z</time></trkpt><trkpt lat="40.409554" lon="15.1637601"><ele>927.0</ele><time>2026-04-19T08:25:18.404Z</time></trkpt><trkpt lat="40.4094792" lon="15.1637906"><ele>927.0</ele><time>2026-04-19T08:25:19.405Z</time></trkpt><trkpt lat="40.4093908" lon="15.163791"><ele>927.0</ele><time>2026-04-19T08:25:20.404Z</time></trkpt><trkpt lat="40.4092919" lon="15.1638125"><ele>927.0</ele><time>2026-04-19T08:25:21.405Z</time></trkpt><trkpt lat="40.4091983" lon="15.163861"><ele>927.0</ele><time>2026-04-19T08:25:22.404Z</time></trkpt><trkpt lat="40.409116" lon="15.1639228"><ele>927.0</ele><time>2026-04-19T08:25:23.404Z</time></trkpt><trkpt lat="40.4090384" lon="15.1639923"><ele>927.0</ele><time>2026-04-19T08:25:24.404Z</time></trkpt><trkpt lat="40.4089722" lon="15.1640615"><ele>927.0</ele><time>2026-04-19T08:25:25.404Z</time></trkpt><trkpt lat="40.4089121" lon="15.1641402"><ele>927.0</ele><time>2026-04-19T08:25:26.404Z</time></trkpt><trkpt lat="40.408862" lon="15.1642266"><ele>927.0</ele><time>2026-04-19T08:25:27.404Z</time></trkpt><trkpt lat="40.4088307" lon="15.1643232"><ele>927.0</ele><time>2026-04-19T08:25:28.404Z</time></trkpt><trkpt lat="40.408812" lon="15.1644245"><ele>924.5</ele><time>2026-04-19T08:25:29.404Z</time></trkpt><trkpt lat="40.4087999" lon="15.1645252"><ele>922.0</ele><time>2026-04-19T08:25:30.404Z</time></trkpt><trkpt lat="40.4087697" lon="15.1646136"><ele>919.5</ele><time>2026-04-19T08:25:31.404Z</time></trkpt><trkpt lat="40.4086632" lon="15.1646891"><ele>917.0</ele><time>2026-04-19T08:25:33.404Z</time></trkpt><trkpt lat="40.408594" lon="15.1646673"><ele>914.5</ele><time>2026-04-19T08:25:34.404Z</time></trkpt><trkpt lat="40.4085269" lon="15.1646223"><ele>912.0</ele><time>2026-04-19T08:25:35.404Z</time></trkpt><trkpt lat="40.4084503" lon="15.1645864"><ele>912.0</ele><time>2026-04-19T08:25:36.404Z</time></trkpt><trkpt lat="40.4083774" lon="15.1645659"><ele>912.0</ele><time>2026-04-19T08:25:37.404Z</time></trkpt><trkpt lat="40.4082982" lon="15.1645625"><ele>912.0</ele><time>2026-04-19T08:25:38.404Z</time></trkpt><trkpt lat="40.4082173" lon="15.1645743"><ele>912.0</ele><time>2026-04-19T08:25:39.404Z</time></trkpt><trkpt lat="40.4081365" lon="15.1645967"><ele>912.0</ele><time>2026-04-19T08:25:40.404Z</time></trkpt><trkpt lat="40.4080572" lon="15.1646319"><ele>912.0</ele><time>2026-04-19T08:25:41.404Z</time></trkpt><trkpt lat="40.4079816" lon="15.1646736"><ele>913.3333333333334</ele><time>2026-04-19T08:25:42.404Z</time></trkpt><trkpt lat="40.4079091" lon="15.1647215"><ele>914.6666666666667</ele><time>2026-04-19T08:25:43.405Z</time></trkpt><trkpt lat="40.407838" lon="15.1647731"><ele>916.0</ele><time>2026-04-19T08:25:44.404Z</time></trkpt><trkpt lat="40.4077663" lon="15.1648331"><ele>917.3333333333334</ele><time>2026-04-19T08:25:45.404Z</time></trkpt><trkpt lat="40.4076948" lon="15.1648929"><ele>918.6666666666667</ele><time>2026-04-19T08:25:46.405Z</time></trkpt><trkpt lat="40.4076262" lon="15.1649535"><ele>920.0</ele><time>2026-04-19T08:25:47.404Z</time></trkpt><trkpt lat="40.4075499" lon="15.1650194"><ele>916.0</ele><time>2026-04-19T08:25:48.405Z</time></trkpt><trkpt lat="40.4074718" lon="15.1651046"><ele>912.0</ele><time>2026-04-19T08:25:49.406Z</time></trkpt><trkpt lat="40.4074103" lon="15.1652114"><ele>908.0</ele><time>2026-04-19T08:25:50.405Z</time></trkpt><trkpt lat="40.4073626" lon="15.16532"><ele>904.0</ele><time>2026-04-19T08:25:51.404Z</time></trkpt><trkpt lat="40.4073334" lon="15.1654268"><ele>900.0</ele><time>2026-04-19T08:25:52.404Z</time></trkpt><trkpt lat="40.4073054" lon="15.1655168"><ele>900.0</ele><time>2026-04-19T08:25:53.404Z</time></trkpt><trkpt lat="40.407304" lon="15.1656023"><ele>900.0</ele><time>2026-04-19T08:25:54.404Z</time></trkpt><trkpt lat="40.4073358" lon="15.1656792"><ele>900.0</ele><time>2026-04-19T08:25:55.404Z</time></trkpt><trkpt lat="40.4074007" lon="15.165738"><ele>900.0</ele><time>2026-04-19T08:25:56.404Z</time></trkpt><trkpt lat="40.4074858" lon="15.1657873"><ele>900.0</ele><time>2026-04-19T08:25:57.404Z</time></trkpt><trkpt lat="40.4075808" lon="15.1658414"><ele>900.0</ele><time>2026-04-19T08:25:58.405Z</time></trkpt><trkpt lat="40.407675" lon="15.1659011"><ele>896.2</ele><time>2026-04-19T08:25:59.404Z</time></trkpt><trkpt lat="40.4077732" lon="15.1659556"><ele>892.4</ele><time>2026-04-19T08:26:00.405Z</time></trkpt><trkpt lat="40.4078717" lon="15.1660085"><ele>888.5999999999999</ele><time>2026-04-19T08:26:01.404Z</time></trkpt><trkpt lat="40.4079702" lon="15.1660589"><ele>884.8</ele><time>2026-04-19T08:26:02.405Z</time></trkpt><trkpt lat="40.4080693" lon="15.1661094"><ele>881.0</ele><time>2026-04-19T08:26:03.404Z</time></trkpt><trkpt lat="40.4081657" lon="15.1661625"><ele>880.1999999999999</ele><time>2026-04-19T08:26:04.405Z</time></trkpt><trkpt lat="40.4082666" lon="15.1662077"><ele>879.3999999999999</ele><time>2026-04-19T08:26:05.404Z</time></trkpt><trkpt lat="40.4083662" lon="15.1662486"><ele>878.6</ele><time>2026-04-19T08:26:06.404Z</time></trkpt><trkpt lat="40.4084648" lon="15.1662914"><ele>877.8</ele><time>2026-04-19T08:26:07.404Z</time></trkpt><trkpt lat="40.4085637" lon="15.1663327"><ele>877.0</ele><time>2026-04-19T08:26:08.404Z</time></trkpt><trkpt lat="40.4086622" lon="15.166375"><ele>877.0</ele><time>2026-04-19T08:26:09.404Z</time></trkpt><trkpt lat="40.4087589" lon="15.1664233"><ele>877.0</ele><time>2026-04-19T08:26:10.404Z</time></trkpt><trkpt lat="40.4088511" lon="15.166482"><ele>877.0</ele><time>2026-04-19T08:26:11.405Z</time></trkpt><trkpt lat="40.4089361" lon="15.1665502"><ele>877.0</ele><time>2026-04-19T08:26:12.404Z</time></trkpt><trkpt lat="40.4090052" lon="15.166616"><ele>877.0</ele><time>2026-04-19T08:26:13.405Z</time></trkpt><trkpt lat="40.4090595" lon="15.1666764"><ele>874.8333333333333</ele><time>2026-04-19T08:26:14.404Z</time></trkpt><trkpt lat="40.4091062" lon="15.1667345"><ele>872.6666666666666</ele><time>2026-04-19T08:26:15.404Z</time></trkpt><trkpt lat="40.4091734" lon="15.1668446"><ele>870.5</ele><time>2026-04-19T08:26:17.404Z</time></trkpt><trkpt lat="40.4092235" lon="15.166939"><ele>868.3333333333333</ele><time>2026-04-19T08:26:19.404Z</time></trkpt><trkpt lat="40.4092603" lon="15.1670135"><ele>866.1666666666666</ele><time>2026-04-19T08:26:21.404Z</time></trkpt><trkpt lat="40.4092944" lon="15.1671035"><ele>864.0</ele><time>2026-04-19T08:26:23.406Z</time></trkpt><trkpt lat="40.4093061" lon="15.1672467"><ele>862.0</ele><time>2026-04-19T08:26:25.405Z</time></trkpt><trkpt lat="40.4092868" lon="15.1674062"><ele>860.0000000000001</ele><time>2026-04-19T08:26:27.404Z</time></trkpt><trkpt lat="40.4092628" lon="15.1675627"><ele>858.0000000000001</ele><time>2026-04-19T08:26:29.404Z</time></trkpt><trkpt lat="40.409221" lon="15.1677021"><ele>856.0</ele><time>2026-04-19T08:26:31.404Z</time></trkpt><trkpt lat="40.4091906" lon="15.1677851"><ele>854.0</ele><time>2026-04-19T08:26:33.404Z</time></trkpt><trkpt lat="40.4091797" lon="15.1678717"><ele>854.0</ele><time>2026-04-19T08:28:46.404Z</time></trkpt><trkpt lat="40.4091055" lon="15.1679416"><ele>854.0</ele><time>2026-04-19T08:28:49.405Z</time></trkpt><trkpt lat="40.4090568" lon="15.1679951"><ele>854.0</ele><time>2026-04-19T08:28:50.404Z</time></trkpt><trkpt lat="40.4090015" lon="15.1680394"><ele>854.0</ele><time>2026-04-19T08:28:51.404Z</time></trkpt><trkpt lat="40.4089441" lon="15.1680758"><ele>854.0</ele><time>2026-04-19T08:28:52.404Z</time></trkpt><trkpt lat="40.4088876" lon="15.168115"><ele>854.0</ele><time>2026-04-19T08:28:53.405Z</time></trkpt><trkpt lat="40.4088244" lon="15.1681526"><ele>854.0</ele><time>2026-04-19T08:28:54.404Z</time></trkpt><trkpt lat="40.4087615" lon="15.1681913"><ele>851.2857142857143</ele><time>2026-04-19T08:28:55.404Z</time></trkpt><trkpt lat="40.4086981" lon="15.168236"><ele>848.5714285714286</ele><time>2026-04-19T08:28:56.406Z</time></trkpt><trkpt lat="40.4086359" lon="15.168282"><ele>845.8571428571429</ele><time>2026-04-19T08:28:57.404Z</time></trkpt><trkpt lat="40.4085861" lon="15.1683488"><ele>843.1428571428571</ele><time>2026-04-19T08:28:58.404Z</time></trkpt><trkpt lat="40.4085694" lon="15.1684303"><ele>840.4285714285714</ele><time>2026-04-19T08:28:59.404Z</time></trkpt><trkpt lat="40.4085864" lon="15.1685133"><ele>837.7142857142858</ele><time>2026-04-19T08:29:00.406Z</time></trkpt><trkpt lat="40.4086256" lon="15.1685838"><ele>835.0</ele><time>2026-04-19T08:29:01.404Z</time></trkpt><trkpt lat="40.4086813" lon="15.1686387"><ele>834.9999999999999</ele><time>2026-04-19T08:29:02.404Z</time></trkpt><trkpt lat="40.4087379" lon="15.1686758"><ele>835.0</ele><time>2026-04-19T08:29:03.404Z</time></trkpt><trkpt lat="40.4088304" lon="15.1687184"><ele>835.0</ele><time>2026-04-19T08:29:05.404Z</time></trkpt><trkpt lat="40.4088387" lon="15.16881"><ele>835.0</ele><time>2026-04-19T08:29:08.404Z</time></trkpt><trkpt lat="40.4087314" lon="15.1687997"><ele>834.9999999999999</ele><time>2026-04-19T08:29:11.404Z</time></trkpt><trkpt lat="40.4086521" lon="15.1687726"><ele>835.0</ele><time>2026-04-19T08:29:12.405Z</time></trkpt><trkpt lat="40.4085526" lon="15.1687334"><ele>835.0</ele><time>2026-04-19T08:29:13.404Z</time></trkpt><trkpt lat="40.408465" lon="15.1686673"><ele>835.0</ele><time>2026-04-19T08:29:14.404Z</time></trkpt><trkpt lat="40.4084148" lon="15.168591"><ele>835.0</ele><time>2026-04-19T08:29:15.404Z</time></trkpt><trkpt lat="40.4083907" lon="15.1685018"><ele>835.0</ele><time>2026-04-19T08:29:16.404Z</time></trkpt><trkpt lat="40.4083857" lon="15.1683812"><ele>835.0</ele><time>2026-04-19T08:29:17.405Z</time></trkpt><trkpt lat="40.4083925" lon="15.1682344"><ele>837.2</ele><time>2026-04-19T08:29:18.404Z</time></trkpt><trkpt lat="40.4083725" lon="15.1681043"><ele>839.4</ele><time>2026-04-19T08:29:19.404Z</time></trkpt><trkpt lat="40.4083334" lon="15.1679904"><ele>841.5999999999999</ele><time>2026-04-19T08:29:20.404Z</time></trkpt><trkpt lat="40.4082773" lon="15.1678924"><ele>843.8</ele><time>2026-04-19T08:29:21.404Z</time></trkpt><trkpt lat="40.4081925" lon="15.1678125"><ele>846.0</ele><time>2026-04-19T08:29:22.404Z</time></trkpt><trkpt lat="40.4080915" lon="15.167749"><ele>845.0</ele><time>2026-04-19T08:29:23.404Z</time></trkpt><trkpt lat="40.4079821" lon="15.1677095"><ele>844.0</ele><time>2026-04-19T08:29:24.404Z</time></trkpt><trkpt lat="40.4078715" lon="15.167689"><ele>843.0</ele><time>2026-04-19T08:29:25.404Z</time></trkpt><trkpt lat="40.4077561" lon="15.1676825"><ele>842.0</ele><time>2026-04-19T08:29:26.404Z</time></trkpt><trkpt lat="40.40764" lon="15.1676822"><ele>842.0</ele><time>2026-04-19T08:29:27.404Z</time></trkpt><trkpt lat="40.4075293" lon="15.1676833"><ele>842.0</ele><time>2026-04-19T08:29:28.404Z</time></trkpt><trkpt lat="40.4074316" lon="15.1676909"><ele>842.0</ele><time>2026-04-19T08:29:29.405Z</time></trkpt><trkpt lat="40.4073455" lon="15.1677032"><ele>842.0</ele><time>2026-04-19T08:29:30.404Z</time></trkpt><trkpt lat="40.4072644" lon="15.1677221"><ele>842.0</ele><time>2026-04-19T08:29:31.405Z</time></trkpt><trkpt lat="40.4071829" lon="15.1677413"><ele>845.4000000000001</ele><time>2026-04-19T08:29:32.404Z</time></trkpt><trkpt lat="40.4071026" lon="15.1677712"><ele>848.8000000000001</ele><time>2026-04-19T08:29:33.404Z</time></trkpt><trkpt lat="40.4070198" lon="15.1678204"><ele>852.2</ele><time>2026-04-19T08:29:34.404Z</time></trkpt><trkpt lat="40.4069377" lon="15.167884"><ele>855.6</ele><time>2026-04-19T08:29:35.404Z</time></trkpt><trkpt lat="40.4068484" lon="15.1679508"><ele>859.0</ele><time>2026-04-19T08:29:36.404Z</time></trkpt><trkpt lat="40.4067536" lon="15.1680202"><ele>858.9999999999999</ele><time>2026-04-19T08:29:37.404Z</time></trkpt><trkpt lat="40.4066649" lon="15.1680822"><ele>859.0</ele><time>2026-04-19T08:29:38.404Z</time></trkpt><trkpt lat="40.4065868" lon="15.1681347"><ele>859.0</ele><time>2026-04-19T08:29:39.404Z</time></trkpt><trkpt lat="40.4065178" lon="15.1681792"><ele>859.0</ele><time>2026-04-19T08:29:40.404Z</time></trkpt><trkpt lat="40.4064541" lon="15.1682189"><ele>858.9999999999999</ele><time>2026-04-19T08:29:41.404Z</time></trkpt><trkpt lat="40.4063938" lon="15.1682493"><ele>859.0</ele><time>2026-04-19T08:29:42.404Z</time></trkpt><trkpt lat="40.4062969" lon="15.1682917"><ele>859.2</ele><time>2026-04-19T08:29:44.404Z</time></trkpt><trkpt lat="40.4062222" lon="15.1683207"><ele>859.4000000000001</ele><time>2026-04-19T08:29:46.404Z</time></trkpt><trkpt lat="40.4061381" lon="15.1683535"><ele>859.6</ele><time>2026-04-19T08:29:48.404Z</time></trkpt><trkpt lat="40.4060353" lon="15.1683716"><ele>859.8</ele><time>2026-04-19T08:29:50.404Z</time></trkpt><trkpt lat="40.4059305" lon="15.1684183"><ele>860.0</ele><time>2026-04-19T08:29:52.404Z</time></trkpt><trkpt lat="40.4058221" lon="15.1684643"><ele>860.0</ele><time>2026-04-19T08:29:54.404Z</time></trkpt><trkpt lat="40.4057191" lon="15.1685129"><ele>860.0</ele><time>2026-04-19T08:29:56.404Z</time></trkpt><trkpt lat="40.4056181" lon="15.1685606"><ele>860.0</ele><time>2026-04-19T08:29:58.404Z</time></trkpt><trkpt lat="40.4055194" lon="15.168601"><ele>860.0</ele><time>2026-04-19T08:30:00.404Z</time></trkpt><trkpt lat="40.4054527" lon="15.1686197"><ele>860.0</ele><time>2026-04-19T08:30:02.405Z</time></trkpt><trkpt lat="40.4055302" lon="15.1686279"><ele>860.0</ele><time>2026-04-19T08:30:14.405Z</time></trkpt><trkpt lat="40.4055961" lon="15.1685992"><ele>860.0</ele><time>2026-04-19T08:30:15.404Z</time></trkpt><trkpt lat="40.4056793" lon="15.1685604"><ele>860.0</ele><time>2026-04-19T08:30:16.404Z</time></trkpt><trkpt lat="40.4057764" lon="15.1685176"><ele>860.0</ele><time>2026-04-19T08:30:17.405Z</time></trkpt><trkpt lat="40.4058841" lon="15.1684725"><ele>860.0</ele><time>2026-04-19T08:30:18.404Z</time></trkpt><trkpt lat="40.4059972" lon="15.1684285"><ele>860.0</ele><time>2026-04-19T08:30:19.404Z</time></trkpt><trkpt lat="40.4061259" lon="15.1683765"><ele>860.0</ele><time>2026-04-19T08:30:20.404Z</time></trkpt><trkpt lat="40.4062548" lon="15.1683209"><ele>860.0</ele><time>2026-04-19T08:30:21.404Z</time></trkpt><trkpt lat="40.4063937" lon="15.168249"><ele>860.0</ele><time>2026-04-19T08:30:22.405Z</time></trkpt><trkpt lat="40.4065288" lon="15.1681685"><ele>859.75</ele><time>2026-04-19T08:30:23.404Z</time></trkpt><trkpt lat="40.4066555" lon="15.1680813"><ele>859.5</ele><time>2026-04-19T08:30:24.404Z</time></trkpt><trkpt lat="40.4067776" lon="15.1679916"><ele>859.25</ele><time>2026-04-19T08:30:25.404Z</time></trkpt><trkpt lat="40.4068945" lon="15.1679055"><ele>859.0</ele><time>2026-04-19T08:30:26.404Z</time></trkpt><trkpt lat="40.4070123" lon="15.1678379"><ele>859.0</ele><time>2026-04-19T08:30:27.404Z</time></trkpt><trkpt lat="40.4071306" lon="15.1677884"><ele>859.0</ele><time>2026-04-19T08:30:28.404Z</time></trkpt><trkpt lat="40.4072464" lon="15.1677516"><ele>859.0</ele><time>2026-04-19T08:30:29.405Z</time></trkpt><trkpt lat="40.4073588" lon="15.1677249"><ele>859.0</ele><time>2026-04-19T08:30:30.405Z</time></trkpt><trkpt lat="40.4074685" lon="15.1677074"><ele>854.75</ele><time>2026-04-19T08:30:31.404Z</time></trkpt><trkpt lat="40.4075787" lon="15.1677039"><ele>850.5</ele><time>2026-04-19T08:30:32.404Z</time></trkpt><trkpt lat="40.407693" lon="15.1677095"><ele>846.25</ele><time>2026-04-19T08:30:33.405Z</time></trkpt><trkpt lat="40.4078085" lon="15.1677161"><ele>842.0</ele><time>2026-04-19T08:30:34.404Z</time></trkpt><trkpt lat="40.407925" lon="15.1677321"><ele>842.8</ele><time>2026-04-19T08:30:35.404Z</time></trkpt><trkpt lat="40.4080338" lon="15.1677622"><ele>843.6</ele><time>2026-04-19T08:30:36.404Z</time></trkpt><trkpt lat="40.408132" lon="15.167809"><ele>844.4</ele><time>2026-04-19T08:30:37.404Z</time></trkpt><trkpt lat="40.4082157" lon="15.1678667"><ele>845.1999999999999</ele><time>2026-04-19T08:30:38.405Z</time></trkpt><trkpt lat="40.408281" lon="15.1679377"><ele>846.0</ele><time>2026-04-19T08:30:39.404Z</time></trkpt><trkpt lat="40.4083309" lon="15.1680297"><ele>846.0</ele><time>2026-04-19T08:30:40.405Z</time></trkpt><trkpt lat="40.4083574" lon="15.1681409"><ele>846.0</ele><time>2026-04-19T08:30:41.404Z</time></trkpt><trkpt lat="40.4083646" lon="15.1682572"><ele>846.0</ele><time>2026-04-19T08:30:42.404Z</time></trkpt><trkpt lat="40.4083555" lon="15.1683779"><ele>846.0</ele><time>2026-04-19T08:30:43.404Z</time></trkpt><trkpt lat="40.4083542" lon="15.1685017"><ele>846.0</ele><time>2026-04-19T08:30:44.404Z</time></trkpt><trkpt lat="40.4083865" lon="15.1686113"><ele>844.8</ele><time>2026-04-19T08:30:45.405Z</time></trkpt><trkpt lat="40.4084433" lon="15.1686933"><ele>843.5999999999999</ele><time>2026-04-19T08:30:46.404Z</time></trkpt><trkpt lat="40.4085245" lon="15.1687486"><ele>842.4</ele><time>2026-04-19T08:30:47.404Z</time></trkpt><trkpt lat="40.4086275" lon="15.168785"><ele>841.2</ele><time>2026-04-19T08:30:48.404Z</time></trkpt><trkpt lat="40.4087378" lon="15.1688224"><ele>840.0</ele><time>2026-04-19T08:30:49.404Z</time></trkpt><trkpt lat="40.4088483" lon="15.168845"><ele>840.0</ele><time>2026-04-19T08:30:50.404Z</time></trkpt><trkpt lat="40.4089787" lon="15.1688453"><ele>840.0</ele><time>2026-04-19T08:30:51.404Z</time></trkpt><trkpt lat="40.4091135" lon="15.1688355"><ele>840.0</ele><time>2026-04-19T08:30:52.404Z</time></trkpt><trkpt lat="40.4092393" lon="15.1688116"><ele>840.0</ele><time>2026-04-19T08:30:53.404Z</time></trkpt><trkpt lat="40.4093692" lon="15.1687643"><ele>840.0</ele><time>2026-04-19T08:30:54.404Z</time></trkpt><trkpt lat="40.4094948" lon="15.1686942"><ele>840.0</ele><time>2026-04-19T08:30:55.404Z</time></trkpt><trkpt lat="40.409605" lon="15.168614"><ele>840.0</ele><time>2026-04-19T08:30:56.404Z</time></trkpt><trkpt lat="40.4097001" lon="15.1685339"><ele>840.0</ele><time>2026-04-19T08:30:57.404Z</time></trkpt><trkpt lat="40.4097847" lon="15.1684575"><ele>841.5</ele><time>2026-04-19T08:30:58.404Z</time></trkpt><trkpt lat="40.4098592" lon="15.1683904"><ele>843.0</ele><time>2026-04-19T08:30:59.404Z</time></trkpt><trkpt lat="40.4099263" lon="15.1683309"><ele>844.5</ele><time>2026-04-19T08:31:00.404Z</time></trkpt><trkpt lat="40.4099912" lon="15.168272"><ele>846.0</ele><time>2026-04-19T08:31:01.404Z</time></trkpt><trkpt lat="40.4100579" lon="15.1682172"><ele>847.5</ele><time>2026-04-19T08:31:02.404Z</time></trkpt><trkpt lat="40.410118" lon="15.1681639"><ele>849.0</ele><time>2026-04-19T08:31:03.404Z</time></trkpt><trkpt lat="40.4101773" lon="15.1681115"><ele>849.0</ele><time>2026-04-19T08:31:04.404Z</time></trkpt><trkpt lat="40.4102364" lon="15.1680605"><ele>849.0</ele><time>2026-04-19T08:31:05.404Z</time></trkpt><trkpt lat="40.4102934" lon="15.1680113"><ele>849.0</ele><time>2026-04-19T08:31:06.404Z</time></trkpt><trkpt lat="40.410353" lon="15.16796"><ele>849.0</ele><time>2026-04-19T08:31:07.404Z</time></trkpt><trkpt lat="40.4104188" lon="15.1679069"><ele>849.0</ele><time>2026-04-19T08:31:08.404Z</time></trkpt><trkpt lat="40.4104877" lon="15.1678503"><ele>849.0</ele><time>2026-04-19T08:31:09.404Z</time></trkpt><trkpt lat="40.4105612" lon="15.1677935"><ele>844.4000000000001</ele><time>2026-04-19T08:31:10.404Z</time></trkpt><trkpt lat="40.4106422" lon="15.1677374"><ele>839.8</ele><time>2026-04-19T08:31:11.404Z</time></trkpt><trkpt lat="40.4107333" lon="15.1676785"><ele>835.2</ele><time>2026-04-19T08:31:12.404Z</time></trkpt><trkpt lat="40.4108354" lon="15.1676282"><ele>830.5999999999999</ele><time>2026-04-19T08:31:13.404Z</time></trkpt><trkpt lat="40.4109518" lon="15.1675818"><ele>826.0</ele><time>2026-04-19T08:31:14.404Z</time></trkpt><trkpt lat="40.4110777" lon="15.1675465"><ele>826.0</ele><time>2026-04-19T08:31:15.404Z</time></trkpt><trkpt lat="40.4112034" lon="15.1675197"><ele>826.0</ele><time>2026-04-19T08:31:16.404Z</time></trkpt><trkpt lat="40.4113366" lon="15.1674931"><ele>826.0</ele><time>2026-04-19T08:31:17.404Z</time></trkpt><trkpt lat="40.4114755" lon="15.1674655"><ele>826.0</ele><time>2026-04-19T08:31:18.404Z</time></trkpt><trkpt lat="40.4116192" lon="15.1674374"><ele>826.25</ele><time>2026-04-19T08:31:19.404Z</time></trkpt><trkpt lat="40.4117614" lon="15.167407"><ele>826.5</ele><time>2026-04-19T08:31:20.404Z</time></trkpt><trkpt lat="40.4119" lon="15.1673769"><ele>826.75</ele><time>2026-04-19T08:31:21.405Z</time></trkpt><trkpt lat="40.4120407" lon="15.1673445"><ele>827.0</ele><time>2026-04-19T08:31:22.405Z</time></trkpt><trkpt lat="40.4121817" lon="15.1673062"><ele>827.0</ele><time>2026-04-19T08:31:23.406Z</time></trkpt><trkpt lat="40.4123175" lon="15.1672674"><ele>827.0</ele><time>2026-04-19T08:31:24.404Z</time></trkpt><trkpt lat="40.4124493" lon="15.1672313"><ele>827.0</ele><time>2026-04-19T08:31:25.404Z</time></trkpt><trkpt lat="40.412576" lon="15.167193"><ele>827.0</ele><time>2026-04-19T08:31:26.404Z</time></trkpt><trkpt lat="40.4127008" lon="15.1671544"><ele>827.0</ele><time>2026-04-19T08:31:27.405Z</time></trkpt><trkpt lat="40.4128282" lon="15.1671223"><ele>827.0</ele><time>2026-04-19T08:31:28.404Z</time></trkpt><trkpt lat="40.4129537" lon="15.1670939"><ele>827.0</ele><time>2026-04-19T08:31:29.405Z</time></trkpt><trkpt lat="40.4130815" lon="15.1670508"><ele>827.0</ele><time>2026-04-19T08:31:30.404Z</time></trkpt><trkpt lat="40.4132091" lon="15.166983"><ele>828.5</ele><time>2026-04-19T08:31:31.404Z</time></trkpt><trkpt lat="40.413335" lon="15.1668899"><ele>830.0</ele><time>2026-04-19T08:31:32.405Z</time></trkpt><trkpt lat="40.4134574" lon="15.1667749"><ele>831.5</ele><time>2026-04-19T08:31:33.404Z</time></trkpt><trkpt lat="40.4135684" lon="15.1666532"><ele>833.0</ele><time>2026-04-19T08:31:34.405Z</time></trkpt><trkpt lat="40.4136675" lon="15.1665277"><ele>833.0</ele><time>2026-04-19T08:31:35.404Z</time></trkpt><trkpt lat="40.4137618" lon="15.1664055"><ele>833.0</ele><time>2026-04-19T08:31:36.404Z</time></trkpt><trkpt lat="40.4138598" lon="15.1662999"><ele>833.0</ele><time>2026-04-19T08:31:37.404Z</time></trkpt><trkpt lat="40.4139532" lon="15.1662186"><ele>833.0</ele><time>2026-04-19T08:31:38.405Z</time></trkpt><trkpt lat="40.4140425" lon="15.1661616"><ele>829.8333333333334</ele><time>2026-04-19T08:31:39.404Z</time></trkpt><trkpt lat="40.4141256" lon="15.1661352"><ele>826.6666666666667</ele><time>2026-04-19T08:31:40.404Z</time></trkpt><trkpt lat="40.4142041" lon="15.1661455"><ele>823.5</ele><time>2026-04-19T08:31:41.404Z</time></trkpt><trkpt lat="40.4142746" lon="15.1661981"><ele>820.3333333333333</ele><time>2026-04-19T08:31:42.405Z</time></trkpt><trkpt lat="40.4143356" lon="15.1662903"><ele>817.1666666666666</ele><time>2026-04-19T08:31:43.404Z</time></trkpt><trkpt lat="40.4143832" lon="15.1664045"><ele>814.0</ele><time>2026-04-19T08:31:44.405Z</time></trkpt><trkpt lat="40.4144312" lon="15.166527"><ele>811.2</ele><time>2026-04-19T08:31:45.404Z</time></trkpt><trkpt lat="40.4145059" lon="15.1666127"><ele>808.4000000000001</ele><time>2026-04-19T08:31:46.404Z</time></trkpt><trkpt lat="40.4145966" lon="15.1666761"><ele>805.6</ele><time>2026-04-19T08:31:47.404Z</time></trkpt><trkpt lat="40.4146923" lon="15.1667122"><ele>802.8</ele><time>2026-04-19T08:31:48.405Z</time></trkpt><trkpt lat="40.4147908" lon="15.1667299"><ele>800.0</ele><time>2026-04-19T08:31:49.404Z</time></trkpt><trkpt lat="40.4148903" lon="15.1667402"><ele>798.8</ele><time>2026-04-19T08:31:50.404Z</time></trkpt><trkpt lat="40.4149946" lon="15.1667294"><ele>797.6</ele><time>2026-04-19T08:31:51.404Z</time></trkpt><trkpt lat="40.4150933" lon="15.1666871"><ele>796.4000000000001</ele><time>2026-04-19T08:31:52.405Z</time></trkpt><trkpt lat="40.415185" lon="15.1666155"><ele>795.2</ele><time>2026-04-19T08:31:53.404Z</time></trkpt><trkpt lat="40.4152654" lon="15.1665292"><ele>794.0</ele><time>2026-04-19T08:31:54.405Z</time></trkpt><trkpt lat="40.415344" lon="15.1664453"><ele>793.8333333333334</ele><time>2026-04-19T08:31:55.404Z</time></trkpt><trkpt lat="40.4154231" lon="15.166383"><ele>793.6666666666667</ele><time>2026-04-19T08:31:56.404Z</time></trkpt><trkpt lat="40.4154983" lon="15.1663536"><ele>793.5</ele><time>2026-04-19T08:31:57.404Z</time></trkpt><trkpt lat="40.4155692" lon="15.1663582"><ele>793.3333333333333</ele><time>2026-04-19T08:31:58.404Z</time></trkpt><trkpt lat="40.4156332" lon="15.1663875"><ele>793.1666666666666</ele><time>2026-04-19T08:31:59.404Z</time></trkpt><trkpt lat="40.4157365" lon="15.1664821"><ele>793.0</ele><time>2026-04-19T08:32:01.404Z</time></trkpt><trkpt lat="40.4157826" lon="15.1665431"><ele>793.0</ele><time>2026-04-19T08:32:02.404Z</time></trkpt><trkpt lat="40.4158579" lon="15.1666761"><ele>793.0</ele><time>2026-04-19T08:32:04.404Z</time></trkpt><trkpt lat="40.4158976" lon="15.1667542"><ele>793.0</ele><time>2026-04-19T08:32:05.404Z</time></trkpt><trkpt lat="40.4159381" lon="15.1668443"><ele>793.0</ele><time>2026-04-19T08:32:06.405Z</time></trkpt><trkpt lat="40.4159855" lon="15.1669471"><ele>793.0</ele><time>2026-04-19T08:32:07.404Z</time></trkpt><trkpt lat="40.4160359" lon="15.1670568"><ele>792.9999999999999</ele><time>2026-04-19T08:32:08.403Z</time></trkpt><trkpt lat="40.4160843" lon="15.1671645"><ele>793.0</ele><time>2026-04-19T08:32:09.403Z</time></trkpt><trkpt lat="40.4161262" lon="15.167268"><ele>793.0</ele><time>2026-04-19T08:32:10.403Z</time></trkpt><trkpt lat="40.4161659" lon="15.1673698"><ele>793.0</ele><time>2026-04-19T08:32:11.404Z</time></trkpt><trkpt lat="40.4161986" lon="15.167462"><ele>792.9999999999999</ele><time>2026-04-19T08:32:12.403Z</time></trkpt><trkpt lat="40.4162281" lon="15.1675516"><ele>793.0</ele><time>2026-04-19T08:32:13.403Z</time></trkpt><trkpt lat="40.4162585" lon="15.1676365"><ele>793.4999999999999</ele><time>2026-04-19T08:32:14.403Z</time></trkpt><trkpt lat="40.4162874" lon="15.1677248"><ele>794.0</ele><time>2026-04-19T08:32:15.403Z</time></trkpt><trkpt lat="40.4163137" lon="15.1678158"><ele>794.5</ele><time>2026-04-19T08:32:16.403Z</time></trkpt><trkpt lat="40.4163477" lon="15.1679063"><ele>795.0</ele><time>2026-04-19T08:32:17.403Z</time></trkpt><trkpt lat="40.4163802" lon="15.1680014"><ele>795.4999999999999</ele><time>2026-04-19T08:32:18.404Z</time></trkpt><trkpt lat="40.4164139" lon="15.1680955"><ele>796.0</ele><time>2026-04-19T08:32:19.403Z</time></trkpt><trkpt lat="40.4164489" lon="15.1681942"><ele>794.1666666666666</ele><time>2026-04-19T08:32:20.403Z</time></trkpt><trkpt lat="40.4164817" lon="15.1682883"><ele>792.3333333333333</ele><time>2026-04-19T08:32:21.403Z</time></trkpt><trkpt lat="40.4165129" lon="15.1683778"><ele>790.5</ele><time>2026-04-19T08:32:22.403Z</time></trkpt><trkpt lat="40.4165524" lon="15.168506"><ele>788.6666666666667</ele><time>2026-04-19T08:32:24.403Z</time></trkpt><trkpt lat="40.4165701" lon="15.1685928"><ele>786.8333333333334</ele><time>2026-04-19T08:32:28.404Z</time></trkpt><trkpt lat="40.4165719" lon="15.1684992"><ele>785.0</ele><time>2026-04-19T08:33:52.403Z</time></trkpt><trkpt lat="40.4165458" lon="15.1684216"><ele>785.0</ele><time>2026-04-19T08:33:53.403Z</time></trkpt><trkpt lat="40.4165176" lon="15.1683318"><ele>785.0</ele><time>2026-04-19T08:33:54.403Z</time></trkpt><trkpt lat="40.4164778" lon="15.1682153"><ele>785.0</ele><time>2026-04-19T08:33:55.403Z</time></trkpt><trkpt lat="40.416424" lon="15.1680594"><ele>785.0</ele><time>2026-04-19T08:33:56.403Z</time></trkpt><trkpt lat="40.416354" lon="15.1678567"><ele>784.0</ele><time>2026-04-19T08:33:57.403Z</time></trkpt><trkpt lat="40.4162713" lon="15.1676275"><ele>783.0</ele><time>2026-04-19T08:33:58.403Z</time></trkpt><trkpt lat="40.4161804" lon="15.1673717"><ele>782.0</ele><time>2026-04-19T08:33:59.404Z</time></trkpt><trkpt lat="40.4160979" lon="15.1671498"><ele>785.6666666666667</ele><time>2026-04-19T08:34:00.404Z</time></trkpt><trkpt lat="40.4160119" lon="15.166946"><ele>789.3333333333333</ele><time>2026-04-19T08:34:01.403Z</time></trkpt><trkpt lat="40.4159247" lon="15.1667592"><ele>793.0</ele><time>2026-04-19T08:34:02.403Z</time></trkpt><trkpt lat="40.4158374" lon="15.1666002"><ele>795.8</ele><time>2026-04-19T08:34:03.403Z</time></trkpt><trkpt lat="40.4157522" lon="15.1664754"><ele>798.5999999999999</ele><time>2026-04-19T08:34:04.403Z</time></trkpt><trkpt lat="40.4156668" lon="15.1663906"><ele>801.4000000000001</ele><time>2026-04-19T08:34:05.403Z</time></trkpt><trkpt lat="40.4155825" lon="15.1663511"><ele>804.2</ele><time>2026-04-19T08:34:06.404Z</time></trkpt><trkpt lat="40.4154915" lon="15.166355"><ele>807.0</ele><time>2026-04-19T08:34:07.404Z</time></trkpt><trkpt lat="40.4153884" lon="15.1664121"><ele>807.25</ele><time>2026-04-19T08:34:08.403Z</time></trkpt><trkpt lat="40.4152685" lon="15.1665224"><ele>807.5</ele><time>2026-04-19T08:34:09.403Z</time></trkpt><trkpt lat="40.4151374" lon="15.1666304"><ele>807.75</ele><time>2026-04-19T08:34:10.403Z</time></trkpt><trkpt lat="40.4149974" lon="15.1666845"><ele>808.0</ele><time>2026-04-19T08:34:11.403Z</time></trkpt><trkpt lat="40.4148532" lon="15.1666992"><ele>809.5</ele><time>2026-04-19T08:34:12.403Z</time></trkpt><trkpt lat="40.4147027" lon="15.1666788"><ele>811.0</ele><time>2026-04-19T08:34:13.404Z</time></trkpt><trkpt lat="40.4145951" lon="15.166629"><ele>812.5</ele><time>2026-04-19T08:34:14.403Z</time></trkpt><trkpt lat="40.4144928" lon="15.1665317"><ele>814.0</ele><time>2026-04-19T08:34:15.403Z</time></trkpt><trkpt lat="40.4144068" lon="15.1663876"><ele>814.0</ele><time>2026-04-19T08:34:16.403Z</time></trkpt><trkpt lat="40.4143324" lon="15.1662328"><ele>814.0</ele><time>2026-04-19T08:34:17.403Z</time></trkpt><trkpt lat="40.4142595" lon="15.1661402"><ele>814.0</ele><time>2026-04-19T08:34:18.403Z</time></trkpt><trkpt lat="40.4141773" lon="15.1661093"><ele>814.0</ele><time>2026-04-19T08:34:19.403Z</time></trkpt><trkpt lat="40.4140996" lon="15.1661145"><ele>814.0</ele><time>2026-04-19T08:34:20.404Z</time></trkpt><trkpt lat="40.41402" lon="15.1661585"><ele>814.0</ele><time>2026-04-19T08:34:21.403Z</time></trkpt><trkpt lat="40.4139368" lon="15.1662315"><ele>814.0</ele><time>2026-04-19T08:34:22.403Z</time></trkpt><trkpt lat="40.4138414" lon="15.1663257"><ele>814.0</ele><time>2026-04-19T08:34:23.404Z</time></trkpt><trkpt lat="40.4137312" lon="15.1664403"><ele>814.0</ele><time>2026-04-19T08:34:24.405Z</time></trkpt><trkpt lat="40.4136104" lon="15.1665737"><ele>813.6666666666666</ele><time>2026-04-19T08:34:25.403Z</time></trkpt><trkpt lat="40.4134886" lon="15.1667119"><ele>813.3333333333333</ele><time>2026-04-19T08:34:26.403Z</time></trkpt><trkpt lat="40.4133696" lon="15.1668308"><ele>813.0</ele><time>2026-04-19T08:34:27.403Z</time></trkpt><trkpt lat="40.4132432" lon="15.1669344"><ele>813.0</ele><time>2026-04-19T08:34:28.403Z</time></trkpt><trkpt lat="40.4131154" lon="15.1669992"><ele>813.0</ele><time>2026-04-19T08:34:29.403Z</time></trkpt><trkpt lat="40.4129759" lon="15.1670468"><ele>813.0</ele><time>2026-04-19T08:34:30.403Z</time></trkpt><trkpt lat="40.412834" lon="15.1670889"><ele>813.0</ele><time>2026-04-19T08:34:31.404Z</time></trkpt><trkpt lat="40.4126888" lon="15.1671341"><ele>817.6666666666667</ele><time>2026-04-19T08:34:32.403Z</time></trkpt><trkpt lat="40.4125401" lon="15.1671792"><ele>822.3333333333334</ele><time>2026-04-19T08:34:33.404Z</time></trkpt><trkpt lat="40.4123891" lon="15.1672232"><ele>827.0</ele><time>2026-04-19T08:34:34.403Z</time></trkpt><trkpt lat="40.4122297" lon="15.167271"><ele>829.6666666666667</ele><time>2026-04-19T08:34:35.404Z</time></trkpt><trkpt lat="40.4120672" lon="15.1673139"><ele>832.3333333333333</ele><time>2026-04-19T08:34:36.403Z</time></trkpt><trkpt lat="40.4119032" lon="15.1673541"><ele>835.0</ele><time>2026-04-19T08:34:37.404Z</time></trkpt><trkpt lat="40.4117522" lon="15.1673876"><ele>832.0</ele><time>2026-04-19T08:34:38.403Z</time></trkpt><trkpt lat="40.4115966" lon="15.1674163"><ele>829.0</ele><time>2026-04-19T08:34:39.403Z</time></trkpt><trkpt lat="40.4114412" lon="15.1674392"><ele>826.0</ele><time>2026-04-19T08:34:40.403Z</time></trkpt><trkpt lat="40.4112875" lon="15.1674703"><ele>826.0</ele><time>2026-04-19T08:34:41.403Z</time></trkpt><trkpt lat="40.4111369" lon="15.1675009"><ele>826.0</ele><time>2026-04-19T08:34:42.404Z</time></trkpt><trkpt lat="40.4109895" lon="15.167532"><ele>826.0</ele><time>2026-04-19T08:34:43.403Z</time></trkpt><trkpt lat="40.41085" lon="15.1675832"><ele>826.0</ele><time>2026-04-19T08:34:44.403Z</time></trkpt><trkpt lat="40.4107144" lon="15.167661"><ele>826.0</ele><time>2026-04-19T08:34:45.403Z</time></trkpt><trkpt lat="40.4105852" lon="15.1677544"><ele>826.0</ele><time>2026-04-19T08:34:46.403Z</time></trkpt><trkpt lat="40.410455" lon="15.1678485"><ele>826.0</ele><time>2026-04-19T08:34:47.403Z</time></trkpt><trkpt lat="40.4103227" lon="15.1679548"><ele>827.0</ele><time>2026-04-19T08:34:48.403Z</time></trkpt><trkpt lat="40.4101859" lon="15.1680757"><ele>828.0</ele><time>2026-04-19T08:34:49.403Z</time></trkpt><trkpt lat="40.4100437" lon="15.1682053"><ele>829.0</ele><time>2026-04-19T08:34:50.405Z</time></trkpt><trkpt lat="40.4098987" lon="15.1683353"><ele>829.0</ele><time>2026-04-19T08:34:51.403Z</time></trkpt><trkpt lat="40.4097507" lon="15.1684603"><ele>829.0</ele><time>2026-04-19T08:34:52.404Z</time></trkpt><trkpt lat="40.4095993" lon="15.168583"><ele>829.0</ele><time>2026-04-19T08:34:53.403Z</time></trkpt><trkpt lat="40.4094603" lon="15.1686806"><ele>832.6666666666666</ele><time>2026-04-19T08:34:54.403Z</time></trkpt><trkpt lat="40.4093166" lon="15.1687471"><ele>836.3333333333333</ele><time>2026-04-19T08:34:55.403Z</time></trkpt><trkpt lat="40.4091675" lon="15.1687774"><ele>840.0</ele><time>2026-04-19T08:34:56.403Z</time></trkpt><trkpt lat="40.4090211" lon="15.1687944"><ele>840.0</ele><time>2026-04-19T08:34:57.404Z</time></trkpt><trkpt lat="40.4088849" lon="15.1688027"><ele>840.0</ele><time>2026-04-19T08:34:58.403Z</time></trkpt><trkpt lat="40.4087481" lon="15.1687886"><ele>840.0</ele><time>2026-04-19T08:34:59.403Z</time></trkpt><trkpt lat="40.408623" lon="15.1687513"><ele>840.0</ele><time>2026-04-19T08:35:00.403Z</time></trkpt><trkpt lat="40.4085128" lon="15.1687007"><ele>839.0</ele><time>2026-04-19T08:35:01.404Z</time></trkpt><trkpt lat="40.4084308" lon="15.1686282"><ele>838.0</ele><time>2026-04-19T08:35:02.403Z</time></trkpt><trkpt lat="40.4083918" lon="15.1685424"><ele>837.0</ele><time>2026-04-19T08:35:03.404Z</time></trkpt><trkpt lat="40.4083821" lon="15.1684386"><ele>836.0</ele><time>2026-04-19T08:35:04.403Z</time></trkpt><trkpt lat="40.4083897" lon="15.1682999"><ele>835.0</ele><time>2026-04-19T08:35:05.403Z</time></trkpt><trkpt lat="40.4083837" lon="15.1681501"><ele>836.4</ele><time>2026-04-19T08:35:06.404Z</time></trkpt><trkpt lat="40.4083481" lon="15.1680212"><ele>837.8</ele><time>2026-04-19T08:35:07.404Z</time></trkpt><trkpt lat="40.4082849" lon="15.1679073"><ele>839.2</ele><time>2026-04-19T08:35:08.403Z</time></trkpt><trkpt lat="40.4081945" lon="15.1678175"><ele>840.6</ele><time>2026-04-19T08:35:09.403Z</time></trkpt><trkpt lat="40.4080826" lon="15.1677491"><ele>842.0</ele><time>2026-04-19T08:35:10.403Z</time></trkpt><trkpt lat="40.4079539" lon="15.167701"><ele>842.0</ele><time>2026-04-19T08:35:11.403Z</time></trkpt><trkpt lat="40.4078183" lon="15.1676766"><ele>842.0</ele><time>2026-04-19T08:35:12.404Z</time></trkpt><trkpt lat="40.4076711" lon="15.1676735"><ele>842.0</ele><time>2026-04-19T08:35:13.403Z</time></trkpt><trkpt lat="40.4075297" lon="15.1676816"><ele>842.0</ele><time>2026-04-19T08:35:14.404Z</time></trkpt><trkpt lat="40.4073935" lon="15.1676933"><ele>842.0</ele><time>2026-04-19T08:35:15.403Z</time></trkpt><trkpt lat="40.4072555" lon="15.1677232"><ele>842.0</ele><time>2026-04-19T08:35:16.403Z</time></trkpt><trkpt lat="40.4071256" lon="15.1677767"><ele>842.0</ele><time>2026-04-19T08:35:17.403Z</time></trkpt><trkpt lat="40.4070073" lon="15.1678368"><ele>842.0</ele><time>2026-04-19T08:35:18.404Z</time></trkpt><trkpt lat="40.4069008" lon="15.167902"><ele>840.8</ele><time>2026-04-19T08:35:19.404Z</time></trkpt><trkpt lat="40.4068022" lon="15.1679683"><ele>839.6</ele><time>2026-04-19T08:35:20.403Z</time></trkpt><trkpt lat="40.4067101" lon="15.1680257"><ele>838.4</ele><time>2026-04-19T08:35:21.403Z</time></trkpt><trkpt lat="40.4066176" lon="15.1680872"><ele>837.1999999999999</ele><time>2026-04-19T08:35:22.403Z</time></trkpt><trkpt lat="40.4065307" lon="15.1681493"><ele>836.0</ele><time>2026-04-19T08:35:23.403Z</time></trkpt><trkpt lat="40.406437" lon="15.168209"><ele>836.0</ele><time>2026-04-19T08:35:24.403Z</time></trkpt><trkpt lat="40.4063386" lon="15.1682608"><ele>836.0</ele><time>2026-04-19T08:35:25.403Z</time></trkpt><trkpt lat="40.4062348" lon="15.1682974"><ele>836.0</ele><time>2026-04-19T08:35:26.403Z</time></trkpt><trkpt lat="40.4061414" lon="15.1683236"><ele>836.0</ele><time>2026-04-19T08:35:27.403Z</time></trkpt><trkpt lat="40.4060418" lon="15.1683615"><ele>836.0</ele><time>2026-04-19T08:35:28.403Z</time></trkpt><trkpt lat="40.4059427" lon="15.1684068"><ele>842.0</ele><time>2026-04-19T08:35:29.404Z</time></trkpt><trkpt lat="40.4058396" lon="15.1684524"><ele>848.0</ele><time>2026-04-19T08:35:30.403Z</time></trkpt><trkpt lat="40.4057335" lon="15.1685"><ele>854.0</ele><time>2026-04-19T08:35:31.403Z</time></trkpt><trkpt lat="40.4056252" lon="15.1685486"><ele>860.0</ele><time>2026-04-19T08:35:32.404Z</time></trkpt><trkpt lat="40.4055137" lon="15.1685981"><ele>869.25</ele><time>2026-04-19T08:35:33.404Z</time></trkpt><trkpt lat="40.4053987" lon="15.1686498"><ele>878.5</ele><time>2026-04-19T08:35:34.403Z</time></trkpt><trkpt lat="40.4052815" lon="15.1687034"><ele>887.75</ele><time>2026-04-19T08:35:35.403Z</time></trkpt><trkpt lat="40.4051618" lon="15.1687713"><ele>897.0</ele><time>2026-04-19T08:35:36.403Z</time></trkpt><trkpt lat="40.4050464" lon="15.1688547"><ele>897.0</ele><time>2026-04-19T08:35:37.404Z</time></trkpt><trkpt lat="40.4049358" lon="15.1689529"><ele>897.0</ele><time>2026-04-19T08:35:38.403Z</time></trkpt><trkpt lat="40.4048199" lon="15.1690405"><ele>897.0</ele><time>2026-04-19T08:35:39.403Z</time></trkpt><trkpt lat="40.404715" lon="15.1691171"><ele>897.0</ele><time>2026-04-19T08:35:40.403Z</time></trkpt><trkpt lat="40.4046279" lon="15.1692154"><ele>895.0</ele><time>2026-04-19T08:35:41.403Z</time></trkpt><trkpt lat="40.404555" lon="15.1693356"><ele>893.0</ele><time>2026-04-19T08:35:42.403Z</time></trkpt><trkpt lat="40.4044964" lon="15.1694732"><ele>891.0</ele><time>2026-04-19T08:35:43.403Z</time></trkpt><trkpt lat="40.4044434" lon="15.1696215"><ele>889.0</ele><time>2026-04-19T08:35:44.403Z</time></trkpt><trkpt lat="40.4043805" lon="15.1697628"><ele>881.0</ele><time>2026-04-19T08:35:45.403Z</time></trkpt><trkpt lat="40.4043074" lon="15.1698829"><ele>873.0</ele><time>2026-04-19T08:35:46.403Z</time></trkpt><trkpt lat="40.4042216" lon="15.1699853"><ele>865.0</ele><time>2026-04-19T08:35:47.403Z</time></trkpt><trkpt lat="40.4041197" lon="15.1700782"><ele>857.0</ele><time>2026-04-19T08:35:48.403Z</time></trkpt><trkpt lat="40.4040087" lon="15.1701596"><ele>857.0</ele><time>2026-04-19T08:35:49.405Z</time></trkpt><trkpt lat="40.4038995" lon="15.1702347"><ele>857.0</ele><time>2026-04-19T08:35:50.405Z</time></trkpt><trkpt lat="40.4037991" lon="15.1703015"><ele>857.0</ele><time>2026-04-19T08:35:51.403Z</time></trkpt><trkpt lat="40.4037053" lon="15.1703622"><ele>857.0</ele><time>2026-04-19T08:35:52.404Z</time></trkpt><trkpt lat="40.4036177" lon="15.170419"><ele>857.0</ele><time>2026-04-19T08:35:53.403Z</time></trkpt><trkpt lat="40.4035266" lon="15.1704739"><ele>857.4000000000001</ele><time>2026-04-19T08:35:54.403Z</time></trkpt><trkpt lat="40.4034379" lon="15.1705308"><ele>857.8000000000001</ele><time>2026-04-19T08:35:55.403Z</time></trkpt><trkpt lat="40.4033523" lon="15.1705851"><ele>858.2</ele><time>2026-04-19T08:35:56.403Z</time></trkpt><trkpt lat="40.403268" lon="15.1706439"><ele>858.6</ele><time>2026-04-19T08:35:57.403Z</time></trkpt><trkpt lat="40.4031805" lon="15.170703"><ele>859.0</ele><time>2026-04-19T08:35:58.404Z</time></trkpt><trkpt lat="40.4030899" lon="15.1707628"><ele>864.25</ele><time>2026-04-19T08:35:59.404Z</time></trkpt><trkpt lat="40.4029937" lon="15.1708233"><ele>869.5</ele><time>2026-04-19T08:36:00.403Z</time></trkpt><trkpt lat="40.4028945" lon="15.1708859"><ele>874.75</ele><time>2026-04-19T08:36:01.403Z</time></trkpt><trkpt lat="40.4027875" lon="15.1709507"><ele>880.0</ele><time>2026-04-19T08:36:02.403Z</time></trkpt><trkpt lat="40.4026776" lon="15.1710184"><ele>880.0</ele><time>2026-04-19T08:36:03.403Z</time></trkpt><trkpt lat="40.4025636" lon="15.1710845"><ele>880.0</ele><time>2026-04-19T08:36:04.403Z</time></trkpt><trkpt lat="40.4024508" lon="15.1711569"><ele>880.0</ele><time>2026-04-19T08:36:05.403Z</time></trkpt><trkpt lat="40.402338" lon="15.1712383"><ele>880.0</ele><time>2026-04-19T08:36:06.403Z</time></trkpt><trkpt lat="40.4022273" lon="15.1713308"><ele>881.25</ele><time>2026-04-19T08:36:07.403Z</time></trkpt><trkpt lat="40.4021175" lon="15.1714281"><ele>882.5</ele><time>2026-04-19T08:36:08.403Z</time></trkpt><trkpt lat="40.4020115" lon="15.1715295"><ele>883.75</ele><time>2026-04-19T08:36:09.403Z</time></trkpt><trkpt lat="40.4019057" lon="15.1716283"><ele>885.0</ele><time>2026-04-19T08:36:10.403Z</time></trkpt><trkpt lat="40.4018031" lon="15.1717038"><ele>882.4</ele><time>2026-04-19T08:36:11.403Z</time></trkpt><trkpt lat="40.4017012" lon="15.1717479"><ele>879.8</ele><time>2026-04-19T08:36:12.403Z</time></trkpt><trkpt lat="40.4016067" lon="15.1717554"><ele>877.2</ele><time>2026-04-19T08:36:13.403Z</time></trkpt><trkpt lat="40.4015198" lon="15.1717294"><ele>874.6</ele><time>2026-04-19T08:36:14.403Z</time></trkpt><trkpt lat="40.4014405" lon="15.1716718"><ele>872.0</ele><time>2026-04-19T08:36:15.403Z</time></trkpt><trkpt lat="40.4013723" lon="15.1715952"><ele>873.0</ele><time>2026-04-19T08:36:16.404Z</time></trkpt><trkpt lat="40.4013116" lon="15.1715133"><ele>874.0</ele><time>2026-04-19T08:36:17.403Z</time></trkpt><trkpt lat="40.4012302" lon="15.1714355"><ele>875.0</ele><time>2026-04-19T08:36:18.403Z</time></trkpt><trkpt lat="40.401138" lon="15.1713687"><ele>876.0</ele><time>2026-04-19T08:36:19.403Z</time></trkpt><trkpt lat="40.401052" lon="15.1713252"><ele>877.0</ele><time>2026-04-19T08:36:20.403Z</time></trkpt><trkpt lat="40.40098" lon="15.1713093"><ele>876.9999999999999</ele><time>2026-04-19T08:36:21.403Z</time></trkpt><trkpt lat="40.4009163" lon="15.1713233"><ele>877.0</ele><time>2026-04-19T08:36:22.403Z</time></trkpt><trkpt lat="40.4008638" lon="15.1713745"><ele>877.0</ele><time>2026-04-19T08:36:23.404Z</time></trkpt><trkpt lat="40.400822" lon="15.1714498"><ele>877.0</ele><time>2026-04-19T08:36:24.404Z</time></trkpt><trkpt lat="40.4007904" lon="15.1715585"><ele>876.9999999999999</ele><time>2026-04-19T08:36:25.403Z</time></trkpt><trkpt lat="40.4007677" lon="15.1716842"><ele>877.0</ele><time>2026-04-19T08:36:26.403Z</time></trkpt><trkpt lat="40.4007492" lon="15.1718266"><ele>877.0</ele><time>2026-04-19T08:36:27.403Z</time></trkpt><trkpt lat="40.400731" lon="15.1719853"><ele>877.0</ele><time>2026-04-19T08:36:28.403Z</time></trkpt><trkpt lat="40.4007154" lon="15.1721614"><ele>877.0</ele><time>2026-04-19T08:36:29.403Z</time></trkpt><trkpt lat="40.4007054" lon="15.1723683"><ele>877.0</ele><time>2026-04-19T08:36:30.403Z</time></trkpt><trkpt lat="40.4006957" lon="15.1725686"><ele>877.0</ele><time>2026-04-19T08:36:31.405Z</time></trkpt><trkpt lat="40.4006705" lon="15.1727503"><ele>877.0</ele><time>2026-04-19T08:36:32.403Z</time></trkpt><trkpt lat="40.4006351" lon="15.1729296"><ele>877.0</ele><time>2026-04-19T08:36:33.403Z</time></trkpt><trkpt lat="40.4005909" lon="15.1730813"><ele>877.0</ele><time>2026-04-19T08:36:34.403Z</time></trkpt><trkpt lat="40.4005315" lon="15.1732005"><ele>878.6666666666666</ele><time>2026-04-19T08:36:35.403Z</time></trkpt><trkpt lat="40.400464" lon="15.1732871"><ele>880.3333333333333</ele><time>2026-04-19T08:36:36.403Z</time></trkpt><trkpt lat="40.4003952" lon="15.17333"><ele>882.0</ele><time>2026-04-19T08:36:37.403Z</time></trkpt><trkpt lat="40.4003153" lon="15.1733319"><ele>883.6666666666667</ele><time>2026-04-19T08:36:38.404Z</time></trkpt><trkpt lat="40.400233" lon="15.1733003"><ele>885.3333333333334</ele><time>2026-04-19T08:36:39.403Z</time></trkpt><trkpt lat="40.4001427" lon="15.1732618"><ele>887.0</ele><time>2026-04-19T08:36:40.403Z</time></trkpt><trkpt lat="40.4000357" lon="15.1732165"><ele>892.5</ele><time>2026-04-19T08:36:41.403Z</time></trkpt><trkpt lat="40.3999133" lon="15.173181"><ele>898.0</ele><time>2026-04-19T08:36:42.403Z</time></trkpt><trkpt lat="40.3997843" lon="15.1731621"><ele>903.5</ele><time>2026-04-19T08:36:43.404Z</time></trkpt><trkpt lat="40.3996257" lon="15.1731487"><ele>909.0</ele><time>2026-04-19T08:36:44.403Z</time></trkpt><trkpt lat="40.3994464" lon="15.1731186"><ele>906.8000000000001</ele><time>2026-04-19T08:36:45.403Z</time></trkpt><trkpt lat="40.3993036" lon="15.1731112"><ele>904.6000000000001</ele><time>2026-04-19T08:36:46.403Z</time></trkpt><trkpt lat="40.3991925" lon="15.1731213"><ele>902.4</ele><time>2026-04-19T08:36:47.403Z</time></trkpt><trkpt lat="40.399094" lon="15.1731401"><ele>900.2</ele><time>2026-04-19T08:36:48.404Z</time></trkpt><trkpt lat="40.3990269" lon="15.1731728"><ele>898.0</ele><time>2026-04-19T08:36:49.403Z</time></trkpt><trkpt lat="40.3989284" lon="15.1732177"><ele>897.9999999999999</ele><time>2026-04-19T08:36:51.404Z</time></trkpt><trkpt lat="40.39887" lon="15.1732546"><ele>898.0</ele><time>2026-04-19T08:36:53.403Z</time></trkpt><trkpt lat="40.3988112" lon="15.1733583"><ele>898.0</ele><time>2026-04-19T08:37:23.404Z</time></trkpt><trkpt lat="40.3987626" lon="15.1734271"><ele>898.0</ele><time>2026-04-19T08:37:25.403Z</time></trkpt><trkpt lat="40.3986817" lon="15.1735063"><ele>897.9999999999999</ele><time>2026-04-19T08:37:27.403Z</time></trkpt><trkpt lat="40.3986204" lon="15.1735755"><ele>898.0</ele><time>2026-04-19T08:37:28.403Z</time></trkpt><trkpt lat="40.3985633" lon="15.1736372"><ele>898.0</ele><time>2026-04-19T08:37:29.403Z</time></trkpt><trkpt lat="40.3985155" lon="15.1737378"><ele>898.0</ele><time>2026-04-19T08:37:31.403Z</time></trkpt><trkpt lat="40.3985356" lon="15.1738874"><ele>898.0</ele><time>2026-04-19T08:37:33.404Z</time></trkpt><trkpt lat="40.3985578" lon="15.1740016"><ele>898.0</ele><time>2026-04-19T08:37:34.403Z</time></trkpt><trkpt lat="40.3985796" lon="15.1741138"><ele>898.0</ele><time>2026-04-19T08:37:35.404Z</time></trkpt><trkpt lat="40.3986072" lon="15.1742006"><ele>898.0</ele><time>2026-04-19T08:37:36.404Z</time></trkpt><trkpt lat="40.3986396" lon="15.1742889"><ele>898.0</ele><time>2026-04-19T08:37:37.403Z</time></trkpt><trkpt lat="40.3986554" lon="15.1743782"><ele>898.0</ele><time>2026-04-19T08:37:38.403Z</time></trkpt><trkpt lat="40.3986478" lon="15.1744928"><ele>898.0</ele><time>2026-04-19T08:37:39.404Z</time></trkpt><trkpt lat="40.398658" lon="15.1746461"><ele>898.0</ele><time>2026-04-19T08:37:40.403Z</time></trkpt><trkpt lat="40.3986718" lon="15.1747845"><ele>897.8333333333333</ele><time>2026-04-19T08:37:41.403Z</time></trkpt><trkpt lat="40.3986872" lon="15.1749212"><ele>897.6666666666666</ele><time>2026-04-19T08:37:42.403Z</time></trkpt><trkpt lat="40.3987211" lon="15.1750324"><ele>897.5</ele><time>2026-04-19T08:37:43.404Z</time></trkpt><trkpt lat="40.398751" lon="15.1751287"><ele>897.3333333333333</ele><time>2026-04-19T08:37:44.403Z</time></trkpt><trkpt lat="40.3987803" lon="15.1752157"><ele>897.1666666666666</ele><time>2026-04-19T08:37:45.404Z</time></trkpt><trkpt lat="40.3988021" lon="15.175306"><ele>897.0</ele><time>2026-04-19T08:37:46.403Z</time></trkpt><trkpt lat="40.3988352" lon="15.1754207"><ele>897.0</ele><time>2026-04-19T08:37:48.404Z</time></trkpt><trkpt lat="40.3988734" lon="15.1754937"><ele>897.0</ele><time>2026-04-19T08:37:51.404Z</time></trkpt><trkpt lat="40.3989338" lon="15.1755806"><ele>897.0</ele><time>2026-04-19T08:37:54.403Z</time></trkpt><trkpt lat="40.3989336" lon="15.1756676"><ele>897.0</ele><time>2026-04-19T08:37:57.403Z</time></trkpt><trkpt lat="40.3988965" lon="15.1757346"><ele>897.0</ele><time>2026-04-19T08:38:00.404Z</time></trkpt><trkpt lat="40.3988455" lon="15.175788"><ele>897.0</ele><time>2026-04-19T08:38:03.404Z</time></trkpt><trkpt lat="40.3987826" lon="15.1758424"><ele>897.0</ele><time>2026-04-19T08:38:06.403Z</time></trkpt><trkpt lat="40.3987018" lon="15.1759115"><ele>894.6666666666666</ele><time>2026-04-19T08:38:09.404Z</time></trkpt><trkpt lat="40.39863" lon="15.175975"><ele>892.3333333333333</ele><time>2026-04-19T08:38:12.403Z</time></trkpt><trkpt lat="40.3985909" lon="15.1760604"><ele>890.0</ele><time>2026-04-19T08:38:15.403Z</time></trkpt><trkpt lat="40.3985387" lon="15.1761223"><ele>887.6666666666666</ele><time>2026-04-19T08:38:18.403Z</time></trkpt><trkpt lat="40.3984636" lon="15.1761532"><ele>885.3333333333333</ele><time>2026-04-19T08:38:21.403Z</time></trkpt><trkpt lat="40.3983925" lon="15.176222"><ele>883.0</ele><time>2026-04-19T08:38:24.403Z</time></trkpt><trkpt lat="40.3983594" lon="15.1763085"><ele>882.9999999999999</ele><time>2026-04-19T08:38:26.403Z</time></trkpt><trkpt lat="40.3983337" lon="15.1763888"><ele>883.0</ele><time>2026-04-19T08:38:28.404Z</time></trkpt><trkpt lat="40.3983115" lon="15.1764681"><ele>883.0</ele><time>2026-04-19T08:38:31.404Z</time></trkpt><trkpt lat="40.3982404" lon="15.1765683"><ele>883.0</ele><time>2026-04-19T08:38:34.403Z</time></trkpt><trkpt lat="40.3981926" lon="15.1766285"><ele>882.9999999999999</ele><time>2026-04-19T08:38:36.403Z</time></trkpt><trkpt lat="40.3981293" lon="15.1767117"><ele>883.0</ele><time>2026-04-19T08:38:39.404Z</time></trkpt><trkpt lat="40.3980371" lon="15.1767723"><ele>876.5999999999999</ele><time>2026-04-19T08:38:41.404Z</time></trkpt><trkpt lat="40.3979562" lon="15.1768211"><ele>870.1999999999999</ele><time>2026-04-19T08:38:43.403Z</time></trkpt><trkpt lat="40.3978622" lon="15.176871"><ele>863.8</ele><time>2026-04-19T08:38:45.403Z</time></trkpt><trkpt lat="40.3977864" lon="15.1769218"><ele>857.4</ele><time>2026-04-19T08:38:47.403Z</time></trkpt><trkpt lat="40.3977321" lon="15.176976"><ele>851.0</ele><time>2026-04-19T08:38:50.403Z</time></trkpt><trkpt lat="40.3977476" lon="15.1771386"><ele>851.0</ele><time>2026-04-19T08:39:09.403Z</time></trkpt><trkpt lat="40.397773" lon="15.1772491"><ele>851.0</ele><time>2026-04-19T08:39:10.403Z</time></trkpt><trkpt lat="40.3977772" lon="15.1773748"><ele>851.0</ele><time>2026-04-19T08:39:11.403Z</time></trkpt><trkpt lat="40.3977815" lon="15.1775038"><ele>851.0</ele><time>2026-04-19T08:39:12.403Z</time></trkpt><trkpt lat="40.3977751" lon="15.1776326"><ele>851.0</ele><time>2026-04-19T08:39:13.403Z</time></trkpt><trkpt lat="40.3977616" lon="15.1777608"><ele>850.25</ele><time>2026-04-19T08:39:14.404Z</time></trkpt><trkpt lat="40.397729" lon="15.1779124"><ele>849.5</ele><time>2026-04-19T08:39:15.403Z</time></trkpt><trkpt lat="40.3976884" lon="15.1780649"><ele>848.75</ele><time>2026-04-19T08:39:16.403Z</time></trkpt><trkpt lat="40.3976554" lon="15.1782534"><ele>848.0</ele><time>2026-04-19T08:39:17.403Z</time></trkpt><trkpt lat="40.3975929" lon="15.1784293"><ele>847.75</ele><time>2026-04-19T08:39:18.403Z</time></trkpt><trkpt lat="40.3975529" lon="15.1785977"><ele>847.5</ele><time>2026-04-19T08:39:19.403Z</time></trkpt><trkpt lat="40.3975232" lon="15.1787656"><ele>847.25</ele><time>2026-04-19T08:39:20.403Z</time></trkpt><trkpt lat="40.3975037" lon="15.1789467"><ele>847.0</ele><time>2026-04-19T08:39:21.404Z</time></trkpt><trkpt lat="40.3974844" lon="15.1791284"><ele>848.0</ele><time>2026-04-19T08:39:22.404Z</time></trkpt><trkpt lat="40.3974554" lon="15.1793167"><ele>849.0</ele><time>2026-04-19T08:39:23.403Z</time></trkpt><trkpt lat="40.3974253" lon="15.1795023"><ele>850.0</ele><time>2026-04-19T08:39:24.403Z</time></trkpt><trkpt lat="40.3974063" lon="15.1796626"><ele>851.0</ele><time>2026-04-19T08:39:25.404Z</time></trkpt><trkpt lat="40.3973884" lon="15.1798157"><ele>850.8</ele><time>2026-04-19T08:39:26.403Z</time></trkpt><trkpt lat="40.3973632" lon="15.1799758"><ele>850.5999999999999</ele><time>2026-04-19T08:39:27.403Z</time></trkpt><trkpt lat="40.397336" lon="15.1801095"><ele>850.4</ele><time>2026-04-19T08:39:28.403Z</time></trkpt><trkpt lat="40.3973173" lon="15.1802039"><ele>850.2</ele><time>2026-04-19T08:39:29.404Z</time></trkpt><trkpt lat="40.3973679" lon="15.1803182"><ele>850.0</ele><time>2026-04-19T08:39:31.403Z</time></trkpt><trkpt lat="40.3974346" lon="15.1803517"><ele>850.0</ele><time>2026-04-19T08:39:32.403Z</time></trkpt><trkpt lat="40.3975305" lon="15.1803752"><ele>850.0</ele><time>2026-04-19T08:39:33.403Z</time></trkpt><trkpt lat="40.3976246" lon="15.1803907"><ele>850.0</ele><time>2026-04-19T08:39:34.403Z</time></trkpt><trkpt lat="40.3977276" lon="15.1804062"><ele>850.0</ele><time>2026-04-19T08:39:35.403Z</time></trkpt><trkpt lat="40.3978308" lon="15.1804234"><ele>850.0</ele><time>2026-04-19T08:39:36.403Z</time></trkpt><trkpt lat="40.3979271" lon="15.1804312"><ele>849.6666666666666</ele><time>2026-04-19T08:39:37.404Z</time></trkpt><trkpt lat="40.3980206" lon="15.1804257"><ele>849.3333333333333</ele><time>2026-04-19T08:39:38.404Z</time></trkpt><trkpt lat="40.3980994" lon="15.1804117"><ele>849.0</ele><time>2026-04-19T08:39:39.403Z</time></trkpt><trkpt lat="40.3981662" lon="15.1804036"><ele>848.6666666666667</ele><time>2026-04-19T08:39:40.403Z</time></trkpt><trkpt lat="40.3982425" lon="15.1804591"><ele>848.3333333333334</ele><time>2026-04-19T08:39:42.403Z</time></trkpt><trkpt lat="40.3982084" lon="15.1805525"><ele>848.0</ele><time>2026-04-19T08:39:44.403Z</time></trkpt><trkpt lat="40.39817" lon="15.1806228"><ele>843.8</ele><time>2026-04-19T08:39:45.403Z</time></trkpt><trkpt lat="40.3981308" lon="15.1806982"><ele>839.5999999999999</ele><time>2026-04-19T08:39:46.403Z</time></trkpt><trkpt lat="40.3981423" lon="15.1808366"><ele>835.4000000000001</ele><time>2026-04-19T08:39:48.405Z</time></trkpt><trkpt lat="40.3982316" lon="15.1808644"><ele>831.2</ele><time>2026-04-19T08:39:50.404Z</time></trkpt><trkpt lat="40.3983347" lon="15.1808278"><ele>827.0</ele><time>2026-04-19T08:39:52.403Z</time></trkpt><trkpt lat="40.3984264" lon="15.1808168"><ele>827.0000000000001</ele><time>2026-04-19T08:39:54.403Z</time></trkpt><trkpt lat="40.3984814" lon="15.180884"><ele>827.0</ele><time>2026-04-19T08:39:56.404Z</time></trkpt><trkpt lat="40.3984956" lon="15.1810032"><ele>827.0</ele><time>2026-04-19T08:39:58.403Z</time></trkpt><trkpt lat="40.398493" lon="15.1810997"><ele>827.0</ele><time>2026-04-19T08:39:59.403Z</time></trkpt><trkpt lat="40.3985023" lon="15.1811871"><ele>827.0000000000001</ele><time>2026-04-19T08:40:00.403Z</time></trkpt><trkpt lat="40.3985708" lon="15.1813319"><ele>827.0</ele><time>2026-04-19T08:40:02.404Z</time></trkpt><trkpt lat="40.3986189" lon="15.1813902"><ele>827.0</ele><time>2026-04-19T08:40:03.403Z</time></trkpt><trkpt lat="40.3986709" lon="15.1814466"><ele>827.0</ele><time>2026-04-19T08:40:04.403Z</time></trkpt><trkpt lat="40.3987134" lon="15.1815082"><ele>827.0</ele><time>2026-04-19T08:40:05.404Z</time></trkpt><trkpt lat="40.3987616" lon="15.1815783"><ele>827.0</ele><time>2026-04-19T08:40:06.403Z</time></trkpt><trkpt lat="40.3988204" lon="15.1816443"><ele>827.0</ele><time>2026-04-19T08:40:07.404Z</time></trkpt><trkpt lat="40.3988898" lon="15.1816957"><ele>827.0</ele><time>2026-04-19T08:40:08.403Z</time></trkpt><trkpt lat="40.3989671" lon="15.1817298"><ele>827.0</ele><time>2026-04-19T08:40:09.403Z</time></trkpt><trkpt lat="40.3990501" lon="15.1817475"><ele>822.5000000000001</ele><time>2026-04-19T08:40:10.404Z</time></trkpt><trkpt lat="40.3991336" lon="15.1817798"><ele>818.0</ele><time>2026-04-19T08:40:11.403Z</time></trkpt><trkpt lat="40.3992098" lon="15.1818208"><ele>813.5</ele><time>2026-04-19T08:40:12.404Z</time></trkpt><trkpt lat="40.3992759" lon="15.1818688"><ele>809.0</ele><time>2026-04-19T08:40:13.403Z</time></trkpt><trkpt lat="40.3993294" lon="15.1819253"><ele>804.5000000000001</ele><time>2026-04-19T08:40:14.403Z</time></trkpt><trkpt lat="40.3993698" lon="15.1819917"><ele>800.0</ele><time>2026-04-19T08:40:15.404Z</time></trkpt><trkpt lat="40.3993826" lon="15.1821506"><ele>800.0000000000001</ele><time>2026-04-19T08:40:17.403Z</time></trkpt><trkpt lat="40.3993671" lon="15.1822466"><ele>800.0</ele><time>2026-04-19T08:40:18.404Z</time></trkpt><trkpt lat="40.3993361" lon="15.1823275"><ele>800.0</ele><time>2026-04-19T08:40:19.403Z</time></trkpt><trkpt lat="40.3992929" lon="15.1823997"><ele>800.0</ele><time>2026-04-19T08:40:20.405Z</time></trkpt><trkpt lat="40.3992363" lon="15.1824576"><ele>800.0000000000001</ele><time>2026-04-19T08:40:21.403Z</time></trkpt><trkpt lat="40.3991621" lon="15.1825033"><ele>800.0</ele><time>2026-04-19T08:40:22.404Z</time></trkpt><trkpt lat="40.3990735" lon="15.1825287"><ele>800.8333333333334</ele><time>2026-04-19T08:40:23.403Z</time></trkpt><trkpt lat="40.398994" lon="15.1825374"><ele>801.6666666666667</ele><time>2026-04-19T08:40:24.403Z</time></trkpt><trkpt lat="40.3989266" lon="15.1825466"><ele>802.5</ele><time>2026-04-19T08:40:25.404Z</time></trkpt><trkpt lat="40.3988627" lon="15.1825713"><ele>803.3333333333333</ele><time>2026-04-19T08:40:26.404Z</time></trkpt><trkpt lat="40.3987713" lon="15.1826623"><ele>804.1666666666666</ele><time>2026-04-19T08:40:28.403Z</time></trkpt><trkpt lat="40.3987643" lon="15.1827997"><ele>805.0</ele><time>2026-04-19T08:40:30.404Z</time></trkpt><trkpt lat="40.3988467" lon="15.1828723"><ele>801.9999999999999</ele><time>2026-04-19T08:40:32.403Z</time></trkpt><trkpt lat="40.3989602" lon="15.1828355"><ele>799.0</ele><time>2026-04-19T08:40:34.403Z</time></trkpt><trkpt lat="40.3990243" lon="15.1828114"><ele>796.0</ele><time>2026-04-19T08:40:35.403Z</time></trkpt><trkpt lat="40.3991351" lon="15.1828183"><ele>793.0</ele><time>2026-04-19T08:40:37.403Z</time></trkpt><trkpt lat="40.3991818" lon="15.1829193"><ele>789.9999999999999</ele><time>2026-04-19T08:40:39.404Z</time></trkpt><trkpt lat="40.3991675" lon="15.183002"><ele>787.0</ele><time>2026-04-19T08:40:40.403Z</time></trkpt><trkpt lat="40.3991445" lon="15.1830983"><ele>783.8333333333333</ele><time>2026-04-19T08:40:41.403Z</time></trkpt><trkpt lat="40.3991311" lon="15.1832046"><ele>780.6666666666666</ele><time>2026-04-19T08:40:42.403Z</time></trkpt><trkpt lat="40.399119" lon="15.1833095"><ele>777.5</ele><time>2026-04-19T08:40:43.403Z</time></trkpt><trkpt lat="40.399104" lon="15.1834032"><ele>774.3333333333333</ele><time>2026-04-19T08:40:44.403Z</time></trkpt><trkpt lat="40.3990895" lon="15.1834923"><ele>771.1666666666666</ele><time>2026-04-19T08:40:45.403Z</time></trkpt><trkpt lat="40.3990874" lon="15.1835828"><ele>768.0</ele><time>2026-04-19T08:40:46.403Z</time></trkpt><trkpt lat="40.3990908" lon="15.1836822"><ele>768.0</ele><time>2026-04-19T08:40:47.403Z</time></trkpt><trkpt lat="40.3991141" lon="15.1837765"><ele>768.0</ele><time>2026-04-19T08:40:48.403Z</time></trkpt><trkpt lat="40.3991562" lon="15.1838467"><ele>768.0</ele><time>2026-04-19T08:40:49.403Z</time></trkpt><trkpt lat="40.3992189" lon="15.1838992"><ele>768.0</ele><time>2026-04-19T08:40:50.403Z</time></trkpt><trkpt lat="40.3992949" lon="15.1839446"><ele>768.0</ele><time>2026-04-19T08:40:51.403Z</time></trkpt><trkpt lat="40.3993955" lon="15.1839801"><ele>768.0</ele><time>2026-04-19T08:40:52.403Z</time></trkpt><trkpt lat="40.3994997" lon="15.1840162"><ele>765.5999999999999</ele><time>2026-04-19T08:40:53.404Z</time></trkpt><trkpt lat="40.3995996" lon="15.1840431"><ele>763.1999999999999</ele><time>2026-04-19T08:40:54.403Z</time></trkpt><trkpt lat="40.3996878" lon="15.1840531"><ele>760.8</ele><time>2026-04-19T08:40:55.403Z</time></trkpt><trkpt lat="40.3997582" lon="15.1840421"><ele>758.4</ele><time>2026-04-19T08:40:56.403Z</time></trkpt><trkpt lat="40.3998608" lon="15.1839334"><ele>756.0</ele><time>2026-04-19T08:40:58.403Z</time></trkpt><trkpt lat="40.3998985" lon="15.1838537"><ele>756.8333333333334</ele><time>2026-04-19T08:40:59.403Z</time></trkpt><trkpt lat="40.3999172" lon="15.1837643"><ele>757.6666666666666</ele><time>2026-04-19T08:41:00.403Z</time></trkpt><trkpt lat="40.3999187" lon="15.1836591"><ele>758.5</ele><time>2026-04-19T08:41:01.403Z</time></trkpt><trkpt lat="40.3999094" lon="15.1835259"><ele>759.3333333333333</ele><time>2026-04-19T08:41:02.403Z</time></trkpt><trkpt lat="40.3998999" lon="15.1833984"><ele>760.1666666666666</ele><time>2026-04-19T08:41:03.403Z</time></trkpt><trkpt lat="40.3999021" lon="15.1832879"><ele>761.0</ele><time>2026-04-19T08:41:04.403Z</time></trkpt><trkpt lat="40.3999239" lon="15.1831748"><ele>761.0</ele><time>2026-04-19T08:41:05.404Z</time></trkpt><trkpt lat="40.3999703" lon="15.183049"><ele>761.0</ele><time>2026-04-19T08:41:06.403Z</time></trkpt><trkpt lat="40.4000265" lon="15.1829371"><ele>761.0</ele><time>2026-04-19T08:41:07.404Z</time></trkpt><trkpt lat="40.4000965" lon="15.1828425"><ele>761.0</ele><time>2026-04-19T08:41:08.403Z</time></trkpt><trkpt lat="40.4001769" lon="15.1827619"><ele>761.0</ele><time>2026-04-19T08:41:09.403Z</time></trkpt><trkpt lat="40.4002497" lon="15.1826606"><ele>761.0</ele><time>2026-04-19T08:41:10.403Z</time></trkpt><trkpt lat="40.4003135" lon="15.182553"><ele>761.0</ele><time>2026-04-19T08:41:11.403Z</time></trkpt><trkpt lat="40.4003693" lon="15.1824396"><ele>761.0</ele><time>2026-04-19T08:41:12.403Z</time></trkpt><trkpt lat="40.4004186" lon="15.182341"><ele>761.0</ele><time>2026-04-19T08:41:13.403Z</time></trkpt><trkpt lat="40.4004586" lon="15.1822468"><ele>761.0</ele><time>2026-04-19T08:41:14.403Z</time></trkpt><trkpt lat="40.4004895" lon="15.1821502"><ele>753.5999999999999</ele><time>2026-04-19T08:41:15.404Z</time></trkpt><trkpt lat="40.4005232" lon="15.1820491"><ele>746.2</ele><time>2026-04-19T08:41:16.403Z</time></trkpt><trkpt lat="40.4005202" lon="15.1819249"><ele>738.8</ele><time>2026-04-19T08:41:17.403Z</time></trkpt><trkpt lat="40.400521" lon="15.1818016"><ele>731.4000000000001</ele><time>2026-04-19T08:41:18.404Z</time></trkpt><trkpt lat="40.4005113" lon="15.1816765"><ele>724.0</ele><time>2026-04-19T08:41:19.403Z</time></trkpt><trkpt lat="40.4005051" lon="15.1815607"><ele>724.1666666666667</ele><time>2026-04-19T08:41:20.404Z</time></trkpt><trkpt lat="40.4005133" lon="15.18147"><ele>724.3333333333334</ele><time>2026-04-19T08:41:21.403Z</time></trkpt><trkpt lat="40.4005346" lon="15.1813881"><ele>724.5</ele><time>2026-04-19T08:41:22.403Z</time></trkpt><trkpt lat="40.400577" lon="15.1813085"><ele>724.6666666666666</ele><time>2026-04-19T08:41:23.403Z</time></trkpt><trkpt lat="40.4006277" lon="15.1812148"><ele>724.8333333333333</ele><time>2026-04-19T08:41:24.403Z</time></trkpt><trkpt lat="40.4007018" lon="15.1811165"><ele>725.0</ele><time>2026-04-19T08:41:25.403Z</time></trkpt><trkpt lat="40.4007708" lon="15.1810325"><ele>725.0</ele><time>2026-04-19T08:41:26.404Z</time></trkpt><trkpt lat="40.4008479" lon="15.1809558"><ele>725.0</ele><time>2026-04-19T08:41:27.403Z</time></trkpt><trkpt lat="40.4009255" lon="15.1808876"><ele>725.0</ele><time>2026-04-19T08:41:28.403Z</time></trkpt><trkpt lat="40.4009911" lon="15.1808291"><ele>725.0</ele><time>2026-04-19T08:41:29.403Z</time></trkpt><trkpt lat="40.4010389" lon="15.1807561"><ele>725.0</ele><time>2026-04-19T08:41:30.404Z</time></trkpt><trkpt lat="40.4010708" lon="15.1806652"><ele>725.0</ele><time>2026-04-19T08:41:31.403Z</time></trkpt><trkpt lat="40.4010857" lon="15.1805684"><ele>725.4</ele><time>2026-04-19T08:41:32.403Z</time></trkpt><trkpt lat="40.4010996" lon="15.1804846"><ele>725.8</ele><time>2026-04-19T08:41:33.403Z</time></trkpt><trkpt lat="40.401176" lon="15.1803629"><ele>726.2</ele><time>2026-04-19T08:41:35.404Z</time></trkpt><trkpt lat="40.4012911" lon="15.1803246"><ele>726.6</ele><time>2026-04-19T08:41:37.403Z</time></trkpt><trkpt lat="40.4013859" lon="15.1804065"><ele>727.0</ele><time>2026-04-19T08:41:39.403Z</time></trkpt><trkpt lat="40.4014505" lon="15.1805275"><ele>722.4000000000001</ele><time>2026-04-19T08:41:41.404Z</time></trkpt><trkpt lat="40.4015393" lon="15.1805442"><ele>717.8000000000001</ele><time>2026-04-19T08:41:43.403Z</time></trkpt><trkpt lat="40.4016155" lon="15.1804141"><ele>713.2</ele><time>2026-04-19T08:41:45.403Z</time></trkpt><trkpt lat="40.4016589" lon="15.1802998"><ele>708.6</ele><time>2026-04-19T08:41:46.404Z</time></trkpt><trkpt lat="40.4017014" lon="15.1801776"><ele>704.0</ele><time>2026-04-19T08:41:47.403Z</time></trkpt><trkpt lat="40.4017465" lon="15.1800563"><ele>704.0</ele><time>2026-04-19T08:41:48.403Z</time></trkpt><trkpt lat="40.4017994" lon="15.1799483"><ele>704.0</ele><time>2026-04-19T08:41:49.403Z</time></trkpt><trkpt lat="40.4018619" lon="15.1798692"><ele>704.0</ele><time>2026-04-19T08:41:50.403Z</time></trkpt><trkpt lat="40.4019289" lon="15.1797998"><ele>704.0</ele><time>2026-04-19T08:41:51.403Z</time></trkpt><trkpt lat="40.4019987" lon="15.1797333"><ele>704.0</ele><time>2026-04-19T08:41:52.404Z</time></trkpt><trkpt lat="40.402053" lon="15.1796905"><ele>704.0</ele><time>2026-04-19T08:41:53.403Z</time></trkpt><trkpt lat="40.402146" lon="15.1796968"><ele>698.5</ele><time>2026-04-19T08:41:55.403Z</time></trkpt><trkpt lat="40.402211" lon="15.1798365"><ele>693.0</ele><time>2026-04-19T08:41:57.403Z</time></trkpt><trkpt lat="40.4022544" lon="15.1799624"><ele>687.5</ele><time>2026-04-19T08:41:58.403Z</time></trkpt><trkpt lat="40.4023152" lon="15.1801008"><ele>682.0</ele><time>2026-04-19T08:41:59.403Z</time></trkpt><trkpt lat="40.4023804" lon="15.1802306"><ele>682.0</ele><time>2026-04-19T08:42:00.403Z</time></trkpt><trkpt lat="40.402443" lon="15.1803517"><ele>682.0</ele><time>2026-04-19T08:42:01.403Z</time></trkpt><trkpt lat="40.4024878" lon="15.1804591"><ele>682.0</ele><time>2026-04-19T08:42:02.403Z</time></trkpt><trkpt lat="40.4025277" lon="15.1805574"><ele>682.0</ele><time>2026-04-19T08:42:03.403Z</time></trkpt><trkpt lat="40.4025624" lon="15.1806433"><ele>682.0</ele><time>2026-04-19T08:42:04.404Z</time></trkpt><trkpt lat="40.4025941" lon="15.1807833"><ele>681.6666666666667</ele><time>2026-04-19T08:42:06.403Z</time></trkpt><trkpt lat="40.402547" lon="15.1809206"><ele>681.3333333333334</ele><time>2026-04-19T08:42:08.403Z</time></trkpt><trkpt lat="40.4024999" lon="15.1810072"><ele>681.0</ele><time>2026-04-19T08:42:09.403Z</time></trkpt><trkpt lat="40.4024538" lon="15.181095"><ele>680.6666666666666</ele><time>2026-04-19T08:42:10.405Z</time></trkpt><trkpt lat="40.4024222" lon="15.1811767"><ele>680.3333333333333</ele><time>2026-04-19T08:42:11.403Z</time></trkpt><trkpt lat="40.4024172" lon="15.1813052"><ele>680.0</ele><time>2026-04-19T08:42:13.403Z</time></trkpt><trkpt lat="40.402509" lon="15.1813232"><ele>680.0</ele><time>2026-04-19T08:42:15.403Z</time></trkpt><trkpt lat="40.4025708" lon="15.1812991"><ele>680.0</ele><time>2026-04-19T08:42:16.403Z</time></trkpt><trkpt lat="40.4026365" lon="15.1812897"><ele>680.0</ele><time>2026-04-19T08:42:17.404Z</time></trkpt><trkpt lat="40.4027477" lon="15.1813489"><ele>680.0</ele><time>2026-04-19T08:42:19.403Z</time></trkpt><trkpt lat="40.4027891" lon="15.181419"><ele>680.0</ele><time>2026-04-19T08:42:20.403Z</time></trkpt><trkpt lat="40.4028342" lon="15.1815128"><ele>680.0</ele><time>2026-04-19T08:42:21.403Z</time></trkpt><trkpt lat="40.4028795" lon="15.1816152"><ele>678.2</ele><time>2026-04-19T08:42:22.403Z</time></trkpt><trkpt lat="40.4029229" lon="15.1817269"><ele>676.4</ele><time>2026-04-19T08:42:23.403Z</time></trkpt><trkpt lat="40.4029591" lon="15.1818373"><ele>674.5999999999999</ele><time>2026-04-19T08:42:24.404Z</time></trkpt><trkpt lat="40.40298" lon="15.1819507"><ele>672.8</ele><time>2026-04-19T08:42:25.403Z</time></trkpt><trkpt lat="40.403004" lon="15.1820662"><ele>671.0</ele><time>2026-04-19T08:42:26.403Z</time></trkpt><trkpt lat="40.4030388" lon="15.1821824"><ele>667.4</ele><time>2026-04-19T08:42:27.404Z</time></trkpt><trkpt lat="40.4030891" lon="15.1822956"><ele>663.8</ele><time>2026-04-19T08:42:28.403Z</time></trkpt><trkpt lat="40.4031439" lon="15.1824141"><ele>660.1999999999999</ele><time>2026-04-19T08:42:29.403Z</time></trkpt><trkpt lat="40.4032011" lon="15.18254"><ele>656.5999999999999</ele><time>2026-04-19T08:42:30.403Z</time></trkpt><trkpt lat="40.4032554" lon="15.1826756"><ele>653.0</ele><time>2026-04-19T08:42:31.403Z</time></trkpt><trkpt lat="40.4033079" lon="15.182816"><ele>652.2</ele><time>2026-04-19T08:42:32.403Z</time></trkpt><trkpt lat="40.4033605" lon="15.1829525"><ele>651.4</ele><time>2026-04-19T08:42:33.403Z</time></trkpt><trkpt lat="40.4034058" lon="15.1830725"><ele>650.6</ele><time>2026-04-19T08:42:34.403Z</time></trkpt><trkpt lat="40.4034477" lon="15.1831808"><ele>649.8000000000001</ele><time>2026-04-19T08:42:35.403Z</time></trkpt><trkpt lat="40.4034828" lon="15.1832798"><ele>649.0</ele><time>2026-04-19T08:42:36.403Z</time></trkpt><trkpt lat="40.4035144" lon="15.1833701"><ele>647.8333333333334</ele><time>2026-04-19T08:42:37.403Z</time></trkpt><trkpt lat="40.4035258" lon="15.1834527"><ele>646.6666666666667</ele><time>2026-04-19T08:42:38.403Z</time></trkpt><trkpt lat="40.4035149" lon="15.1835382"><ele>645.5</ele><time>2026-04-19T08:42:39.403Z</time></trkpt><trkpt lat="40.4034879" lon="15.1836223"><ele>644.3333333333334</ele><time>2026-04-19T08:42:40.405Z</time></trkpt><trkpt lat="40.4034479" lon="15.1837121"><ele>643.1666666666666</ele><time>2026-04-19T08:42:41.403Z</time></trkpt><trkpt lat="40.4034034" lon="15.1838097"><ele>642.0</ele><time>2026-04-19T08:42:42.404Z</time></trkpt><trkpt lat="40.4033568" lon="15.1839176"><ele>638.4</ele><time>2026-04-19T08:42:43.403Z</time></trkpt><trkpt lat="40.4033032" lon="15.1840309"><ele>634.8000000000001</ele><time>2026-04-19T08:42:44.403Z</time></trkpt><trkpt lat="40.4032495" lon="15.1841425"><ele>631.2</ele><time>2026-04-19T08:42:45.403Z</time></trkpt><trkpt lat="40.4031951" lon="15.1842605"><ele>627.6</ele><time>2026-04-19T08:42:46.403Z</time></trkpt><trkpt lat="40.4031545" lon="15.1843633"><ele>624.0</ele><time>2026-04-19T08:42:47.403Z</time></trkpt><trkpt lat="40.4031218" lon="15.1844571"><ele>624.0</ele><time>2026-04-19T08:42:48.403Z</time></trkpt><trkpt lat="40.4030982" lon="15.1845401"><ele>624.0</ele><time>2026-04-19T08:42:49.404Z</time></trkpt><trkpt lat="40.4030782" lon="15.1846201"><ele>624.0</ele><time>2026-04-19T08:42:50.403Z</time></trkpt><trkpt lat="40.4030638" lon="15.1847645"><ele>624.0</ele><time>2026-04-19T08:42:52.403Z</time></trkpt><trkpt lat="40.4030854" lon="15.1848621"><ele>624.0</ele><time>2026-04-19T08:42:54.403Z</time></trkpt><trkpt lat="40.403151" lon="15.1848703"><ele>624.0</ele><time>2026-04-19T08:42:58.404Z</time></trkpt><trkpt lat="40.4031884" lon="15.1847569"><ele>624.0</ele><time>2026-04-19T08:43:21.404Z</time></trkpt><trkpt lat="40.4032201" lon="15.1846574"><ele>624.0</ele><time>2026-04-19T08:43:22.403Z</time></trkpt><trkpt lat="40.403256" lon="15.1845423"><ele>624.0</ele><time>2026-04-19T08:43:23.403Z</time></trkpt><trkpt lat="40.4032925" lon="15.1844287"><ele>624.0</ele><time>2026-04-19T08:43:24.403Z</time></trkpt><trkpt lat="40.4033302" lon="15.1843024"><ele>624.0</ele><time>2026-04-19T08:43:25.403Z</time></trkpt><trkpt lat="40.4033713" lon="15.1841702"><ele>624.0</ele><time>2026-04-19T08:43:26.403Z</time></trkpt><trkpt lat="40.4034156" lon="15.1840872"><ele>624.0</ele><time>2026-04-19T08:43:27.403Z</time></trkpt><trkpt lat="40.4034652" lon="15.1840245"><ele>624.0</ele><time>2026-04-19T08:43:28.403Z</time></trkpt><trkpt lat="40.4035229" lon="15.1839802"><ele>624.0</ele><time>2026-04-19T08:43:29.403Z</time></trkpt><trkpt lat="40.4036111" lon="15.1839823"><ele>624.0</ele><time>2026-04-19T08:43:30.403Z</time></trkpt><trkpt lat="40.4036806" lon="15.183966"><ele>624.0</ele><time>2026-04-19T08:43:31.403Z</time></trkpt><trkpt lat="40.4037442" lon="15.1839262"><ele>624.0</ele><time>2026-04-19T08:43:32.403Z</time></trkpt><trkpt lat="40.4038042" lon="15.1838661"><ele>622.8333333333334</ele><time>2026-04-19T08:43:33.403Z</time></trkpt><trkpt lat="40.4038582" lon="15.1838028"><ele>621.6666666666666</ele><time>2026-04-19T08:43:34.403Z</time></trkpt><trkpt lat="40.4038928" lon="15.1836929"><ele>620.5</ele><time>2026-04-19T08:43:35.404Z</time></trkpt><trkpt lat="40.4039311" lon="15.1835728"><ele>619.3333333333333</ele><time>2026-04-19T08:43:36.403Z</time></trkpt><trkpt lat="40.4039525" lon="15.1834778"><ele>618.1666666666666</ele><time>2026-04-19T08:43:37.403Z</time></trkpt><trkpt lat="40.4039734" lon="15.1833942"><ele>617.0</ele><time>2026-04-19T08:43:38.403Z</time></trkpt><trkpt lat="40.4040111" lon="15.1832366"><ele>617.0</ele><time>2026-04-19T08:43:40.403Z</time></trkpt><trkpt lat="40.4040458" lon="15.1830921"><ele>617.0</ele><time>2026-04-19T08:43:42.403Z</time></trkpt><trkpt lat="40.4041054" lon="15.1830056"><ele>617.0</ele><time>2026-04-19T08:43:44.403Z</time></trkpt><trkpt lat="40.4041874" lon="15.1830189"><ele>617.0</ele><time>2026-04-19T08:43:46.403Z</time></trkpt><trkpt lat="40.4042309" lon="15.1831128"><ele>617.0</ele><time>2026-04-19T08:43:48.403Z</time></trkpt><trkpt lat="40.4042538" lon="15.1832459"><ele>617.0</ele><time>2026-04-19T08:43:50.403Z</time></trkpt><trkpt lat="40.4042797" lon="15.1833957"><ele>617.0</ele><time>2026-04-19T08:43:52.403Z</time></trkpt><trkpt lat="40.4043404" lon="15.1835258"><ele>617.0</ele><time>2026-04-19T08:43:54.404Z</time></trkpt><trkpt lat="40.4043892" lon="15.1835902"><ele>617.0</ele><time>2026-04-19T08:43:55.403Z</time></trkpt><trkpt lat="40.4044448" lon="15.1836469"><ele>617.0</ele><time>2026-04-19T08:43:56.404Z</time></trkpt><trkpt lat="40.4045037" lon="15.1837027"><ele>617.0</ele><time>2026-04-19T08:43:57.404Z</time></trkpt><trkpt lat="40.4045701" lon="15.183749"><ele>617.0</ele><time>2026-04-19T08:43:58.403Z</time></trkpt><trkpt lat="40.4046382" lon="15.1837936"><ele>617.0</ele><time>2026-04-19T08:43:59.404Z</time></trkpt><trkpt lat="40.4047078" lon="15.1838433"><ele>617.0</ele><time>2026-04-19T08:44:00.404Z</time></trkpt><trkpt lat="40.4047779" lon="15.1838952"><ele>617.0</ele><time>2026-04-19T08:44:01.403Z</time></trkpt><trkpt lat="40.4048273" lon="15.1839699"><ele>617.0</ele><time>2026-04-19T08:44:02.403Z</time></trkpt><trkpt lat="40.4048657" lon="15.1840553"><ele>617.0</ele><time>2026-04-19T08:44:03.403Z</time></trkpt><trkpt lat="40.4048983" lon="15.1841593"><ele>614.0</ele><time>2026-04-19T08:44:04.403Z</time></trkpt><trkpt lat="40.4049137" lon="15.1842701"><ele>611.0</ele><time>2026-04-19T08:44:05.403Z</time></trkpt><trkpt lat="40.4049313" lon="15.184408"><ele>608.0</ele><time>2026-04-19T08:44:06.403Z</time></trkpt><trkpt lat="40.4049535" lon="15.1845317"><ele>605.0</ele><time>2026-04-19T08:44:07.403Z</time></trkpt><trkpt lat="40.4049725" lon="15.1846435"><ele>602.0</ele><time>2026-04-19T08:44:08.403Z</time></trkpt><trkpt lat="40.4049997" lon="15.1847314"><ele>599.0</ele><time>2026-04-19T08:44:09.403Z</time></trkpt><trkpt lat="40.405047" lon="15.1847966"><ele>597.0</ele><time>2026-04-19T08:44:10.404Z</time></trkpt><trkpt lat="40.4051343" lon="15.1848547"><ele>595.0</ele><time>2026-04-19T08:44:11.403Z</time></trkpt><trkpt lat="40.4052345" lon="15.1849168"><ele>593.0</ele><time>2026-04-19T08:44:12.403Z</time></trkpt><trkpt lat="40.4053445" lon="15.1849785"><ele>591.0</ele><time>2026-04-19T08:44:13.403Z</time></trkpt><trkpt lat="40.405447" lon="15.1850373"><ele>589.0</ele><time>2026-04-19T08:44:14.403Z</time></trkpt><trkpt lat="40.405551" lon="15.1850857"><ele>587.8</ele><time>2026-04-19T08:44:15.403Z</time></trkpt><trkpt lat="40.4056624" lon="15.1851292"><ele>586.5999999999999</ele><time>2026-04-19T08:44:16.403Z</time></trkpt><trkpt lat="40.4057806" lon="15.1851658"><ele>585.4</ele><time>2026-04-19T08:44:17.403Z</time></trkpt><trkpt lat="40.4058861" lon="15.1851952"><ele>584.1999999999999</ele><time>2026-04-19T08:44:18.403Z</time></trkpt><trkpt lat="40.4059843" lon="15.1852247"><ele>583.0</ele><time>2026-04-19T08:44:19.403Z</time></trkpt><trkpt lat="40.4060766" lon="15.1852597"><ele>583.0</ele><time>2026-04-19T08:44:20.403Z</time></trkpt><trkpt lat="40.4061655" lon="15.185303"><ele>583.0</ele><time>2026-04-19T08:44:21.403Z</time></trkpt><trkpt lat="40.4062553" lon="15.1853523"><ele>583.0</ele><time>2026-04-19T08:44:22.404Z</time></trkpt><trkpt lat="40.4063431" lon="15.1853987"><ele>583.0</ele><time>2026-04-19T08:44:23.403Z</time></trkpt><trkpt lat="40.4064351" lon="15.1854496"><ele>583.0</ele><time>2026-04-19T08:44:24.404Z</time></trkpt><trkpt lat="40.406524" lon="15.1854861"><ele>581.1666666666667</ele><time>2026-04-19T08:44:25.403Z</time></trkpt><trkpt lat="40.4066145" lon="15.185511"><ele>579.3333333333334</ele><time>2026-04-19T08:44:26.403Z</time></trkpt><trkpt lat="40.4067054" lon="15.1855292"><ele>577.5</ele><time>2026-04-19T08:44:27.404Z</time></trkpt><trkpt lat="40.4067923" lon="15.1855444"><ele>575.6666666666666</ele><time>2026-04-19T08:44:28.403Z</time></trkpt><trkpt lat="40.4068747" lon="15.1855468"><ele>573.8333333333333</ele><time>2026-04-19T08:44:29.405Z</time></trkpt><trkpt lat="40.4069603" lon="15.1855383"><ele>572.0</ele><time>2026-04-19T08:44:30.403Z</time></trkpt><trkpt lat="40.4070456" lon="15.1855143"><ele>572.0</ele><time>2026-04-19T08:44:31.403Z</time></trkpt><trkpt lat="40.407126" lon="15.1854906"><ele>572.0</ele><time>2026-04-19T08:44:32.403Z</time></trkpt><trkpt lat="40.4071986" lon="15.1854867"><ele>572.0</ele><time>2026-04-19T08:44:33.403Z</time></trkpt><trkpt lat="40.4072694" lon="15.1855046"><ele>572.0</ele><time>2026-04-19T08:44:34.403Z</time></trkpt><trkpt lat="40.4073314" lon="15.1855326"><ele>572.0</ele><time>2026-04-19T08:44:35.403Z</time></trkpt><trkpt lat="40.4074397" lon="15.1855919"><ele>572.0</ele><time>2026-04-19T08:44:37.403Z</time></trkpt><trkpt lat="40.407515" lon="15.1856168"><ele>570.4</ele><time>2026-04-19T08:44:38.403Z</time></trkpt><trkpt lat="40.4076056" lon="15.1856183"><ele>568.8000000000001</ele><time>2026-04-19T08:44:39.404Z</time></trkpt><trkpt lat="40.407708" lon="15.1856039"><ele>567.2</ele><time>2026-04-19T08:44:40.403Z</time></trkpt><trkpt lat="40.4078196" lon="15.1855783"><ele>565.6</ele><time>2026-04-19T08:44:41.403Z</time></trkpt><trkpt lat="40.4079202" lon="15.1855434"><ele>564.0</ele><time>2026-04-19T08:44:42.403Z</time></trkpt><trkpt lat="40.4080145" lon="15.1854965"><ele>562.0</ele><time>2026-04-19T08:44:43.403Z</time></trkpt><trkpt lat="40.4081075" lon="15.1854344"><ele>560.0</ele><time>2026-04-19T08:44:44.403Z</time></trkpt><trkpt lat="40.4082012" lon="15.1853475"><ele>558.0</ele><time>2026-04-19T08:44:45.403Z</time></trkpt><trkpt lat="40.40829" lon="15.1852425"><ele>556.0</ele><time>2026-04-19T08:44:46.403Z</time></trkpt><trkpt lat="40.4083702" lon="15.1851432"><ele>554.0</ele><time>2026-04-19T08:44:47.405Z</time></trkpt><trkpt lat="40.4084446" lon="15.1850414"><ele>554.0</ele><time>2026-04-19T08:44:48.403Z</time></trkpt><trkpt lat="40.4085178" lon="15.1849446"><ele>554.0</ele><time>2026-04-19T08:44:49.403Z</time></trkpt><trkpt lat="40.4085904" lon="15.1848559"><ele>554.0</ele><time>2026-04-19T08:44:50.405Z</time></trkpt><trkpt lat="40.4086663" lon="15.1847868"><ele>554.0</ele><time>2026-04-19T08:44:51.403Z</time></trkpt><trkpt lat="40.4087435" lon="15.1847325"><ele>554.0</ele><time>2026-04-19T08:44:52.403Z</time></trkpt><trkpt lat="40.4088186" lon="15.1846884"><ele>554.5</ele><time>2026-04-19T08:44:53.404Z</time></trkpt><trkpt lat="40.4088906" lon="15.1846523"><ele>555.0</ele><time>2026-04-19T08:44:54.403Z</time></trkpt><trkpt lat="40.4089632" lon="15.1846193"><ele>555.5</ele><time>2026-04-19T08:44:55.403Z</time></trkpt><trkpt lat="40.4090288" lon="15.1845907"><ele>556.0</ele><time>2026-04-19T08:44:56.403Z</time></trkpt><trkpt lat="40.4091072" lon="15.1845657"><ele>556.5</ele><time>2026-04-19T08:44:57.403Z</time></trkpt><trkpt lat="40.4092109" lon="15.1845406"><ele>557.0</ele><time>2026-04-19T08:44:58.403Z</time></trkpt><trkpt lat="40.4093363" lon="15.1845125"><ele>557.0</ele><time>2026-04-19T08:44:59.404Z</time></trkpt><trkpt lat="40.4095077" lon="15.1844765"><ele>557.0</ele><time>2026-04-19T08:45:00.403Z</time></trkpt><trkpt lat="40.4096832" lon="15.1844439"><ele>557.0</ele><time>2026-04-19T08:45:01.403Z</time></trkpt><trkpt lat="40.409847" lon="15.1844093"><ele>555.25</ele><time>2026-04-19T08:45:02.403Z</time></trkpt><trkpt lat="40.4100007" lon="15.1843772"><ele>553.5</ele><time>2026-04-19T08:45:03.404Z</time></trkpt><trkpt lat="40.4101422" lon="15.1843483"><ele>551.75</ele><time>2026-04-19T08:45:04.403Z</time></trkpt><trkpt lat="40.4102736" lon="15.1843235"><ele>550.0</ele><time>2026-04-19T08:45:05.403Z</time></trkpt><trkpt lat="40.410402" lon="15.1843046"><ele>547.5</ele><time>2026-04-19T08:45:06.403Z</time></trkpt><trkpt lat="40.4105241" lon="15.1842822"><ele>545.0</ele><time>2026-04-19T08:45:07.403Z</time></trkpt><trkpt lat="40.4106443" lon="15.1842519"><ele>542.5</ele><time>2026-04-19T08:45:08.403Z</time></trkpt><trkpt lat="40.4107635" lon="15.1842092"><ele>540.0</ele><time>2026-04-19T08:45:09.403Z</time></trkpt><trkpt lat="40.4108842" lon="15.1841575"><ele>540.0</ele><time>2026-04-19T08:45:10.403Z</time></trkpt><trkpt lat="40.4110016" lon="15.1840973"><ele>540.0</ele><time>2026-04-19T08:45:11.403Z</time></trkpt><trkpt lat="40.4111199" lon="15.1840418"><ele>540.0</ele><time>2026-04-19T08:45:12.403Z</time></trkpt><trkpt lat="40.4112333" lon="15.1839836"><ele>540.0</ele><time>2026-04-19T08:45:13.403Z</time></trkpt><trkpt lat="40.4113456" lon="15.183933"><ele>539.5</ele><time>2026-04-19T08:45:14.403Z</time></trkpt><trkpt lat="40.411452" lon="15.1838801"><ele>539.0</ele><time>2026-04-19T08:45:15.403Z</time></trkpt><trkpt lat="40.4115609" lon="15.1838262"><ele>538.5</ele><time>2026-04-19T08:45:16.404Z</time></trkpt><trkpt lat="40.4116726" lon="15.1837702"><ele>538.0</ele><time>2026-04-19T08:45:17.403Z</time></trkpt><trkpt lat="40.411786" lon="15.1837162"><ele>538.0</ele><time>2026-04-19T08:45:18.403Z</time></trkpt><trkpt lat="40.4118984" lon="15.1836628"><ele>538.0</ele><time>2026-04-19T08:45:19.403Z</time></trkpt><trkpt lat="40.4120015" lon="15.1836173"><ele>538.0</ele><time>2026-04-19T08:45:20.404Z</time></trkpt><trkpt lat="40.4120988" lon="15.1835882"><ele>538.0</ele><time>2026-04-19T08:45:21.403Z</time></trkpt><trkpt lat="40.412195" lon="15.1835727"><ele>538.0</ele><time>2026-04-19T08:45:22.403Z</time></trkpt><trkpt lat="40.4122864" lon="15.183572"><ele>535.4</ele><time>2026-04-19T08:45:23.403Z</time></trkpt><trkpt lat="40.4123723" lon="15.1835848"><ele>532.8</ele><time>2026-04-19T08:45:24.403Z</time></trkpt><trkpt lat="40.4124582" lon="15.1836123"><ele>530.2</ele><time>2026-04-19T08:45:25.403Z</time></trkpt><trkpt lat="40.412549" lon="15.1836623"><ele>527.6</ele><time>2026-04-19T08:45:26.404Z</time></trkpt><trkpt lat="40.4126546" lon="15.1837247"><ele>525.0</ele><time>2026-04-19T08:45:27.403Z</time></trkpt><trkpt lat="40.4127832" lon="15.1838059"><ele>525.0</ele><time>2026-04-19T08:45:28.403Z</time></trkpt><trkpt lat="40.4129209" lon="15.1838865"><ele>525.0</ele><time>2026-04-19T08:45:29.403Z</time></trkpt><trkpt lat="40.4130561" lon="15.1839647"><ele>525.0</ele><time>2026-04-19T08:45:30.403Z</time></trkpt><trkpt lat="40.4131833" lon="15.1840386"><ele>525.0</ele><time>2026-04-19T08:45:31.403Z</time></trkpt><trkpt lat="40.4133066" lon="15.1841095"><ele>520.0</ele><time>2026-04-19T08:45:32.404Z</time></trkpt><trkpt lat="40.413421" lon="15.1841768"><ele>515.0</ele><time>2026-04-19T08:45:33.404Z</time></trkpt><trkpt lat="40.4135288" lon="15.1842398"><ele>510.0</ele><time>2026-04-19T08:45:34.403Z</time></trkpt><trkpt lat="40.4136301" lon="15.1842962"><ele>505.0</ele><time>2026-04-19T08:45:35.403Z</time></trkpt><trkpt lat="40.4137215" lon="15.1843447"><ele>505.0</ele><time>2026-04-19T08:45:36.403Z</time></trkpt><trkpt lat="40.4138098" lon="15.1843845"><ele>505.0</ele><time>2026-04-19T08:45:37.403Z</time></trkpt><trkpt lat="40.4138958" lon="15.1843976"><ele>505.0</ele><time>2026-04-19T08:45:38.403Z</time></trkpt><trkpt lat="40.4139857" lon="15.1843884"><ele>505.0</ele><time>2026-04-19T08:45:39.403Z</time></trkpt><trkpt lat="40.4140806" lon="15.1843762"><ele>505.0</ele><time>2026-04-19T08:45:40.404Z</time></trkpt><trkpt lat="40.414186" lon="15.1843686"><ele>502.25</ele><time>2026-04-19T08:45:41.403Z</time></trkpt><trkpt lat="40.414298" lon="15.1843661"><ele>499.5</ele><time>2026-04-19T08:45:42.403Z</time></trkpt><trkpt lat="40.414418" lon="15.1843722"><ele>496.75</ele><time>2026-04-19T08:45:43.404Z</time></trkpt><trkpt lat="40.4145341" lon="15.1843782"><ele>494.0</ele><time>2026-04-19T08:45:44.403Z</time></trkpt><trkpt lat="40.4146472" lon="15.1843885"><ele>491.25</ele><time>2026-04-19T08:45:45.403Z</time></trkpt><trkpt lat="40.4147583" lon="15.1844099"><ele>488.5</ele><time>2026-04-19T08:45:46.403Z</time></trkpt><trkpt lat="40.414866" lon="15.1844571"><ele>485.75</ele><time>2026-04-19T08:45:47.403Z</time></trkpt><trkpt lat="40.4149797" lon="15.1845275"><ele>483.0</ele><time>2026-04-19T08:45:48.403Z</time></trkpt><trkpt lat="40.415091" lon="15.1846084"><ele>483.0</ele><time>2026-04-19T08:45:49.403Z</time></trkpt><trkpt lat="40.4151926" lon="15.1846796"><ele>482.99999999999994</ele><time>2026-04-19T08:45:50.403Z</time></trkpt><trkpt lat="40.4152899" lon="15.1847395"><ele>482.99999999999994</ele><time>2026-04-19T08:45:51.405Z</time></trkpt><trkpt lat="40.4153778" lon="15.18479"><ele>483.0</ele><time>2026-04-19T08:45:52.403Z</time></trkpt><trkpt lat="40.4154602" lon="15.1848333"><ele>483.0</ele><time>2026-04-19T08:45:53.403Z</time></trkpt><trkpt lat="40.4155382" lon="15.184868"><ele>480.0</ele><time>2026-04-19T08:45:54.404Z</time></trkpt><trkpt lat="40.4156147" lon="15.1848929"><ele>477.0</ele><time>2026-04-19T08:45:55.404Z</time></trkpt><trkpt lat="40.4156897" lon="15.1849067"><ele>474.0</ele><time>2026-04-19T08:45:56.403Z</time></trkpt><trkpt lat="40.4157593" lon="15.1849179"><ele>471.0</ele><time>2026-04-19T08:45:57.403Z</time></trkpt><trkpt lat="40.4158245" lon="15.1849181"><ele>468.0</ele><time>2026-04-19T08:45:58.404Z</time></trkpt><trkpt lat="40.4159069" lon="15.1849197"><ele>465.0</ele><time>2026-04-19T08:46:00.404Z</time></trkpt><trkpt lat="40.4160076" lon="15.1849767"><ele>465.0</ele><time>2026-04-19T08:46:03.403Z</time></trkpt><trkpt lat="40.4161094" lon="15.1850071"><ele>465.0</ele><time>2026-04-19T08:46:05.403Z</time></trkpt><trkpt lat="40.4162335" lon="15.185029"><ele>465.0</ele><time>2026-04-19T08:46:07.404Z</time></trkpt><trkpt lat="40.4162982" lon="15.1850454"><ele>465.0</ele><time>2026-04-19T08:46:08.403Z</time></trkpt><trkpt lat="40.4163627" lon="15.1850609"><ele>465.0</ele><time>2026-04-19T08:46:09.403Z</time></trkpt><trkpt lat="40.4164257" lon="15.185079"><ele>465.0</ele><time>2026-04-19T08:46:10.403Z</time></trkpt><trkpt lat="40.4164872" lon="15.1850977"><ele>464.4</ele><time>2026-04-19T08:46:11.403Z</time></trkpt><trkpt lat="40.4165569" lon="15.1851229"><ele>463.8</ele><time>2026-04-19T08:46:12.403Z</time></trkpt><trkpt lat="40.4166673" lon="15.1851737"><ele>463.20000000000005</ele><time>2026-04-19T08:46:14.404Z</time></trkpt><trkpt lat="40.4167464" lon="15.1852134"><ele>462.6</ele><time>2026-04-19T08:46:16.403Z</time></trkpt><trkpt lat="40.416832" lon="15.185257"><ele>462.0</ele><time>2026-04-19T08:46:18.403Z</time></trkpt><trkpt lat="40.416924" lon="15.1853119"><ele>462.0</ele><time>2026-04-19T08:46:20.403Z</time></trkpt><trkpt lat="40.4170172" lon="15.1853588"><ele>462.00000000000006</ele><time>2026-04-19T08:46:22.403Z</time></trkpt><trkpt lat="40.417135" lon="15.185396"><ele>462.00000000000006</ele><time>2026-04-19T08:46:24.403Z</time></trkpt><trkpt lat="40.4172532" lon="15.1854542"><ele>462.0</ele><time>2026-04-19T08:46:26.403Z</time></trkpt><trkpt lat="40.4173238" lon="15.1854811"><ele>462.0</ele><time>2026-04-19T08:46:27.403Z</time></trkpt><trkpt lat="40.4173898" lon="15.1855176"><ele>461.40000000000003</ele><time>2026-04-19T08:46:28.403Z</time></trkpt><trkpt lat="40.4174786" lon="15.1855746"><ele>460.80000000000007</ele><time>2026-04-19T08:46:30.404Z</time></trkpt><trkpt lat="40.4175747" lon="15.1856622"><ele>460.2</ele><time>2026-04-19T08:46:32.403Z</time></trkpt><trkpt lat="40.4176288" lon="15.1857176"><ele>459.6</ele><time>2026-04-19T08:46:33.403Z</time></trkpt><trkpt lat="40.4177072" lon="15.1858231"><ele>459.0</ele><time>2026-04-19T08:46:35.403Z</time></trkpt><trkpt lat="40.4177367" lon="15.1858967"><ele>456.6666666666667</ele><time>2026-04-19T08:46:36.403Z</time></trkpt><trkpt lat="40.4177644" lon="15.1860512"><ele>454.33333333333337</ele><time>2026-04-19T08:46:38.403Z</time></trkpt><trkpt lat="40.4177734" lon="15.1861376"><ele>452.0</ele><time>2026-04-19T08:46:39.403Z</time></trkpt><trkpt lat="40.4177759" lon="15.1862217"><ele>449.6666666666667</ele><time>2026-04-19T08:46:40.404Z</time></trkpt><trkpt lat="40.4177815" lon="15.1863218"><ele>447.33333333333337</ele><time>2026-04-19T08:46:41.403Z</time></trkpt><trkpt lat="40.4177867" lon="15.1864114"><ele>445.0</ele><time>2026-04-19T08:46:42.403Z</time></trkpt><trkpt lat="40.4177905" lon="15.1865053"><ele>442.2</ele><time>2026-04-19T08:46:43.403Z</time></trkpt><trkpt lat="40.417792" lon="15.1865921"><ele>439.4</ele><time>2026-04-19T08:46:44.404Z</time></trkpt><trkpt lat="40.4178253" lon="15.1867258"><ele>436.6</ele><time>2026-04-19T08:46:46.403Z</time></trkpt><trkpt lat="40.4178607" lon="15.1867946"><ele>433.8</ele><time>2026-04-19T08:46:47.404Z</time></trkpt><trkpt lat="40.4179277" lon="15.1868855"><ele>431.0</ele><time>2026-04-19T08:46:48.402Z</time></trkpt><trkpt lat="40.4180175" lon="15.1869913"><ele>430.25</ele><time>2026-04-19T08:46:49.402Z</time></trkpt><trkpt lat="40.4181073" lon="15.187091"><ele>429.5</ele><time>2026-04-19T08:46:50.403Z</time></trkpt><trkpt lat="40.4181978" lon="15.1871892"><ele>428.75</ele><time>2026-04-19T08:46:51.402Z</time></trkpt><trkpt lat="40.4182885" lon="15.1872765"><ele>428.0</ele><time>2026-04-19T08:46:52.402Z</time></trkpt><trkpt lat="40.418394" lon="15.1873722"><ele>426.75</ele><time>2026-04-19T08:46:53.402Z</time></trkpt><trkpt lat="40.4185303" lon="15.1874919"><ele>425.5</ele><time>2026-04-19T08:46:54.402Z</time></trkpt><trkpt lat="40.4186397" lon="15.1875901"><ele>424.25</ele><time>2026-04-19T08:46:55.402Z</time></trkpt><trkpt lat="40.4187359" lon="15.1876812"><ele>423.0</ele><time>2026-04-19T08:46:56.402Z</time></trkpt><trkpt lat="40.4188187" lon="15.1877632"><ele>421.79999999999995</ele><time>2026-04-19T08:46:57.402Z</time></trkpt><trkpt lat="40.4188952" lon="15.1878436"><ele>420.6</ele><time>2026-04-19T08:46:58.402Z</time></trkpt><trkpt lat="40.4189695" lon="15.1879169"><ele>419.4</ele><time>2026-04-19T08:46:59.402Z</time></trkpt><trkpt lat="40.4190434" lon="15.187984"><ele>418.20000000000005</ele><time>2026-04-19T08:47:00.402Z</time></trkpt><trkpt lat="40.419116" lon="15.1880508"><ele>417.0</ele><time>2026-04-19T08:47:01.402Z</time></trkpt><trkpt lat="40.4191869" lon="15.1881218"><ele>417.25</ele><time>2026-04-19T08:47:02.403Z</time></trkpt><trkpt lat="40.4192576" lon="15.1882075"><ele>417.5</ele><time>2026-04-19T08:47:03.402Z</time></trkpt><trkpt lat="40.4193367" lon="15.188326"><ele>417.75</ele><time>2026-04-19T08:47:04.402Z</time></trkpt><trkpt lat="40.4194123" lon="15.1884601"><ele>418.0</ele><time>2026-04-19T08:47:05.402Z</time></trkpt><trkpt lat="40.4194896" lon="15.1885845"><ele>418.0</ele><time>2026-04-19T08:47:06.402Z</time></trkpt><trkpt lat="40.4195666" lon="15.1886904"><ele>418.0</ele><time>2026-04-19T08:47:07.403Z</time></trkpt><trkpt lat="40.4196421" lon="15.1887867"><ele>418.0</ele><time>2026-04-19T08:47:08.402Z</time></trkpt><trkpt lat="40.4197141" lon="15.1888741"><ele>418.0</ele><time>2026-04-19T08:47:09.402Z</time></trkpt><trkpt lat="40.4197782" lon="15.1889592"><ele>418.0</ele><time>2026-04-19T08:47:10.402Z</time></trkpt><trkpt lat="40.4198366" lon="15.1890405"><ele>416.00000000000006</ele><time>2026-04-19T08:47:11.402Z</time></trkpt><trkpt lat="40.4198958" lon="15.1891147"><ele>414.0</ele><time>2026-04-19T08:47:12.402Z</time></trkpt><trkpt lat="40.4199513" lon="15.1891837"><ele>412.0</ele><time>2026-04-19T08:47:13.402Z</time></trkpt><trkpt lat="40.4200033" lon="15.1892467"><ele>410.0</ele><time>2026-04-19T08:47:14.402Z</time></trkpt><trkpt lat="40.4200502" lon="15.189303"><ele>408.00000000000006</ele><time>2026-04-19T08:47:15.402Z</time></trkpt><trkpt lat="40.4201179" lon="15.1893869"><ele>406.0</ele><time>2026-04-19T08:47:17.402Z</time></trkpt><trkpt lat="40.4201755" lon="15.1894521"><ele>406.0</ele><time>2026-04-19T08:47:21.402Z</time></trkpt><trkpt lat="40.4202372" lon="15.1894723"><ele>406.0</ele><time>2026-04-19T08:47:22.402Z</time></trkpt><trkpt lat="40.4203424" lon="15.1894926"><ele>406.0</ele><time>2026-04-19T08:47:23.402Z</time></trkpt><trkpt lat="40.4204951" lon="15.1895543"><ele>406.0</ele><time>2026-04-19T08:47:24.402Z</time></trkpt><trkpt lat="40.4206631" lon="15.1896245"><ele>406.0</ele><time>2026-04-19T08:47:25.402Z</time></trkpt><trkpt lat="40.4208022" lon="15.189688"><ele>406.0</ele><time>2026-04-19T08:47:26.402Z</time></trkpt><trkpt lat="40.420922" lon="15.189758"><ele>406.0</ele><time>2026-04-19T08:47:27.402Z</time></trkpt><trkpt lat="40.4210276" lon="15.1898303"><ele>406.0</ele><time>2026-04-19T08:47:28.402Z</time></trkpt><trkpt lat="40.4211198" lon="15.189904"><ele>405.1666666666667</ele><time>2026-04-19T08:47:29.402Z</time></trkpt><trkpt lat="40.4211993" lon="15.1899755"><ele>404.33333333333337</ele><time>2026-04-19T08:47:30.402Z</time></trkpt><trkpt lat="40.421265" lon="15.1900461"><ele>403.5</ele><time>2026-04-19T08:47:31.402Z</time></trkpt><trkpt lat="40.4213189" lon="15.1901181"><ele>402.66666666666663</ele><time>2026-04-19T08:47:32.402Z</time></trkpt><trkpt lat="40.4213577" lon="15.1901908"><ele>401.8333333333333</ele><time>2026-04-19T08:47:33.402Z</time></trkpt><trkpt lat="40.4214057" lon="15.1903328"><ele>401.0</ele><time>2026-04-19T08:47:35.402Z</time></trkpt><trkpt lat="40.4214768" lon="15.1904228"><ele>400.99999999999994</ele><time>2026-04-19T08:47:37.402Z</time></trkpt><trkpt lat="40.4215679" lon="15.1904002"><ele>401.0</ele><time>2026-04-19T08:47:39.402Z</time></trkpt><trkpt lat="40.4216299" lon="15.1903627"><ele>401.0</ele><time>2026-04-19T08:47:40.402Z</time></trkpt><trkpt lat="40.4217134" lon="15.1903437"><ele>401.0</ele><time>2026-04-19T08:47:41.402Z</time></trkpt><trkpt lat="40.421811" lon="15.1903277"><ele>400.99999999999994</ele><time>2026-04-19T08:47:42.402Z</time></trkpt><trkpt lat="40.4219134" lon="15.1903132"><ele>401.0</ele><time>2026-04-19T08:47:43.402Z</time></trkpt><trkpt lat="40.4220141" lon="15.1903092"><ele>401.0</ele><time>2026-04-19T08:47:44.402Z</time></trkpt><trkpt lat="40.4221167" lon="15.190306"><ele>401.0</ele><time>2026-04-19T08:47:45.402Z</time></trkpt><trkpt lat="40.4222263" lon="15.1903028"><ele>401.0</ele><time>2026-04-19T08:47:46.403Z</time></trkpt><trkpt lat="40.422337" lon="15.1903004"><ele>401.0</ele><time>2026-04-19T08:47:47.402Z</time></trkpt><trkpt lat="40.4224427" lon="15.1902893"><ele>401.0</ele><time>2026-04-19T08:47:48.402Z</time></trkpt><trkpt lat="40.4225477" lon="15.1902705"><ele>401.0</ele><time>2026-04-19T08:47:49.402Z</time></trkpt><trkpt lat="40.4226476" lon="15.1902446"><ele>401.0</ele><time>2026-04-19T08:47:50.402Z</time></trkpt><trkpt lat="40.4227549" lon="15.1902053"><ele>401.0</ele><time>2026-04-19T08:47:51.403Z</time></trkpt><trkpt lat="40.4228544" lon="15.1901576"><ele>401.0</ele><time>2026-04-19T08:47:52.402Z</time></trkpt><trkpt lat="40.4229507" lon="15.1900963"><ele>401.0</ele><time>2026-04-19T08:47:53.402Z</time></trkpt><trkpt lat="40.4230462" lon="15.1900107"><ele>402.25</ele><time>2026-04-19T08:47:54.402Z</time></trkpt><trkpt lat="40.4231403" lon="15.1899051"><ele>403.5</ele><time>2026-04-19T08:47:55.402Z</time></trkpt><trkpt lat="40.4232345" lon="15.1897815"><ele>404.75</ele><time>2026-04-19T08:47:56.402Z</time></trkpt><trkpt lat="40.4233306" lon="15.1896592"><ele>406.0</ele><time>2026-04-19T08:47:57.402Z</time></trkpt><trkpt lat="40.4234229" lon="15.1895471"><ele>406.0</ele><time>2026-04-19T08:47:58.402Z</time></trkpt><trkpt lat="40.4235102" lon="15.1894387"><ele>406.0</ele><time>2026-04-19T08:47:59.402Z</time></trkpt><trkpt lat="40.4235912" lon="15.1893352"><ele>406.0</ele><time>2026-04-19T08:48:00.403Z</time></trkpt><trkpt lat="40.4236688" lon="15.1892369"><ele>406.0</ele><time>2026-04-19T08:48:01.404Z</time></trkpt><trkpt lat="40.4237421" lon="15.1891471"><ele>406.0</ele><time>2026-04-19T08:48:02.402Z</time></trkpt><trkpt lat="40.4238088" lon="15.1890597"><ele>404.6</ele><time>2026-04-19T08:48:03.402Z</time></trkpt><trkpt lat="40.4238839" lon="15.1889714"><ele>403.20000000000005</ele><time>2026-04-19T08:48:04.402Z</time></trkpt><trkpt lat="40.4239618" lon="15.1888762"><ele>401.79999999999995</ele><time>2026-04-19T08:48:05.402Z</time></trkpt><trkpt lat="40.4240426" lon="15.1887749"><ele>400.4</ele><time>2026-04-19T08:48:06.402Z</time></trkpt><trkpt lat="40.4241234" lon="15.1886736"><ele>399.0</ele><time>2026-04-19T08:48:07.402Z</time></trkpt><trkpt lat="40.4242081" lon="15.188575"><ele>399.0</ele><time>2026-04-19T08:48:08.402Z</time></trkpt><trkpt lat="40.4242992" lon="15.1884669"><ele>399.0</ele><time>2026-04-19T08:48:09.403Z</time></trkpt><trkpt lat="40.4243886" lon="15.1883562"><ele>399.0</ele><time>2026-04-19T08:48:10.402Z</time></trkpt><trkpt lat="40.424475" lon="15.1882442"><ele>399.0</ele><time>2026-04-19T08:48:11.403Z</time></trkpt><trkpt lat="40.424569" lon="15.1881277"><ele>398.25</ele><time>2026-04-19T08:48:12.402Z</time></trkpt><trkpt lat="40.4246685" lon="15.1880007"><ele>397.5</ele><time>2026-04-19T08:48:13.402Z</time></trkpt><trkpt lat="40.4247712" lon="15.1878725"><ele>396.75</ele><time>2026-04-19T08:48:14.403Z</time></trkpt><trkpt lat="40.4248778" lon="15.1877419"><ele>396.0</ele><time>2026-04-19T08:48:15.402Z</time></trkpt><trkpt lat="40.4250048" lon="15.1875902"><ele>396.0</ele><time>2026-04-19T08:48:16.403Z</time></trkpt><trkpt lat="40.4251689" lon="15.1874033"><ele>396.0</ele><time>2026-04-19T08:48:17.402Z</time></trkpt><trkpt lat="40.4253111" lon="15.1872517"><ele>396.0</ele><time>2026-04-19T08:48:18.402Z</time></trkpt><trkpt lat="40.4254504" lon="15.1871134"><ele>397.0</ele><time>2026-04-19T08:48:19.402Z</time></trkpt><trkpt lat="40.4255855" lon="15.1869875"><ele>398.0</ele><time>2026-04-19T08:48:20.402Z</time></trkpt><trkpt lat="40.4257229" lon="15.1868607"><ele>399.0</ele><time>2026-04-19T08:48:21.402Z</time></trkpt><trkpt lat="40.4258862" lon="15.18671"><ele>399.0</ele><time>2026-04-19T08:48:22.402Z</time></trkpt><trkpt lat="40.4260373" lon="15.1865778"><ele>399.0</ele><time>2026-04-19T08:48:23.402Z</time></trkpt><trkpt lat="40.4261809" lon="15.1864553"><ele>399.0</ele><time>2026-04-19T08:48:24.403Z</time></trkpt><trkpt lat="40.4263177" lon="15.1863419"><ele>398.0</ele><time>2026-04-19T08:48:25.402Z</time></trkpt><trkpt lat="40.4264413" lon="15.1862383"><ele>397.0</ele><time>2026-04-19T08:48:26.403Z</time></trkpt><trkpt lat="40.4265534" lon="15.1861357"><ele>396.0</ele><time>2026-04-19T08:48:27.402Z</time></trkpt><trkpt lat="40.4266525" lon="15.1860289"><ele>395.0</ele><time>2026-04-19T08:48:28.402Z</time></trkpt><trkpt lat="40.4267425" lon="15.185908"><ele>395.0</ele><time>2026-04-19T08:48:29.403Z</time></trkpt><trkpt lat="40.426826" lon="15.1857645"><ele>395.0</ele><time>2026-04-19T08:48:30.402Z</time></trkpt><trkpt lat="40.4269057" lon="15.1856039"><ele>395.0</ele><time>2026-04-19T08:48:31.402Z</time></trkpt><trkpt lat="40.4269745" lon="15.1854349"><ele>395.0</ele><time>2026-04-19T08:48:32.402Z</time></trkpt><trkpt lat="40.4270352" lon="15.1852681"><ele>398.25</ele><time>2026-04-19T08:48:33.402Z</time></trkpt><trkpt lat="40.4270893" lon="15.1851023"><ele>401.5</ele><time>2026-04-19T08:48:34.402Z</time></trkpt><trkpt lat="40.4271286" lon="15.1849349"><ele>404.75</ele><time>2026-04-19T08:48:35.402Z</time></trkpt><trkpt lat="40.4271528" lon="15.1847664"><ele>408.0</ele><time>2026-04-19T08:48:36.403Z</time></trkpt><trkpt lat="40.4271723" lon="15.1845943"><ele>401.0</ele><time>2026-04-19T08:48:37.402Z</time></trkpt><trkpt lat="40.4271908" lon="15.1844311"><ele>394.0</ele><time>2026-04-19T08:48:38.402Z</time></trkpt><trkpt lat="40.4272039" lon="15.1842736"><ele>387.0</ele><time>2026-04-19T08:48:39.402Z</time></trkpt><trkpt lat="40.4272196" lon="15.18412"><ele>380.0</ele><time>2026-04-19T08:48:40.402Z</time></trkpt><trkpt lat="40.427239" lon="15.1839684"><ele>380.0</ele><time>2026-04-19T08:48:41.402Z</time></trkpt><trkpt lat="40.4272596" lon="15.1838225"><ele>380.0</ele><time>2026-04-19T08:48:42.402Z</time></trkpt><trkpt lat="40.4272887" lon="15.1836884"><ele>380.0</ele><time>2026-04-19T08:48:43.402Z</time></trkpt><trkpt lat="40.4273323" lon="15.1835605"><ele>380.0</ele><time>2026-04-19T08:48:44.402Z</time></trkpt><trkpt lat="40.4273942" lon="15.1834537"><ele>380.0</ele><time>2026-04-19T08:48:45.402Z</time></trkpt><trkpt lat="40.4274696" lon="15.1833758"><ele>380.0</ele><time>2026-04-19T08:48:46.402Z</time></trkpt><trkpt lat="40.4275572" lon="15.1833289"><ele>380.0</ele><time>2026-04-19T08:48:47.402Z</time></trkpt><trkpt lat="40.4276612" lon="15.1833123"><ele>380.0</ele><time>2026-04-19T08:48:48.403Z</time></trkpt><trkpt lat="40.427777" lon="15.1833253"><ele>380.0</ele><time>2026-04-19T08:48:49.402Z</time></trkpt><trkpt lat="40.4279084" lon="15.1833594"><ele>379.25</ele><time>2026-04-19T08:48:50.402Z</time></trkpt><trkpt lat="40.4280426" lon="15.1833967"><ele>378.5</ele><time>2026-04-19T08:48:51.403Z</time></trkpt><trkpt lat="40.428177" lon="15.1834294"><ele>377.75</ele><time>2026-04-19T08:48:52.402Z</time></trkpt><trkpt lat="40.4283122" lon="15.183465"><ele>377.0</ele><time>2026-04-19T08:48:53.403Z</time></trkpt><trkpt lat="40.4284475" lon="15.1834975"><ele>377.0</ele><time>2026-04-19T08:48:54.403Z</time></trkpt><trkpt lat="40.4285832" lon="15.1835288"><ele>377.0</ele><time>2026-04-19T08:48:55.402Z</time></trkpt><trkpt lat="40.428711" lon="15.1835568"><ele>377.0</ele><time>2026-04-19T08:48:56.402Z</time></trkpt><trkpt lat="40.428824" lon="15.1835761"><ele>377.0</ele><time>2026-04-19T08:48:57.402Z</time></trkpt><trkpt lat="40.4289274" lon="15.1835905"><ele>377.6666666666667</ele><time>2026-04-19T08:48:58.402Z</time></trkpt><trkpt lat="40.4290225" lon="15.1836023"><ele>378.33333333333337</ele><time>2026-04-19T08:48:59.402Z</time></trkpt><trkpt lat="40.4291072" lon="15.183613"><ele>379.0</ele><time>2026-04-19T08:49:00.403Z</time></trkpt><trkpt lat="40.4291848" lon="15.1836263"><ele>379.6666666666667</ele><time>2026-04-19T08:49:01.402Z</time></trkpt><trkpt lat="40.4292516" lon="15.1836463"><ele>380.3333333333333</ele><time>2026-04-19T08:49:02.403Z</time></trkpt><trkpt lat="40.4293103" lon="15.1836771"><ele>381.0</ele><time>2026-04-19T08:49:03.402Z</time></trkpt><trkpt lat="40.4294161" lon="15.1837618"><ele>381.0</ele><time>2026-04-19T08:49:05.402Z</time></trkpt><trkpt lat="40.4294914" lon="15.1837997"><ele>381.0</ele><time>2026-04-19T08:49:06.402Z</time></trkpt><trkpt lat="40.4295876" lon="15.183829"><ele>381.0</ele><time>2026-04-19T08:49:07.402Z</time></trkpt><trkpt lat="40.4297067" lon="15.1838537"><ele>381.0</ele><time>2026-04-19T08:49:08.402Z</time></trkpt><trkpt lat="40.4298465" lon="15.1838892"><ele>381.0</ele><time>2026-04-19T08:49:09.402Z</time></trkpt><trkpt lat="40.4299895" lon="15.1839315"><ele>383.5</ele><time>2026-04-19T08:49:10.402Z</time></trkpt><trkpt lat="40.430128" lon="15.1839807"><ele>386.0</ele><time>2026-04-19T08:49:11.403Z</time></trkpt><trkpt lat="40.4302635" lon="15.1840253"><ele>388.5</ele><time>2026-04-19T08:49:12.402Z</time></trkpt><trkpt lat="40.4303968" lon="15.1840768"><ele>391.0</ele><time>2026-04-19T08:49:13.403Z</time></trkpt><trkpt lat="40.4305302" lon="15.1841306"><ele>380.75</ele><time>2026-04-19T08:49:14.402Z</time></trkpt><trkpt lat="40.4306566" lon="15.1841854"><ele>370.5</ele><time>2026-04-19T08:49:15.402Z</time></trkpt><trkpt lat="40.4307755" lon="15.18424"><ele>360.25</ele><time>2026-04-19T08:49:16.403Z</time></trkpt><trkpt lat="40.4308791" lon="15.1842946"><ele>350.0</ele><time>2026-04-19T08:49:17.403Z</time></trkpt><trkpt lat="40.4309741" lon="15.1843417"><ele>350.0</ele><time>2026-04-19T08:49:18.402Z</time></trkpt><trkpt lat="40.4310685" lon="15.1843661"><ele>350.0</ele><time>2026-04-19T08:49:19.402Z</time></trkpt><trkpt lat="40.4311646" lon="15.1843705"><ele>350.0</ele><time>2026-04-19T08:49:20.402Z</time></trkpt><trkpt lat="40.4312628" lon="15.1843655"><ele>350.0</ele><time>2026-04-19T08:49:21.402Z</time></trkpt><trkpt lat="40.4313658" lon="15.184356"><ele>350.0</ele><time>2026-04-19T08:49:22.402Z</time></trkpt><trkpt lat="40.4314885" lon="15.1843393"><ele>351.33333333333337</ele><time>2026-04-19T08:49:23.402Z</time></trkpt><trkpt lat="40.4316286" lon="15.1843056"><ele>352.6666666666667</ele><time>2026-04-19T08:49:24.402Z</time></trkpt><trkpt lat="40.4317917" lon="15.1842457"><ele>354.0</ele><time>2026-04-19T08:49:25.402Z</time></trkpt><trkpt lat="40.4319487" lon="15.1841854"><ele>354.0</ele><time>2026-04-19T08:49:26.402Z</time></trkpt><trkpt lat="40.4321008" lon="15.184147"><ele>354.0</ele><time>2026-04-19T08:49:27.403Z</time></trkpt><trkpt lat="40.4322556" lon="15.1841182"><ele>354.0</ele><time>2026-04-19T08:49:28.402Z</time></trkpt><trkpt lat="40.4324097" lon="15.1841087"><ele>352.25</ele><time>2026-04-19T08:49:29.402Z</time></trkpt><trkpt lat="40.4325608" lon="15.1841201"><ele>350.5</ele><time>2026-04-19T08:49:30.402Z</time></trkpt><trkpt lat="40.4327015" lon="15.18414"><ele>348.75</ele><time>2026-04-19T08:49:31.402Z</time></trkpt><trkpt lat="40.4328327" lon="15.1841722"><ele>347.0</ele><time>2026-04-19T08:49:32.402Z</time></trkpt><trkpt lat="40.4329576" lon="15.1842056"><ele>344.25</ele><time>2026-04-19T08:49:33.402Z</time></trkpt><trkpt lat="40.4330769" lon="15.1842166"><ele>341.5</ele><time>2026-04-19T08:49:34.402Z</time></trkpt><trkpt lat="40.4331953" lon="15.1841994"><ele>338.75</ele><time>2026-04-19T08:49:35.402Z</time></trkpt><trkpt lat="40.433316" lon="15.1841503"><ele>336.0</ele><time>2026-04-19T08:49:36.402Z</time></trkpt><trkpt lat="40.4334221" lon="15.1840619"><ele>341.5</ele><time>2026-04-19T08:49:37.402Z</time></trkpt><trkpt lat="40.4335179" lon="15.1839374"><ele>347.0</ele><time>2026-04-19T08:49:38.402Z</time></trkpt><trkpt lat="40.4335956" lon="15.1837797"><ele>352.5</ele><time>2026-04-19T08:49:39.402Z</time></trkpt><trkpt lat="40.4336635" lon="15.1836001"><ele>358.0</ele><time>2026-04-19T08:49:40.402Z</time></trkpt><trkpt lat="40.4337186" lon="15.1834214"><ele>358.0</ele><time>2026-04-19T08:49:41.403Z</time></trkpt><trkpt lat="40.4337641" lon="15.1832444"><ele>358.0</ele><time>2026-04-19T08:49:42.402Z</time></trkpt><trkpt lat="40.4338073" lon="15.1830624"><ele>358.0</ele><time>2026-04-19T08:49:43.403Z</time></trkpt><trkpt lat="40.4338623" lon="15.1828764"><ele>358.0</ele><time>2026-04-19T08:49:44.402Z</time></trkpt><trkpt lat="40.4339407" lon="15.1826893"><ele>350.3333333333333</ele><time>2026-04-19T08:49:45.402Z</time></trkpt><trkpt lat="40.4340269" lon="15.1825158"><ele>342.6666666666667</ele><time>2026-04-19T08:49:46.402Z</time></trkpt><trkpt lat="40.4341084" lon="15.1823384"><ele>335.0</ele><time>2026-04-19T08:49:47.402Z</time></trkpt><trkpt lat="40.4341786" lon="15.1821443"><ele>335.0</ele><time>2026-04-19T08:49:48.403Z</time></trkpt><trkpt lat="40.4342391" lon="15.1819602"><ele>335.0</ele><time>2026-04-19T08:49:49.402Z</time></trkpt><trkpt lat="40.434298" lon="15.181766"><ele>335.0</ele><time>2026-04-19T08:49:50.402Z</time></trkpt><trkpt lat="40.4343539" lon="15.1815677"><ele>336.0</ele><time>2026-04-19T08:49:51.402Z</time></trkpt><trkpt lat="40.4344016" lon="15.1813783"><ele>337.0</ele><time>2026-04-19T08:49:52.402Z</time></trkpt><trkpt lat="40.4344433" lon="15.1811851"><ele>338.0</ele><time>2026-04-19T08:49:53.403Z</time></trkpt><trkpt lat="40.4344794" lon="15.1809867"><ele>338.0</ele><time>2026-04-19T08:49:54.402Z</time></trkpt><trkpt lat="40.434511" lon="15.1807863"><ele>338.0</ele><time>2026-04-19T08:49:55.402Z</time></trkpt><trkpt lat="40.4345407" lon="15.1805855"><ele>338.0</ele><time>2026-04-19T08:49:56.402Z</time></trkpt><trkpt lat="40.4345659" lon="15.1803982"><ele>338.75</ele><time>2026-04-19T08:49:57.402Z</time></trkpt><trkpt lat="40.4345894" lon="15.1802163"><ele>339.5</ele><time>2026-04-19T08:49:58.402Z</time></trkpt><trkpt lat="40.4346131" lon="15.1800364"><ele>340.25</ele><time>2026-04-19T08:49:59.403Z</time></trkpt><trkpt lat="40.4346286" lon="15.1798537"><ele>341.0</ele><time>2026-04-19T08:50:00.402Z</time></trkpt><trkpt lat="40.4346346" lon="15.1796711"><ele>341.5</ele><time>2026-04-19T08:50:01.402Z</time></trkpt><trkpt lat="40.4346335" lon="15.1794877"><ele>342.0</ele><time>2026-04-19T08:50:02.402Z</time></trkpt><trkpt lat="40.4346216" lon="15.1793037"><ele>342.5</ele><time>2026-04-19T08:50:03.403Z</time></trkpt><trkpt lat="40.4346001" lon="15.1791223"><ele>343.0</ele><time>2026-04-19T08:50:04.402Z</time></trkpt><trkpt lat="40.4345705" lon="15.1789403"><ele>343.0</ele><time>2026-04-19T08:50:05.402Z</time></trkpt><trkpt lat="40.4345395" lon="15.1787472"><ele>343.0</ele><time>2026-04-19T08:50:06.402Z</time></trkpt><trkpt lat="40.4345128" lon="15.1785452"><ele>343.0</ele><time>2026-04-19T08:50:07.402Z</time></trkpt><trkpt lat="40.4344966" lon="15.1783354"><ele>341.3333333333333</ele><time>2026-04-19T08:50:08.402Z</time></trkpt><trkpt lat="40.4344868" lon="15.1781198"><ele>339.6666666666667</ele><time>2026-04-19T08:50:09.402Z</time></trkpt><trkpt lat="40.4344815" lon="15.1779128"><ele>338.0</ele><time>2026-04-19T08:50:10.402Z</time></trkpt><trkpt lat="40.4344783" lon="15.1777141"><ele>338.0</ele><time>2026-04-19T08:50:11.402Z</time></trkpt><trkpt lat="40.434479" lon="15.1775176"><ele>338.0</ele><time>2026-04-19T08:50:12.403Z</time></trkpt><trkpt lat="40.4344874" lon="15.1773164"><ele>338.0</ele><time>2026-04-19T08:50:13.402Z</time></trkpt><trkpt lat="40.4345102" lon="15.1771106"><ele>340.0</ele><time>2026-04-19T08:50:14.403Z</time></trkpt><trkpt lat="40.4345541" lon="15.1769038"><ele>342.0</ele><time>2026-04-19T08:50:15.403Z</time></trkpt><trkpt lat="40.4346122" lon="15.1766929"><ele>344.0</ele><time>2026-04-19T08:50:16.402Z</time></trkpt><trkpt lat="40.4346782" lon="15.1764782"><ele>332.6666666666667</ele><time>2026-04-19T08:50:17.402Z</time></trkpt><trkpt lat="40.4347519" lon="15.1762544"><ele>321.3333333333333</ele><time>2026-04-19T08:50:18.402Z</time></trkpt><trkpt lat="40.4348258" lon="15.176036"><ele>310.0</ele><time>2026-04-19T08:50:19.402Z</time></trkpt><trkpt lat="40.4348936" lon="15.1758233"><ele>314.0</ele><time>2026-04-19T08:50:20.402Z</time></trkpt><trkpt lat="40.434961" lon="15.1756108"><ele>318.0</ele><time>2026-04-19T08:50:21.403Z</time></trkpt><trkpt lat="40.435031" lon="15.1754107"><ele>322.0</ele><time>2026-04-19T08:50:22.403Z</time></trkpt><trkpt lat="40.4351026" lon="15.1752215"><ele>322.0</ele><time>2026-04-19T08:50:23.402Z</time></trkpt><trkpt lat="40.435175" lon="15.1750353"><ele>322.0</ele><time>2026-04-19T08:50:24.403Z</time></trkpt><trkpt lat="40.4352554" lon="15.1748477"><ele>322.0</ele><time>2026-04-19T08:50:25.402Z</time></trkpt><trkpt lat="40.4353442" lon="15.1746636"><ele>316.66666666666663</ele><time>2026-04-19T08:50:26.402Z</time></trkpt><trkpt lat="40.4354377" lon="15.1744818"><ele>311.3333333333333</ele><time>2026-04-19T08:50:27.402Z</time></trkpt><trkpt lat="40.4355362" lon="15.1742991"><ele>306.0</ele><time>2026-04-19T08:50:28.402Z</time></trkpt><trkpt lat="40.4356373" lon="15.1741224"><ele>309.25</ele><time>2026-04-19T08:50:29.402Z</time></trkpt><trkpt lat="40.4357378" lon="15.1739561"><ele>312.5</ele><time>2026-04-19T08:50:30.402Z</time></trkpt><trkpt lat="40.4358407" lon="15.1738064"><ele>315.75</ele><time>2026-04-19T08:50:31.402Z</time></trkpt><trkpt lat="40.4359342" lon="15.1736884"><ele>319.0</ele><time>2026-04-19T08:50:32.403Z</time></trkpt><trkpt lat="40.4360116" lon="15.1735997"><ele>319.0</ele><time>2026-04-19T08:50:33.402Z</time></trkpt><trkpt lat="40.4360793" lon="15.1735289"><ele>319.0</ele><time>2026-04-19T08:50:34.402Z</time></trkpt><trkpt lat="40.4361396" lon="15.1734614"><ele>319.0</ele><time>2026-04-19T08:50:35.402Z</time></trkpt><trkpt lat="40.4361866" lon="15.1734052"><ele>319.0</ele><time>2026-04-19T08:50:36.402Z</time></trkpt><trkpt lat="40.4362667" lon="15.1733548"><ele>319.0</ele><time>2026-04-19T08:50:38.402Z</time></trkpt><trkpt lat="40.4363423" lon="15.1734104"><ele>319.0</ele><time>2026-04-19T08:50:40.402Z</time></trkpt><trkpt lat="40.4363995" lon="15.1734625"><ele>315.8333333333333</ele><time>2026-04-19T08:50:41.402Z</time></trkpt><trkpt lat="40.4364618" lon="15.1735141"><ele>312.66666666666663</ele><time>2026-04-19T08:50:42.402Z</time></trkpt><trkpt lat="40.4365244" lon="15.1735633"><ele>309.5</ele><time>2026-04-19T08:50:43.403Z</time></trkpt><trkpt lat="40.4365787" lon="15.1736103"><ele>306.3333333333333</ele><time>2026-04-19T08:50:44.402Z</time></trkpt><trkpt lat="40.4366376" lon="15.1736938"><ele>303.1666666666667</ele><time>2026-04-19T08:50:46.403Z</time></trkpt><trkpt lat="40.4366188" lon="15.173789"><ele>300.0</ele><time>2026-04-19T08:50:48.402Z</time></trkpt><trkpt lat="40.4365275" lon="15.1738566"><ele>300.0</ele><time>2026-04-19T08:50:50.403Z</time></trkpt><trkpt lat="40.4364504" lon="15.1738941"><ele>300.0</ele><time>2026-04-19T08:50:51.402Z</time></trkpt><trkpt lat="40.436357" lon="15.1739377"><ele>300.0</ele><time>2026-04-19T08:50:52.403Z</time></trkpt><trkpt lat="40.4362667" lon="15.1739838"><ele>300.0</ele><time>2026-04-19T08:50:53.402Z</time></trkpt><trkpt lat="40.4361799" lon="15.1740394"><ele>300.0</ele><time>2026-04-19T08:50:54.402Z</time></trkpt><trkpt lat="40.4360935" lon="15.1741138"><ele>301.0</ele><time>2026-04-19T08:50:55.402Z</time></trkpt><trkpt lat="40.4360109" lon="15.1742002"><ele>302.0</ele><time>2026-04-19T08:50:56.402Z</time></trkpt><trkpt lat="40.4359379" lon="15.174284"><ele>303.0</ele><time>2026-04-19T08:50:57.402Z</time></trkpt><trkpt lat="40.4358736" lon="15.1743624"><ele>304.0</ele><time>2026-04-19T08:50:58.403Z</time></trkpt><trkpt lat="40.4358181" lon="15.1744327"><ele>305.0</ele><time>2026-04-19T08:50:59.402Z</time></trkpt><trkpt lat="40.4357771" lon="15.1745053"><ele>306.0</ele><time>2026-04-19T08:51:00.402Z</time></trkpt><trkpt lat="40.4357881" lon="15.1746294"><ele>306.0</ele><time>2026-04-19T08:51:02.403Z</time></trkpt><trkpt lat="40.4359146" lon="15.1747186"><ele>306.0</ele><time>2026-04-19T08:51:04.403Z</time></trkpt><trkpt lat="40.4359991" lon="15.1747704"><ele>306.0</ele><time>2026-04-19T08:51:05.402Z</time></trkpt><trkpt lat="40.4360894" lon="15.1748149"><ele>306.0</ele><time>2026-04-19T08:51:06.402Z</time></trkpt><trkpt lat="40.4361882" lon="15.1748441"><ele>306.0</ele><time>2026-04-19T08:51:07.403Z</time></trkpt><trkpt lat="40.436294" lon="15.1748679"><ele>301.40000000000003</ele><time>2026-04-19T08:51:08.403Z</time></trkpt><trkpt lat="40.4364024" lon="15.1748892"><ele>296.8</ele><time>2026-04-19T08:51:09.402Z</time></trkpt><trkpt lat="40.4365121" lon="15.1749203"><ele>292.20000000000005</ele><time>2026-04-19T08:51:10.402Z</time></trkpt><trkpt lat="40.4366235" lon="15.1749644"><ele>287.6</ele><time>2026-04-19T08:51:11.402Z</time></trkpt><trkpt lat="40.436729" lon="15.1750086"><ele>283.0</ele><time>2026-04-19T08:51:12.402Z</time></trkpt><trkpt lat="40.4368263" lon="15.1750476"><ele>283.0</ele><time>2026-04-19T08:51:13.402Z</time></trkpt><trkpt lat="40.4369182" lon="15.1750849"><ele>283.0</ele><time>2026-04-19T08:51:14.403Z</time></trkpt><trkpt lat="40.4370066" lon="15.1751167"><ele>283.0</ele><time>2026-04-19T08:51:15.403Z</time></trkpt><trkpt lat="40.4370909" lon="15.1751514"><ele>283.0</ele><time>2026-04-19T08:51:16.402Z</time></trkpt><trkpt lat="40.4371787" lon="15.1751752"><ele>283.0</ele><time>2026-04-19T08:51:17.403Z</time></trkpt><trkpt lat="40.4372761" lon="15.175182"><ele>281.0</ele><time>2026-04-19T08:51:18.402Z</time></trkpt><trkpt lat="40.4373783" lon="15.1751865"><ele>279.0</ele><time>2026-04-19T08:51:19.402Z</time></trkpt><trkpt lat="40.4374797" lon="15.1751927"><ele>277.0</ele><time>2026-04-19T08:51:20.403Z</time></trkpt><trkpt lat="40.4375814" lon="15.1752007"><ele>275.0</ele><time>2026-04-19T08:51:21.402Z</time></trkpt><trkpt lat="40.4376779" lon="15.1752051"><ele>273.0</ele><time>2026-04-19T08:51:22.402Z</time></trkpt><trkpt lat="40.4377672" lon="15.175205"><ele>273.0</ele><time>2026-04-19T08:51:23.402Z</time></trkpt><trkpt lat="40.437846" lon="15.1752013"><ele>273.0</ele><time>2026-04-19T08:51:24.402Z</time></trkpt><trkpt lat="40.4379133" lon="15.1752018"><ele>273.0</ele><time>2026-04-19T08:51:25.402Z</time></trkpt><trkpt lat="40.4380114" lon="15.1752386"><ele>273.0</ele><time>2026-04-19T08:51:27.402Z</time></trkpt><trkpt lat="40.4380193" lon="15.1753529"><ele>273.0</ele><time>2026-04-19T08:51:29.402Z</time></trkpt><trkpt lat="40.4379869" lon="15.1754357"><ele>273.0</ele><time>2026-04-19T08:51:30.402Z</time></trkpt><trkpt lat="40.4379404" lon="15.1755433"><ele>273.0</ele><time>2026-04-19T08:51:31.403Z</time></trkpt><trkpt lat="40.4378911" lon="15.1756574"><ele>273.0</ele><time>2026-04-19T08:51:32.402Z</time></trkpt><trkpt lat="40.4378547" lon="15.1757802"><ele>273.0</ele><time>2026-04-19T08:51:33.402Z</time></trkpt><trkpt lat="40.4378294" lon="15.1759153"><ele>273.0</ele><time>2026-04-19T08:51:34.402Z</time></trkpt><trkpt lat="40.4378104" lon="15.1760531"><ele>273.0</ele><time>2026-04-19T08:51:35.402Z</time></trkpt><trkpt lat="40.4377887" lon="15.1761833"><ele>271.2</ele><time>2026-04-19T08:51:36.403Z</time></trkpt><trkpt lat="40.4377582" lon="15.1763048"><ele>269.4</ele><time>2026-04-19T08:51:37.402Z</time></trkpt><trkpt lat="40.4377268" lon="15.1764252"><ele>267.59999999999997</ele><time>2026-04-19T08:51:38.403Z</time></trkpt><trkpt lat="40.4376883" lon="15.1765428"><ele>265.8</ele><time>2026-04-19T08:51:39.402Z</time></trkpt><trkpt lat="40.4376527" lon="15.1766527"><ele>264.0</ele><time>2026-04-19T08:51:40.402Z</time></trkpt><trkpt lat="40.4376227" lon="15.1767479"><ele>262.2</ele><time>2026-04-19T08:51:41.402Z</time></trkpt><trkpt lat="40.4376083" lon="15.1768371"><ele>260.4</ele><time>2026-04-19T08:51:42.402Z</time></trkpt><trkpt lat="40.4376342" lon="15.1769814"><ele>258.6</ele><time>2026-04-19T08:51:44.402Z</time></trkpt><trkpt lat="40.4376978" lon="15.1770851"><ele>256.8</ele><time>2026-04-19T08:51:46.402Z</time></trkpt><trkpt lat="40.4377617" lon="15.177187"><ele>255.0</ele><time>2026-04-19T08:51:48.402Z</time></trkpt><trkpt lat="40.4378484" lon="15.1773098"><ele>253.0</ele><time>2026-04-19T08:51:50.402Z</time></trkpt><trkpt lat="40.4379066" lon="15.1773734"><ele>251.0</ele><time>2026-04-19T08:51:51.402Z</time></trkpt><trkpt lat="40.4379765" lon="15.1774584"><ele>249.0</ele><time>2026-04-19T08:51:52.402Z</time></trkpt><trkpt lat="40.4380504" lon="15.1775494"><ele>247.0</ele><time>2026-04-19T08:51:53.403Z</time></trkpt><trkpt lat="40.4381237" lon="15.1776388"><ele>245.0</ele><time>2026-04-19T08:51:54.402Z</time></trkpt><trkpt lat="40.438191" lon="15.1777254"><ele>244.00000000000003</ele><time>2026-04-19T08:51:55.402Z</time></trkpt><trkpt lat="40.4382547" lon="15.1778014"><ele>243.0</ele><time>2026-04-19T08:51:56.402Z</time></trkpt><trkpt lat="40.4383125" lon="15.1778696"><ele>242.0</ele><time>2026-04-19T08:51:57.403Z</time></trkpt><trkpt lat="40.438364" lon="15.1779301"><ele>241.0</ele><time>2026-04-19T08:51:58.402Z</time></trkpt><trkpt lat="40.4384342" lon="15.1780221"><ele>240.00000000000003</ele><time>2026-04-19T08:52:00.403Z</time></trkpt><trkpt lat="40.4385012" lon="15.1780981"><ele>239.0</ele><time>2026-04-19T08:52:02.403Z</time></trkpt><trkpt lat="40.4385921" lon="15.17814"><ele>238.2</ele><time>2026-04-19T08:52:04.402Z</time></trkpt><trkpt lat="40.4386868" lon="15.1782038"><ele>237.39999999999998</ele><time>2026-04-19T08:52:06.403Z</time></trkpt><trkpt lat="40.4387751" lon="15.1782692"><ele>236.6</ele><time>2026-04-19T08:52:08.402Z</time></trkpt><trkpt lat="40.438861" lon="15.1783488"><ele>235.8</ele><time>2026-04-19T08:52:10.403Z</time></trkpt><trkpt lat="40.4389525" lon="15.1784146"><ele>235.0</ele><time>2026-04-19T08:52:12.403Z</time></trkpt><trkpt lat="40.4390348" lon="15.178467"><ele>232.99999999999997</ele><time>2026-04-19T08:52:14.402Z</time></trkpt><trkpt lat="40.4391139" lon="15.1785244"><ele>231.0</ele><time>2026-04-19T08:52:16.402Z</time></trkpt><trkpt lat="40.4391995" lon="15.1785946"><ele>229.0</ele><time>2026-04-19T08:52:18.402Z</time></trkpt><trkpt lat="40.4393019" lon="15.1786664"><ele>227.0</ele><time>2026-04-19T08:52:20.403Z</time></trkpt><trkpt lat="40.4393633" lon="15.1786944"><ele>224.99999999999997</ele><time>2026-04-19T08:52:21.402Z</time></trkpt><trkpt lat="40.4394226" lon="15.1787315"><ele>223.0</ele><time>2026-04-19T08:52:22.402Z</time></trkpt><trkpt lat="40.4394787" lon="15.1787721"><ele>223.0</ele><time>2026-04-19T08:52:23.403Z</time></trkpt><trkpt lat="40.4395915" lon="15.1788451"><ele>223.0</ele><time>2026-04-19T08:52:25.402Z</time></trkpt><trkpt lat="40.4396804" lon="15.1789188"><ele>223.0</ele><time>2026-04-19T08:52:27.403Z</time></trkpt><trkpt lat="40.4397666" lon="15.1789979"><ele>223.0</ele><time>2026-04-19T08:52:29.402Z</time></trkpt><trkpt lat="40.439847" lon="15.1790661"><ele>223.0</ele><time>2026-04-19T08:52:31.402Z</time></trkpt><trkpt lat="40.4399232" lon="15.1791411"><ele>219.4</ele><time>2026-04-19T08:52:33.402Z</time></trkpt><trkpt lat="40.4400039" lon="15.1792012"><ele>215.8</ele><time>2026-04-19T08:52:35.402Z</time></trkpt><trkpt lat="40.4400951" lon="15.1792623"><ele>212.2</ele><time>2026-04-19T08:52:37.402Z</time></trkpt><trkpt lat="40.4401905" lon="15.1793271"><ele>208.6</ele><time>2026-04-19T08:52:39.402Z</time></trkpt><trkpt lat="40.4402836" lon="15.1794055"><ele>205.0</ele><time>2026-04-19T08:52:41.403Z</time></trkpt><trkpt lat="40.4403677" lon="15.1794887"><ele>204.99999999999997</ele><time>2026-04-19T08:52:43.402Z</time></trkpt><trkpt lat="40.4404559" lon="15.17956"><ele>205.0</ele><time>2026-04-19T08:52:45.402Z</time></trkpt><trkpt lat="40.4405288" lon="15.1796265"><ele>205.0</ele><time>2026-04-19T08:52:47.402Z</time></trkpt><trkpt lat="40.4405832" lon="15.1796784"><ele>205.0</ele><time>2026-04-19T08:52:49.402Z</time></trkpt><trkpt lat="40.4406399" lon="15.1797205"><ele>204.99999999999997</ele><time>2026-04-19T08:52:51.402Z</time></trkpt><trkpt lat="40.4407027" lon="15.1797647"><ele>205.0</ele><time>2026-04-19T08:52:53.402Z</time></trkpt><trkpt lat="40.4407786" lon="15.1798107"><ele>202.33333333333331</ele><time>2026-04-19T08:52:56.402Z</time></trkpt><trkpt lat="40.4408786" lon="15.1798615"><ele>199.66666666666666</ele><time>2026-04-19T08:52:59.402Z</time></trkpt><trkpt lat="40.4409491" lon="15.1799212"><ele>197.0</ele><time>2026-04-19T08:53:01.402Z</time></trkpt><trkpt lat="40.4410288" lon="15.1799871"><ele>194.33333333333331</ele><time>2026-04-19T08:53:03.402Z</time></trkpt><trkpt lat="40.4410969" lon="15.1800416"><ele>191.66666666666666</ele><time>2026-04-19T08:53:06.402Z</time></trkpt><trkpt lat="40.441159" lon="15.1801014"><ele>189.0</ele><time>2026-04-19T08:53:10.403Z</time></trkpt><trkpt lat="40.4412379" lon="15.1801369"><ele>187.66666666666666</ele><time>2026-04-19T08:53:13.403Z</time></trkpt><trkpt lat="40.4413055" lon="15.1801841"><ele>186.33333333333334</ele><time>2026-04-19T08:53:15.402Z</time></trkpt><trkpt lat="40.4413577" lon="15.1802377"><ele>185.0</ele><time>2026-04-19T08:53:17.403Z</time></trkpt><trkpt lat="40.4414086" lon="15.1803061"><ele>183.66666666666669</ele><time>2026-04-19T08:53:20.402Z</time></trkpt><trkpt lat="40.4414579" lon="15.1803671"><ele>182.33333333333334</ele><time>2026-04-19T08:53:25.403Z</time></trkpt><trkpt lat="40.4415308" lon="15.1804289"><ele>181.0</ele><time>2026-04-19T08:53:27.403Z</time></trkpt><trkpt lat="40.4415981" lon="15.1804899"><ele>181.0</ele><time>2026-04-19T08:53:29.402Z</time></trkpt><trkpt lat="40.4416488" lon="15.1805422"><ele>181.0</ele><time>2026-04-19T08:53:31.402Z</time></trkpt><trkpt lat="40.4417038" lon="15.1806015"><ele>181.0</ele><time>2026-04-19T08:53:33.402Z</time></trkpt><trkpt lat="40.4417623" lon="15.1806658"><ele>181.0</ele><time>2026-04-19T08:53:35.402Z</time></trkpt><trkpt lat="40.4418318" lon="15.1807261"><ele>181.0</ele><time>2026-04-19T08:53:37.403Z</time></trkpt><trkpt lat="40.4418952" lon="15.1807638"><ele>181.0</ele><time>2026-04-19T08:53:39.403Z</time></trkpt><trkpt lat="40.4419594" lon="15.1807926"><ele>181.0</ele><time>2026-04-19T08:53:41.402Z</time></trkpt><trkpt lat="40.4420209" lon="15.1808288"><ele>180.16666666666669</ele><time>2026-04-19T08:53:43.403Z</time></trkpt><trkpt lat="40.4420868" lon="15.1808719"><ele>179.33333333333334</ele><time>2026-04-19T08:53:45.402Z</time></trkpt><trkpt lat="40.4421477" lon="15.1809092"><ele>178.5</ele><time>2026-04-19T08:53:47.402Z</time></trkpt><trkpt lat="40.442218" lon="15.1809541"><ele>177.66666666666666</ele><time>2026-04-19T08:53:49.402Z</time></trkpt><trkpt lat="40.4422821" lon="15.1809939"><ele>176.83333333333331</ele><time>2026-04-19T08:53:51.402Z</time></trkpt><trkpt lat="40.4423498" lon="15.1810346"><ele>176.0</ele><time>2026-04-19T08:53:53.403Z</time></trkpt><trkpt lat="40.4424221" lon="15.1810995"><ele>174.33333333333331</ele><time>2026-04-19T08:53:55.402Z</time></trkpt><trkpt lat="40.4424992" lon="15.1811708"><ele>172.66666666666666</ele><time>2026-04-19T08:53:58.402Z</time></trkpt><trkpt lat="40.4425461" lon="15.1812286"><ele>171.0</ele><time>2026-04-19T08:54:00.403Z</time></trkpt><trkpt lat="40.4425942" lon="15.1812958"><ele>169.33333333333334</ele><time>2026-04-19T08:54:02.402Z</time></trkpt><trkpt lat="40.4426417" lon="15.1813679"><ele>167.66666666666669</ele><time>2026-04-19T08:54:04.402Z</time></trkpt><trkpt lat="40.4426837" lon="15.1814493"><ele>166.0</ele><time>2026-04-19T08:54:06.402Z</time></trkpt><trkpt lat="40.4427278" lon="15.1815359"><ele>164.5</ele><time>2026-04-19T08:54:08.402Z</time></trkpt><trkpt lat="40.4427613" lon="15.1816153"><ele>163.0</ele><time>2026-04-19T08:54:10.402Z</time></trkpt><trkpt lat="40.4427993" lon="15.1817147"><ele>161.5</ele><time>2026-04-19T08:54:13.403Z</time></trkpt><trkpt lat="40.4428175" lon="15.1818065"><ele>160.0</ele><time>2026-04-19T08:54:46.402Z</time></trkpt><trkpt lat="40.4428538" lon="15.1819105"><ele>158.5</ele><time>2026-04-19T08:54:49.402Z</time></trkpt><trkpt lat="40.4429108" lon="15.1819877"><ele>157.0</ele><time>2026-04-19T08:54:51.402Z</time></trkpt><trkpt lat="40.4429676" lon="15.1820871"><ele>156.0</ele><time>2026-04-19T08:54:53.402Z</time></trkpt><trkpt lat="40.4429899" lon="15.1821905"><ele>155.0</ele><time>2026-04-19T08:54:55.402Z</time></trkpt><trkpt lat="40.4430153" lon="15.1823051"><ele>154.0</ele><time>2026-04-19T08:54:57.402Z</time></trkpt><trkpt lat="40.443046" lon="15.1824376"><ele>153.0</ele><time>2026-04-19T08:54:59.402Z</time></trkpt><trkpt lat="40.4430741" lon="15.1825772"><ele>152.0</ele><time>2026-04-19T08:55:01.402Z</time></trkpt><trkpt lat="40.4431027" lon="15.1827071"><ele>150.66666666666666</ele><time>2026-04-19T08:55:03.402Z</time></trkpt><trkpt lat="40.443125" lon="15.1828211"><ele>149.33333333333331</ele><time>2026-04-19T08:55:05.402Z</time></trkpt><trkpt lat="40.4431552" lon="15.1829112"><ele>148.0</ele><time>2026-04-19T08:55:07.403Z</time></trkpt><trkpt lat="40.4431939" lon="15.1830089"><ele>146.66666666666666</ele><time>2026-04-19T08:55:09.402Z</time></trkpt><trkpt lat="40.4432458" lon="15.1830966"><ele>145.33333333333334</ele><time>2026-04-19T08:55:11.402Z</time></trkpt><trkpt lat="40.4433075" lon="15.1831864"><ele>144.0</ele><time>2026-04-19T08:55:13.402Z</time></trkpt><trkpt lat="40.4433573" lon="15.1832726"><ele>142.6</ele><time>2026-04-19T08:55:15.402Z</time></trkpt><trkpt lat="40.4434345" lon="15.1834015"><ele>141.2</ele><time>2026-04-19T08:55:17.402Z</time></trkpt><trkpt lat="40.4434793" lon="15.1834616"><ele>139.79999999999998</ele><time>2026-04-19T08:55:18.403Z</time></trkpt><trkpt lat="40.4435308" lon="15.1835143"><ele>138.4</ele><time>2026-04-19T08:55:19.403Z</time></trkpt><trkpt lat="40.4436205" lon="15.1835924"><ele>137.0</ele><time>2026-04-19T08:55:21.401Z</time></trkpt><trkpt lat="40.4436928" lon="15.1836735"><ele>137.0</ele><time>2026-04-19T08:55:23.401Z</time></trkpt><trkpt lat="40.4437475" lon="15.183744"><ele>137.0</ele><time>2026-04-19T08:55:26.402Z</time></trkpt><trkpt lat="40.4438525" lon="15.1837826"><ele>137.0</ele><time>2026-04-19T08:55:35.401Z</time></trkpt><trkpt lat="40.4439329" lon="15.1837519"><ele>137.0</ele><time>2026-04-19T08:55:37.401Z</time></trkpt><trkpt lat="40.4440118" lon="15.183714"><ele>137.0</ele><time>2026-04-19T08:55:39.401Z</time></trkpt><trkpt lat="40.4440843" lon="15.1836475"><ele>137.0</ele><time>2026-04-19T08:55:41.401Z</time></trkpt><trkpt lat="40.4441496" lon="15.1835578"><ele>136.4</ele><time>2026-04-19T08:55:44.401Z</time></trkpt><trkpt lat="40.4442195" lon="15.1834808"><ele>135.79999999999998</ele><time>2026-04-19T08:55:46.402Z</time></trkpt><trkpt lat="40.4443063" lon="15.1834009"><ele>135.2</ele><time>2026-04-19T08:55:48.402Z</time></trkpt><trkpt lat="40.4444049" lon="15.1833302"><ele>134.6</ele><time>2026-04-19T08:55:50.401Z</time></trkpt><trkpt lat="40.4444734" lon="15.1832426"><ele>134.0</ele><time>2026-04-19T08:55:52.401Z</time></trkpt><trkpt lat="40.4445367" lon="15.1831227"><ele>134.0</ele><time>2026-04-19T08:55:54.401Z</time></trkpt><trkpt lat="40.4445986" lon="15.1830188"><ele>134.0</ele><time>2026-04-19T08:55:56.403Z</time></trkpt><trkpt lat="40.4446604" lon="15.1829306"><ele>134.0</ele><time>2026-04-19T08:55:58.401Z</time></trkpt><trkpt lat="40.4447273" lon="15.1828387"><ele>134.0</ele><time>2026-04-19T08:56:00.401Z</time></trkpt><trkpt lat="40.4447939" lon="15.1827511"><ele>134.0</ele><time>2026-04-19T08:56:02.401Z</time></trkpt><trkpt lat="40.4448751" lon="15.1827236"><ele>136.0</ele><time>2026-04-19T08:56:04.401Z</time></trkpt><trkpt lat="40.4449615" lon="15.1827664"><ele>138.0</ele><time>2026-04-19T08:56:06.401Z</time></trkpt><trkpt lat="40.44508" lon="15.1828181"><ele>140.0</ele><time>2026-04-19T08:56:08.401Z</time></trkpt><trkpt lat="40.4451415" lon="15.1828531"><ele>142.0</ele><time>2026-04-19T08:56:09.402Z</time></trkpt><trkpt lat="40.4452054" lon="15.1828925"><ele>144.0</ele><time>2026-04-19T08:56:10.401Z</time></trkpt><trkpt lat="40.4452712" lon="15.1829268"><ele>146.0</ele><time>2026-04-19T08:56:11.401Z</time></trkpt><trkpt lat="40.4453403" lon="15.1829669"><ele>146.0</ele><time>2026-04-19T08:56:12.401Z</time></trkpt><trkpt lat="40.4454094" lon="15.1830085"><ele>146.0</ele><time>2026-04-19T08:56:13.401Z</time></trkpt><trkpt lat="40.4454789" lon="15.1830487"><ele>146.0</ele><time>2026-04-19T08:56:14.402Z</time></trkpt><trkpt lat="40.445552" lon="15.1830854"><ele>146.0</ele><time>2026-04-19T08:56:15.402Z</time></trkpt><trkpt lat="40.4456207" lon="15.183131"><ele>146.0</ele><time>2026-04-19T08:56:16.402Z</time></trkpt><trkpt lat="40.4456912" lon="15.1831753"><ele>146.0</ele><time>2026-04-19T08:56:17.401Z</time></trkpt><trkpt lat="40.4457558" lon="15.1832184"><ele>148.33333333333331</ele><time>2026-04-19T08:56:18.401Z</time></trkpt><trkpt lat="40.4458235" lon="15.1832554"><ele>150.66666666666666</ele><time>2026-04-19T08:56:19.401Z</time></trkpt><trkpt lat="40.4458908" lon="15.1832681"><ele>153.0</ele><time>2026-04-19T08:56:20.401Z</time></trkpt><trkpt lat="40.4459643" lon="15.1832805"><ele>155.33333333333334</ele><time>2026-04-19T08:56:21.401Z</time></trkpt><trkpt lat="40.4460401" lon="15.1832954"><ele>157.66666666666669</ele><time>2026-04-19T08:56:22.401Z</time></trkpt><trkpt lat="40.4461244" lon="15.1833024"><ele>160.0</ele><time>2026-04-19T08:56:23.403Z</time></trkpt><trkpt lat="40.446197" lon="15.1832836"><ele>160.0</ele><time>2026-04-19T08:56:24.401Z</time></trkpt><trkpt lat="40.4462778" lon="15.18325"><ele>160.0</ele><time>2026-04-19T08:56:25.401Z</time></trkpt><trkpt lat="40.4463587" lon="15.1832002"><ele>160.0</ele><time>2026-04-19T08:56:26.401Z</time></trkpt><trkpt lat="40.4464407" lon="15.1831635"><ele>160.0</ele><time>2026-04-19T08:56:27.401Z</time></trkpt><trkpt lat="40.4465251" lon="15.1831343"><ele>160.0</ele><time>2026-04-19T08:56:28.401Z</time></trkpt><trkpt lat="40.4466092" lon="15.1831147"><ele>160.0</ele><time>2026-04-19T08:56:29.401Z</time></trkpt><trkpt lat="40.4466745" lon="15.1831056"><ele>161.66666666666669</ele><time>2026-04-19T08:56:30.402Z</time></trkpt><trkpt lat="40.4467643" lon="15.1830931"><ele>163.33333333333334</ele><time>2026-04-19T08:56:32.401Z</time></trkpt><trkpt lat="40.4468456" lon="15.1831186"><ele>165.0</ele><time>2026-04-19T08:56:35.401Z</time></trkpt><trkpt lat="40.4468891" lon="15.183185"><ele>166.66666666666666</ele><time>2026-04-19T08:56:38.402Z</time></trkpt><trkpt lat="40.4469605" lon="15.1832321"><ele>168.33333333333331</ele><time>2026-04-19T08:57:07.401Z</time></trkpt><trkpt lat="40.4470514" lon="15.1832697"><ele>170.0</ele><time>2026-04-19T08:57:09.401Z</time></trkpt><trkpt lat="40.4471525" lon="15.1833085"><ele>170.66666666666666</ele><time>2026-04-19T08:57:11.402Z</time></trkpt><trkpt lat="40.4472532" lon="15.1833565"><ele>171.33333333333331</ele><time>2026-04-19T08:57:13.402Z</time></trkpt><trkpt lat="40.4473366" lon="15.1834083"><ele>172.0</ele><time>2026-04-19T08:57:15.402Z</time></trkpt><trkpt lat="40.4473968" lon="15.1834487"><ele>172.66666666666666</ele><time>2026-04-19T08:57:17.389Z</time></trkpt><trkpt lat="40.4474724" lon="15.1834765"><ele>173.33333333333334</ele><time>2026-04-19T08:57:21.387Z</time></trkpt><trkpt lat="40.4474455" lon="15.1833948"><ele>174.0</ele><time>2026-04-19T08:57:34.401Z</time></trkpt><trkpt lat="40.4474619" lon="15.1834773"><ele>174.0</ele><time>2026-04-19T08:57:40.401Z</time></trkpt><trkpt lat="40.4475461" lon="15.1834297"><ele>174.0</ele><time>2026-04-19T09:07:43.399Z</time></trkpt><trkpt lat="40.4476618" lon="15.1834021"><ele>174.0</ele><time>2026-04-19T09:07:45.399Z</time></trkpt><trkpt lat="40.4477755" lon="15.1833608"><ele>174.0</ele><time>2026-04-19T09:07:47.399Z</time></trkpt><trkpt lat="40.4478914" lon="15.1833009"><ele>172.83333333333334</ele><time>2026-04-19T09:07:49.399Z</time></trkpt><trkpt lat="40.4479976" lon="15.1832134"><ele>171.66666666666666</ele><time>2026-04-19T09:07:51.399Z</time></trkpt><trkpt lat="40.4480527" lon="15.1831583"><ele>170.5</ele><time>2026-04-19T09:07:52.398Z</time></trkpt><trkpt lat="40.4481111" lon="15.1831152"><ele>169.33333333333331</ele><time>2026-04-19T09:07:53.398Z</time></trkpt><trkpt lat="40.4481734" lon="15.1830643"><ele>168.16666666666666</ele><time>2026-04-19T09:07:54.398Z</time></trkpt><trkpt lat="40.4482326" lon="15.1830115"><ele>167.0</ele><time>2026-04-19T09:07:55.398Z</time></trkpt><trkpt lat="40.4482932" lon="15.1829467"><ele>167.0</ele><time>2026-04-19T09:07:56.387Z</time></trkpt><trkpt lat="40.4483502" lon="15.1828831"><ele>167.0</ele><time>2026-04-19T09:07:57.384Z</time></trkpt><trkpt lat="40.4484102" lon="15.1828476"><ele>167.0</ele><time>2026-04-19T09:07:58.386Z</time></trkpt><trkpt lat="40.4485036" lon="15.1827806"><ele>167.0</ele><time>2026-04-19T09:08:00.398Z</time></trkpt><trkpt lat="40.4485976" lon="15.182747"><ele>167.0</ele><time>2026-04-19T09:08:02.398Z</time></trkpt><trkpt lat="40.4487107" lon="15.182728"><ele>163.0</ele><time>2026-04-19T09:08:04.398Z</time></trkpt><trkpt lat="40.4488114" lon="15.1827123"><ele>159.0</ele><time>2026-04-19T09:08:06.398Z</time></trkpt><trkpt lat="40.4488997" lon="15.1826884"><ele>155.0</ele><time>2026-04-19T09:08:08.398Z</time></trkpt><trkpt lat="40.4489811" lon="15.1826674"><ele>151.0</ele><time>2026-04-19T09:08:10.398Z</time></trkpt><trkpt lat="40.4490657" lon="15.1826428"><ele>147.0</ele><time>2026-04-19T09:08:12.399Z</time></trkpt><trkpt lat="40.4491482" lon="15.1825878"><ele>147.0</ele><time>2026-04-19T09:08:14.398Z</time></trkpt><trkpt lat="40.449221" lon="15.1824977"><ele>147.0</ele><time>2026-04-19T09:08:16.398Z</time></trkpt><trkpt lat="40.4492896" lon="15.1824804"><ele>147.0</ele><time>2026-04-19T09:08:19.398Z</time></trkpt><trkpt lat="40.449312" lon="15.1825909"><ele>147.0</ele><time>2026-04-19T09:08:34.398Z</time></trkpt><trkpt lat="40.4493199" lon="15.1826826"><ele>147.0</ele><time>2026-04-19T09:08:36.399Z</time></trkpt><trkpt lat="40.4493313" lon="15.1827781"><ele>147.0</ele><time>2026-04-19T09:08:38.398Z</time></trkpt><trkpt lat="40.4493223" lon="15.1828674"><ele>147.0</ele><time>2026-04-19T09:08:40.398Z</time></trkpt><trkpt lat="40.4492875" lon="15.1829658"><ele>147.0</ele><time>2026-04-19T09:08:42.399Z</time></trkpt><trkpt lat="40.4492358" lon="15.1830547"><ele>147.0</ele><time>2026-04-19T09:08:45.399Z</time></trkpt><trkpt lat="40.4492403" lon="15.1831427"><ele>147.0</ele><time>2026-04-19T09:08:48.398Z</time></trkpt><trkpt lat="40.4493106" lon="15.183125"><ele>147.0</ele><time>2026-04-19T09:08:51.398Z</time></trkpt><trkpt lat="40.4493416" lon="15.1830425"><ele>147.0</ele><time>2026-04-19T09:08:53.398Z</time></trkpt><trkpt lat="40.4494067" lon="15.1830289"><ele>147.0</ele><time>2026-04-19T09:08:56.398Z</time></trkpt><trkpt lat="40.4494923" lon="15.1830076"><ele>147.0</ele><time>2026-04-19T09:08:59.398Z</time></trkpt><trkpt lat="40.4495643" lon="15.182913"><ele>147.0</ele><time>2026-04-19T09:09:01.398Z</time></trkpt><trkpt lat="40.4496259" lon="15.1828264"><ele>147.0</ele><time>2026-04-19T09:09:03.398Z</time></trkpt><trkpt lat="40.4496671" lon="15.1827125"><ele>147.0</ele><time>2026-04-19T09:09:06.398Z</time></trkpt><trkpt lat="40.4496715" lon="15.1825722"><ele>147.0</ele><time>2026-04-19T09:09:08.398Z</time></trkpt><trkpt lat="40.4496402" lon="15.1824328"><ele>146.0</ele><time>2026-04-19T09:09:10.398Z</time></trkpt><trkpt lat="40.4496273" lon="15.1823447"><ele>145.0</ele><time>2026-04-19T09:09:13.398Z</time></trkpt><trkpt lat="40.4497021" lon="15.1822969"><ele>144.0</ele><time>2026-04-19T09:09:24.399Z</time></trkpt><trkpt lat="40.4498347" lon="15.1822751"><ele>143.0</ele><time>2026-04-19T09:09:26.399Z</time></trkpt><trkpt lat="40.4499248" lon="15.1822581"><ele>142.0</ele><time>2026-04-19T09:09:27.398Z</time></trkpt><trkpt lat="40.4500233" lon="15.1822421"><ele>142.0</ele><time>2026-04-19T09:09:28.398Z</time></trkpt><trkpt lat="40.4501063" lon="15.1822289"><ele>142.0</ele><time>2026-04-19T09:09:29.399Z</time></trkpt><trkpt lat="40.4501898" lon="15.1822204"><ele>142.0</ele><time>2026-04-19T09:09:30.399Z</time></trkpt><trkpt lat="40.4502571" lon="15.1822103"><ele>142.0</ele><time>2026-04-19T09:09:31.398Z</time></trkpt><trkpt lat="40.4503365" lon="15.1821749"><ele>142.0</ele><time>2026-04-19T09:09:33.398Z</time></trkpt><trkpt lat="40.4503509" lon="15.1820729"><ele>142.0</ele><time>2026-04-19T09:09:35.398Z</time></trkpt><trkpt lat="40.4503494" lon="15.1819866"><ele>142.0</ele><time>2026-04-19T09:09:36.398Z</time></trkpt><trkpt lat="40.4503407" lon="15.1818836"><ele>142.0</ele><time>2026-04-19T09:09:37.398Z</time></trkpt><trkpt lat="40.4503315" lon="15.1817919"><ele>142.0</ele><time>2026-04-19T09:09:38.4Z</time></trkpt><trkpt lat="40.4503107" lon="15.1816424"><ele>142.0</ele><time>2026-04-19T09:09:40.399Z</time></trkpt><trkpt lat="40.450298" lon="15.1815298"><ele>142.0</ele><time>2026-04-19T09:09:42.398Z</time></trkpt><trkpt lat="40.4503147" lon="15.1814304"><ele>142.0</ele><time>2026-04-19T09:09:44.398Z</time></trkpt><trkpt lat="40.4503751" lon="15.1813498"><ele>145.8</ele><time>2026-04-19T09:09:46.398Z</time></trkpt><trkpt lat="40.4504624" lon="15.1812726"><ele>149.6</ele><time>2026-04-19T09:09:48.399Z</time></trkpt><trkpt lat="40.4505572" lon="15.1812248"><ele>153.4</ele><time>2026-04-19T09:09:50.398Z</time></trkpt><trkpt lat="40.4506634" lon="15.1811669"><ele>157.20000000000002</ele><time>2026-04-19T09:09:52.399Z</time></trkpt><trkpt lat="40.45077" lon="15.18111"><ele>161.0</ele><time>2026-04-19T09:09:54.398Z</time></trkpt><trkpt lat="40.4508654" lon="15.1810531"><ele>161.0</ele><time>2026-04-19T09:09:56.398Z</time></trkpt><trkpt lat="40.4509779" lon="15.1810236"><ele>161.0</ele><time>2026-04-19T09:09:58.398Z</time></trkpt><trkpt lat="40.451045" lon="15.1810133"><ele>161.0</ele><time>2026-04-19T09:09:59.398Z</time></trkpt><trkpt lat="40.4511622" lon="15.1809859"><ele>161.0</ele><time>2026-04-19T09:10:01.398Z</time></trkpt><trkpt lat="40.4512614" lon="15.1809469"><ele>161.0</ele><time>2026-04-19T09:10:03.398Z</time></trkpt><trkpt lat="40.4513687" lon="15.1809304"><ele>163.16666666666666</ele><time>2026-04-19T09:10:05.398Z</time></trkpt><trkpt lat="40.4514801" lon="15.1809016"><ele>165.33333333333331</ele><time>2026-04-19T09:10:07.398Z</time></trkpt><trkpt lat="40.4515745" lon="15.1807996"><ele>167.5</ele><time>2026-04-19T09:10:09.398Z</time></trkpt><trkpt lat="40.4516286" lon="15.1807417"><ele>169.66666666666666</ele><time>2026-04-19T09:10:10.398Z</time></trkpt><trkpt lat="40.4516728" lon="15.1806815"><ele>171.83333333333334</ele><time>2026-04-19T09:10:11.398Z</time></trkpt><trkpt lat="40.4517226" lon="15.1806212"><ele>174.0</ele><time>2026-04-19T09:10:12.398Z</time></trkpt><trkpt lat="40.4517676" lon="15.1805573"><ele>175.28571428571428</ele><time>2026-04-19T09:10:13.398Z</time></trkpt><trkpt lat="40.451816" lon="15.1804922"><ele>176.57142857142858</ele><time>2026-04-19T09:10:14.399Z</time></trkpt><trkpt lat="40.4518517" lon="15.1804234"><ele>177.85714285714286</ele><time>2026-04-19T09:10:15.399Z</time></trkpt><trkpt lat="40.4518937" lon="15.1803518"><ele>179.14285714285714</ele><time>2026-04-19T09:10:16.398Z</time></trkpt><trkpt lat="40.4519316" lon="15.1802734"><ele>180.42857142857144</ele><time>2026-04-19T09:10:17.398Z</time></trkpt><trkpt lat="40.4519743" lon="15.1801951"><ele>181.71428571428572</ele><time>2026-04-19T09:10:18.399Z</time></trkpt><trkpt lat="40.4520194" lon="15.1801139"><ele>183.0</ele><time>2026-04-19T09:10:19.398Z</time></trkpt><trkpt lat="40.4520651" lon="15.180037"><ele>183.0</ele><time>2026-04-19T09:10:20.398Z</time></trkpt><trkpt lat="40.4521188" lon="15.1799658"><ele>183.0</ele><time>2026-04-19T09:10:21.398Z</time></trkpt><trkpt lat="40.4521698" lon="15.1798948"><ele>183.0</ele><time>2026-04-19T09:10:22.398Z</time></trkpt><trkpt lat="40.45222" lon="15.1798193"><ele>183.0</ele><time>2026-04-19T09:10:23.398Z</time></trkpt><trkpt lat="40.4522769" lon="15.1797523"><ele>183.0</ele><time>2026-04-19T09:10:24.4Z</time></trkpt><trkpt lat="40.4523364" lon="15.1796866"><ele>183.0</ele><time>2026-04-19T09:10:25.398Z</time></trkpt><trkpt lat="40.4523939" lon="15.1796179"><ele>184.83333333333334</ele><time>2026-04-19T09:10:26.399Z</time></trkpt><trkpt lat="40.4524521" lon="15.1795539"><ele>186.66666666666669</ele><time>2026-04-19T09:10:27.398Z</time></trkpt><trkpt lat="40.452511" lon="15.1794844"><ele>188.5</ele><time>2026-04-19T09:10:28.398Z</time></trkpt><trkpt lat="40.4525739" lon="15.1794108"><ele>190.33333333333334</ele><time>2026-04-19T09:10:29.398Z</time></trkpt><trkpt lat="40.452638" lon="15.1793389"><ele>192.16666666666669</ele><time>2026-04-19T09:10:30.398Z</time></trkpt><trkpt lat="40.4527053" lon="15.1792708"><ele>194.0</ele><time>2026-04-19T09:10:31.399Z</time></trkpt><trkpt lat="40.4527715" lon="15.1792099"><ele>194.00000000000003</ele><time>2026-04-19T09:10:32.399Z</time></trkpt><trkpt lat="40.4528341" lon="15.1791601"><ele>194.0</ele><time>2026-04-19T09:10:33.398Z</time></trkpt><trkpt lat="40.4528972" lon="15.1791135"><ele>194.0</ele><time>2026-04-19T09:10:34.398Z</time></trkpt><trkpt lat="40.4529576" lon="15.179065"><ele>194.0</ele><time>2026-04-19T09:10:35.398Z</time></trkpt><trkpt lat="40.4530189" lon="15.1790223"><ele>194.00000000000003</ele><time>2026-04-19T09:10:38.398Z</time></trkpt><trkpt lat="40.4530849" lon="15.178974"><ele>194.0</ele><time>2026-04-19T09:11:24.398Z</time></trkpt><trkpt lat="40.4531644" lon="15.1788938"><ele>196.0</ele><time>2026-04-19T09:11:26.397Z</time></trkpt><trkpt lat="40.4532646" lon="15.1787896"><ele>198.0</ele><time>2026-04-19T09:11:28.397Z</time></trkpt><trkpt lat="40.4533241" lon="15.1787207"><ele>200.0</ele><time>2026-04-19T09:11:29.397Z</time></trkpt><trkpt lat="40.4533941" lon="15.1786553"><ele>202.0</ele><time>2026-04-19T09:11:30.398Z</time></trkpt><trkpt lat="40.4534732" lon="15.1785857"><ele>204.0</ele><time>2026-04-19T09:11:31.397Z</time></trkpt><trkpt lat="40.4535552" lon="15.1785133"><ele>204.0</ele><time>2026-04-19T09:11:32.397Z</time></trkpt><trkpt lat="40.4536395" lon="15.178444"><ele>204.0</ele><time>2026-04-19T09:11:33.397Z</time></trkpt><trkpt lat="40.4537307" lon="15.1783907"><ele>204.0</ele><time>2026-04-19T09:11:34.397Z</time></trkpt><trkpt lat="40.4538246" lon="15.1783353"><ele>204.0</ele><time>2026-04-19T09:11:35.397Z</time></trkpt><trkpt lat="40.4539194" lon="15.1782758"><ele>204.0</ele><time>2026-04-19T09:11:36.397Z</time></trkpt><trkpt lat="40.4540226" lon="15.1782346"><ele>205.2</ele><time>2026-04-19T09:11:37.397Z</time></trkpt><trkpt lat="40.4541384" lon="15.1782024"><ele>206.39999999999998</ele><time>2026-04-19T09:11:38.397Z</time></trkpt><trkpt lat="40.4542556" lon="15.1781828"><ele>207.6</ele><time>2026-04-19T09:11:39.397Z</time></trkpt><trkpt lat="40.4543678" lon="15.1781654"><ele>208.8</ele><time>2026-04-19T09:11:40.397Z</time></trkpt><trkpt lat="40.454465" lon="15.1781433"><ele>210.0</ele><time>2026-04-19T09:11:41.398Z</time></trkpt><trkpt lat="40.4545529" lon="15.1781155"><ele>212.0</ele><time>2026-04-19T09:11:42.397Z</time></trkpt><trkpt lat="40.4546436" lon="15.1780613"><ele>214.0</ele><time>2026-04-19T09:11:43.397Z</time></trkpt><trkpt lat="40.4547329" lon="15.1779965"><ele>216.0</ele><time>2026-04-19T09:11:44.397Z</time></trkpt><trkpt lat="40.4548235" lon="15.1779212"><ele>218.0</ele><time>2026-04-19T09:11:45.397Z</time></trkpt><trkpt lat="40.4549204" lon="15.177841"><ele>220.0</ele><time>2026-04-19T09:11:46.397Z</time></trkpt><trkpt lat="40.4550189" lon="15.177757"><ele>220.0</ele><time>2026-04-19T09:11:47.398Z</time></trkpt><trkpt lat="40.4551129" lon="15.1776946"><ele>220.0</ele><time>2026-04-19T09:11:48.397Z</time></trkpt><trkpt lat="40.4552138" lon="15.1776305"><ele>220.0</ele><time>2026-04-19T09:11:49.397Z</time></trkpt><trkpt lat="40.4553216" lon="15.1775704"><ele>220.0</ele><time>2026-04-19T09:11:50.397Z</time></trkpt><trkpt lat="40.4554317" lon="15.1775046"><ele>219.75</ele><time>2026-04-19T09:11:51.397Z</time></trkpt><trkpt lat="40.4555412" lon="15.177424"><ele>219.5</ele><time>2026-04-19T09:11:52.397Z</time></trkpt><trkpt lat="40.4556457" lon="15.1773383"><ele>219.25</ele><time>2026-04-19T09:11:53.397Z</time></trkpt><trkpt lat="40.4557407" lon="15.177258"><ele>219.0</ele><time>2026-04-19T09:11:54.397Z</time></trkpt><trkpt lat="40.4558333" lon="15.1771829"><ele>218.6</ele><time>2026-04-19T09:11:55.397Z</time></trkpt><trkpt lat="40.4559325" lon="15.1771191"><ele>218.2</ele><time>2026-04-19T09:11:56.397Z</time></trkpt><trkpt lat="40.4560321" lon="15.1770762"><ele>217.79999999999998</ele><time>2026-04-19T09:11:57.397Z</time></trkpt><trkpt lat="40.4561391" lon="15.1770515"><ele>217.39999999999998</ele><time>2026-04-19T09:11:58.397Z</time></trkpt><trkpt lat="40.456251" lon="15.1770544"><ele>217.0</ele><time>2026-04-19T09:11:59.397Z</time></trkpt><trkpt lat="40.456375" lon="15.1770553"><ele>218.75</ele><time>2026-04-19T09:12:00.397Z</time></trkpt><trkpt lat="40.4565017" lon="15.1770221"><ele>220.5</ele><time>2026-04-19T09:12:01.398Z</time></trkpt><trkpt lat="40.4566165" lon="15.1769434"><ele>222.25</ele><time>2026-04-19T09:12:02.397Z</time></trkpt><trkpt lat="40.456714" lon="15.1768396"><ele>224.0</ele><time>2026-04-19T09:12:03.397Z</time></trkpt><trkpt lat="40.4568138" lon="15.1767404"><ele>224.0</ele><time>2026-04-19T09:12:04.398Z</time></trkpt><trkpt lat="40.4569321" lon="15.1766749"><ele>224.0</ele><time>2026-04-19T09:12:05.397Z</time></trkpt><trkpt lat="40.4570547" lon="15.1765992"><ele>224.0</ele><time>2026-04-19T09:12:06.397Z</time></trkpt><trkpt lat="40.4571771" lon="15.1765183"><ele>224.0</ele><time>2026-04-19T09:12:07.397Z</time></trkpt><trkpt lat="40.4572946" lon="15.1764361"><ele>226.5</ele><time>2026-04-19T09:12:08.398Z</time></trkpt><trkpt lat="40.4574066" lon="15.1763617"><ele>229.0</ele><time>2026-04-19T09:12:09.397Z</time></trkpt><trkpt lat="40.4575175" lon="15.1762867"><ele>231.5</ele><time>2026-04-19T09:12:10.397Z</time></trkpt><trkpt lat="40.4576303" lon="15.176206"><ele>234.0</ele><time>2026-04-19T09:12:11.398Z</time></trkpt><trkpt lat="40.4577427" lon="15.1761203"><ele>234.0</ele><time>2026-04-19T09:12:12.397Z</time></trkpt><trkpt lat="40.45786" lon="15.1760376"><ele>234.0</ele><time>2026-04-19T09:12:13.397Z</time></trkpt><trkpt lat="40.4579813" lon="15.1759579"><ele>234.0</ele><time>2026-04-19T09:12:14.397Z</time></trkpt><trkpt lat="40.4581074" lon="15.1758821"><ele>234.0</ele><time>2026-04-19T09:12:15.398Z</time></trkpt><trkpt lat="40.4582348" lon="15.1758128"><ele>236.25</ele><time>2026-04-19T09:12:16.397Z</time></trkpt><trkpt lat="40.4583674" lon="15.1757478"><ele>238.5</ele><time>2026-04-19T09:12:17.398Z</time></trkpt><trkpt lat="40.4584993" lon="15.1756812"><ele>240.75</ele><time>2026-04-19T09:12:18.397Z</time></trkpt><trkpt lat="40.4586315" lon="15.1756281"><ele>243.0</ele><time>2026-04-19T09:12:19.397Z</time></trkpt><trkpt lat="40.4587619" lon="15.175603"><ele>247.75</ele><time>2026-04-19T09:12:20.397Z</time></trkpt><trkpt lat="40.4588889" lon="15.1755837"><ele>252.5</ele><time>2026-04-19T09:12:21.397Z</time></trkpt><trkpt lat="40.4590126" lon="15.1755476"><ele>257.25</ele><time>2026-04-19T09:12:22.397Z</time></trkpt><trkpt lat="40.459134" lon="15.1755087"><ele>262.0</ele><time>2026-04-19T09:12:23.397Z</time></trkpt><trkpt lat="40.4592562" lon="15.1754869"><ele>262.0</ele><time>2026-04-19T09:12:24.397Z</time></trkpt><trkpt lat="40.459378" lon="15.1754778"><ele>262.0</ele><time>2026-04-19T09:12:25.397Z</time></trkpt><trkpt lat="40.4594847" lon="15.1754691"><ele>262.0</ele><time>2026-04-19T09:12:26.397Z</time></trkpt><trkpt lat="40.4595665" lon="15.1754362"><ele>262.0</ele><time>2026-04-19T09:12:27.397Z</time></trkpt><trkpt lat="40.4596283" lon="15.1753786"><ele>262.0</ele><time>2026-04-19T09:12:28.397Z</time></trkpt><trkpt lat="40.4596838" lon="15.1752934"><ele>265.2</ele><time>2026-04-19T09:12:29.397Z</time></trkpt><trkpt lat="40.4597363" lon="15.1751912"><ele>268.4</ele><time>2026-04-19T09:12:30.397Z</time></trkpt><trkpt lat="40.4598111" lon="15.1751152"><ele>271.6</ele><time>2026-04-19T09:12:31.397Z</time></trkpt><trkpt lat="40.4598976" lon="15.1750784"><ele>274.8</ele><time>2026-04-19T09:12:32.397Z</time></trkpt><trkpt lat="40.4599934" lon="15.1750726"><ele>278.0</ele><time>2026-04-19T09:12:33.398Z</time></trkpt><trkpt lat="40.4600942" lon="15.1750803"><ele>278.0</ele><time>2026-04-19T09:12:34.398Z</time></trkpt><trkpt lat="40.4601977" lon="15.1750653"><ele>278.0</ele><time>2026-04-19T09:12:35.397Z</time></trkpt><trkpt lat="40.4603018" lon="15.1750462"><ele>278.0</ele><time>2026-04-19T09:12:36.398Z</time></trkpt><trkpt lat="40.4603985" lon="15.1750076"><ele>278.0</ele><time>2026-04-19T09:12:37.397Z</time></trkpt><trkpt lat="40.4604809" lon="15.1749519"><ele>278.0</ele><time>2026-04-19T09:12:38.397Z</time></trkpt><trkpt lat="40.4605621" lon="15.1748823"><ele>281.2</ele><time>2026-04-19T09:12:39.397Z</time></trkpt><trkpt lat="40.4606459" lon="15.1748189"><ele>284.4</ele><time>2026-04-19T09:12:40.397Z</time></trkpt><trkpt lat="40.4607276" lon="15.1747531"><ele>287.59999999999997</ele><time>2026-04-19T09:12:41.397Z</time></trkpt><trkpt lat="40.4608081" lon="15.1746736"><ele>290.8</ele><time>2026-04-19T09:12:42.397Z</time></trkpt><trkpt lat="40.4608848" lon="15.1745797"><ele>294.0</ele><time>2026-04-19T09:12:43.398Z</time></trkpt><trkpt lat="40.4609612" lon="15.1744849"><ele>294.0</ele><time>2026-04-19T09:12:44.397Z</time></trkpt><trkpt lat="40.4610329" lon="15.1743853"><ele>294.0</ele><time>2026-04-19T09:12:45.398Z</time></trkpt><trkpt lat="40.4611077" lon="15.1742914"><ele>294.0</ele><time>2026-04-19T09:12:46.397Z</time></trkpt><trkpt lat="40.4611875" lon="15.1742097"><ele>294.0</ele><time>2026-04-19T09:12:47.397Z</time></trkpt><trkpt lat="40.4612722" lon="15.17415"><ele>294.0</ele><time>2026-04-19T09:12:48.397Z</time></trkpt><trkpt lat="40.4613468" lon="15.1741188"><ele>296.1666666666667</ele><time>2026-04-19T09:12:49.397Z</time></trkpt><trkpt lat="40.4614209" lon="15.1740946"><ele>298.3333333333333</ele><time>2026-04-19T09:12:50.397Z</time></trkpt><trkpt lat="40.461486" lon="15.1740743"><ele>300.5</ele><time>2026-04-19T09:12:51.397Z</time></trkpt><trkpt lat="40.4615675" lon="15.1740489"><ele>302.66666666666663</ele><time>2026-04-19T09:12:53.397Z</time></trkpt><trkpt lat="40.4616272" lon="15.1740072"><ele>304.8333333333333</ele><time>2026-04-19T09:12:56.397Z</time></trkpt><trkpt lat="40.4616834" lon="15.1739672"><ele>307.0</ele><time>2026-04-19T09:13:02.397Z</time></trkpt><trkpt lat="40.4618103" lon="15.1739312"><ele>307.0</ele><time>2026-04-19T09:13:04.397Z</time></trkpt><trkpt lat="40.4618803" lon="15.1739182"><ele>307.0</ele><time>2026-04-19T09:13:05.397Z</time></trkpt><trkpt lat="40.4619644" lon="15.1738904"><ele>307.0</ele><time>2026-04-19T09:13:06.397Z</time></trkpt><trkpt lat="40.4620684" lon="15.1738529"><ele>307.0</ele><time>2026-04-19T09:13:07.397Z</time></trkpt><trkpt lat="40.4621983" lon="15.1738063"><ele>307.0</ele><time>2026-04-19T09:13:08.397Z</time></trkpt><trkpt lat="40.4623439" lon="15.1737516"><ele>310.4</ele><time>2026-04-19T09:13:09.397Z</time></trkpt><trkpt lat="40.4624587" lon="15.173714"><ele>313.79999999999995</ele><time>2026-04-19T09:13:10.397Z</time></trkpt><trkpt lat="40.4625557" lon="15.1736724"><ele>317.2</ele><time>2026-04-19T09:13:11.397Z</time></trkpt><trkpt lat="40.4626426" lon="15.1736234"><ele>320.59999999999997</ele><time>2026-04-19T09:13:12.397Z</time></trkpt><trkpt lat="40.4627109" lon="15.1735685"><ele>324.0</ele><time>2026-04-19T09:13:13.397Z</time></trkpt><trkpt lat="40.4627729" lon="15.1735075"><ele>324.0</ele><time>2026-04-19T09:13:14.397Z</time></trkpt><trkpt lat="40.4628281" lon="15.1734551"><ele>324.0</ele><time>2026-04-19T09:13:15.398Z</time></trkpt><trkpt lat="40.4628798" lon="15.1734035"><ele>324.0</ele><time>2026-04-19T09:13:16.397Z</time></trkpt><trkpt lat="40.4629585" lon="15.1733319"><ele>324.0</ele><time>2026-04-19T09:13:18.397Z</time></trkpt><trkpt lat="40.4630339" lon="15.1732953"><ele>324.0</ele><time>2026-04-19T09:13:22.397Z</time></trkpt><trkpt lat="40.4631021" lon="15.1732773"><ele>324.0</ele><time>2026-04-19T09:13:27.397Z</time></trkpt><trkpt lat="40.4630974" lon="15.1731889"><ele>324.0</ele><time>2026-04-19T09:13:34.397Z</time></trkpt><trkpt lat="40.4631551" lon="15.1730921"><ele>326.0</ele><time>2026-04-19T09:13:37.397Z</time></trkpt><trkpt lat="40.4632434" lon="15.1730571"><ele>328.0</ele><time>2026-04-19T09:13:39.397Z</time></trkpt><trkpt lat="40.4632987" lon="15.1730038"><ele>330.0</ele><time>2026-04-19T09:13:40.398Z</time></trkpt><trkpt lat="40.4633612" lon="15.1729293"><ele>332.0</ele><time>2026-04-19T09:13:41.397Z</time></trkpt><trkpt lat="40.4634289" lon="15.1728411"><ele>334.0</ele><time>2026-04-19T09:13:42.397Z</time></trkpt><trkpt lat="40.463491" lon="15.172755"><ele>336.0</ele><time>2026-04-19T09:13:43.397Z</time></trkpt><trkpt lat="40.4635485" lon="15.172678"><ele>336.0</ele><time>2026-04-19T09:13:44.397Z</time></trkpt><trkpt lat="40.4636116" lon="15.1726074"><ele>336.0</ele><time>2026-04-19T09:13:45.397Z</time></trkpt><trkpt lat="40.4636722" lon="15.1725353"><ele>336.0</ele><time>2026-04-19T09:13:46.397Z</time></trkpt><trkpt lat="40.4637265" lon="15.172468"><ele>336.0</ele><time>2026-04-19T09:13:47.397Z</time></trkpt><trkpt lat="40.4638034" lon="15.1724114"><ele>336.0</ele><time>2026-04-19T09:13:49.397Z</time></trkpt><trkpt lat="40.4639216" lon="15.1723513"><ele>338.1666666666667</ele><time>2026-04-19T09:13:51.397Z</time></trkpt><trkpt lat="40.4639908" lon="15.1723228"><ele>340.3333333333333</ele><time>2026-04-19T09:13:52.398Z</time></trkpt><trkpt lat="40.4640756" lon="15.1722691"><ele>342.5</ele><time>2026-04-19T09:13:54.397Z</time></trkpt><trkpt lat="40.4641194" lon="15.1722087"><ele>344.66666666666663</ele><time>2026-04-19T09:13:56.397Z</time></trkpt><trkpt lat="40.464206" lon="15.17224"><ele>346.8333333333333</ele><time>2026-04-19T09:13:59.398Z</time></trkpt><trkpt lat="40.4642311" lon="15.1723459"><ele>349.0</ele><time>2026-04-19T09:14:01.397Z</time></trkpt><trkpt lat="40.4642463" lon="15.1724431"><ele>349.3333333333333</ele><time>2026-04-19T09:14:03.397Z</time></trkpt><trkpt lat="40.4642754" lon="15.172544"><ele>349.66666666666663</ele><time>2026-04-19T09:15:28.397Z</time></trkpt><trkpt lat="40.4643386" lon="15.1726838"><ele>350.0</ele><time>2026-04-19T09:15:30.397Z</time></trkpt><trkpt lat="40.4643776" lon="15.1727587"><ele>350.3333333333333</ele><time>2026-04-19T09:15:31.397Z</time></trkpt><trkpt lat="40.4644196" lon="15.1728216"><ele>350.6666666666667</ele><time>2026-04-19T09:15:32.397Z</time></trkpt><trkpt lat="40.4644655" lon="15.1729299"><ele>351.0</ele><time>2026-04-19T09:15:34.397Z</time></trkpt><trkpt lat="40.4644698" lon="15.1730818"><ele>351.00000000000006</ele><time>2026-04-19T09:15:36.397Z</time></trkpt><trkpt lat="40.4644619" lon="15.1731698"><ele>351.0</ele><time>2026-04-19T09:15:37.387Z</time></trkpt><trkpt lat="40.4644553" lon="15.1732569"><ele>351.0</ele><time>2026-04-19T09:15:38.384Z</time></trkpt><trkpt lat="40.4644455" lon="15.1733473"><ele>351.0</ele><time>2026-04-19T09:15:39.384Z</time></trkpt><trkpt lat="40.4644262" lon="15.1734372"><ele>351.0</ele><time>2026-04-19T09:15:40.383Z</time></trkpt><trkpt lat="40.4643966" lon="15.1735257"><ele>351.00000000000006</ele><time>2026-04-19T09:15:41.389Z</time></trkpt><trkpt lat="40.4643564" lon="15.173612"><ele>351.0</ele><time>2026-04-19T09:15:42.388Z</time></trkpt><trkpt lat="40.4643083" lon="15.1737022"><ele>350.0</ele><time>2026-04-19T09:15:43.389Z</time></trkpt><trkpt lat="40.4642565" lon="15.1737974"><ele>349.0</ele><time>2026-04-19T09:15:44.388Z</time></trkpt><trkpt lat="40.4642022" lon="15.1738964"><ele>348.0</ele><time>2026-04-19T09:15:45.388Z</time></trkpt><trkpt lat="40.4641465" lon="15.1739999"><ele>347.0</ele><time>2026-04-19T09:15:46.388Z</time></trkpt><trkpt lat="40.4640903" lon="15.1741063"><ele>346.0</ele><time>2026-04-19T09:15:47.388Z</time></trkpt><trkpt lat="40.4640359" lon="15.1742167"><ele>344.8333333333333</ele><time>2026-04-19T09:15:48.389Z</time></trkpt><trkpt lat="40.4639867" lon="15.1743265"><ele>343.66666666666663</ele><time>2026-04-19T09:15:49.388Z</time></trkpt><trkpt lat="40.4639468" lon="15.1744276"><ele>342.5</ele><time>2026-04-19T09:15:50.388Z</time></trkpt><trkpt lat="40.4639172" lon="15.1745221"><ele>341.3333333333333</ele><time>2026-04-19T09:15:51.388Z</time></trkpt><trkpt lat="40.4638935" lon="15.174612"><ele>340.1666666666667</ele><time>2026-04-19T09:15:52.388Z</time></trkpt><trkpt lat="40.4638745" lon="15.1746948"><ele>339.0</ele><time>2026-04-19T09:15:53.388Z</time></trkpt><trkpt lat="40.4638465" lon="15.1748476"><ele>337.5</ele><time>2026-04-19T09:15:55.388Z</time></trkpt><trkpt lat="40.4638532" lon="15.1749614"><ele>336.0</ele><time>2026-04-19T09:15:57.388Z</time></trkpt><trkpt lat="40.4639125" lon="15.1750474"><ele>334.5</ele><time>2026-04-19T09:15:59.388Z</time></trkpt><trkpt lat="40.4640188" lon="15.1751504"><ele>333.0</ele><time>2026-04-19T09:16:01.388Z</time></trkpt><trkpt lat="40.4640759" lon="15.175208"><ele>331.5</ele><time>2026-04-19T09:16:02.388Z</time></trkpt><trkpt lat="40.4641291" lon="15.1752675"><ele>330.0</ele><time>2026-04-19T09:16:03.388Z</time></trkpt><trkpt lat="40.4641825" lon="15.1753283"><ele>330.0</ele><time>2026-04-19T09:16:04.388Z</time></trkpt><trkpt lat="40.4642354" lon="15.1753851"><ele>330.0</ele><time>2026-04-19T09:16:05.397Z</time></trkpt><trkpt lat="40.464336" lon="15.1754803"><ele>330.0</ele><time>2026-04-19T09:16:07.397Z</time></trkpt><trkpt lat="40.4644344" lon="15.1755576"><ele>330.0</ele><time>2026-04-19T09:16:09.396Z</time></trkpt><trkpt lat="40.4645535" lon="15.1755699"><ele>330.0</ele><time>2026-04-19T09:16:11.396Z</time></trkpt><trkpt lat="40.464674" lon="15.1755211"><ele>331.6</ele><time>2026-04-19T09:16:13.396Z</time></trkpt><trkpt lat="40.4647518" lon="15.1754818"><ele>333.2</ele><time>2026-04-19T09:16:14.396Z</time></trkpt><trkpt lat="40.4648416" lon="15.1754488"><ele>334.79999999999995</ele><time>2026-04-19T09:16:15.396Z</time></trkpt><trkpt lat="40.464924" lon="15.1754396"><ele>336.4</ele><time>2026-04-19T09:16:16.396Z</time></trkpt><trkpt lat="40.4649988" lon="15.1754462"><ele>338.0</ele><time>2026-04-19T09:16:17.396Z</time></trkpt><trkpt lat="40.4651253" lon="15.17551"><ele>338.0</ele><time>2026-04-19T09:16:19.396Z</time></trkpt><trkpt lat="40.4651935" lon="15.1755607"><ele>338.0</ele><time>2026-04-19T09:16:20.396Z</time></trkpt><trkpt lat="40.4652544" lon="15.1756257"><ele>338.0</ele><time>2026-04-19T09:16:21.396Z</time></trkpt><trkpt lat="40.4653007" lon="15.1757045"><ele>338.0</ele><time>2026-04-19T09:16:22.396Z</time></trkpt><trkpt lat="40.4653332" lon="15.1758084"><ele>338.0</ele><time>2026-04-19T09:16:23.396Z</time></trkpt><trkpt lat="40.4653532" lon="15.1759078"><ele>338.0</ele><time>2026-04-19T09:16:24.396Z</time></trkpt><trkpt lat="40.4653718" lon="15.1760333"><ele>338.0</ele><time>2026-04-19T09:16:26.396Z</time></trkpt><trkpt lat="40.4653888" lon="15.1761246"><ele>338.0</ele><time>2026-04-19T09:16:28.398Z</time></trkpt><trkpt lat="40.4654029" lon="15.1762096"><ele>338.0</ele><time>2026-04-19T09:16:31.396Z</time></trkpt><trkpt lat="40.4654229" lon="15.1763228"><ele>338.0</ele><time>2026-04-19T09:17:04.396Z</time></trkpt><trkpt lat="40.4654373" lon="15.1764068"><ele>338.0</ele><time>2026-04-19T09:17:05.396Z</time></trkpt><trkpt lat="40.4654555" lon="15.1765021"><ele>338.0</ele><time>2026-04-19T09:17:06.396Z</time></trkpt><trkpt lat="40.4654722" lon="15.1765947"><ele>338.0</ele><time>2026-04-19T09:17:07.396Z</time></trkpt><trkpt lat="40.4654876" lon="15.1766878"><ele>338.0</ele><time>2026-04-19T09:17:08.396Z</time></trkpt><trkpt lat="40.4655038" lon="15.1767724"><ele>338.0</ele><time>2026-04-19T09:17:09.396Z</time></trkpt><trkpt lat="40.4655398" lon="15.1769305"><ele>338.0</ele><time>2026-04-19T09:17:11.397Z</time></trkpt><trkpt lat="40.4655553" lon="15.1770133"><ele>338.0</ele><time>2026-04-19T09:17:12.396Z</time></trkpt><trkpt lat="40.4655977" lon="15.177143"><ele>338.0</ele><time>2026-04-19T09:17:14.397Z</time></trkpt><trkpt lat="40.4656647" lon="15.1772352"><ele>338.0</ele><time>2026-04-19T09:17:16.396Z</time></trkpt><trkpt lat="40.4657405" lon="15.1773079"><ele>338.0</ele><time>2026-04-19T09:17:18.396Z</time></trkpt><trkpt lat="40.4658255" lon="15.1773706"><ele>338.0</ele><time>2026-04-19T09:17:20.385Z</time></trkpt><trkpt lat="40.4659149" lon="15.1774097"><ele>338.0</ele><time>2026-04-19T09:17:22.386Z</time></trkpt><trkpt lat="40.4659888" lon="15.1774382"><ele>338.0</ele><time>2026-04-19T09:17:24.383Z</time></trkpt><trkpt lat="40.4660648" lon="15.1774773"><ele>338.0</ele><time>2026-04-19T09:17:26.383Z</time></trkpt><trkpt lat="40.4661489" lon="15.1775307"><ele>335.4</ele><time>2026-04-19T09:17:28.397Z</time></trkpt><trkpt lat="40.4662375" lon="15.177609"><ele>332.79999999999995</ele><time>2026-04-19T09:17:30.396Z</time></trkpt><trkpt lat="40.4663257" lon="15.1776924"><ele>330.2</ele><time>2026-04-19T09:17:32.396Z</time></trkpt><trkpt lat="40.4664045" lon="15.1777846"><ele>327.6</ele><time>2026-04-19T09:17:34.396Z</time></trkpt><trkpt lat="40.4664658" lon="15.1778547"><ele>325.0</ele><time>2026-04-19T09:17:35.387Z</time></trkpt><trkpt lat="40.466522" lon="15.1779396"><ele>324.0</ele><time>2026-04-19T09:17:37.383Z</time></trkpt><trkpt lat="40.4665989" lon="15.1780613"><ele>323.0</ele><time>2026-04-19T09:17:40.382Z</time></trkpt><trkpt lat="40.4666541" lon="15.1781341"><ele>322.0</ele><time>2026-04-19T09:17:42.382Z</time></trkpt><trkpt lat="40.4667129" lon="15.1782017"><ele>321.0</ele><time>2026-04-19T09:17:44.382Z</time></trkpt><trkpt lat="40.4667813" lon="15.1782357"><ele>320.0</ele><time>2026-04-19T09:17:46.382Z</time></trkpt><trkpt lat="40.4668741" lon="15.1781822"><ele>320.0</ele><time>2026-04-19T09:17:49.382Z</time></trkpt><trkpt lat="40.4669411" lon="15.178119"><ele>320.0</ele><time>2026-04-19T09:17:51.382Z</time></trkpt><trkpt lat="40.4670045" lon="15.1780732"><ele>320.0</ele><time>2026-04-19T09:17:53.382Z</time></trkpt><trkpt lat="40.4670684" lon="15.1780664"><ele>320.0</ele><time>2026-04-19T09:17:55.382Z</time></trkpt><trkpt lat="40.4671604" lon="15.1781233"><ele>320.0</ele><time>2026-04-19T09:17:58.382Z</time></trkpt><trkpt lat="40.467206" lon="15.1781895"><ele>320.0</ele><time>2026-04-19T09:18:00.382Z</time></trkpt><trkpt lat="40.4672478" lon="15.1782521"><ele>316.5</ele><time>2026-04-19T09:18:02.382Z</time></trkpt><trkpt lat="40.4672798" lon="15.1783416"><ele>313.0</ele><time>2026-04-19T09:18:05.382Z</time></trkpt><trkpt lat="40.4672512" lon="15.1784557"><ele>309.5</ele><time>2026-04-19T09:18:08.382Z</time></trkpt><trkpt lat="40.4672261" lon="15.1785662"><ele>306.0</ele><time>2026-04-19T09:18:10.382Z</time></trkpt><trkpt lat="40.4672149" lon="15.1786849"><ele>302.5</ele><time>2026-04-19T09:18:12.382Z</time></trkpt><trkpt lat="40.4672029" lon="15.1788041"><ele>299.0</ele><time>2026-04-19T09:18:14.382Z</time></trkpt><trkpt lat="40.4671866" lon="15.17893"><ele>297.75</ele><time>2026-04-19T09:18:16.382Z</time></trkpt><trkpt lat="40.4671616" lon="15.179066"><ele>296.5</ele><time>2026-04-19T09:18:18.382Z</time></trkpt><trkpt lat="40.4671107" lon="15.179201"><ele>295.25</ele><time>2026-04-19T09:18:20.383Z</time></trkpt><trkpt lat="40.4670447" lon="15.1793364"><ele>294.0</ele><time>2026-04-19T09:18:22.382Z</time></trkpt><trkpt lat="40.4669737" lon="15.1794511"><ele>294.0</ele><time>2026-04-19T09:18:24.382Z</time></trkpt><trkpt lat="40.4669023" lon="15.179565"><ele>294.0</ele><time>2026-04-19T09:18:26.382Z</time></trkpt><trkpt lat="40.4668477" lon="15.1796774"><ele>294.0</ele><time>2026-04-19T09:18:28.382Z</time></trkpt><trkpt lat="40.4668086" lon="15.1797853"><ele>294.0</ele><time>2026-04-19T09:18:30.383Z</time></trkpt><trkpt lat="40.4667898" lon="15.1799121"><ele>294.0</ele><time>2026-04-19T09:18:32.382Z</time></trkpt><trkpt lat="40.4667781" lon="15.180055"><ele>290.59999999999997</ele><time>2026-04-19T09:18:34.382Z</time></trkpt><trkpt lat="40.4667693" lon="15.1801926"><ele>287.2</ele><time>2026-04-19T09:18:36.382Z</time></trkpt><trkpt lat="40.4667586" lon="15.1803182"><ele>283.79999999999995</ele><time>2026-04-19T09:18:38.382Z</time></trkpt><trkpt lat="40.4667479" lon="15.1804293"><ele>280.4</ele><time>2026-04-19T09:18:40.382Z</time></trkpt><trkpt lat="40.4667648" lon="15.1805524"><ele>277.0</ele><time>2026-04-19T09:18:42.382Z</time></trkpt><trkpt lat="40.4667971" lon="15.1806711"><ele>275.2</ele><time>2026-04-19T09:18:44.382Z</time></trkpt><trkpt lat="40.4668355" lon="15.1808038"><ele>273.4</ele><time>2026-04-19T09:18:46.382Z</time></trkpt><trkpt lat="40.4668783" lon="15.1809385"><ele>271.6</ele><time>2026-04-19T09:18:48.382Z</time></trkpt><trkpt lat="40.4669025" lon="15.1810505"><ele>269.8</ele><time>2026-04-19T09:18:50.382Z</time></trkpt><trkpt lat="40.4669358" lon="15.1811561"><ele>268.0</ele><time>2026-04-19T09:18:52.383Z</time></trkpt><trkpt lat="40.4669638" lon="15.1812848"><ele>268.0</ele><time>2026-04-19T09:18:54.382Z</time></trkpt><trkpt lat="40.4670056" lon="15.1814264"><ele>268.0</ele><time>2026-04-19T09:18:56.382Z</time></trkpt><trkpt lat="40.4670293" lon="15.1815317"><ele>268.0</ele><time>2026-04-19T09:19:01.396Z</time></trkpt><trkpt lat="40.4670527" lon="15.181628"><ele>268.0</ele><time>2026-04-19T09:19:05.396Z</time></trkpt><trkpt lat="40.4670594" lon="15.1817337"><ele>268.0</ele><time>2026-04-19T09:19:09.396Z</time></trkpt><trkpt lat="40.4670708" lon="15.181827"><ele>268.0</ele><time>2026-04-19T09:19:13.396Z</time></trkpt><trkpt lat="40.467082" lon="15.181914"><ele>268.0</ele><time>2026-04-19T09:19:17.396Z</time></trkpt><trkpt lat="40.4671094" lon="15.1820385"><ele>268.0</ele><time>2026-04-19T09:19:50.383Z</time></trkpt><trkpt lat="40.467134" lon="15.1821646"><ele>268.0</ele><time>2026-04-19T09:19:52.383Z</time></trkpt><trkpt lat="40.4671489" lon="15.1822478"><ele>268.0</ele><time>2026-04-19T09:19:53.383Z</time></trkpt><trkpt lat="40.4671635" lon="15.182342"><ele>268.0</ele><time>2026-04-19T09:19:54.383Z</time></trkpt><trkpt lat="40.4671783" lon="15.1824481"><ele>268.0</ele><time>2026-04-19T09:19:55.383Z</time></trkpt><trkpt lat="40.4671947" lon="15.1825564"><ele>267.2857142857143</ele><time>2026-04-19T09:19:56.383Z</time></trkpt><trkpt lat="40.4672108" lon="15.1826586"><ele>266.57142857142856</ele><time>2026-04-19T09:19:57.383Z</time></trkpt><trkpt lat="40.4672256" lon="15.1827552"><ele>265.85714285714283</ele><time>2026-04-19T09:19:58.383Z</time></trkpt><trkpt lat="40.4672395" lon="15.1828487"><ele>265.1428571428571</ele><time>2026-04-19T09:19:59.383Z</time></trkpt><trkpt lat="40.4672525" lon="15.1829416"><ele>264.4285714285714</ele><time>2026-04-19T09:20:00.383Z</time></trkpt><trkpt lat="40.4672652" lon="15.183032"><ele>263.7142857142857</ele><time>2026-04-19T09:20:01.383Z</time></trkpt><trkpt lat="40.4672787" lon="15.1831204"><ele>263.0</ele><time>2026-04-19T09:20:02.383Z</time></trkpt><trkpt lat="40.4672918" lon="15.1832059"><ele>263.0</ele><time>2026-04-19T09:20:03.383Z</time></trkpt><trkpt lat="40.4673196" lon="15.1833341"><ele>263.0</ele><time>2026-04-19T09:20:05.383Z</time></trkpt><trkpt lat="40.4673993" lon="15.1833485"><ele>263.0</ele><time>2026-04-19T09:20:08.383Z</time></trkpt><trkpt lat="40.4674809" lon="15.183294"><ele>263.0</ele><time>2026-04-19T09:20:10.383Z</time></trkpt><trkpt lat="40.4675705" lon="15.1832152"><ele>263.0</ele><time>2026-04-19T09:20:12.383Z</time></trkpt><trkpt lat="40.4676198" lon="15.1831571"><ele>263.0</ele><time>2026-04-19T09:20:13.396Z</time></trkpt><trkpt lat="40.4676807" lon="15.1831176"><ele>263.0</ele><time>2026-04-19T09:20:14.396Z</time></trkpt><trkpt lat="40.467748" lon="15.1830868"><ele>263.0</ele><time>2026-04-19T09:20:15.396Z</time></trkpt><trkpt lat="40.4678199" lon="15.1830691"><ele>263.0</ele><time>2026-04-19T09:20:16.397Z</time></trkpt><trkpt lat="40.4678983" lon="15.1830632"><ele>263.0</ele><time>2026-04-19T09:20:17.396Z</time></trkpt><trkpt lat="40.46798" lon="15.1830703"><ele>263.0</ele><time>2026-04-19T09:20:18.397Z</time></trkpt><trkpt lat="40.4680633" lon="15.183095"><ele>263.0</ele><time>2026-04-19T09:20:19.397Z</time></trkpt><trkpt lat="40.4681448" lon="15.1831427"><ele>265.8</ele><time>2026-04-19T09:20:20.396Z</time></trkpt><trkpt lat="40.4682245" lon="15.1832096"><ele>268.6</ele><time>2026-04-19T09:20:21.396Z</time></trkpt><trkpt lat="40.4682875" lon="15.1832717"><ele>271.4</ele><time>2026-04-19T09:20:22.396Z</time></trkpt><trkpt lat="40.4683644" lon="15.183335"><ele>274.2</ele><time>2026-04-19T09:20:24.397Z</time></trkpt><trkpt lat="40.4684366" lon="15.1833479"><ele>277.0</ele><time>2026-04-19T09:20:26.396Z</time></trkpt><trkpt lat="40.4685497" lon="15.1833426"><ele>277.0</ele><time>2026-04-19T09:20:28.396Z</time></trkpt><trkpt lat="40.4686166" lon="15.1833391"><ele>277.0</ele><time>2026-04-19T09:20:29.396Z</time></trkpt><trkpt lat="40.4686928" lon="15.1833329"><ele>277.0</ele><time>2026-04-19T09:20:30.397Z</time></trkpt><trkpt lat="40.4687669" lon="15.1833251"><ele>277.0</ele><time>2026-04-19T09:20:31.397Z</time></trkpt><trkpt lat="40.468842" lon="15.1833109"><ele>277.0</ele><time>2026-04-19T09:20:32.396Z</time></trkpt><trkpt lat="40.4689076" lon="15.1832979"><ele>277.0</ele><time>2026-04-19T09:20:33.396Z</time></trkpt><trkpt lat="40.4690111" lon="15.1833241"><ele>280.0</ele><time>2026-04-19T09:20:35.396Z</time></trkpt><trkpt lat="40.4690515" lon="15.1834203"><ele>283.0</ele><time>2026-04-19T09:20:38.395Z</time></trkpt><trkpt lat="40.4690297" lon="15.1835117"><ele>286.0</ele><time>2026-04-19T09:20:41.395Z</time></trkpt><trkpt lat="40.4690057" lon="15.1836013"><ele>289.0</ele><time>2026-04-19T09:20:43.396Z</time></trkpt><trkpt lat="40.4690157" lon="15.1836908"><ele>292.0</ele><time>2026-04-19T09:20:45.395Z</time></trkpt><trkpt lat="40.4690507" lon="15.183772"><ele>295.0</ele><time>2026-04-19T09:20:47.396Z</time></trkpt><trkpt lat="40.4690451" lon="15.1838566"><ele>298.0</ele><time>2026-04-19T09:21:23.395Z</time></trkpt><trkpt lat="40.4690417" lon="15.1839672"><ele>299.5</ele><time>2026-04-19T09:21:36.395Z</time></trkpt><trkpt lat="40.4690886" lon="15.1840596"><ele>301.0</ele><time>2026-04-19T09:21:39.395Z</time></trkpt><trkpt lat="40.4691447" lon="15.1841145"><ele>302.5</ele><time>2026-04-19T09:21:41.395Z</time></trkpt><trkpt lat="40.4692078" lon="15.1841184"><ele>304.0</ele><time>2026-04-19T09:21:42.395Z</time></trkpt><trkpt lat="40.4693136" lon="15.1841525"><ele>305.5</ele><time>2026-04-19T09:21:44.395Z</time></trkpt><trkpt lat="40.4694215" lon="15.1841724"><ele>307.0</ele><time>2026-04-19T09:21:46.395Z</time></trkpt><trkpt lat="40.4695141" lon="15.1841905"><ele>310.8</ele><time>2026-04-19T09:21:48.395Z</time></trkpt><trkpt lat="40.4696208" lon="15.1841985"><ele>314.6</ele><time>2026-04-19T09:21:50.395Z</time></trkpt><trkpt lat="40.4697485" lon="15.1842221"><ele>318.40000000000003</ele><time>2026-04-19T09:21:52.396Z</time></trkpt><trkpt lat="40.4698244" lon="15.1842339"><ele>322.2</ele><time>2026-04-19T09:21:53.395Z</time></trkpt><trkpt lat="40.4698999" lon="15.1842547"><ele>326.0</ele><time>2026-04-19T09:21:54.395Z</time></trkpt><trkpt lat="40.4699766" lon="15.184274"><ele>326.0</ele><time>2026-04-19T09:21:55.395Z</time></trkpt><trkpt lat="40.4700612" lon="15.1842918"><ele>326.0</ele><time>2026-04-19T09:21:56.395Z</time></trkpt><trkpt lat="40.4701499" lon="15.1843132"><ele>326.0</ele><time>2026-04-19T09:21:57.395Z</time></trkpt><trkpt lat="40.4702323" lon="15.184348"><ele>326.0</ele><time>2026-04-19T09:21:58.395Z</time></trkpt><trkpt lat="40.4703211" lon="15.1843785"><ele>326.0</ele><time>2026-04-19T09:21:59.395Z</time></trkpt><trkpt lat="40.4704083" lon="15.1844116"><ele>326.0</ele><time>2026-04-19T09:22:00.395Z</time></trkpt><trkpt lat="40.4704964" lon="15.1844478"><ele>328.5</ele><time>2026-04-19T09:22:01.396Z</time></trkpt><trkpt lat="40.4705816" lon="15.1844867"><ele>331.0</ele><time>2026-04-19T09:22:02.395Z</time></trkpt><trkpt lat="40.4706466" lon="15.1845187"><ele>333.5</ele><time>2026-04-19T09:22:03.396Z</time></trkpt><trkpt lat="40.4707011" lon="15.1845674"><ele>336.0</ele><time>2026-04-19T09:22:04.395Z</time></trkpt><trkpt lat="40.4707662" lon="15.1846502"><ele>338.5</ele><time>2026-04-19T09:22:06.396Z</time></trkpt><trkpt lat="40.4708224" lon="15.1847247"><ele>341.0</ele><time>2026-04-19T09:22:10.397Z</time></trkpt><trkpt lat="40.4708254" lon="15.184809"><ele>340.20000000000005</ele><time>2026-04-19T09:22:55.396Z</time></trkpt><trkpt lat="40.4707985" lon="15.1848931"><ele>339.40000000000003</ele><time>2026-04-19T09:22:57.396Z</time></trkpt><trkpt lat="40.4708028" lon="15.185032"><ele>338.6</ele><time>2026-04-19T09:22:59.395Z</time></trkpt><trkpt lat="40.4708109" lon="15.1851756"><ele>337.8</ele><time>2026-04-19T09:23:01.396Z</time></trkpt><trkpt lat="40.4708191" lon="15.1853163"><ele>337.0</ele><time>2026-04-19T09:23:03.396Z</time></trkpt><trkpt lat="40.4708304" lon="15.1854629"><ele>337.0</ele><time>2026-04-19T09:23:05.395Z</time></trkpt><trkpt lat="40.470836" lon="15.1855857"><ele>337.0</ele><time>2026-04-19T09:23:07.396Z</time></trkpt><trkpt lat="40.4708586" lon="15.1857186"><ele>337.0</ele><time>2026-04-19T09:23:09.396Z</time></trkpt><trkpt lat="40.4709033" lon="15.185852"><ele>337.0</ele><time>2026-04-19T09:23:11.396Z</time></trkpt><trkpt lat="40.4709335" lon="15.1859301"><ele>337.0</ele><time>2026-04-19T09:23:12.396Z</time></trkpt><trkpt lat="40.4709702" lon="15.1860683"><ele>335.20000000000005</ele><time>2026-04-19T09:23:14.395Z</time></trkpt><trkpt lat="40.4710125" lon="15.1861866"><ele>333.4</ele><time>2026-04-19T09:23:16.396Z</time></trkpt><trkpt lat="40.4710705" lon="15.1862985"><ele>331.6</ele><time>2026-04-19T09:23:18.395Z</time></trkpt><trkpt lat="40.4711253" lon="15.1864121"><ele>329.79999999999995</ele><time>2026-04-19T09:23:20.395Z</time></trkpt><trkpt lat="40.4711799" lon="15.1865329"><ele>328.0</ele><time>2026-04-19T09:23:22.396Z</time></trkpt><trkpt lat="40.4712346" lon="15.1866376"><ele>324.4</ele><time>2026-04-19T09:23:24.397Z</time></trkpt><trkpt lat="40.4713131" lon="15.1867425"><ele>320.79999999999995</ele><time>2026-04-19T09:23:26.395Z</time></trkpt><trkpt lat="40.471382" lon="15.1868609"><ele>317.2</ele><time>2026-04-19T09:23:28.396Z</time></trkpt><trkpt lat="40.471432" lon="15.1869741"><ele>313.6</ele><time>2026-04-19T09:23:30.395Z</time></trkpt><trkpt lat="40.4714689" lon="15.1870755"><ele>310.0</ele><time>2026-04-19T09:23:32.396Z</time></trkpt><trkpt lat="40.4714996" lon="15.1871624"><ele>310.0</ele><time>2026-04-19T09:23:34.396Z</time></trkpt><trkpt lat="40.4715214" lon="15.1872457"><ele>310.0</ele><time>2026-04-19T09:23:36.395Z</time></trkpt><trkpt lat="40.47155" lon="15.1873402"><ele>310.0</ele><time>2026-04-19T09:23:38.396Z</time></trkpt><trkpt lat="40.4715911" lon="15.1874292"><ele>310.0</ele><time>2026-04-19T09:23:40.396Z</time></trkpt><trkpt lat="40.471645" lon="15.1875504"><ele>310.0</ele><time>2026-04-19T09:23:42.395Z</time></trkpt><trkpt lat="40.4716625" lon="15.1876656"><ele>310.0</ele><time>2026-04-19T09:23:44.396Z</time></trkpt><trkpt lat="40.4716721" lon="15.1877727"><ele>310.0</ele><time>2026-04-19T09:23:46.395Z</time></trkpt><trkpt lat="40.4716758" lon="15.1878882"><ele>310.0</ele><time>2026-04-19T09:23:48.395Z</time></trkpt><trkpt lat="40.4716555" lon="15.1880127"><ele>310.0</ele><time>2026-04-19T09:23:50.395Z</time></trkpt><trkpt lat="40.4716207" lon="15.1881332"><ele>310.0</ele><time>2026-04-19T09:23:52.395Z</time></trkpt><trkpt lat="40.4715615" lon="15.1882393"><ele>310.0</ele><time>2026-04-19T09:23:54.396Z</time></trkpt><trkpt lat="40.4715045" lon="15.1883624"><ele>308.0</ele><time>2026-04-19T09:23:56.396Z</time></trkpt><trkpt lat="40.4714425" lon="15.1885059"><ele>306.0</ele><time>2026-04-19T09:23:58.395Z</time></trkpt><trkpt lat="40.4714054" lon="15.1886546"><ele>304.0</ele><time>2026-04-19T09:24:00.395Z</time></trkpt><trkpt lat="40.4713786" lon="15.1888181"><ele>302.0</ele><time>2026-04-19T09:24:02.395Z</time></trkpt><trkpt lat="40.471369" lon="15.1889026"><ele>300.0</ele><time>2026-04-19T09:24:03.395Z</time></trkpt><trkpt lat="40.4713594" lon="15.1889846"><ele>298.1666666666667</ele><time>2026-04-19T09:24:04.395Z</time></trkpt><trkpt lat="40.4713408" lon="15.1890678"><ele>296.3333333333333</ele><time>2026-04-19T09:24:05.396Z</time></trkpt><trkpt lat="40.4713056" lon="15.1892242"><ele>294.5</ele><time>2026-04-19T09:24:07.395Z</time></trkpt><trkpt lat="40.4712556" lon="15.1893683"><ele>292.66666666666663</ele><time>2026-04-19T09:24:09.397Z</time></trkpt><trkpt lat="40.4712242" lon="15.1894418"><ele>290.8333333333333</ele><time>2026-04-19T09:24:10.396Z</time></trkpt><trkpt lat="40.4711944" lon="15.1895186"><ele>289.0</ele><time>2026-04-19T09:24:11.395Z</time></trkpt><trkpt lat="40.4711573" lon="15.189597"><ele>289.0</ele><time>2026-04-19T09:24:12.397Z</time></trkpt><trkpt lat="40.4711176" lon="15.1896794"><ele>289.0</ele><time>2026-04-19T09:24:13.396Z</time></trkpt><trkpt lat="40.4710716" lon="15.1897583"><ele>289.0</ele><time>2026-04-19T09:24:14.395Z</time></trkpt><trkpt lat="40.4710258" lon="15.1898303"><ele>289.0</ele><time>2026-04-19T09:24:15.395Z</time></trkpt><trkpt lat="40.4709767" lon="15.1898938"><ele>289.0</ele><time>2026-04-19T09:24:16.395Z</time></trkpt><trkpt lat="40.4708836" lon="15.1899905"><ele>289.0</ele><time>2026-04-19T09:24:18.396Z</time></trkpt><trkpt lat="40.4707994" lon="15.1900423"><ele>287.59999999999997</ele><time>2026-04-19T09:24:20.396Z</time></trkpt><trkpt lat="40.4707026" lon="15.190068"><ele>286.2</ele><time>2026-04-19T09:24:22.396Z</time></trkpt><trkpt lat="40.4706177" lon="15.190059"><ele>284.79999999999995</ele><time>2026-04-19T09:24:24.396Z</time></trkpt><trkpt lat="40.4705344" lon="15.190054"><ele>283.4</ele><time>2026-04-19T09:24:26.396Z</time></trkpt><trkpt lat="40.4704712" lon="15.1901386"><ele>282.0</ele><time>2026-04-19T09:24:30.395Z</time></trkpt><trkpt lat="40.4704179" lon="15.1902927"><ele>280.4</ele><time>2026-04-19T09:24:32.395Z</time></trkpt><trkpt lat="40.4703819" lon="15.1904035"><ele>278.79999999999995</ele><time>2026-04-19T09:24:33.395Z</time></trkpt><trkpt lat="40.4703388" lon="15.1905327"><ele>277.2</ele><time>2026-04-19T09:24:34.395Z</time></trkpt><trkpt lat="40.4702972" lon="15.1906778"><ele>275.59999999999997</ele><time>2026-04-19T09:24:35.395Z</time></trkpt><trkpt lat="40.4702574" lon="15.1908341"><ele>274.0</ele><time>2026-04-19T09:24:36.396Z</time></trkpt><trkpt lat="40.4702187" lon="15.1909918"><ele>273.75</ele><time>2026-04-19T09:24:37.396Z</time></trkpt><trkpt lat="40.4701683" lon="15.1911544"><ele>273.5</ele><time>2026-04-19T09:24:38.396Z</time></trkpt><trkpt lat="40.4701077" lon="15.1912967"><ele>273.25</ele><time>2026-04-19T09:24:39.396Z</time></trkpt><trkpt lat="40.4700342" lon="15.1914326"><ele>273.0</ele><time>2026-04-19T09:24:40.395Z</time></trkpt><trkpt lat="40.4699632" lon="15.191565"><ele>274.5</ele><time>2026-04-19T09:24:41.396Z</time></trkpt><trkpt lat="40.4698956" lon="15.1916969"><ele>276.0</ele><time>2026-04-19T09:24:42.395Z</time></trkpt><trkpt lat="40.4698381" lon="15.1918267"><ele>277.5</ele><time>2026-04-19T09:24:43.396Z</time></trkpt><trkpt lat="40.4697759" lon="15.1919559"><ele>279.0</ele><time>2026-04-19T09:24:44.395Z</time></trkpt><trkpt lat="40.4697103" lon="15.192077"><ele>279.0</ele><time>2026-04-19T09:24:45.395Z</time></trkpt><trkpt lat="40.4696449" lon="15.1921839"><ele>279.0</ele><time>2026-04-19T09:24:46.395Z</time></trkpt><trkpt lat="40.469578" lon="15.1922754"><ele>279.0</ele><time>2026-04-19T09:24:47.395Z</time></trkpt><trkpt lat="40.4695155" lon="15.192349"><ele>279.0</ele><time>2026-04-19T09:24:48.395Z</time></trkpt><trkpt lat="40.4694515" lon="15.1923998"><ele>279.0</ele><time>2026-04-19T09:24:49.395Z</time></trkpt><trkpt lat="40.4693539" lon="15.1924314"><ele>278.6666666666667</ele><time>2026-04-19T09:24:51.395Z</time></trkpt><trkpt lat="40.469275" lon="15.1923969"><ele>278.3333333333333</ele><time>2026-04-19T09:24:54.396Z</time></trkpt><trkpt lat="40.4692139" lon="15.1923509"><ele>278.0</ele><time>2026-04-19T09:24:57.396Z</time></trkpt><trkpt lat="40.46913" lon="15.1922903"><ele>277.66666666666663</ele><time>2026-04-19T09:25:00.397Z</time></trkpt><trkpt lat="40.4690619" lon="15.1922578"><ele>277.3333333333333</ele><time>2026-04-19T09:25:02.395Z</time></trkpt><trkpt lat="40.4689815" lon="15.1922096"><ele>277.0</ele><time>2026-04-19T09:25:04.395Z</time></trkpt><trkpt lat="40.4689018" lon="15.1921709"><ele>276.16666666666663</ele><time>2026-04-19T09:25:06.396Z</time></trkpt><trkpt lat="40.4688261" lon="15.1921377"><ele>275.3333333333333</ele><time>2026-04-19T09:25:08.395Z</time></trkpt><trkpt lat="40.4687557" lon="15.192103"><ele>274.5</ele><time>2026-04-19T09:25:10.395Z</time></trkpt><trkpt lat="40.4686832" lon="15.192058"><ele>273.6666666666667</ele><time>2026-04-19T09:25:13.395Z</time></trkpt><trkpt lat="40.4686039" lon="15.1920232"><ele>272.83333333333337</ele><time>2026-04-19T09:25:49.395Z</time></trkpt><trkpt lat="40.4685136" lon="15.1919935"><ele>272.0</ele><time>2026-04-19T09:25:52.395Z</time></trkpt><trkpt lat="40.4684441" lon="15.191949"><ele>270.83333333333337</ele><time>2026-04-19T09:25:55.395Z</time></trkpt><trkpt lat="40.4683821" lon="15.1918896"><ele>269.6666666666667</ele><time>2026-04-19T09:25:58.394Z</time></trkpt><trkpt lat="40.4683352" lon="15.1918271"><ele>268.5</ele><time>2026-04-19T09:26:01.395Z</time></trkpt><trkpt lat="40.4682883" lon="15.1917471"><ele>267.3333333333333</ele><time>2026-04-19T09:26:04.395Z</time></trkpt><trkpt lat="40.4682586" lon="15.1916432"><ele>266.16666666666663</ele><time>2026-04-19T09:26:07.395Z</time></trkpt><trkpt lat="40.4682295" lon="15.1915625"><ele>265.0</ele><time>2026-04-19T09:26:10.395Z</time></trkpt><trkpt lat="40.4681914" lon="15.1914719"><ele>263.2857142857143</ele><time>2026-04-19T09:26:34.394Z</time></trkpt><trkpt lat="40.468166" lon="15.1913917"><ele>261.57142857142856</ele><time>2026-04-19T09:26:44.396Z</time></trkpt><trkpt lat="40.4681538" lon="15.1913047"><ele>259.8571428571429</ele><time>2026-04-19T09:26:58.394Z</time></trkpt><trkpt lat="40.4681843" lon="15.1912288"><ele>258.1428571428571</ele><time>2026-04-19T09:27:02.395Z</time></trkpt><trkpt lat="40.4681483" lon="15.1911557"><ele>256.42857142857144</ele><time>2026-04-19T09:27:07.396Z</time></trkpt><trkpt lat="40.4681086" lon="15.1910806"><ele>254.71428571428575</ele><time>2026-04-19T09:30:29.394Z</time></trkpt><trkpt lat="40.4680792" lon="15.1909881"><ele>253.00000000000003</ele><time>2026-04-19T09:30:33.394Z</time></trkpt><trkpt lat="40.4680489" lon="15.1909092"><ele>253.00000000000003</ele><time>2026-04-19T09:31:35.395Z</time></trkpt><trkpt lat="40.468017" lon="15.1908276"><ele>253.0</ele><time>2026-04-19T09:31:39.394Z</time></trkpt><trkpt lat="40.467986" lon="15.1907419"><ele>253.00000000000003</ele><time>2026-04-19T09:31:42.393Z</time></trkpt><trkpt lat="40.4679492" lon="15.190666"><ele>253.00000000000003</ele><time>2026-04-19T09:31:45.393Z</time></trkpt><trkpt lat="40.4679164" lon="15.1905851"><ele>253.0</ele><time>2026-04-19T09:31:48.393Z</time></trkpt><trkpt lat="40.4678766" lon="15.1904982"><ele>253.00000000000003</ele><time>2026-04-19T09:31:52.393Z</time></trkpt><trkpt lat="40.4678179" lon="15.1904646"><ele>253.00000000000003</ele><time>2026-04-19T09:32:09.393Z</time></trkpt><trkpt lat="40.4677408" lon="15.1904361"><ele>250.14285714285717</ele><time>2026-04-19T09:32:13.394Z</time></trkpt><trkpt lat="40.4676723" lon="15.190441"><ele>247.28571428571428</ele><time>2026-04-19T09:32:16.394Z</time></trkpt><trkpt lat="40.4676067" lon="15.1904394"><ele>244.42857142857144</ele><time>2026-04-19T09:32:19.394Z</time></trkpt><trkpt lat="40.4675331" lon="15.1904271"><ele>241.57142857142858</ele><time>2026-04-19T09:32:23.393Z</time></trkpt><trkpt lat="40.4674659" lon="15.1904184"><ele>238.71428571428572</ele><time>2026-04-19T09:33:50.394Z</time></trkpt><trkpt lat="40.4673857" lon="15.1904095"><ele>235.85714285714286</ele><time>2026-04-19T09:33:54.394Z</time></trkpt><trkpt lat="40.4673217" lon="15.1903995"><ele>233.0</ele><time>2026-04-19T09:33:56.393Z</time></trkpt><trkpt lat="40.4672338" lon="15.1903678"><ele>233.00000000000003</ele><time>2026-04-19T09:33:59.393Z</time></trkpt><trkpt lat="40.4671771" lon="15.1903226"><ele>233.0</ele><time>2026-04-19T09:34:01.394Z</time></trkpt><trkpt lat="40.4671233" lon="15.1902646"><ele>233.0</ele><time>2026-04-19T09:34:03.393Z</time></trkpt><trkpt lat="40.4670692" lon="15.1901815"><ele>233.0</ele><time>2026-04-19T09:34:05.393Z</time></trkpt><trkpt lat="40.4670112" lon="15.1900625"><ele>233.00000000000003</ele><time>2026-04-19T09:34:07.393Z</time></trkpt><trkpt lat="40.4669576" lon="15.1899646"><ele>233.0</ele><time>2026-04-19T09:34:09.393Z</time></trkpt><trkpt lat="40.4669247" lon="15.1898787"><ele>230.60000000000002</ele><time>2026-04-19T09:34:11.393Z</time></trkpt><trkpt lat="40.4668837" lon="15.1897517"><ele>228.20000000000002</ele><time>2026-04-19T09:34:13.393Z</time></trkpt><trkpt lat="40.4668699" lon="15.1896469"><ele>225.8</ele><time>2026-04-19T09:34:15.393Z</time></trkpt><trkpt lat="40.4668624" lon="15.1895559"><ele>223.4</ele><time>2026-04-19T09:34:17.394Z</time></trkpt><trkpt lat="40.4668302" lon="15.1894242"><ele>221.0</ele><time>2026-04-19T09:34:20.392Z</time></trkpt><trkpt lat="40.4668203" lon="15.1892963"><ele>221.00000000000003</ele><time>2026-04-19T09:34:22.393Z</time></trkpt><trkpt lat="40.4668261" lon="15.1891765"><ele>221.0</ele><time>2026-04-19T09:34:24.392Z</time></trkpt><trkpt lat="40.466844" lon="15.1890917"><ele>221.0</ele><time>2026-04-19T09:34:26.393Z</time></trkpt><trkpt lat="40.466799" lon="15.1890224"><ele>221.0</ele><time>2026-04-19T09:34:29.392Z</time></trkpt><trkpt lat="40.4667362" lon="15.189006"><ele>221.00000000000003</ele><time>2026-04-19T09:34:31.393Z</time></trkpt><trkpt lat="40.4666128" lon="15.1890091"><ele>221.0</ele><time>2026-04-19T09:34:33.393Z</time></trkpt><trkpt lat="40.4665167" lon="15.1890143"><ele>222.66666666666669</ele><time>2026-04-19T09:34:35.393Z</time></trkpt><trkpt lat="40.4664315" lon="15.1889889"><ele>224.33333333333334</ele><time>2026-04-19T09:34:37.393Z</time></trkpt><trkpt lat="40.4663408" lon="15.1889448"><ele>226.0</ele><time>2026-04-19T09:34:39.394Z</time></trkpt><trkpt lat="40.466261" lon="15.1889029"><ele>227.66666666666669</ele><time>2026-04-19T09:34:41.393Z</time></trkpt><trkpt lat="40.4661935" lon="15.1888788"><ele>229.33333333333334</ele><time>2026-04-19T09:34:43.393Z</time></trkpt><trkpt lat="40.4661129" lon="15.188819"><ele>231.0</ele><time>2026-04-19T09:34:45.392Z</time></trkpt><trkpt lat="40.4660169" lon="15.1887175"><ele>226.60000000000002</ele><time>2026-04-19T09:34:47.394Z</time></trkpt><trkpt lat="40.4659279" lon="15.1886271"><ele>222.20000000000002</ele><time>2026-04-19T09:34:49.394Z</time></trkpt><trkpt lat="40.4658618" lon="15.188561"><ele>217.8</ele><time>2026-04-19T09:34:51.393Z</time></trkpt><trkpt lat="40.4657893" lon="15.1884852"><ele>213.39999999999998</ele><time>2026-04-19T09:34:53.394Z</time></trkpt><trkpt lat="40.465704" lon="15.1883965"><ele>209.0</ele><time>2026-04-19T09:34:55.393Z</time></trkpt><trkpt lat="40.4656383" lon="15.1882992"><ele>209.00000000000003</ele><time>2026-04-19T09:34:57.393Z</time></trkpt><trkpt lat="40.4656012" lon="15.1881797"><ele>209.0</ele><time>2026-04-19T09:34:59.393Z</time></trkpt><trkpt lat="40.4655689" lon="15.1880779"><ele>209.0</ele><time>2026-04-19T09:35:01.393Z</time></trkpt><trkpt lat="40.4655279" lon="15.1880112"><ele>209.0</ele><time>2026-04-19T09:35:03.394Z</time></trkpt><trkpt lat="40.4655203" lon="15.1879253"><ele>209.00000000000003</ele><time>2026-04-19T09:35:52.394Z</time></trkpt><trkpt lat="40.4654747" lon="15.1878533"><ele>209.0</ele><time>2026-04-19T09:35:55.393Z</time></trkpt><trkpt lat="40.4654126" lon="15.1877609"><ele>206.33333333333334</ele><time>2026-04-19T09:35:58.393Z</time></trkpt><trkpt lat="40.465359" lon="15.1876796"><ele>203.66666666666669</ele><time>2026-04-19T09:36:00.393Z</time></trkpt><trkpt lat="40.4653135" lon="15.1875881"><ele>201.0</ele><time>2026-04-19T09:36:02.394Z</time></trkpt><trkpt lat="40.4652651" lon="15.1875247"><ele>198.33333333333331</ele><time>2026-04-19T09:36:04.393Z</time></trkpt><trkpt lat="40.4651915" lon="15.1875144"><ele>195.66666666666666</ele><time>2026-04-19T09:36:06.393Z</time></trkpt><trkpt lat="40.4650927" lon="15.1875197"><ele>193.0</ele><time>2026-04-19T09:36:08.392Z</time></trkpt><trkpt lat="40.4649774" lon="15.1875006"><ele>193.00000000000003</ele><time>2026-04-19T09:36:10.392Z</time></trkpt><trkpt lat="40.4649074" lon="15.1874839"><ele>193.0</ele><time>2026-04-19T09:36:11.393Z</time></trkpt><trkpt lat="40.4648356" lon="15.1874594"><ele>193.0</ele><time>2026-04-19T09:36:12.393Z</time></trkpt><trkpt lat="40.4647653" lon="15.1874401"><ele>193.0</ele><time>2026-04-19T09:36:13.392Z</time></trkpt><trkpt lat="40.464702" lon="15.1874355"><ele>193.0</ele><time>2026-04-19T09:36:14.393Z</time></trkpt><trkpt lat="40.4646363" lon="15.1874674"><ele>193.00000000000003</ele><time>2026-04-19T09:36:15.392Z</time></trkpt><trkpt lat="40.4645625" lon="15.1875091"><ele>193.0</ele><time>2026-04-19T09:36:16.392Z</time></trkpt><trkpt lat="40.4644384" lon="15.1875197"><ele>192.0</ele><time>2026-04-19T09:36:18.392Z</time></trkpt><trkpt lat="40.4643644" lon="15.1875087"><ele>191.0</ele><time>2026-04-19T09:36:19.394Z</time></trkpt><trkpt lat="40.4642489" lon="15.1874262"><ele>190.0</ele><time>2026-04-19T09:36:21.392Z</time></trkpt><trkpt lat="40.4641968" lon="15.1873351"><ele>189.0</ele><time>2026-04-19T09:36:22.393Z</time></trkpt><trkpt lat="40.4641533" lon="15.1872343"><ele>188.0</ele><time>2026-04-19T09:36:23.393Z</time></trkpt><trkpt lat="40.4641112" lon="15.1871298"><ele>190.0</ele><time>2026-04-19T09:36:24.392Z</time></trkpt><trkpt lat="40.4640586" lon="15.1870376"><ele>192.0</ele><time>2026-04-19T09:36:25.392Z</time></trkpt><trkpt lat="40.4639947" lon="15.1869625"><ele>194.0</ele><time>2026-04-19T09:36:26.392Z</time></trkpt><trkpt lat="40.4639352" lon="15.1869092"><ele>196.0</ele><time>2026-04-19T09:36:27.392Z</time></trkpt><trkpt lat="40.4638619" lon="15.1868644"><ele>198.00000000000003</ele><time>2026-04-19T09:36:29.393Z</time></trkpt><trkpt lat="40.4637859" lon="15.1868396"><ele>200.0</ele><time>2026-04-19T09:36:47.392Z</time></trkpt><trkpt lat="40.4637191" lon="15.186827"><ele>200.00000000000003</ele><time>2026-04-19T09:36:48.392Z</time></trkpt><trkpt lat="40.4636555" lon="15.1868127"><ele>200.0</ele><time>2026-04-19T09:36:49.392Z</time></trkpt><trkpt lat="40.4635931" lon="15.1867981"><ele>200.0</ele><time>2026-04-19T09:36:50.392Z</time></trkpt><trkpt lat="40.4635126" lon="15.1867878"><ele>200.0</ele><time>2026-04-19T09:36:52.392Z</time></trkpt><trkpt lat="40.4634325" lon="15.186838"><ele>200.0</ele><time>2026-04-19T09:36:58.392Z</time></trkpt><trkpt lat="40.463373" lon="15.1868939"><ele>200.00000000000003</ele><time>2026-04-19T09:36:59.393Z</time></trkpt><trkpt lat="40.4633211" lon="15.1869517"><ele>200.0</ele><time>2026-04-19T09:37:00.392Z</time></trkpt><trkpt lat="40.4632317" lon="15.1870552"><ele>200.00000000000003</ele><time>2026-04-19T09:37:02.393Z</time></trkpt><trkpt lat="40.4631726" lon="15.1870939"><ele>200.0</ele><time>2026-04-19T09:37:03.393Z</time></trkpt><trkpt lat="40.4630964" lon="15.1871307"><ele>200.0</ele><time>2026-04-19T09:37:04.392Z</time></trkpt><trkpt lat="40.4630216" lon="15.1871562"><ele>200.0</ele><time>2026-04-19T09:37:05.392Z</time></trkpt><trkpt lat="40.462944" lon="15.1871793"><ele>200.00000000000003</ele><time>2026-04-19T09:37:06.392Z</time></trkpt><trkpt lat="40.4628538" lon="15.1872055"><ele>200.0</ele><time>2026-04-19T09:37:07.392Z</time></trkpt><trkpt lat="40.4627744" lon="15.1872314"><ele>200.6</ele><time>2026-04-19T09:37:08.393Z</time></trkpt><trkpt lat="40.4627067" lon="15.1872612"><ele>201.2</ele><time>2026-04-19T09:37:09.392Z</time></trkpt><trkpt lat="40.4626038" lon="15.1873528"><ele>201.8</ele><time>2026-04-19T09:37:11.393Z</time></trkpt><trkpt lat="40.4625411" lon="15.1874772"><ele>202.4</ele><time>2026-04-19T09:37:13.392Z</time></trkpt><trkpt lat="40.4624826" lon="15.1875995"><ele>203.0</ele><time>2026-04-19T09:37:15.392Z</time></trkpt><trkpt lat="40.4624284" lon="15.1876502"><ele>202.50000000000003</ele><time>2026-04-19T09:37:16.393Z</time></trkpt><trkpt lat="40.4623576" lon="15.1876894"><ele>202.0</ele><time>2026-04-19T09:37:17.392Z</time></trkpt><trkpt lat="40.4622881" lon="15.1877172"><ele>201.5</ele><time>2026-04-19T09:37:18.392Z</time></trkpt><trkpt lat="40.4622213" lon="15.1877309"><ele>201.0</ele><time>2026-04-19T09:37:19.392Z</time></trkpt><trkpt lat="40.4621558" lon="15.1877202"><ele>200.50000000000003</ele><time>2026-04-19T09:37:20.393Z</time></trkpt><trkpt lat="40.4620453" lon="15.187647"><ele>200.0</ele><time>2026-04-19T09:37:22.392Z</time></trkpt><trkpt lat="40.4619876" lon="15.1875769"><ele>200.00000000000003</ele><time>2026-04-19T09:37:23.392Z</time></trkpt><trkpt lat="40.461938" lon="15.187511"><ele>200.0</ele><time>2026-04-19T09:37:24.393Z</time></trkpt><trkpt lat="40.4618806" lon="15.1874595"><ele>200.0</ele><time>2026-04-19T09:37:25.392Z</time></trkpt><trkpt lat="40.4618195" lon="15.1874307"><ele>200.0</ele><time>2026-04-19T09:37:26.393Z</time></trkpt><trkpt lat="40.4617379" lon="15.1874325"><ele>200.00000000000003</ele><time>2026-04-19T09:37:27.393Z</time></trkpt><trkpt lat="40.4616528" lon="15.1874529"><ele>200.0</ele><time>2026-04-19T09:37:28.392Z</time></trkpt><trkpt lat="40.4615582" lon="15.1874893"><ele>200.0</ele><time>2026-04-19T09:37:29.393Z</time></trkpt><trkpt lat="40.4614573" lon="15.1875397"><ele>200.0</ele><time>2026-04-19T09:37:30.392Z</time></trkpt><trkpt lat="40.4613437" lon="15.1876086"><ele>200.0</ele><time>2026-04-19T09:37:31.392Z</time></trkpt><trkpt lat="40.4612194" lon="15.1876822"><ele>200.0</ele><time>2026-04-19T09:37:32.392Z</time></trkpt><trkpt lat="40.4611015" lon="15.1877384"><ele>202.2</ele><time>2026-04-19T09:37:33.393Z</time></trkpt><trkpt lat="40.4609909" lon="15.187775"><ele>204.4</ele><time>2026-04-19T09:37:34.392Z</time></trkpt><trkpt lat="40.4608798" lon="15.1877897"><ele>206.60000000000002</ele><time>2026-04-19T09:37:35.392Z</time></trkpt><trkpt lat="40.4607737" lon="15.1877858"><ele>208.8</ele><time>2026-04-19T09:37:36.392Z</time></trkpt><trkpt lat="40.4606857" lon="15.1877779"><ele>211.0</ele><time>2026-04-19T09:37:37.392Z</time></trkpt><trkpt lat="40.4606166" lon="15.1877663"><ele>211.0</ele><time>2026-04-19T09:37:38.392Z</time></trkpt><trkpt lat="40.4605192" lon="15.1877311"><ele>211.0</ele><time>2026-04-19T09:37:40.392Z</time></trkpt><trkpt lat="40.4604246" lon="15.1877058"><ele>211.0</ele><time>2026-04-19T09:37:42.393Z</time></trkpt><trkpt lat="40.4603607" lon="15.187698"><ele>211.0</ele><time>2026-04-19T09:37:43.393Z</time></trkpt><trkpt lat="40.4602884" lon="15.1877035"><ele>211.0</ele><time>2026-04-19T09:37:44.392Z</time></trkpt><trkpt lat="40.4601732" lon="15.1877297"><ele>211.4</ele><time>2026-04-19T09:37:46.393Z</time></trkpt><trkpt lat="40.4600753" lon="15.1877558"><ele>211.8</ele><time>2026-04-19T09:37:48.392Z</time></trkpt><trkpt lat="40.4600023" lon="15.1877812"><ele>212.20000000000002</ele><time>2026-04-19T09:37:50.393Z</time></trkpt><trkpt lat="40.4599267" lon="15.1878047"><ele>212.60000000000002</ele><time>2026-04-19T09:37:58.392Z</time></trkpt><trkpt lat="40.4597946" lon="15.1878677"><ele>213.0</ele><time>2026-04-19T09:38:00.391Z</time></trkpt><trkpt lat="40.4597095" lon="15.1878933"><ele>212.8</ele><time>2026-04-19T09:38:01.392Z</time></trkpt><trkpt lat="40.4596058" lon="15.1879319"><ele>212.60000000000002</ele><time>2026-04-19T09:38:02.392Z</time></trkpt><trkpt lat="40.4595158" lon="15.1879609"><ele>212.39999999999998</ele><time>2026-04-19T09:38:03.392Z</time></trkpt><trkpt lat="40.4594311" lon="15.1879773"><ele>212.2</ele><time>2026-04-19T09:38:04.393Z</time></trkpt><trkpt lat="40.4593548" lon="15.1879836"><ele>212.0</ele><time>2026-04-19T09:38:05.392Z</time></trkpt><trkpt lat="40.4592591" lon="15.1879565"><ele>212.0</ele><time>2026-04-19T09:38:07.392Z</time></trkpt><trkpt lat="40.4592605" lon="15.1878404"><ele>212.0</ele><time>2026-04-19T09:38:29.393Z</time></trkpt><trkpt lat="40.459315" lon="15.1877277"><ele>212.0</ele><time>2026-04-19T09:38:31.392Z</time></trkpt><trkpt lat="40.4593666" lon="15.1876026"><ele>212.0</ele><time>2026-04-19T09:38:33.393Z</time></trkpt><trkpt lat="40.4594363" lon="15.1874736"><ele>212.0</ele><time>2026-04-19T09:38:35.391Z</time></trkpt><trkpt lat="40.4594988" lon="15.1873505"><ele>211.85714285714286</ele><time>2026-04-19T09:38:37.392Z</time></trkpt><trkpt lat="40.4595383" lon="15.187259"><ele>211.7142857142857</ele><time>2026-04-19T09:38:39.392Z</time></trkpt><trkpt lat="40.4595777" lon="15.1871929"><ele>211.57142857142856</ele><time>2026-04-19T09:38:43.391Z</time></trkpt><trkpt lat="40.4595863" lon="15.1870893"><ele>211.42857142857144</ele><time>2026-04-19T09:38:46.392Z</time></trkpt><trkpt lat="40.4596104" lon="15.1869969"><ele>211.28571428571428</ele><time>2026-04-19T09:38:49.392Z</time></trkpt><trkpt lat="40.4596741" lon="15.1869823"><ele>211.14285714285714</ele><time>2026-04-19T09:50:37.389Z</time></trkpt><trkpt lat="40.459638" lon="15.1870811"><ele>211.0</ele><time>2026-04-19T09:50:41.389Z</time></trkpt><trkpt lat="40.4595672" lon="15.1871207"><ele>210.99999999999997</ele><time>2026-04-19T09:50:44.39Z</time></trkpt><trkpt lat="40.4595408" lon="15.1872099"><ele>211.0</ele><time>2026-04-19T09:50:50.39Z</time></trkpt><trkpt lat="40.459601" lon="15.1872381"><ele>211.0</ele><time>2026-04-19T09:50:54.389Z</time></trkpt><trkpt lat="40.4596166" lon="15.1871324"><ele>211.0</ele><time>2026-04-19T09:51:05.388Z</time></trkpt><trkpt lat="40.4595438" lon="15.1871535"><ele>210.99999999999997</ele><time>2026-04-19T09:51:08.389Z</time></trkpt><trkpt lat="40.4595095" lon="15.1872409"><ele>211.0</ele><time>2026-04-19T09:51:10.389Z</time></trkpt><trkpt lat="40.4594713" lon="15.1873413"><ele>211.20000000000002</ele><time>2026-04-19T09:51:12.388Z</time></trkpt><trkpt lat="40.4594292" lon="15.1874556"><ele>211.4</ele><time>2026-04-19T09:51:14.388Z</time></trkpt><trkpt lat="40.4593674" lon="15.1875426"><ele>211.6</ele><time>2026-04-19T09:52:16.388Z</time></trkpt><trkpt lat="40.4592932" lon="15.1876679"><ele>211.8</ele><time>2026-04-19T09:52:18.388Z</time></trkpt><trkpt lat="40.4592512" lon="15.1877419"><ele>212.0</ele><time>2026-04-19T09:52:19.388Z</time></trkpt><trkpt lat="40.4592027" lon="15.1878125"><ele>212.00000000000003</ele><time>2026-04-19T09:52:20.389Z</time></trkpt><trkpt lat="40.4591512" lon="15.1878816"><ele>212.0</ele><time>2026-04-19T09:52:21.388Z</time></trkpt><trkpt lat="40.4590847" lon="15.1879555"><ele>212.0</ele><time>2026-04-19T09:52:22.388Z</time></trkpt><trkpt lat="40.4590127" lon="15.1880291"><ele>212.0</ele><time>2026-04-19T09:52:23.389Z</time></trkpt><trkpt lat="40.4589438" lon="15.1881052"><ele>212.00000000000003</ele><time>2026-04-19T09:52:24.388Z</time></trkpt><trkpt lat="40.4588744" lon="15.1881777"><ele>212.0</ele><time>2026-04-19T09:52:25.389Z</time></trkpt><trkpt lat="40.4588005" lon="15.1882645"><ele>210.39999999999998</ele><time>2026-04-19T09:52:26.388Z</time></trkpt><trkpt lat="40.4587365" lon="15.1883555"><ele>208.79999999999998</ele><time>2026-04-19T09:52:27.388Z</time></trkpt><trkpt lat="40.4586865" lon="15.1884536"><ele>207.2</ele><time>2026-04-19T09:52:28.389Z</time></trkpt><trkpt lat="40.4586489" lon="15.1885707"><ele>205.6</ele><time>2026-04-19T09:52:29.388Z</time></trkpt><trkpt lat="40.4586217" lon="15.1886935"><ele>204.0</ele><time>2026-04-19T09:52:30.388Z</time></trkpt><trkpt lat="40.4586035" lon="15.188825"><ele>204.0</ele><time>2026-04-19T09:52:31.39Z</time></trkpt><trkpt lat="40.4585965" lon="15.1889583"><ele>204.0</ele><time>2026-04-19T09:52:32.388Z</time></trkpt><trkpt lat="40.4585983" lon="15.1891002"><ele>204.0</ele><time>2026-04-19T09:52:33.388Z</time></trkpt><trkpt lat="40.4586079" lon="15.1892362"><ele>204.0</ele><time>2026-04-19T09:52:34.388Z</time></trkpt><trkpt lat="40.4586164" lon="15.1893586"><ele>204.0</ele><time>2026-04-19T09:52:35.388Z</time></trkpt><trkpt lat="40.4586246" lon="15.1894703"><ele>204.16666666666666</ele><time>2026-04-19T09:52:36.388Z</time></trkpt><trkpt lat="40.4586315" lon="15.189573"><ele>204.33333333333331</ele><time>2026-04-19T09:52:37.388Z</time></trkpt><trkpt lat="40.4586376" lon="15.1896665"><ele>204.5</ele><time>2026-04-19T09:52:38.388Z</time></trkpt><trkpt lat="40.4586351" lon="15.1897535"><ele>204.66666666666666</ele><time>2026-04-19T09:52:39.388Z</time></trkpt><trkpt lat="40.4586313" lon="15.1898762"><ele>204.83333333333331</ele><time>2026-04-19T09:52:41.388Z</time></trkpt><trkpt lat="40.4586641" lon="15.1899472"><ele>205.0</ele><time>2026-04-19T09:52:43.388Z</time></trkpt><trkpt lat="40.4587564" lon="15.189931"><ele>204.4</ele><time>2026-04-19T09:52:46.389Z</time></trkpt><trkpt lat="40.4588598" lon="15.1899098"><ele>203.8</ele><time>2026-04-19T09:52:48.388Z</time></trkpt><trkpt lat="40.4589674" lon="15.1899477"><ele>203.2</ele><time>2026-04-19T09:52:50.388Z</time></trkpt><trkpt lat="40.4590684" lon="15.1900201"><ele>202.6</ele><time>2026-04-19T09:52:52.388Z</time></trkpt><trkpt lat="40.4591642" lon="15.1900918"><ele>202.0</ele><time>2026-04-19T09:52:54.388Z</time></trkpt><trkpt lat="40.4592526" lon="15.1901266"><ele>201.99999999999997</ele><time>2026-04-19T09:52:56.389Z</time></trkpt><trkpt lat="40.4593343" lon="15.1900604"><ele>202.0</ele><time>2026-04-19T09:52:58.388Z</time></trkpt><trkpt lat="40.4593807" lon="15.1899921"><ele>202.0</ele><time>2026-04-19T09:52:59.389Z</time></trkpt><trkpt lat="40.4594399" lon="15.1899175"><ele>202.0</ele><time>2026-04-19T09:53:00.388Z</time></trkpt><trkpt lat="40.459504" lon="15.1898547"><ele>201.99999999999997</ele><time>2026-04-19T09:53:01.388Z</time></trkpt><trkpt lat="40.4595734" lon="15.1898028"><ele>202.0</ele><time>2026-04-19T09:53:02.388Z</time></trkpt><trkpt lat="40.4596484" lon="15.1897602"><ele>201.28571428571428</ele><time>2026-04-19T09:53:03.389Z</time></trkpt><trkpt lat="40.4597157" lon="15.1897267"><ele>200.57142857142856</ele><time>2026-04-19T09:53:04.388Z</time></trkpt><trkpt lat="40.4597828" lon="15.1896941"><ele>199.85714285714286</ele><time>2026-04-19T09:53:05.388Z</time></trkpt><trkpt lat="40.4598457" lon="15.1896603"><ele>199.14285714285714</ele><time>2026-04-19T09:53:06.388Z</time></trkpt><trkpt lat="40.4599165" lon="15.1896295"><ele>198.42857142857144</ele><time>2026-04-19T09:53:07.387Z</time></trkpt><trkpt lat="40.4599874" lon="15.1895989"><ele>197.71428571428572</ele><time>2026-04-19T09:53:08.388Z</time></trkpt><trkpt lat="40.4600523" lon="15.1895831"><ele>197.0</ele><time>2026-04-19T09:53:09.388Z</time></trkpt><trkpt lat="40.460168" lon="15.1896315"><ele>197.0</ele><time>2026-04-19T09:53:11.387Z</time></trkpt><trkpt lat="40.4602374" lon="15.1897104"><ele>197.0</ele><time>2026-04-19T09:53:13.388Z</time></trkpt><trkpt lat="40.4602926" lon="15.1897886"><ele>197.0</ele><time>2026-04-19T09:53:20.388Z</time></trkpt><trkpt lat="40.4603667" lon="15.1898439"><ele>197.0</ele><time>2026-04-19T09:53:22.388Z</time></trkpt><trkpt lat="40.460468" lon="15.1898939"><ele>197.0</ele><time>2026-04-19T09:53:24.388Z</time></trkpt><trkpt lat="40.4605808" lon="15.189927"><ele>193.0</ele><time>2026-04-19T09:53:26.389Z</time></trkpt><trkpt lat="40.4606874" lon="15.1899355"><ele>189.0</ele><time>2026-04-19T09:53:28.387Z</time></trkpt><trkpt lat="40.4607787" lon="15.1899509"><ele>185.0</ele><time>2026-04-19T09:53:30.388Z</time></trkpt><trkpt lat="40.4608506" lon="15.1900096"><ele>181.0</ele><time>2026-04-19T09:53:32.388Z</time></trkpt><trkpt lat="40.4609305" lon="15.1900715"><ele>177.0</ele><time>2026-04-19T09:53:34.389Z</time></trkpt><trkpt lat="40.4610159" lon="15.1900882"><ele>177.0</ele><time>2026-04-19T09:53:36.389Z</time></trkpt><trkpt lat="40.4611019" lon="15.1900758"><ele>177.0</ele><time>2026-04-19T09:53:38.387Z</time></trkpt><trkpt lat="40.4612122" lon="15.1900348"><ele>177.0</ele><time>2026-04-19T09:53:40.388Z</time></trkpt><trkpt lat="40.4613125" lon="15.1900031"><ele>177.0</ele><time>2026-04-19T09:53:42.388Z</time></trkpt><trkpt lat="40.4614029" lon="15.1899846"><ele>177.0</ele><time>2026-04-19T09:53:44.388Z</time></trkpt><trkpt lat="40.4614825" lon="15.1899794"><ele>176.16666666666666</ele><time>2026-04-19T09:53:46.388Z</time></trkpt><trkpt lat="40.4615514" lon="15.1899978"><ele>175.33333333333334</ele><time>2026-04-19T09:53:48.388Z</time></trkpt><trkpt lat="40.4616305" lon="15.1900736"><ele>174.5</ele><time>2026-04-19T09:53:51.387Z</time></trkpt><trkpt lat="40.4616832" lon="15.19015"><ele>173.66666666666669</ele><time>2026-04-19T09:53:53.388Z</time></trkpt><trkpt lat="40.4617485" lon="15.1902225"><ele>172.83333333333334</ele><time>2026-04-19T09:53:55.387Z</time></trkpt><trkpt lat="40.4618274" lon="15.1902934"><ele>172.0</ele><time>2026-04-19T09:53:57.388Z</time></trkpt><trkpt lat="40.4619162" lon="15.1903568"><ele>172.0</ele><time>2026-04-19T09:53:59.387Z</time></trkpt><trkpt lat="40.4619934" lon="15.1904331"><ele>172.0</ele><time>2026-04-19T09:54:01.387Z</time></trkpt><trkpt lat="40.4620442" lon="15.1905527"><ele>172.0</ele><time>2026-04-19T09:54:03.388Z</time></trkpt><trkpt lat="40.4620676" lon="15.1907109"><ele>172.0</ele><time>2026-04-19T09:54:05.388Z</time></trkpt><trkpt lat="40.4620867" lon="15.1908504"><ele>172.0</ele><time>2026-04-19T09:54:07.388Z</time></trkpt><trkpt lat="40.4621073" lon="15.1909831"><ele>169.6</ele><time>2026-04-19T09:54:09.388Z</time></trkpt><trkpt lat="40.4621107" lon="15.1911116"><ele>167.2</ele><time>2026-04-19T09:54:11.387Z</time></trkpt><trkpt lat="40.4621196" lon="15.1912481"><ele>164.8</ele><time>2026-04-19T09:54:13.388Z</time></trkpt><trkpt lat="40.4621487" lon="15.1913757"><ele>162.4</ele><time>2026-04-19T09:54:15.387Z</time></trkpt><trkpt lat="40.4622133" lon="15.1914998"><ele>160.0</ele><time>2026-04-19T09:54:17.387Z</time></trkpt><trkpt lat="40.4622774" lon="15.1916161"><ele>156.4</ele><time>2026-04-19T09:54:19.387Z</time></trkpt><trkpt lat="40.4623057" lon="15.1917483"><ele>152.8</ele><time>2026-04-19T09:54:21.388Z</time></trkpt><trkpt lat="40.4622877" lon="15.1918895"><ele>149.2</ele><time>2026-04-19T09:54:23.387Z</time></trkpt><trkpt lat="40.4622868" lon="15.192027"><ele>145.6</ele><time>2026-04-19T09:54:25.388Z</time></trkpt><trkpt lat="40.4622897" lon="15.1921592"><ele>142.0</ele><time>2026-04-19T09:54:27.387Z</time></trkpt><trkpt lat="40.4623075" lon="15.1922864"><ele>140.66666666666669</ele><time>2026-04-19T09:54:29.389Z</time></trkpt><trkpt lat="40.4623398" lon="15.1923853"><ele>139.33333333333334</ele><time>2026-04-19T09:54:31.388Z</time></trkpt><trkpt lat="40.4623974" lon="15.1924463"><ele>138.0</ele><time>2026-04-19T09:54:33.387Z</time></trkpt><trkpt lat="40.4625063" lon="15.1924621"><ele>136.66666666666666</ele><time>2026-04-19T09:54:35.387Z</time></trkpt><trkpt lat="40.4626103" lon="15.1924639"><ele>135.33333333333331</ele><time>2026-04-19T09:54:37.387Z</time></trkpt><trkpt lat="40.4626726" lon="15.1924503"><ele>134.0</ele><time>2026-04-19T09:54:38.388Z</time></trkpt><trkpt lat="40.4627442" lon="15.192429"><ele>134.0</ele><time>2026-04-19T09:54:39.388Z</time></trkpt><trkpt lat="40.462819" lon="15.1923998"><ele>134.0</ele><time>2026-04-19T09:54:40.387Z</time></trkpt><trkpt lat="40.4628997" lon="15.1923732"><ele>134.0</ele><time>2026-04-19T09:54:41.387Z</time></trkpt><trkpt lat="40.4629727" lon="15.1923391"><ele>134.0</ele><time>2026-04-19T09:54:42.387Z</time></trkpt><trkpt lat="40.4630434" lon="15.1923042"><ele>134.0</ele><time>2026-04-19T09:54:43.389Z</time></trkpt><trkpt lat="40.4631386" lon="15.1922065"><ele>134.0</ele><time>2026-04-19T09:54:45.388Z</time></trkpt><trkpt lat="40.4631775" lon="15.1921338"><ele>138.0</ele><time>2026-04-19T09:54:46.387Z</time></trkpt><trkpt lat="40.4632011" lon="15.1920332"><ele>142.0</ele><time>2026-04-19T09:54:47.388Z</time></trkpt><trkpt lat="40.4632315" lon="15.1919411"><ele>146.0</ele><time>2026-04-19T09:54:48.388Z</time></trkpt><trkpt lat="40.4632751" lon="15.1918518"><ele>150.0</ele><time>2026-04-19T09:54:49.388Z</time></trkpt><trkpt lat="40.4633459" lon="15.191731"><ele>154.0</ele><time>2026-04-19T09:54:51.387Z</time></trkpt><trkpt lat="40.463447" lon="15.1916529"><ele>154.0</ele><time>2026-04-19T09:54:53.388Z</time></trkpt><trkpt lat="40.4635666" lon="15.1915663"><ele>154.0</ele><time>2026-04-19T09:54:55.388Z</time></trkpt><trkpt lat="40.4636208" lon="15.1915117"><ele>154.0</ele><time>2026-04-19T09:54:56.387Z</time></trkpt><trkpt lat="40.4636782" lon="15.1914483"><ele>154.0</ele><time>2026-04-19T09:54:57.387Z</time></trkpt><trkpt lat="40.4637306" lon="15.1913868"><ele>154.0</ele><time>2026-04-19T09:54:58.388Z</time></trkpt><trkpt lat="40.4637691" lon="15.1913202"><ele>154.0</ele><time>2026-04-19T09:54:59.387Z</time></trkpt><trkpt lat="40.4638495" lon="15.1912167"><ele>157.66666666666669</ele><time>2026-04-19T09:55:01.387Z</time></trkpt><trkpt lat="40.4639434" lon="15.1911916"><ele>161.33333333333334</ele><time>2026-04-19T09:55:03.387Z</time></trkpt><trkpt lat="40.4640205" lon="15.1912087"><ele>165.0</ele><time>2026-04-19T09:55:05.387Z</time></trkpt><trkpt lat="40.4640821" lon="15.1912738"><ele>168.66666666666666</ele><time>2026-04-19T09:55:08.388Z</time></trkpt><trkpt lat="40.4641041" lon="15.1913538"><ele>172.33333333333331</ele><time>2026-04-19T09:58:28.388Z</time></trkpt><trkpt lat="40.4641444" lon="15.1914279"><ele>176.0</ele><time>2026-04-19T09:58:31.386Z</time></trkpt><trkpt lat="40.4641831" lon="15.1915125"><ele>176.33333333333331</ele><time>2026-04-19T09:58:33.388Z</time></trkpt><trkpt lat="40.4642131" lon="15.1916044"><ele>176.66666666666666</ele><time>2026-04-19T09:58:35.388Z</time></trkpt><trkpt lat="40.4642743" lon="15.1916626"><ele>177.0</ele><time>2026-04-19T10:01:04.385Z</time></trkpt><trkpt lat="40.4643523" lon="15.1916749"><ele>177.33333333333334</ele><time>2026-04-19T10:01:06.387Z</time></trkpt><trkpt lat="40.4644331" lon="15.1916911"><ele>177.66666666666669</ele><time>2026-04-19T10:01:08.387Z</time></trkpt><trkpt lat="40.4645198" lon="15.1917077"><ele>178.0</ele><time>2026-04-19T10:01:10.387Z</time></trkpt><trkpt lat="40.4646123" lon="15.1917032"><ele>179.83333333333334</ele><time>2026-04-19T10:01:12.386Z</time></trkpt><trkpt lat="40.4646963" lon="15.1916611"><ele>181.66666666666669</ele><time>2026-04-19T10:01:14.387Z</time></trkpt><trkpt lat="40.4647676" lon="15.1916227"><ele>183.5</ele><time>2026-04-19T10:01:16.386Z</time></trkpt><trkpt lat="40.4648304" lon="15.1915834"><ele>185.33333333333334</ele><time>2026-04-19T10:01:18.388Z</time></trkpt><trkpt lat="40.4649007" lon="15.1915679"><ele>187.16666666666666</ele><time>2026-04-19T10:01:25.385Z</time></trkpt><trkpt lat="40.464938" lon="15.1916439"><ele>189.0</ele><time>2026-04-19T10:01:31.386Z</time></trkpt><trkpt lat="40.4649724" lon="15.1917404"><ele>189.0</ele><time>2026-04-19T10:01:34.385Z</time></trkpt><trkpt lat="40.4650074" lon="15.1918318"><ele>189.0</ele><time>2026-04-19T10:01:36.386Z</time></trkpt><trkpt lat="40.4650473" lon="15.1919086"><ele>189.0</ele><time>2026-04-19T10:01:38.386Z</time></trkpt><trkpt lat="40.4651149" lon="15.191959"><ele>189.0</ele><time>2026-04-19T10:01:40.386Z</time></trkpt><trkpt lat="40.4651804" lon="15.192015"><ele>189.0</ele><time>2026-04-19T10:01:42.386Z</time></trkpt><trkpt lat="40.4652278" lon="15.1921248"><ele>189.0</ele><time>2026-04-19T10:01:44.386Z</time></trkpt><trkpt lat="40.4652422" lon="15.1922658"><ele>189.0</ele><time>2026-04-19T10:01:46.386Z</time></trkpt><trkpt lat="40.4652362" lon="15.1923986"><ele>189.0</ele><time>2026-04-19T10:01:48.386Z</time></trkpt><trkpt lat="40.4652359" lon="15.1925565"><ele>189.0</ele><time>2026-04-19T10:01:50.387Z</time></trkpt><trkpt lat="40.465257" lon="15.1926959"><ele>189.0</ele><time>2026-04-19T10:01:52.386Z</time></trkpt><trkpt lat="40.4652862" lon="15.192816"><ele>189.0</ele><time>2026-04-19T10:01:54.386Z</time></trkpt><trkpt lat="40.4652975" lon="15.1929146"><ele>189.0</ele><time>2026-04-19T10:01:56.387Z</time></trkpt><trkpt lat="40.4653113" lon="15.19301"><ele>189.0</ele><time>2026-04-19T10:01:58.385Z</time></trkpt><trkpt lat="40.4653228" lon="15.1931044"><ele>189.0</ele><time>2026-04-19T10:02:00.386Z</time></trkpt><trkpt lat="40.4653345" lon="15.1932164"><ele>189.0</ele><time>2026-04-19T10:02:02.385Z</time></trkpt><trkpt lat="40.465349" lon="15.193305"><ele>189.0</ele><time>2026-04-19T10:02:04.386Z</time></trkpt><trkpt lat="40.4653796" lon="15.1934063"><ele>189.0</ele><time>2026-04-19T10:02:06.385Z</time></trkpt><trkpt lat="40.4654328" lon="15.1934932"><ele>191.6</ele><time>2026-04-19T10:02:08.385Z</time></trkpt><trkpt lat="40.4654799" lon="15.1935586"><ele>194.2</ele><time>2026-04-19T10:02:10.386Z</time></trkpt><trkpt lat="40.4655347" lon="15.193648"><ele>196.79999999999998</ele><time>2026-04-19T10:02:12.387Z</time></trkpt><trkpt lat="40.4655927" lon="15.1937603"><ele>199.39999999999998</ele><time>2026-04-19T10:02:14.388Z</time></trkpt><trkpt lat="40.4656346" lon="15.193876"><ele>202.0</ele><time>2026-04-19T10:02:16.385Z</time></trkpt><trkpt lat="40.4656757" lon="15.193987"><ele>200.2</ele><time>2026-04-19T10:02:18.385Z</time></trkpt><trkpt lat="40.465713" lon="15.1941098"><ele>198.39999999999998</ele><time>2026-04-19T10:02:20.386Z</time></trkpt><trkpt lat="40.4657524" lon="15.1942461"><ele>196.60000000000002</ele><time>2026-04-19T10:02:22.385Z</time></trkpt><trkpt lat="40.4657828" lon="15.1943837"><ele>194.8</ele><time>2026-04-19T10:02:24.386Z</time></trkpt><trkpt lat="40.4658029" lon="15.194502"><ele>193.0</ele><time>2026-04-19T10:02:26.385Z</time></trkpt><trkpt lat="40.4658206" lon="15.1946224"><ele>193.0</ele><time>2026-04-19T10:02:28.388Z</time></trkpt><trkpt lat="40.46585" lon="15.1947363"><ele>193.0</ele><time>2026-04-19T10:02:30.386Z</time></trkpt><trkpt lat="40.4658958" lon="15.1948752"><ele>193.0</ele><time>2026-04-19T10:02:32.386Z</time></trkpt><trkpt lat="40.4659207" lon="15.1949632"><ele>193.0</ele><time>2026-04-19T10:02:33.386Z</time></trkpt><trkpt lat="40.4659643" lon="15.1951155"><ele>193.0</ele><time>2026-04-19T10:02:35.385Z</time></trkpt><trkpt lat="40.4659838" lon="15.1951985"><ele>191.8</ele><time>2026-04-19T10:02:36.386Z</time></trkpt><trkpt lat="40.466011" lon="15.1953316"><ele>190.60000000000002</ele><time>2026-04-19T10:02:38.385Z</time></trkpt><trkpt lat="40.4660225" lon="15.1954188"><ele>189.39999999999998</ele><time>2026-04-19T10:02:40.386Z</time></trkpt><trkpt lat="40.4659671" lon="15.1954949"><ele>188.2</ele><time>2026-04-19T10:02:43.385Z</time></trkpt><trkpt lat="40.4658751" lon="15.1955524"><ele>187.0</ele><time>2026-04-19T10:02:45.386Z</time></trkpt><trkpt lat="40.4657645" lon="15.195604"><ele>187.0</ele><time>2026-04-19T10:02:47.386Z</time></trkpt><trkpt lat="40.4657" lon="15.195637"><ele>187.0</ele><time>2026-04-19T10:02:48.385Z</time></trkpt><trkpt lat="40.4656305" lon="15.1956733"><ele>187.0</ele><time>2026-04-19T10:02:49.386Z</time></trkpt><trkpt lat="40.4655636" lon="15.1957087"><ele>187.0</ele><time>2026-04-19T10:02:50.386Z</time></trkpt><trkpt lat="40.4655018" lon="15.1957402"><ele>187.0</ele><time>2026-04-19T10:02:51.387Z</time></trkpt><trkpt lat="40.4654395" lon="15.195778"><ele>187.0</ele><time>2026-04-19T10:02:52.386Z</time></trkpt><trkpt lat="40.4653329" lon="15.1958358"><ele>184.16666666666669</ele><time>2026-04-19T10:02:54.386Z</time></trkpt><trkpt lat="40.4652727" lon="15.1958721"><ele>181.33333333333334</ele><time>2026-04-19T10:02:55.386Z</time></trkpt><trkpt lat="40.4652101" lon="15.1959059"><ele>178.5</ele><time>2026-04-19T10:02:56.386Z</time></trkpt><trkpt lat="40.4651526" lon="15.1959403"><ele>175.66666666666666</ele><time>2026-04-19T10:02:57.385Z</time></trkpt><trkpt lat="40.4650453" lon="15.1959999"><ele>172.83333333333331</ele><time>2026-04-19T10:02:59.386Z</time></trkpt><trkpt lat="40.4649448" lon="15.1960593"><ele>170.0</ele><time>2026-04-19T10:03:01.385Z</time></trkpt><trkpt lat="40.4648405" lon="15.1961064"><ele>170.0</ele><time>2026-04-19T10:03:03.386Z</time></trkpt><trkpt lat="40.4647573" lon="15.1961378"><ele>170.0</ele><time>2026-04-19T10:03:05.385Z</time></trkpt><trkpt lat="40.4646874" lon="15.1961686"><ele>170.0</ele><time>2026-04-19T10:03:07.386Z</time></trkpt><trkpt lat="40.464595" lon="15.1961947"><ele>170.0</ele><time>2026-04-19T10:03:09.385Z</time></trkpt><trkpt lat="40.4644954" lon="15.1962106"><ele>170.0</ele><time>2026-04-19T10:03:11.387Z</time></trkpt><trkpt lat="40.4643958" lon="15.1962374"><ele>166.4</ele><time>2026-04-19T10:03:13.386Z</time></trkpt><trkpt lat="40.4642972" lon="15.1962739"><ele>162.8</ele><time>2026-04-19T10:03:15.385Z</time></trkpt><trkpt lat="40.4641998" lon="15.1963115"><ele>159.2</ele><time>2026-04-19T10:03:17.386Z</time></trkpt><trkpt lat="40.4640999" lon="15.1963475"><ele>155.6</ele><time>2026-04-19T10:03:19.385Z</time></trkpt><trkpt lat="40.4639724" lon="15.1963917"><ele>152.0</ele><time>2026-04-19T10:03:21.385Z</time></trkpt><trkpt lat="40.4639105" lon="15.1964105"><ele>152.0</ele><time>2026-04-19T10:03:22.385Z</time></trkpt><trkpt lat="40.4638095" lon="15.1964513"><ele>152.0</ele><time>2026-04-19T10:03:24.385Z</time></trkpt><trkpt lat="40.4637481" lon="15.1964726"><ele>152.0</ele><time>2026-04-19T10:03:25.386Z</time></trkpt><trkpt lat="40.4636839" lon="15.1964961"><ele>152.0</ele><time>2026-04-19T10:03:26.385Z</time></trkpt><trkpt lat="40.4635604" lon="15.1965449"><ele>152.0</ele><time>2026-04-19T10:03:28.386Z</time></trkpt><trkpt lat="40.4634527" lon="15.196569"><ele>147.79999999999998</ele><time>2026-04-19T10:03:30.386Z</time></trkpt><trkpt lat="40.4633528" lon="15.1965979"><ele>143.6</ele><time>2026-04-19T10:03:32.385Z</time></trkpt><trkpt lat="40.463258" lon="15.1966208"><ele>139.39999999999998</ele><time>2026-04-19T10:03:34.385Z</time></trkpt><trkpt lat="40.4631748" lon="15.1966406"><ele>135.2</ele><time>2026-04-19T10:03:36.385Z</time></trkpt><trkpt lat="40.4630837" lon="15.1966629"><ele>131.0</ele><time>2026-04-19T10:03:38.386Z</time></trkpt><trkpt lat="40.4629927" lon="15.1966782"><ele>128.66666666666666</ele><time>2026-04-19T10:03:40.385Z</time></trkpt><trkpt lat="40.4629046" lon="15.1966916"><ele>126.33333333333333</ele><time>2026-04-19T10:03:42.385Z</time></trkpt><trkpt lat="40.4628037" lon="15.1967074"><ele>124.0</ele><time>2026-04-19T10:03:44.385Z</time></trkpt><trkpt lat="40.4627179" lon="15.1967127"><ele>121.66666666666666</ele><time>2026-04-19T10:03:46.385Z</time></trkpt><trkpt lat="40.4626543" lon="15.1967127"><ele>119.33333333333333</ele><time>2026-04-19T10:03:48.387Z</time></trkpt><trkpt lat="40.4625784" lon="15.1967386"><ele>117.0</ele><time>2026-04-19T10:03:52.386Z</time></trkpt><trkpt lat="40.4625432" lon="15.1968289"><ele>117.0</ele><time>2026-04-19T10:03:56.385Z</time></trkpt><trkpt lat="40.4625207" lon="15.1969196"><ele>117.0</ele><time>2026-04-19T10:03:59.385Z</time></trkpt><trkpt lat="40.4624585" lon="15.1969532"><ele>117.0</ele><time>2026-04-19T10:04:16.386Z</time></trkpt><trkpt lat="40.4624061" lon="15.1968749"><ele>117.0</ele><time>2026-04-19T10:04:19.385Z</time></trkpt><trkpt lat="40.462365" lon="15.1967507"><ele>117.0</ele><time>2026-04-19T10:04:21.386Z</time></trkpt><trkpt lat="40.4623098" lon="15.1966043"><ele>117.0</ele><time>2026-04-19T10:04:23.386Z</time></trkpt><trkpt lat="40.46228" lon="15.1965228"><ele>116.8</ele><time>2026-04-19T10:04:24.385Z</time></trkpt><trkpt lat="40.4622534" lon="15.1964046"><ele>116.6</ele><time>2026-04-19T10:04:26.385Z</time></trkpt><trkpt lat="40.4622721" lon="15.1963174"><ele>116.39999999999999</ele><time>2026-04-19T10:04:28.385Z</time></trkpt><trkpt lat="40.462329" lon="15.1962153"><ele>116.19999999999999</ele><time>2026-04-19T10:04:30.386Z</time></trkpt><trkpt lat="40.4623859" lon="15.1960826"><ele>116.0</ele><time>2026-04-19T10:04:32.387Z</time></trkpt><trkpt lat="40.4624185" lon="15.195937"><ele>116.0</ele><time>2026-04-19T10:04:34.386Z</time></trkpt><trkpt lat="40.462427" lon="15.1957933"><ele>116.0</ele><time>2026-04-19T10:04:36.385Z</time></trkpt><trkpt lat="40.4624135" lon="15.1956446"><ele>116.0</ele><time>2026-04-19T10:04:38.385Z</time></trkpt><trkpt lat="40.4624053" lon="15.1955129"><ele>116.0</ele><time>2026-04-19T10:04:40.385Z</time></trkpt><trkpt lat="40.4624238" lon="15.1954148"><ele>116.0</ele><time>2026-04-19T10:04:48.385Z</time></trkpt><trkpt lat="40.4623764" lon="15.1953402"><ele>116.49999999999999</ele><time>2026-04-19T10:04:51.385Z</time></trkpt><trkpt lat="40.4622983" lon="15.1953255"><ele>117.0</ele><time>2026-04-19T10:04:53.386Z</time></trkpt><trkpt lat="40.4622171" lon="15.1953451"><ele>117.5</ele><time>2026-04-19T10:04:55.386Z</time></trkpt><trkpt lat="40.4621545" lon="15.1953669"><ele>118.0</ele><time>2026-04-19T10:04:57.386Z</time></trkpt><trkpt lat="40.4620645" lon="15.1953955"><ele>118.49999999999999</ele><time>2026-04-19T10:05:11.386Z</time></trkpt><trkpt lat="40.4620066" lon="15.1954806"><ele>119.0</ele><time>2026-04-19T10:05:13.385Z</time></trkpt><trkpt lat="40.4619518" lon="15.1955845"><ele>120.80000000000001</ele><time>2026-04-19T10:05:15.386Z</time></trkpt><trkpt lat="40.4619128" lon="15.195664"><ele>122.60000000000001</ele><time>2026-04-19T10:05:16.384Z</time></trkpt><trkpt lat="40.4618598" lon="15.1957806"><ele>124.4</ele><time>2026-04-19T10:05:18.385Z</time></trkpt><trkpt lat="40.4618202" lon="15.1958817"><ele>126.2</ele><time>2026-04-19T10:05:20.385Z</time></trkpt><trkpt lat="40.4617603" lon="15.1959843"><ele>128.0</ele><time>2026-04-19T10:05:22.384Z</time></trkpt><trkpt lat="40.4617036" lon="15.1961111"><ele>128.0</ele><time>2026-04-19T10:05:24.385Z</time></trkpt><trkpt lat="40.4616302" lon="15.1962437"><ele>128.0</ele><time>2026-04-19T10:05:26.386Z</time></trkpt><trkpt lat="40.4615903" lon="15.1963108"><ele>128.0</ele><time>2026-04-19T10:05:27.385Z</time></trkpt><trkpt lat="40.461526" lon="15.1964377"><ele>128.0</ele><time>2026-04-19T10:05:29.385Z</time></trkpt><trkpt lat="40.4614739" lon="15.1965592"><ele>128.0</ele><time>2026-04-19T10:05:31.385Z</time></trkpt><trkpt lat="40.4614382" lon="15.1966729"><ele>127.99999999999999</ele><time>2026-04-19T10:05:33.385Z</time></trkpt><trkpt lat="40.4614059" lon="15.1967464"><ele>128.0</ele><time>2026-04-19T10:05:35.385Z</time></trkpt><trkpt lat="40.4613832" lon="15.1968293"><ele>128.0</ele><time>2026-04-19T10:05:37.385Z</time></trkpt><trkpt lat="40.4613309" lon="15.1969298"><ele>128.0</ele><time>2026-04-19T10:05:40.386Z</time></trkpt><trkpt lat="40.4612864" lon="15.1970172"><ele>127.99999999999999</ele><time>2026-04-19T10:05:42.386Z</time></trkpt><trkpt lat="40.4612292" lon="15.1970946"><ele>128.0</ele><time>2026-04-19T10:05:52.385Z</time></trkpt><trkpt lat="40.4611759" lon="15.1970389"><ele>132.8</ele><time>2026-04-19T10:05:56.385Z</time></trkpt><trkpt lat="40.4611275" lon="15.196944"><ele>137.60000000000002</ele><time>2026-04-19T10:05:59.386Z</time></trkpt><trkpt lat="40.4610528" lon="15.1968507"><ele>142.39999999999998</ele><time>2026-04-19T10:06:01.384Z</time></trkpt><trkpt lat="40.4609825" lon="15.1967387"><ele>147.2</ele><time>2026-04-19T10:06:03.384Z</time></trkpt><trkpt lat="40.4609093" lon="15.1966314"><ele>152.0</ele><time>2026-04-19T10:06:05.385Z</time></trkpt><trkpt lat="40.4608369" lon="15.1965452"><ele>153.0</ele><time>2026-04-19T10:06:07.385Z</time></trkpt><trkpt lat="40.4607898" lon="15.1964529"><ele>154.0</ele><time>2026-04-19T10:06:09.385Z</time></trkpt><trkpt lat="40.4607592" lon="15.1963251"><ele>155.0</ele><time>2026-04-19T10:06:11.385Z</time></trkpt><trkpt lat="40.4607166" lon="15.1961757"><ele>156.0</ele><time>2026-04-19T10:06:13.385Z</time></trkpt><trkpt lat="40.4606877" lon="15.1960271"><ele>157.0</ele><time>2026-04-19T10:06:15.385Z</time></trkpt><trkpt lat="40.4606391" lon="15.1959162"><ele>157.0</ele><time>2026-04-19T10:06:17.386Z</time></trkpt><trkpt lat="40.4605466" lon="15.1958339"><ele>157.0</ele><time>2026-04-19T10:06:19.385Z</time></trkpt><trkpt lat="40.460438" lon="15.1957839"><ele>157.0</ele><time>2026-04-19T10:06:21.385Z</time></trkpt><trkpt lat="40.4603264" lon="15.1957353"><ele>157.0</ele><time>2026-04-19T10:06:23.386Z</time></trkpt><trkpt lat="40.4602462" lon="15.1956582"><ele>157.0</ele><time>2026-04-19T10:06:25.384Z</time></trkpt><trkpt lat="40.4602006" lon="15.1955305"><ele>160.66666666666669</ele><time>2026-04-19T10:06:27.385Z</time></trkpt><trkpt lat="40.4601805" lon="15.1954377"><ele>164.33333333333334</ele><time>2026-04-19T10:06:28.385Z</time></trkpt><trkpt lat="40.4601606" lon="15.1953268"><ele>168.0</ele><time>2026-04-19T10:06:29.387Z</time></trkpt><trkpt lat="40.4601401" lon="15.1952026"><ele>171.66666666666666</ele><time>2026-04-19T10:06:30.385Z</time></trkpt><trkpt lat="40.4601219" lon="15.195103"><ele>175.33333333333331</ele><time>2026-04-19T10:06:31.385Z</time></trkpt><trkpt lat="40.4601058" lon="15.1950076"><ele>179.0</ele><time>2026-04-19T10:06:32.384Z</time></trkpt><trkpt lat="40.4600841" lon="15.1949145"><ele>180.16666666666666</ele><time>2026-04-19T10:06:33.385Z</time></trkpt><trkpt lat="40.4600517" lon="15.1948265"><ele>181.33333333333331</ele><time>2026-04-19T10:06:34.385Z</time></trkpt><trkpt lat="40.4600126" lon="15.1947423"><ele>182.5</ele><time>2026-04-19T10:06:35.385Z</time></trkpt><trkpt lat="40.4599687" lon="15.1946504"><ele>183.66666666666666</ele><time>2026-04-19T10:06:36.385Z</time></trkpt><trkpt lat="40.4599185" lon="15.1945556"><ele>184.83333333333334</ele><time>2026-04-19T10:06:37.385Z</time></trkpt><trkpt lat="40.4598609" lon="15.1944576"><ele>186.0</ele><time>2026-04-19T10:06:38.386Z</time></trkpt><trkpt lat="40.4598067" lon="15.1943468"><ele>186.0</ele><time>2026-04-19T10:06:39.386Z</time></trkpt><trkpt lat="40.459737" lon="15.1942188"><ele>186.0</ele><time>2026-04-19T10:06:40.384Z</time></trkpt><trkpt lat="40.4596736" lon="15.1941074"><ele>186.0</ele><time>2026-04-19T10:06:41.385Z</time></trkpt><trkpt lat="40.4596205" lon="15.1940132"><ele>186.0</ele><time>2026-04-19T10:06:42.384Z</time></trkpt><trkpt lat="40.4595801" lon="15.1939355"><ele>186.0</ele><time>2026-04-19T10:06:43.384Z</time></trkpt><trkpt lat="40.4595077" lon="15.1937986"><ele>188.71428571428572</ele><time>2026-04-19T10:06:45.384Z</time></trkpt><trkpt lat="40.4594475" lon="15.19374"><ele>191.42857142857144</ele><time>2026-04-19T10:06:47.385Z</time></trkpt><trkpt lat="40.459372" lon="15.19376"><ele>194.14285714285717</ele><time>2026-04-19T10:06:49.385Z</time></trkpt><trkpt lat="40.4593143" lon="15.1937934"><ele>196.85714285714286</ele><time>2026-04-19T10:06:50.385Z</time></trkpt><trkpt lat="40.4592559" lon="15.1938277"><ele>199.57142857142856</ele><time>2026-04-19T10:06:51.385Z</time></trkpt><trkpt lat="40.4591844" lon="15.1938648"><ele>202.2857142857143</ele><time>2026-04-19T10:06:52.384Z</time></trkpt><trkpt lat="40.45911" lon="15.1939029"><ele>205.0</ele><time>2026-04-19T10:06:53.384Z</time></trkpt><trkpt lat="40.4590335" lon="15.1939201"><ele>204.99999999999997</ele><time>2026-04-19T10:06:54.384Z</time></trkpt><trkpt lat="40.4589602" lon="15.1939159"><ele>205.0</ele><time>2026-04-19T10:06:55.385Z</time></trkpt><trkpt lat="40.4588875" lon="15.1938932"><ele>205.0</ele><time>2026-04-19T10:06:56.385Z</time></trkpt><trkpt lat="40.4588097" lon="15.19386"><ele>205.0</ele><time>2026-04-19T10:06:57.385Z</time></trkpt><trkpt lat="40.4587308" lon="15.1938135"><ele>204.99999999999997</ele><time>2026-04-19T10:06:58.384Z</time></trkpt><trkpt lat="40.4586493" lon="15.1937551"><ele>205.0</ele><time>2026-04-19T10:06:59.384Z</time></trkpt><trkpt lat="40.4585678" lon="15.1936815"><ele>207.49999999999997</ele><time>2026-04-19T10:07:00.385Z</time></trkpt><trkpt lat="40.4584935" lon="15.1935977"><ele>210.0</ele><time>2026-04-19T10:07:01.386Z</time></trkpt><trkpt lat="40.458429" lon="15.1935211"><ele>212.5</ele><time>2026-04-19T10:07:02.386Z</time></trkpt><trkpt lat="40.4583749" lon="15.1934544"><ele>215.0</ele><time>2026-04-19T10:07:03.386Z</time></trkpt><trkpt lat="40.4583234" lon="15.1933979"><ele>217.49999999999997</ele><time>2026-04-19T10:07:04.384Z</time></trkpt><trkpt lat="40.4582679" lon="15.193348"><ele>220.0</ele><time>2026-04-19T10:07:05.385Z</time></trkpt><trkpt lat="40.4581888" lon="15.1932952"><ele>220.0</ele><time>2026-04-19T10:07:07.386Z</time></trkpt><trkpt lat="40.4581096" lon="15.1933709"><ele>220.0</ele><time>2026-04-19T10:07:10.386Z</time></trkpt><trkpt lat="40.4580518" lon="15.1934685"><ele>220.0</ele><time>2026-04-19T10:07:12.385Z</time></trkpt><trkpt lat="40.4579805" lon="15.1935844"><ele>220.0</ele><time>2026-04-19T10:07:14.385Z</time></trkpt><trkpt lat="40.4579092" lon="15.1937077"><ele>220.0</ele><time>2026-04-19T10:07:16.385Z</time></trkpt><trkpt lat="40.4578499" lon="15.1938361"><ele>220.66666666666666</ele><time>2026-04-19T10:07:18.385Z</time></trkpt><trkpt lat="40.4578048" lon="15.194001"><ele>221.33333333333331</ele><time>2026-04-19T10:07:20.385Z</time></trkpt><trkpt lat="40.4577768" lon="15.1940956"><ele>222.0</ele><time>2026-04-19T10:07:21.384Z</time></trkpt><trkpt lat="40.4577497" lon="15.1941808"><ele>222.66666666666669</ele><time>2026-04-19T10:07:22.385Z</time></trkpt><trkpt lat="40.4577235" lon="15.1942622"><ele>223.33333333333334</ele><time>2026-04-19T10:07:23.386Z</time></trkpt><trkpt lat="40.457702" lon="15.1943503"><ele>224.0</ele><time>2026-04-19T10:07:24.385Z</time></trkpt><trkpt lat="40.4576846" lon="15.1944342"><ele>224.00000000000003</ele><time>2026-04-19T10:07:25.384Z</time></trkpt><trkpt lat="40.4576681" lon="15.1945246"><ele>224.0</ele><time>2026-04-19T10:07:26.386Z</time></trkpt><trkpt lat="40.4576505" lon="15.1946135"><ele>224.0</ele><time>2026-04-19T10:07:27.384Z</time></trkpt><trkpt lat="40.4576353" lon="15.1946975"><ele>224.0</ele><time>2026-04-19T10:07:28.384Z</time></trkpt><trkpt lat="40.45762" lon="15.1947808"><ele>224.00000000000003</ele><time>2026-04-19T10:07:29.385Z</time></trkpt><trkpt lat="40.4575975" lon="15.1948608"><ele>224.0</ele><time>2026-04-19T10:07:30.386Z</time></trkpt><trkpt lat="40.4575566" lon="15.1950064"><ele>223.00000000000003</ele><time>2026-04-19T10:07:32.384Z</time></trkpt><trkpt lat="40.457555" lon="15.1951571"><ele>222.0</ele><time>2026-04-19T10:07:34.386Z</time></trkpt><trkpt lat="40.4575715" lon="15.1952584"><ele>221.0</ele><time>2026-04-19T10:07:35.385Z</time></trkpt><trkpt lat="40.4575952" lon="15.1953694"><ele>220.0</ele><time>2026-04-19T10:07:36.384Z</time></trkpt><trkpt lat="40.4576116" lon="15.1954684"><ele>219.00000000000003</ele><time>2026-04-19T10:07:37.384Z</time></trkpt><trkpt lat="40.4576188" lon="15.1955583"><ele>218.0</ele><time>2026-04-19T10:07:38.384Z</time></trkpt><trkpt lat="40.4576508" lon="15.1956997"><ele>217.66666666666669</ele><time>2026-04-19T10:07:40.384Z</time></trkpt><trkpt lat="40.4577167" lon="15.1958357"><ele>217.33333333333334</ele><time>2026-04-19T10:07:42.386Z</time></trkpt><trkpt lat="40.4577619" lon="15.1958978"><ele>217.0</ele><time>2026-04-19T10:07:43.384Z</time></trkpt><trkpt lat="40.4578067" lon="15.1959563"><ele>216.66666666666669</ele><time>2026-04-19T10:07:44.384Z</time></trkpt><trkpt lat="40.4578533" lon="15.1960139"><ele>216.33333333333334</ele><time>2026-04-19T10:07:45.385Z</time></trkpt><trkpt lat="40.4579265" lon="15.1961328"><ele>216.0</ele><time>2026-04-19T10:07:47.384Z</time></trkpt><trkpt lat="40.4580002" lon="15.1962474"><ele>213.33333333333334</ele><time>2026-04-19T10:07:49.385Z</time></trkpt><trkpt lat="40.4580685" lon="15.1963512"><ele>210.66666666666669</ele><time>2026-04-19T10:07:51.384Z</time></trkpt><trkpt lat="40.4581073" lon="15.1964391"><ele>208.0</ele><time>2026-04-19T10:07:53.384Z</time></trkpt><trkpt lat="40.4581128" lon="15.1965371"><ele>205.33333333333334</ele><time>2026-04-19T10:07:56.385Z</time></trkpt><trkpt lat="40.4581059" lon="15.1966205"><ele>202.66666666666669</ele><time>2026-04-19T10:07:58.384Z</time></trkpt><trkpt lat="40.4580948" lon="15.1967068"><ele>200.0</ele><time>2026-04-19T10:08:00.384Z</time></trkpt><trkpt lat="40.4580837" lon="15.1967976"><ele>199.57142857142858</ele><time>2026-04-19T10:08:02.385Z</time></trkpt><trkpt lat="40.4580644" lon="15.1968924"><ele>199.14285714285714</ele><time>2026-04-19T10:08:04.384Z</time></trkpt><trkpt lat="40.4580456" lon="15.1969724"><ele>198.71428571428572</ele><time>2026-04-19T10:08:06.384Z</time></trkpt><trkpt lat="40.4580264" lon="15.1970563"><ele>198.28571428571428</ele><time>2026-04-19T10:08:08.384Z</time></trkpt><trkpt lat="40.458023" lon="15.1971566"><ele>197.85714285714286</ele><time>2026-04-19T10:08:11.385Z</time></trkpt><trkpt lat="40.4580182" lon="15.1972428"><ele>197.42857142857144</ele><time>2026-04-19T10:08:14.384Z</time></trkpt><trkpt lat="40.4580098" lon="15.1973465"><ele>197.0</ele><time>2026-04-19T10:08:19.384Z</time></trkpt><trkpt lat="40.4579604" lon="15.197449"><ele>194.8</ele><time>2026-04-19T10:08:22.385Z</time></trkpt><trkpt lat="40.4578966" lon="15.197487"><ele>192.6</ele><time>2026-04-19T10:08:24.385Z</time></trkpt><trkpt lat="40.457813" lon="15.1974928"><ele>190.4</ele><time>2026-04-19T10:08:27.385Z</time></trkpt><trkpt lat="40.4577361" lon="15.1975259"><ele>188.20000000000002</ele><time>2026-04-19T10:08:50.386Z</time></trkpt><trkpt lat="40.4576244" lon="15.1976"><ele>186.0</ele><time>2026-04-19T10:08:52.384Z</time></trkpt><trkpt lat="40.4575245" lon="15.1976944"><ele>186.0</ele><time>2026-04-19T10:08:54.384Z</time></trkpt><trkpt lat="40.4574826" lon="15.197828"><ele>186.0</ele><time>2026-04-19T10:08:56.385Z</time></trkpt><trkpt lat="40.4574924" lon="15.1979134"><ele>186.0</ele><time>2026-04-19T10:08:57.384Z</time></trkpt><trkpt lat="40.457517" lon="15.1980277"><ele>186.0</ele><time>2026-04-19T10:08:58.384Z</time></trkpt><trkpt lat="40.4575375" lon="15.1981404"><ele>186.0</ele><time>2026-04-19T10:08:59.384Z</time></trkpt><trkpt lat="40.4575564" lon="15.198246"><ele>186.0</ele><time>2026-04-19T10:09:00.384Z</time></trkpt><trkpt lat="40.4575663" lon="15.1983441"><ele>184.5</ele><time>2026-04-19T10:09:01.385Z</time></trkpt><trkpt lat="40.457569" lon="15.1984441"><ele>183.0</ele><time>2026-04-19T10:09:02.384Z</time></trkpt><trkpt lat="40.457565" lon="15.1985379"><ele>181.5</ele><time>2026-04-19T10:09:03.384Z</time></trkpt><trkpt lat="40.4575495" lon="15.1986362"><ele>180.0</ele><time>2026-04-19T10:09:04.384Z</time></trkpt><trkpt lat="40.4575224" lon="15.1987313"><ele>178.5</ele><time>2026-04-19T10:09:05.384Z</time></trkpt><trkpt lat="40.457453" lon="15.1988375"><ele>177.0</ele><time>2026-04-19T10:09:06.384Z</time></trkpt><trkpt lat="40.457392" lon="15.1989336"><ele>176.0</ele><time>2026-04-19T10:09:07.384Z</time></trkpt><trkpt lat="40.4573329" lon="15.199042"><ele>175.0</ele><time>2026-04-19T10:09:08.384Z</time></trkpt><trkpt lat="40.4572958" lon="15.1991339"><ele>174.0</ele><time>2026-04-19T10:09:09.385Z</time></trkpt><trkpt lat="40.4572794" lon="15.1992205"><ele>173.0</ele><time>2026-04-19T10:09:10.384Z</time></trkpt><trkpt lat="40.4572821" lon="15.199313"><ele>172.0</ele><time>2026-04-19T10:09:11.385Z</time></trkpt><trkpt lat="40.4573039" lon="15.1994135"><ele>171.0</ele><time>2026-04-19T10:09:12.384Z</time></trkpt><trkpt lat="40.4573417" lon="15.1995313"><ele>171.0</ele><time>2026-04-19T10:09:13.385Z</time></trkpt><trkpt lat="40.4573857" lon="15.1996594"><ele>171.0</ele><time>2026-04-19T10:09:14.384Z</time></trkpt><trkpt lat="40.4574411" lon="15.1998297"><ele>171.0</ele><time>2026-04-19T10:09:15.384Z</time></trkpt><trkpt lat="40.45749" lon="15.1999977"><ele>171.0</ele><time>2026-04-19T10:09:16.385Z</time></trkpt><trkpt lat="40.4575209" lon="15.2001547"><ele>171.0</ele><time>2026-04-19T10:09:17.384Z</time></trkpt><trkpt lat="40.4575471" lon="15.2003001"><ele>171.0</ele><time>2026-04-19T10:09:18.384Z</time></trkpt><trkpt lat="40.457555" lon="15.2004269"><ele>171.0</ele><time>2026-04-19T10:09:19.384Z</time></trkpt><trkpt lat="40.457553" lon="15.2005482"><ele>171.0</ele><time>2026-04-19T10:09:20.384Z</time></trkpt><trkpt lat="40.4575412" lon="15.2006583"><ele>171.0</ele><time>2026-04-19T10:09:21.384Z</time></trkpt><trkpt lat="40.4575248" lon="15.2007567"><ele>170.66666666666666</ele><time>2026-04-19T10:09:22.385Z</time></trkpt><trkpt lat="40.4575074" lon="15.2008554"><ele>170.33333333333334</ele><time>2026-04-19T10:09:23.384Z</time></trkpt><trkpt lat="40.4574822" lon="15.2009533"><ele>170.0</ele><time>2026-04-19T10:09:24.384Z</time></trkpt><trkpt lat="40.4574494" lon="15.2010497"><ele>169.66666666666669</ele><time>2026-04-19T10:09:25.384Z</time></trkpt><trkpt lat="40.4574161" lon="15.2011379"><ele>169.33333333333334</ele><time>2026-04-19T10:09:26.385Z</time></trkpt><trkpt lat="40.4573905" lon="15.2012173"><ele>169.0</ele><time>2026-04-19T10:09:27.384Z</time></trkpt><trkpt lat="40.4573502" lon="15.2013378"><ele>169.0</ele><time>2026-04-19T10:09:29.384Z</time></trkpt><trkpt lat="40.4573082" lon="15.2014599"><ele>169.0</ele><time>2026-04-19T10:09:31.384Z</time></trkpt><trkpt lat="40.4572472" lon="15.2015935"><ele>169.0</ele><time>2026-04-19T10:09:33.384Z</time></trkpt><trkpt lat="40.4571836" lon="15.2017189"><ele>169.0</ele><time>2026-04-19T10:09:35.385Z</time></trkpt><trkpt lat="40.4571262" lon="15.2018467"><ele>169.0</ele><time>2026-04-19T10:09:37.383Z</time></trkpt><trkpt lat="40.4570752" lon="15.2019781"><ele>167.0</ele><time>2026-04-19T10:09:39.386Z</time></trkpt><trkpt lat="40.4570361" lon="15.2021065"><ele>165.0</ele><time>2026-04-19T10:09:41.384Z</time></trkpt><trkpt lat="40.4570169" lon="15.2022412"><ele>163.0</ele><time>2026-04-19T10:09:43.385Z</time></trkpt><trkpt lat="40.4570159" lon="15.2023798"><ele>161.0</ele><time>2026-04-19T10:09:45.386Z</time></trkpt><trkpt lat="40.4570035" lon="15.2025067"><ele>159.0</ele><time>2026-04-19T10:09:47.384Z</time></trkpt><trkpt lat="40.4569849" lon="15.2026429"><ele>156.0</ele><time>2026-04-19T10:09:49.384Z</time></trkpt><trkpt lat="40.4569662" lon="15.2027785"><ele>153.0</ele><time>2026-04-19T10:09:51.384Z</time></trkpt><trkpt lat="40.4569349" lon="15.2028985"><ele>150.0</ele><time>2026-04-19T10:09:53.384Z</time></trkpt><trkpt lat="40.4569058" lon="15.2030222"><ele>147.0</ele><time>2026-04-19T10:09:55.384Z</time></trkpt><trkpt lat="40.4568804" lon="15.2031328"><ele>144.0</ele><time>2026-04-19T10:09:57.383Z</time></trkpt><trkpt lat="40.456835" lon="15.2032389"><ele>142.16666666666666</ele><time>2026-04-19T10:09:59.383Z</time></trkpt><trkpt lat="40.4567769" lon="15.2033533"><ele>140.33333333333334</ele><time>2026-04-19T10:10:01.383Z</time></trkpt><trkpt lat="40.4567418" lon="15.2034957"><ele>138.5</ele><time>2026-04-19T10:10:03.384Z</time></trkpt><trkpt lat="40.456719" lon="15.2035827"><ele>136.66666666666669</ele><time>2026-04-19T10:10:04.384Z</time></trkpt><trkpt lat="40.4566911" lon="15.2036699"><ele>134.83333333333334</ele><time>2026-04-19T10:10:05.384Z</time></trkpt><trkpt lat="40.4566585" lon="15.2037557"><ele>133.0</ele><time>2026-04-19T10:10:06.385Z</time></trkpt><trkpt lat="40.4566229" lon="15.2038427"><ele>133.0</ele><time>2026-04-19T10:10:07.384Z</time></trkpt><trkpt lat="40.4565933" lon="15.2039317"><ele>133.0</ele><time>2026-04-19T10:10:08.383Z</time></trkpt><trkpt lat="40.4565823" lon="15.2040204"><ele>133.0</ele><time>2026-04-19T10:10:09.384Z</time></trkpt><trkpt lat="40.456595" lon="15.2041135"><ele>133.0</ele><time>2026-04-19T10:10:10.384Z</time></trkpt><trkpt lat="40.4566301" lon="15.204221"><ele>133.0</ele><time>2026-04-19T10:10:11.384Z</time></trkpt><trkpt lat="40.4566661" lon="15.2043235"><ele>133.0</ele><time>2026-04-19T10:10:12.384Z</time></trkpt><trkpt lat="40.4566994" lon="15.2044279"><ele>131.33333333333334</ele><time>2026-04-19T10:10:13.384Z</time></trkpt><trkpt lat="40.4567258" lon="15.2045279"><ele>129.66666666666669</ele><time>2026-04-19T10:10:14.383Z</time></trkpt><trkpt lat="40.4567456" lon="15.2046246"><ele>128.0</ele><time>2026-04-19T10:10:15.384Z</time></trkpt><trkpt lat="40.4567446" lon="15.2047265"><ele>126.33333333333334</ele><time>2026-04-19T10:10:16.385Z</time></trkpt><trkpt lat="40.4567362" lon="15.2048398"><ele>124.66666666666667</ele><time>2026-04-19T10:10:17.384Z</time></trkpt><trkpt lat="40.4567185" lon="15.20495"><ele>123.0</ele><time>2026-04-19T10:10:18.384Z</time></trkpt><trkpt lat="40.4566996" lon="15.2050691"><ele>121.33333333333333</ele><time>2026-04-19T10:10:19.385Z</time></trkpt><trkpt lat="40.4566873" lon="15.2051905"><ele>119.66666666666666</ele><time>2026-04-19T10:10:20.385Z</time></trkpt><trkpt lat="40.4566834" lon="15.2053069"><ele>118.0</ele><time>2026-04-19T10:10:21.383Z</time></trkpt><trkpt lat="40.4566758" lon="15.2054141"><ele>116.33333333333333</ele><time>2026-04-19T10:10:22.384Z</time></trkpt><trkpt lat="40.4566694" lon="15.2055183"><ele>114.66666666666666</ele><time>2026-04-19T10:10:23.384Z</time></trkpt><trkpt lat="40.4566662" lon="15.2056265"><ele>113.0</ele><time>2026-04-19T10:10:24.384Z</time></trkpt><trkpt lat="40.4566588" lon="15.20572"><ele>111.99999999999999</ele><time>2026-04-19T10:10:25.384Z</time></trkpt><trkpt lat="40.4566512" lon="15.2058139"><ele>111.0</ele><time>2026-04-19T10:10:26.384Z</time></trkpt><trkpt lat="40.456636" lon="15.2058996"><ele>110.0</ele><time>2026-04-19T10:10:27.384Z</time></trkpt><trkpt lat="40.4565875" lon="15.206012"><ele>109.0</ele><time>2026-04-19T10:10:29.384Z</time></trkpt><trkpt lat="40.4565792" lon="15.2061159"><ele>107.99999999999999</ele><time>2026-04-19T10:10:32.384Z</time></trkpt><trkpt lat="40.4565916" lon="15.2062052"><ele>107.0</ele><time>2026-04-19T10:10:34.383Z</time></trkpt><trkpt lat="40.4565819" lon="15.2063348"><ele>106.99999999999999</ele><time>2026-04-19T10:10:36.384Z</time></trkpt><trkpt lat="40.4565502" lon="15.2064818"><ele>107.0</ele><time>2026-04-19T10:10:38.384Z</time></trkpt><trkpt lat="40.4565138" lon="15.2065719"><ele>107.0</ele><time>2026-04-19T10:10:39.383Z</time></trkpt><trkpt lat="40.456481" lon="15.2066552"><ele>107.0</ele><time>2026-04-19T10:10:40.384Z</time></trkpt><trkpt lat="40.456445" lon="15.2067495"><ele>106.99999999999999</ele><time>2026-04-19T10:10:41.385Z</time></trkpt><trkpt lat="40.4564098" lon="15.2068486"><ele>107.0</ele><time>2026-04-19T10:10:42.385Z</time></trkpt><trkpt lat="40.4563811" lon="15.2069434"><ele>106.33333333333333</ele><time>2026-04-19T10:10:43.384Z</time></trkpt><trkpt lat="40.456355" lon="15.2070457"><ele>105.66666666666666</ele><time>2026-04-19T10:10:44.384Z</time></trkpt><trkpt lat="40.4563407" lon="15.207143"><ele>105.0</ele><time>2026-04-19T10:10:45.384Z</time></trkpt><trkpt lat="40.4563296" lon="15.2072301"><ele>104.33333333333334</ele><time>2026-04-19T10:10:46.385Z</time></trkpt><trkpt lat="40.4563282" lon="15.2073162"><ele>103.66666666666667</ele><time>2026-04-19T10:10:47.383Z</time></trkpt><trkpt lat="40.4563291" lon="15.2074747"><ele>103.0</ele><time>2026-04-19T10:10:49.384Z</time></trkpt><trkpt lat="40.4563021" lon="15.2076159"><ele>101.16666666666667</ele><time>2026-04-19T10:10:51.385Z</time></trkpt><trkpt lat="40.4561927" lon="15.2076926"><ele>99.33333333333334</ele><time>2026-04-19T10:10:53.384Z</time></trkpt><trkpt lat="40.456135" lon="15.2077333"><ele>97.5</ele><time>2026-04-19T10:10:54.383Z</time></trkpt><trkpt lat="40.4560757" lon="15.2077729"><ele>95.66666666666667</ele><time>2026-04-19T10:10:55.384Z</time></trkpt><trkpt lat="40.4559921" lon="15.2078477"><ele>93.83333333333334</ele><time>2026-04-19T10:10:57.384Z</time></trkpt><trkpt lat="40.4559454" lon="15.207908"><ele>92.0</ele><time>2026-04-19T10:10:59.383Z</time></trkpt><trkpt lat="40.4558679" lon="15.2079442"><ele>92.0</ele><time>2026-04-19T10:11:01.384Z</time></trkpt><trkpt lat="40.4557698" lon="15.2079854"><ele>92.0</ele><time>2026-04-19T10:11:03.384Z</time></trkpt><trkpt lat="40.4556872" lon="15.2080625"><ele>92.0</ele><time>2026-04-19T10:11:05.386Z</time></trkpt><trkpt lat="40.4556226" lon="15.2081262"><ele>92.0</ele><time>2026-04-19T10:11:07.383Z</time></trkpt><trkpt lat="40.4555379" lon="15.2081903"><ele>92.0</ele><time>2026-04-19T10:11:09.383Z</time></trkpt><trkpt lat="40.4554278" lon="15.2082229"><ele>92.19999999999999</ele><time>2026-04-19T10:11:11.384Z</time></trkpt><trkpt lat="40.4553157" lon="15.2082106"><ele>92.4</ele><time>2026-04-19T10:11:13.384Z</time></trkpt><trkpt lat="40.4552512" lon="15.2081991"><ele>92.6</ele><time>2026-04-19T10:11:15.384Z</time></trkpt><trkpt lat="40.4551786" lon="15.2082199"><ele>92.80000000000001</ele><time>2026-04-19T10:11:17.384Z</time></trkpt><trkpt lat="40.4550378" lon="15.2082376"><ele>93.0</ele><time>2026-04-19T10:11:19.383Z</time></trkpt><trkpt lat="40.4549529" lon="15.2082574"><ele>93.0</ele><time>2026-04-19T10:11:20.384Z</time></trkpt><trkpt lat="40.454873" lon="15.2082695"><ele>93.0</ele><time>2026-04-19T10:11:21.385Z</time></trkpt><trkpt lat="40.4547871" lon="15.2082892"><ele>93.0</ele><time>2026-04-19T10:11:22.383Z</time></trkpt><trkpt lat="40.4546989" lon="15.2083241"><ele>93.0</ele><time>2026-04-19T10:11:23.383Z</time></trkpt><trkpt lat="40.454616" lon="15.2083602"><ele>93.0</ele><time>2026-04-19T10:11:24.384Z</time></trkpt><trkpt lat="40.4545363" lon="15.2083988"><ele>93.0</ele><time>2026-04-19T10:11:25.384Z</time></trkpt><trkpt lat="40.4544678" lon="15.2084283"><ele>92.80000000000001</ele><time>2026-04-19T10:11:26.384Z</time></trkpt><trkpt lat="40.4543574" lon="15.2084907"><ele>92.6</ele><time>2026-04-19T10:11:28.384Z</time></trkpt><trkpt lat="40.4543061" lon="15.2086249"><ele>92.4</ele><time>2026-04-19T10:11:30.385Z</time></trkpt><trkpt lat="40.4542874" lon="15.2087144"><ele>92.19999999999999</ele><time>2026-04-19T10:11:31.384Z</time></trkpt><trkpt lat="40.4542612" lon="15.2088488"><ele>92.0</ele><time>2026-04-19T10:11:33.383Z</time></trkpt><trkpt lat="40.4542013" lon="15.2089019"><ele>92.0</ele><time>2026-04-19T10:11:35.385Z</time></trkpt><trkpt lat="40.4541152" lon="15.2088818"><ele>92.0</ele><time>2026-04-19T10:11:37.383Z</time></trkpt><trkpt lat="40.4540164" lon="15.2088513"><ele>92.0</ele><time>2026-04-19T10:11:39.384Z</time></trkpt><trkpt lat="40.4538936" lon="15.2088203"><ele>92.0</ele><time>2026-04-19T10:11:41.384Z</time></trkpt><trkpt lat="40.4538236" lon="15.208804"><ele>92.0</ele><time>2026-04-19T10:11:42.385Z</time></trkpt><trkpt lat="40.4537458" lon="15.2087895"><ele>91.66666666666667</ele><time>2026-04-19T10:11:43.384Z</time></trkpt><trkpt lat="40.4536593" lon="15.2087763"><ele>91.33333333333334</ele><time>2026-04-19T10:11:44.384Z</time></trkpt><trkpt lat="40.4535746" lon="15.2087615"><ele>91.0</ele><time>2026-04-19T10:11:45.385Z</time></trkpt><trkpt lat="40.4534885" lon="15.208748"><ele>90.66666666666667</ele><time>2026-04-19T10:11:46.384Z</time></trkpt><trkpt lat="40.4533974" lon="15.2087265"><ele>90.33333333333333</ele><time>2026-04-19T10:11:47.384Z</time></trkpt><trkpt lat="40.453306" lon="15.2087085"><ele>90.0</ele><time>2026-04-19T10:11:48.383Z</time></trkpt><trkpt lat="40.4532201" lon="15.2086892"><ele>90.0</ele><time>2026-04-19T10:11:49.384Z</time></trkpt><trkpt lat="40.4531317" lon="15.2086745"><ele>90.0</ele><time>2026-04-19T10:11:50.383Z</time></trkpt><trkpt lat="40.4530419" lon="15.2086585"><ele>90.0</ele><time>2026-04-19T10:11:51.385Z</time></trkpt><trkpt lat="40.4529464" lon="15.2086398"><ele>90.0</ele><time>2026-04-19T10:11:52.383Z</time></trkpt><trkpt lat="40.4528525" lon="15.2086194"><ele>90.0</ele><time>2026-04-19T10:11:53.384Z</time></trkpt><trkpt lat="40.4527565" lon="15.208598"><ele>90.2</ele><time>2026-04-19T10:11:54.383Z</time></trkpt><trkpt lat="40.452664" lon="15.2085819"><ele>90.4</ele><time>2026-04-19T10:11:55.383Z</time></trkpt><trkpt lat="40.4525662" lon="15.2085649"><ele>90.6</ele><time>2026-04-19T10:11:56.384Z</time></trkpt><trkpt lat="40.4524688" lon="15.2085404"><ele>90.8</ele><time>2026-04-19T10:11:57.384Z</time></trkpt><trkpt lat="40.4523731" lon="15.2085199"><ele>91.0</ele><time>2026-04-19T10:11:58.385Z</time></trkpt><trkpt lat="40.4522777" lon="15.2084973"><ele>91.0</ele><time>2026-04-19T10:11:59.384Z</time></trkpt><trkpt lat="40.4521805" lon="15.2084757"><ele>91.0</ele><time>2026-04-19T10:12:00.384Z</time></trkpt><trkpt lat="40.4520768" lon="15.2084566"><ele>91.0</ele><time>2026-04-19T10:12:01.383Z</time></trkpt><trkpt lat="40.4519724" lon="15.2084411"><ele>91.0</ele><time>2026-04-19T10:12:02.383Z</time></trkpt><trkpt lat="40.4518622" lon="15.208426"><ele>91.0</ele><time>2026-04-19T10:12:03.384Z</time></trkpt><trkpt lat="40.4517589" lon="15.2084103"><ele>91.0</ele><time>2026-04-19T10:12:04.383Z</time></trkpt><trkpt lat="40.451656" lon="15.2083958"><ele>91.0</ele><time>2026-04-19T10:12:05.384Z</time></trkpt><trkpt lat="40.4515557" lon="15.2083852"><ele>91.0</ele><time>2026-04-19T10:12:06.385Z</time></trkpt><trkpt lat="40.4514588" lon="15.2083728"><ele>91.0</ele><time>2026-04-19T10:12:07.384Z</time></trkpt><trkpt lat="40.45136" lon="15.208363"><ele>91.0</ele><time>2026-04-19T10:12:08.384Z</time></trkpt><trkpt lat="40.4512695" lon="15.2083541"><ele>91.16666666666666</ele><time>2026-04-19T10:12:09.384Z</time></trkpt><trkpt lat="40.4511759" lon="15.2083479"><ele>91.33333333333333</ele><time>2026-04-19T10:12:10.384Z</time></trkpt><trkpt lat="40.4510921" lon="15.208342"><ele>91.5</ele><time>2026-04-19T10:12:11.383Z</time></trkpt><trkpt lat="40.4510134" lon="15.2083362"><ele>91.66666666666667</ele><time>2026-04-19T10:12:12.383Z</time></trkpt><trkpt lat="40.4509077" lon="15.2083059"><ele>91.83333333333334</ele><time>2026-04-19T10:12:14.385Z</time></trkpt><trkpt lat="40.4508689" lon="15.2082075"><ele>92.0</ele><time>2026-04-19T10:12:16.384Z</time></trkpt><trkpt lat="40.4508698" lon="15.2081161"><ele>92.5</ele><time>2026-04-19T10:12:17.384Z</time></trkpt><trkpt lat="40.4508821" lon="15.2080019"><ele>93.0</ele><time>2026-04-19T10:12:18.383Z</time></trkpt><trkpt lat="40.4508884" lon="15.2079068"><ele>93.5</ele><time>2026-04-19T10:12:19.383Z</time></trkpt><trkpt lat="40.4508831" lon="15.2078169"><ele>94.0</ele><time>2026-04-19T10:12:20.384Z</time></trkpt><trkpt lat="40.4508657" lon="15.2077164"><ele>94.5</ele><time>2026-04-19T10:12:21.383Z</time></trkpt><trkpt lat="40.4508416" lon="15.2076396"><ele>95.0</ele><time>2026-04-19T10:12:22.384Z</time></trkpt><trkpt lat="40.4507772" lon="15.2075555"><ele>95.0</ele><time>2026-04-19T10:12:24.383Z</time></trkpt><trkpt lat="40.4506977" lon="15.2075632"><ele>95.0</ele><time>2026-04-19T10:12:26.383Z</time></trkpt><trkpt lat="40.4506014" lon="15.2076797"><ele>95.0</ele><time>2026-04-19T10:12:28.383Z</time></trkpt><trkpt lat="40.4505483" lon="15.2077817"><ele>95.0</ele><time>2026-04-19T10:12:29.384Z</time></trkpt><trkpt lat="40.4504979" lon="15.2078877"><ele>95.0</ele><time>2026-04-19T10:12:30.384Z</time></trkpt><trkpt lat="40.4504375" lon="15.2080033"><ele>94.75</ele><time>2026-04-19T10:12:31.383Z</time></trkpt><trkpt lat="40.4503683" lon="15.2081203"><ele>94.5</ele><time>2026-04-19T10:12:32.383Z</time></trkpt><trkpt lat="40.4502899" lon="15.208224"><ele>94.25</ele><time>2026-04-19T10:12:33.384Z</time></trkpt><trkpt lat="40.4501958" lon="15.2083089"><ele>94.0</ele><time>2026-04-19T10:12:34.383Z</time></trkpt><trkpt lat="40.4500967" lon="15.2083811"><ele>94.0</ele><time>2026-04-19T10:12:35.384Z</time></trkpt><trkpt lat="40.4499995" lon="15.2084508"><ele>94.0</ele><time>2026-04-19T10:12:36.383Z</time></trkpt><trkpt lat="40.4499121" lon="15.2085103"><ele>94.0</ele><time>2026-04-19T10:12:37.383Z</time></trkpt><trkpt lat="40.4498316" lon="15.2085591"><ele>94.0</ele><time>2026-04-19T10:12:38.384Z</time></trkpt><trkpt lat="40.4497542" lon="15.2086055"><ele>94.0</ele><time>2026-04-19T10:12:39.383Z</time></trkpt><trkpt lat="40.4496788" lon="15.2086515"><ele>94.4</ele><time>2026-04-19T10:12:40.385Z</time></trkpt><trkpt lat="40.4496032" lon="15.2086966"><ele>94.80000000000001</ele><time>2026-04-19T10:12:41.384Z</time></trkpt><trkpt lat="40.4495275" lon="15.208738"><ele>95.19999999999999</ele><time>2026-04-19T10:12:42.383Z</time></trkpt><trkpt lat="40.4494605" lon="15.2087778"><ele>95.6</ele><time>2026-04-19T10:12:43.384Z</time></trkpt><trkpt lat="40.4493616" lon="15.2088915"><ele>96.0</ele><time>2026-04-19T10:12:45.384Z</time></trkpt><trkpt lat="40.4493253" lon="15.2090001"><ele>96.0</ele><time>2026-04-19T10:12:46.384Z</time></trkpt><trkpt lat="40.4492995" lon="15.2091332"><ele>96.0</ele><time>2026-04-19T10:12:47.384Z</time></trkpt><trkpt lat="40.449277" lon="15.2092825"><ele>96.0</ele><time>2026-04-19T10:12:48.383Z</time></trkpt><trkpt lat="40.4492558" lon="15.2094285"><ele>96.0</ele><time>2026-04-19T10:12:49.383Z</time></trkpt><trkpt lat="40.4492376" lon="15.2095696"><ele>96.0</ele><time>2026-04-19T10:12:50.384Z</time></trkpt><trkpt lat="40.4492176" lon="15.2097093"><ele>95.8</ele><time>2026-04-19T10:12:51.384Z</time></trkpt><trkpt lat="40.4492036" lon="15.2098461"><ele>95.6</ele><time>2026-04-19T10:12:52.383Z</time></trkpt><trkpt lat="40.4491927" lon="15.209979"><ele>95.4</ele><time>2026-04-19T10:12:53.383Z</time></trkpt><trkpt lat="40.449179" lon="15.2101064"><ele>95.2</ele><time>2026-04-19T10:12:54.383Z</time></trkpt><trkpt lat="40.4491635" lon="15.2102358"><ele>95.0</ele><time>2026-04-19T10:12:55.384Z</time></trkpt><trkpt lat="40.4491458" lon="15.2103577"><ele>95.0</ele><time>2026-04-19T10:12:56.384Z</time></trkpt><trkpt lat="40.449128" lon="15.2104841"><ele>95.0</ele><time>2026-04-19T10:12:57.386Z</time></trkpt><trkpt lat="40.4491045" lon="15.2106052"><ele>95.0</ele><time>2026-04-19T10:12:58.383Z</time></trkpt><trkpt lat="40.4490804" lon="15.2107431"><ele>95.0</ele><time>2026-04-19T10:12:59.384Z</time></trkpt><trkpt lat="40.4490561" lon="15.2108811"><ele>95.0</ele><time>2026-04-19T10:13:00.383Z</time></trkpt><trkpt lat="40.449033" lon="15.2110232"><ele>95.0</ele><time>2026-04-19T10:13:01.383Z</time></trkpt><trkpt lat="40.4490189" lon="15.2111594"><ele>95.0</ele><time>2026-04-19T10:13:02.383Z</time></trkpt><trkpt lat="40.4490161" lon="15.2112881"><ele>95.0</ele><time>2026-04-19T10:13:03.383Z</time></trkpt><trkpt lat="40.4490107" lon="15.2114118"><ele>95.0</ele><time>2026-04-19T10:13:04.384Z</time></trkpt><trkpt lat="40.4490039" lon="15.2115379"><ele>95.0</ele><time>2026-04-19T10:13:05.384Z</time></trkpt><trkpt lat="40.4490006" lon="15.2116595"><ele>95.0</ele><time>2026-04-19T10:13:06.383Z</time></trkpt><trkpt lat="40.4490032" lon="15.211782"><ele>95.0</ele><time>2026-04-19T10:13:07.383Z</time></trkpt><trkpt lat="40.449001" lon="15.2118932"><ele>95.0</ele><time>2026-04-19T10:13:08.384Z</time></trkpt><trkpt lat="40.4489969" lon="15.2120078"><ele>95.0</ele><time>2026-04-19T10:13:09.383Z</time></trkpt><trkpt lat="40.4489947" lon="15.2121291"><ele>95.0</ele><time>2026-04-19T10:13:10.384Z</time></trkpt><trkpt lat="40.4489994" lon="15.212247"><ele>95.0</ele><time>2026-04-19T10:13:11.383Z</time></trkpt><trkpt lat="40.4490185" lon="15.2123681"><ele>95.0</ele><time>2026-04-19T10:13:12.383Z</time></trkpt><trkpt lat="40.4490503" lon="15.2124875"><ele>95.0</ele><time>2026-04-19T10:13:13.384Z</time></trkpt><trkpt lat="40.4490888" lon="15.2125995"><ele>95.0</ele><time>2026-04-19T10:13:14.384Z</time></trkpt><trkpt lat="40.4491304" lon="15.2127048"><ele>95.0</ele><time>2026-04-19T10:13:15.383Z</time></trkpt><trkpt lat="40.4491699" lon="15.2128131"><ele>95.0</ele><time>2026-04-19T10:13:16.385Z</time></trkpt><trkpt lat="40.4492068" lon="15.2129165"><ele>95.0</ele><time>2026-04-19T10:13:17.384Z</time></trkpt><trkpt lat="40.4492387" lon="15.2130105"><ele>95.0</ele><time>2026-04-19T10:13:18.384Z</time></trkpt><trkpt lat="40.449272" lon="15.2131038"><ele>95.0</ele><time>2026-04-19T10:13:19.383Z</time></trkpt><trkpt lat="40.4493063" lon="15.2132018"><ele>95.0</ele><time>2026-04-19T10:13:20.383Z</time></trkpt><trkpt lat="40.4493397" lon="15.2133146"><ele>95.0</ele><time>2026-04-19T10:13:21.383Z</time></trkpt><trkpt lat="40.4493786" lon="15.2134345"><ele>95.0</ele><time>2026-04-19T10:13:22.383Z</time></trkpt><trkpt lat="40.4494205" lon="15.2135621"><ele>95.75</ele><time>2026-04-19T10:13:23.384Z</time></trkpt><trkpt lat="40.4494611" lon="15.2136933"><ele>96.5</ele><time>2026-04-19T10:13:24.384Z</time></trkpt><trkpt lat="40.4495009" lon="15.2138306"><ele>97.25</ele><time>2026-04-19T10:13:25.384Z</time></trkpt><trkpt lat="40.4495408" lon="15.2139739"><ele>98.0</ele><time>2026-04-19T10:13:26.385Z</time></trkpt><trkpt lat="40.449574" lon="15.2141305"><ele>98.75</ele><time>2026-04-19T10:13:27.384Z</time></trkpt><trkpt lat="40.4496053" lon="15.2142968"><ele>99.5</ele><time>2026-04-19T10:13:28.383Z</time></trkpt><trkpt lat="40.4496362" lon="15.2144699"><ele>100.25</ele><time>2026-04-19T10:13:29.383Z</time></trkpt><trkpt lat="40.4496663" lon="15.2146594"><ele>101.0</ele><time>2026-04-19T10:13:30.383Z</time></trkpt><trkpt lat="40.4496965" lon="15.2148425"><ele>99.0</ele><time>2026-04-19T10:13:31.385Z</time></trkpt><trkpt lat="40.4497246" lon="15.2150103"><ele>97.0</ele><time>2026-04-19T10:13:32.383Z</time></trkpt><trkpt lat="40.4497521" lon="15.215171"><ele>95.0</ele><time>2026-04-19T10:13:33.383Z</time></trkpt><trkpt lat="40.4497841" lon="15.215322"><ele>93.0</ele><time>2026-04-19T10:13:34.385Z</time></trkpt><trkpt lat="40.4498217" lon="15.2154698"><ele>93.0</ele><time>2026-04-19T10:13:35.383Z</time></trkpt><trkpt lat="40.4498689" lon="15.2156122"><ele>93.0</ele><time>2026-04-19T10:13:36.383Z</time></trkpt><trkpt lat="40.4499159" lon="15.21575"><ele>93.0</ele><time>2026-04-19T10:13:37.384Z</time></trkpt><trkpt lat="40.4499575" lon="15.2158752"><ele>93.0</ele><time>2026-04-19T10:13:38.383Z</time></trkpt><trkpt lat="40.4499924" lon="15.2159956"><ele>93.0</ele><time>2026-04-19T10:13:39.384Z</time></trkpt><trkpt lat="40.4500178" lon="15.2161124"><ele>93.2</ele><time>2026-04-19T10:13:40.383Z</time></trkpt><trkpt lat="40.4500166" lon="15.2162329"><ele>93.4</ele><time>2026-04-19T10:13:41.384Z</time></trkpt><trkpt lat="40.4499921" lon="15.2163535"><ele>93.60000000000001</ele><time>2026-04-19T10:13:42.383Z</time></trkpt><trkpt lat="40.4499545" lon="15.2164663"><ele>93.80000000000001</ele><time>2026-04-19T10:13:43.384Z</time></trkpt><trkpt lat="40.4498861" lon="15.2165976"><ele>94.0</ele><time>2026-04-19T10:13:44.383Z</time></trkpt><trkpt lat="40.4498206" lon="15.21671"><ele>94.2</ele><time>2026-04-19T10:13:45.384Z</time></trkpt><trkpt lat="40.4497558" lon="15.2168208"><ele>94.4</ele><time>2026-04-19T10:13:46.383Z</time></trkpt><trkpt lat="40.449691" lon="15.2169364"><ele>94.6</ele><time>2026-04-19T10:13:47.384Z</time></trkpt><trkpt lat="40.4496318" lon="15.2170516"><ele>94.8</ele><time>2026-04-19T10:13:48.384Z</time></trkpt><trkpt lat="40.4495589" lon="15.217158"><ele>95.0</ele><time>2026-04-19T10:13:49.384Z</time></trkpt><trkpt lat="40.4494769" lon="15.217261"><ele>96.5</ele><time>2026-04-19T10:13:50.384Z</time></trkpt><trkpt lat="40.4493818" lon="15.2173645"><ele>98.0</ele><time>2026-04-19T10:13:51.383Z</time></trkpt><trkpt lat="40.4492836" lon="15.217481"><ele>99.5</ele><time>2026-04-19T10:13:52.383Z</time></trkpt><trkpt lat="40.4491822" lon="15.2176009"><ele>101.0</ele><time>2026-04-19T10:13:53.383Z</time></trkpt><trkpt lat="40.4490812" lon="15.2177219"><ele>101.0</ele><time>2026-04-19T10:13:54.383Z</time></trkpt><trkpt lat="40.448982" lon="15.2178337"><ele>101.0</ele><time>2026-04-19T10:13:55.383Z</time></trkpt><trkpt lat="40.4488867" lon="15.2179246"><ele>101.0</ele><time>2026-04-19T10:13:56.383Z</time></trkpt><trkpt lat="40.4487904" lon="15.2179968"><ele>101.0</ele><time>2026-04-19T10:13:57.384Z</time></trkpt><trkpt lat="40.4486914" lon="15.2180416"><ele>102.19999999999999</ele><time>2026-04-19T10:13:58.383Z</time></trkpt><trkpt lat="40.4485856" lon="15.2180551"><ele>103.39999999999999</ele><time>2026-04-19T10:13:59.384Z</time></trkpt><trkpt lat="40.4484757" lon="15.2180428"><ele>104.6</ele><time>2026-04-19T10:14:00.384Z</time></trkpt><trkpt lat="40.4483864" lon="15.2180089"><ele>105.8</ele><time>2026-04-19T10:14:01.383Z</time></trkpt><trkpt lat="40.4483151" lon="15.2179448"><ele>107.0</ele><time>2026-04-19T10:14:02.383Z</time></trkpt><trkpt lat="40.4482634" lon="15.2178609"><ele>107.0</ele><time>2026-04-19T10:14:03.383Z</time></trkpt><trkpt lat="40.4482182" lon="15.2177569"><ele>106.99999999999999</ele><time>2026-04-19T10:14:04.384Z</time></trkpt><trkpt lat="40.4481582" lon="15.2176537"><ele>106.99999999999999</ele><time>2026-04-19T10:14:05.383Z</time></trkpt><trkpt lat="40.4480907" lon="15.2175589"><ele>107.0</ele><time>2026-04-19T10:14:06.383Z</time></trkpt><trkpt lat="40.4479967" lon="15.2174706"><ele>107.0</ele><time>2026-04-19T10:14:07.383Z</time></trkpt><trkpt lat="40.4478909" lon="15.2174028"><ele>108.19999999999999</ele><time>2026-04-19T10:14:08.383Z</time></trkpt><trkpt lat="40.4477784" lon="15.2173564"><ele>109.39999999999999</ele><time>2026-04-19T10:14:09.385Z</time></trkpt><trkpt lat="40.4476768" lon="15.2173234"><ele>110.60000000000001</ele><time>2026-04-19T10:14:10.383Z</time></trkpt><trkpt lat="40.4475758" lon="15.2173118"><ele>111.80000000000001</ele><time>2026-04-19T10:14:11.383Z</time></trkpt><trkpt lat="40.4474693" lon="15.2173235"><ele>113.0</ele><time>2026-04-19T10:14:12.385Z</time></trkpt><trkpt lat="40.4473595" lon="15.2173535"><ele>114.75</ele><time>2026-04-19T10:14:13.383Z</time></trkpt><trkpt lat="40.4472519" lon="15.2174078"><ele>116.5</ele><time>2026-04-19T10:14:14.384Z</time></trkpt><trkpt lat="40.4471495" lon="15.2174942"><ele>118.25</ele><time>2026-04-19T10:14:15.383Z</time></trkpt><trkpt lat="40.4470565" lon="15.2176004"><ele>120.0</ele><time>2026-04-19T10:14:16.384Z</time></trkpt><trkpt lat="40.4469671" lon="15.2177183"><ele>120.0</ele><time>2026-04-19T10:14:17.384Z</time></trkpt><trkpt lat="40.4468818" lon="15.2178468"><ele>120.0</ele><time>2026-04-19T10:14:18.383Z</time></trkpt><trkpt lat="40.4467933" lon="15.2179669"><ele>120.0</ele><time>2026-04-19T10:14:19.383Z</time></trkpt><trkpt lat="40.4467068" lon="15.2180803"><ele>120.0</ele><time>2026-04-19T10:14:20.384Z</time></trkpt><trkpt lat="40.4466203" lon="15.2181995"><ele>120.0</ele><time>2026-04-19T10:14:21.383Z</time></trkpt><trkpt lat="40.4465405" lon="15.21832"><ele>120.0</ele><time>2026-04-19T10:14:22.384Z</time></trkpt><trkpt lat="40.4464665" lon="15.2184385"><ele>120.0</ele><time>2026-04-19T10:14:23.383Z</time></trkpt><trkpt lat="40.446392" lon="15.2185491"><ele>120.0</ele><time>2026-04-19T10:14:24.383Z</time></trkpt><trkpt lat="40.4463211" lon="15.2186574"><ele>120.5</ele><time>2026-04-19T10:14:25.383Z</time></trkpt><trkpt lat="40.4462489" lon="15.2187747"><ele>121.0</ele><time>2026-04-19T10:14:26.384Z</time></trkpt><trkpt lat="40.4461859" lon="15.2188977"><ele>121.5</ele><time>2026-04-19T10:14:27.383Z</time></trkpt><trkpt lat="40.4461308" lon="15.2190291"><ele>122.0</ele><time>2026-04-19T10:14:28.383Z</time></trkpt><trkpt lat="40.4460826" lon="15.2191618"><ele>122.19999999999999</ele><time>2026-04-19T10:14:29.383Z</time></trkpt><trkpt lat="40.44604" lon="15.219291"><ele>122.39999999999999</ele><time>2026-04-19T10:14:30.383Z</time></trkpt><trkpt lat="40.4459969" lon="15.2194224"><ele>122.60000000000001</ele><time>2026-04-19T10:14:31.384Z</time></trkpt><trkpt lat="40.4459574" lon="15.2195537"><ele>122.80000000000001</ele><time>2026-04-19T10:14:32.383Z</time></trkpt><trkpt lat="40.4459235" lon="15.2196768"><ele>123.0</ele><time>2026-04-19T10:14:33.384Z</time></trkpt><trkpt lat="40.4458936" lon="15.2197904"><ele>122.83333333333333</ele><time>2026-04-19T10:14:34.384Z</time></trkpt><trkpt lat="40.4458692" lon="15.2198909"><ele>122.66666666666666</ele><time>2026-04-19T10:14:35.383Z</time></trkpt><trkpt lat="40.4458412" lon="15.2200083"><ele>122.5</ele><time>2026-04-19T10:14:37.384Z</time></trkpt><trkpt lat="40.4458224" lon="15.2201094"><ele>122.33333333333333</ele><time>2026-04-19T10:14:40.384Z</time></trkpt><trkpt lat="40.4457806" lon="15.2202099"><ele>122.16666666666666</ele><time>2026-04-19T10:17:04.383Z</time></trkpt><trkpt lat="40.4457614" lon="15.2203019"><ele>122.0</ele><time>2026-04-19T10:17:07.384Z</time></trkpt><trkpt lat="40.4457912" lon="15.220389"><ele>122.0</ele><time>2026-04-19T10:17:14.383Z</time></trkpt><trkpt lat="40.4458944" lon="15.2203738"><ele>121.99999999999999</ele><time>2026-04-19T10:17:17.383Z</time></trkpt><trkpt lat="40.4459711" lon="15.2203518"><ele>121.99999999999999</ele><time>2026-04-19T10:17:18.383Z</time></trkpt><trkpt lat="40.4460917" lon="15.2203226"><ele>122.0</ele><time>2026-04-19T10:17:20.383Z</time></trkpt><trkpt lat="40.4462057" lon="15.2203069"><ele>122.0</ele><time>2026-04-19T10:17:22.383Z</time></trkpt><trkpt lat="40.44627" lon="15.2203009"><ele>121.7142857142857</ele><time>2026-04-19T10:17:23.383Z</time></trkpt><trkpt lat="40.4463366" lon="15.2202994"><ele>121.42857142857142</ele><time>2026-04-19T10:17:24.383Z</time></trkpt><trkpt lat="40.4464005" lon="15.2203035"><ele>121.14285714285714</ele><time>2026-04-19T10:17:25.383Z</time></trkpt><trkpt lat="40.4464732" lon="15.2203105"><ele>120.85714285714285</ele><time>2026-04-19T10:17:26.384Z</time></trkpt><trkpt lat="40.4465467" lon="15.2203227"><ele>120.57142857142856</ele><time>2026-04-19T10:17:27.382Z</time></trkpt><trkpt lat="40.4466103" lon="15.2203393"><ele>120.28571428571429</ele><time>2026-04-19T10:17:28.382Z</time></trkpt><trkpt lat="40.4466788" lon="15.2203571"><ele>120.0</ele><time>2026-04-19T10:17:29.383Z</time></trkpt><trkpt lat="40.4467488" lon="15.2203799"><ele>120.0</ele><time>2026-04-19T10:17:30.382Z</time></trkpt><trkpt lat="40.4468158" lon="15.2204018"><ele>120.0</ele><time>2026-04-19T10:17:31.384Z</time></trkpt><trkpt lat="40.4469313" lon="15.2204579"><ele>120.0</ele><time>2026-04-19T10:17:33.383Z</time></trkpt><trkpt lat="40.4470425" lon="15.2205569"><ele>120.0</ele><time>2026-04-19T10:17:35.383Z</time></trkpt><trkpt lat="40.4471088" lon="15.2206221"><ele>120.0</ele><time>2026-04-19T10:17:36.382Z</time></trkpt><trkpt lat="40.4471736" lon="15.2206867"><ele>119.83333333333333</ele><time>2026-04-19T10:17:37.383Z</time></trkpt><trkpt lat="40.4472257" lon="15.2207433"><ele>119.66666666666666</ele><time>2026-04-19T10:17:38.382Z</time></trkpt><trkpt lat="40.4472808" lon="15.2208"><ele>119.5</ele><time>2026-04-19T10:17:39.383Z</time></trkpt><trkpt lat="40.4473376" lon="15.2208574"><ele>119.33333333333333</ele><time>2026-04-19T10:17:40.384Z</time></trkpt><trkpt lat="40.4474334" lon="15.2209242"><ele>119.16666666666666</ele><time>2026-04-19T10:17:42.383Z</time></trkpt><trkpt lat="40.4475191" lon="15.2209958"><ele>119.0</ele><time>2026-04-19T10:17:44.383Z</time></trkpt><trkpt lat="40.4475837" lon="15.2210536"><ele>118.99999999999999</ele><time>2026-04-19T10:17:46.383Z</time></trkpt><trkpt lat="40.447639" lon="15.2210936"><ele>119.0</ele><time>2026-04-19T10:17:48.384Z</time></trkpt><trkpt lat="40.4476853" lon="15.2211569"><ele>119.0</ele><time>2026-04-19T10:20:05.383Z</time></trkpt><trkpt lat="40.4476635" lon="15.221244"><ele>119.0</ele><time>2026-04-19T10:20:11.382Z</time></trkpt><trkpt lat="40.4476941" lon="15.2211441"><ele>118.99999999999999</ele><time>2026-04-19T10:21:32.382Z</time></trkpt><trkpt lat="40.4476084" lon="15.221064"><ele>119.0</ele><time>2026-04-19T10:21:34.383Z</time></trkpt><trkpt lat="40.4475481" lon="15.221013"><ele>119.0</ele><time>2026-04-19T10:21:35.383Z</time></trkpt><trkpt lat="40.4474826" lon="15.2209599"><ele>119.0</ele><time>2026-04-19T10:21:36.382Z</time></trkpt><trkpt lat="40.4474153" lon="15.220908"><ele>119.0</ele><time>2026-04-19T10:21:37.382Z</time></trkpt><trkpt lat="40.4473561" lon="15.22086"><ele>119.0</ele><time>2026-04-19T10:21:38.383Z</time></trkpt><trkpt lat="40.4473031" lon="15.2208043"><ele>119.0</ele><time>2026-04-19T10:21:39.382Z</time></trkpt><trkpt lat="40.4472474" lon="15.220748"><ele>119.0</ele><time>2026-04-19T10:21:40.382Z</time></trkpt><trkpt lat="40.4471817" lon="15.2206847"><ele>119.0</ele><time>2026-04-19T10:21:41.382Z</time></trkpt><trkpt lat="40.447112" lon="15.220621"><ele>119.16666666666666</ele><time>2026-04-19T10:21:42.382Z</time></trkpt><trkpt lat="40.4470446" lon="15.2205534"><ele>119.33333333333333</ele><time>2026-04-19T10:21:43.382Z</time></trkpt><trkpt lat="40.4469865" lon="15.2204962"><ele>119.5</ele><time>2026-04-19T10:21:44.383Z</time></trkpt><trkpt lat="40.446932" lon="15.2204495"><ele>119.66666666666666</ele><time>2026-04-19T10:21:45.383Z</time></trkpt><trkpt lat="40.4468694" lon="15.2204195"><ele>119.83333333333333</ele><time>2026-04-19T10:21:46.382Z</time></trkpt><trkpt lat="40.4467916" lon="15.2203932"><ele>120.0</ele><time>2026-04-19T10:21:47.382Z</time></trkpt><trkpt lat="40.4467093" lon="15.2203665"><ele>120.0</ele><time>2026-04-19T10:21:48.382Z</time></trkpt><trkpt lat="40.4466244" lon="15.2203385"><ele>120.0</ele><time>2026-04-19T10:21:49.382Z</time></trkpt><trkpt lat="40.4465376" lon="15.2203178"><ele>120.0</ele><time>2026-04-19T10:21:50.383Z</time></trkpt><trkpt lat="40.4464592" lon="15.2203027"><ele>120.0</ele><time>2026-04-19T10:21:51.383Z</time></trkpt><trkpt lat="40.4463818" lon="15.2202965"><ele>120.0</ele><time>2026-04-19T10:21:52.382Z</time></trkpt><trkpt lat="40.446296" lon="15.2202952"><ele>120.0</ele><time>2026-04-19T10:21:53.382Z</time></trkpt><trkpt lat="40.4462061" lon="15.2203046"><ele>120.33333333333333</ele><time>2026-04-19T10:21:54.382Z</time></trkpt><trkpt lat="40.4461262" lon="15.2203131"><ele>120.66666666666666</ele><time>2026-04-19T10:21:55.382Z</time></trkpt><trkpt lat="40.4460545" lon="15.2203228"><ele>121.0</ele><time>2026-04-19T10:21:56.382Z</time></trkpt><trkpt lat="40.4459404" lon="15.2203397"><ele>121.33333333333333</ele><time>2026-04-19T10:21:58.382Z</time></trkpt><trkpt lat="40.445864" lon="15.2203623"><ele>121.66666666666666</ele><time>2026-04-19T10:22:00.383Z</time></trkpt><trkpt lat="40.4457919" lon="15.2203764"><ele>122.0</ele><time>2026-04-19T10:26:47.381Z</time></trkpt><trkpt lat="40.445769" lon="15.2202966"><ele>121.99999999999999</ele><time>2026-04-19T10:26:50.381Z</time></trkpt><trkpt lat="40.4458119" lon="15.2201499"><ele>122.0</ele><time>2026-04-19T10:26:52.381Z</time></trkpt><trkpt lat="40.445831" lon="15.2200684"><ele>122.0</ele><time>2026-04-19T10:26:53.381Z</time></trkpt><trkpt lat="40.4458541" lon="15.2199685"><ele>122.0</ele><time>2026-04-19T10:26:54.382Z</time></trkpt><trkpt lat="40.4458815" lon="15.2198549"><ele>121.99999999999999</ele><time>2026-04-19T10:26:55.381Z</time></trkpt><trkpt lat="40.4459139" lon="15.21974"><ele>122.0</ele><time>2026-04-19T10:26:56.382Z</time></trkpt><trkpt lat="40.4459472" lon="15.2196244"><ele>122.19999999999999</ele><time>2026-04-19T10:26:57.381Z</time></trkpt><trkpt lat="40.4459793" lon="15.2195134"><ele>122.39999999999999</ele><time>2026-04-19T10:26:58.381Z</time></trkpt><trkpt lat="40.4460095" lon="15.2194144"><ele>122.60000000000001</ele><time>2026-04-19T10:26:59.381Z</time></trkpt><trkpt lat="40.4460418" lon="15.2193242"><ele>122.80000000000001</ele><time>2026-04-19T10:27:00.381Z</time></trkpt><trkpt lat="40.4460725" lon="15.2192415"><ele>123.0</ele><time>2026-04-19T10:27:01.381Z</time></trkpt><trkpt lat="40.4461249" lon="15.2190817"><ele>123.0</ele><time>2026-04-19T10:27:03.381Z</time></trkpt><trkpt lat="40.4461568" lon="15.2189973"><ele>123.0</ele><time>2026-04-19T10:27:04.381Z</time></trkpt><trkpt lat="40.4461947" lon="15.2189061"><ele>123.0</ele><time>2026-04-19T10:27:05.381Z</time></trkpt><trkpt lat="40.4462419" lon="15.2188127"><ele>123.0</ele><time>2026-04-19T10:27:06.381Z</time></trkpt><trkpt lat="40.4462981" lon="15.2187168"><ele>123.0</ele><time>2026-04-19T10:27:07.381Z</time></trkpt><trkpt lat="40.4463586" lon="15.2186182"><ele>123.0</ele><time>2026-04-19T10:27:08.381Z</time></trkpt><trkpt lat="40.4464255" lon="15.2185182"><ele>123.0</ele><time>2026-04-19T10:27:09.381Z</time></trkpt><trkpt lat="40.4464935" lon="15.2184182"><ele>123.00000000000001</ele><time>2026-04-19T10:27:10.381Z</time></trkpt><trkpt lat="40.4465607" lon="15.2183157"><ele>123.00000000000001</ele><time>2026-04-19T10:27:11.381Z</time></trkpt><trkpt lat="40.4466286" lon="15.2182138"><ele>123.0</ele><time>2026-04-19T10:27:12.381Z</time></trkpt><trkpt lat="40.4466986" lon="15.2181109"><ele>123.0</ele><time>2026-04-19T10:27:13.381Z</time></trkpt><trkpt lat="40.4467698" lon="15.2180091"><ele>123.0</ele><time>2026-04-19T10:27:14.38Z</time></trkpt><trkpt lat="40.4468418" lon="15.2179092"><ele>123.00000000000001</ele><time>2026-04-19T10:27:15.38Z</time></trkpt><trkpt lat="40.4469103" lon="15.2178132"><ele>123.00000000000001</ele><time>2026-04-19T10:27:16.38Z</time></trkpt><trkpt lat="40.4469718" lon="15.2177244"><ele>123.0</ele><time>2026-04-19T10:27:17.38Z</time></trkpt><trkpt lat="40.4470284" lon="15.2176446"><ele>123.0</ele><time>2026-04-19T10:27:18.38Z</time></trkpt><trkpt lat="40.4470847" lon="15.2175754"><ele>122.57142857142858</ele><time>2026-04-19T10:27:19.38Z</time></trkpt><trkpt lat="40.4471376" lon="15.2175119"><ele>122.14285714285714</ele><time>2026-04-19T10:27:20.381Z</time></trkpt><trkpt lat="40.4471898" lon="15.2174601"><ele>121.71428571428572</ele><time>2026-04-19T10:27:21.381Z</time></trkpt><trkpt lat="40.4472462" lon="15.2174158"><ele>121.28571428571429</ele><time>2026-04-19T10:27:22.38Z</time></trkpt><trkpt lat="40.4473074" lon="15.2173817"><ele>120.85714285714286</ele><time>2026-04-19T10:27:23.38Z</time></trkpt><trkpt lat="40.447375" lon="15.2173534"><ele>120.42857142857143</ele><time>2026-04-19T10:27:24.38Z</time></trkpt><trkpt lat="40.4474498" lon="15.2173347"><ele>120.0</ele><time>2026-04-19T10:27:25.38Z</time></trkpt><trkpt lat="40.4475341" lon="15.2173196"><ele>120.0</ele><time>2026-04-19T10:27:26.38Z</time></trkpt><trkpt lat="40.4476201" lon="15.2173186"><ele>120.0</ele><time>2026-04-19T10:27:27.38Z</time></trkpt><trkpt lat="40.4477031" lon="15.2173329"><ele>120.0</ele><time>2026-04-19T10:27:28.38Z</time></trkpt><trkpt lat="40.4477811" lon="15.2173571"><ele>120.0</ele><time>2026-04-19T10:27:29.38Z</time></trkpt><trkpt lat="40.4478605" lon="15.2173873"><ele>120.0</ele><time>2026-04-19T10:27:30.381Z</time></trkpt><trkpt lat="40.4479349" lon="15.2174317"><ele>120.0</ele><time>2026-04-19T10:27:31.38Z</time></trkpt><trkpt lat="40.4480059" lon="15.217483"><ele>117.83333333333333</ele><time>2026-04-19T10:27:32.381Z</time></trkpt><trkpt lat="40.448072" lon="15.2175441"><ele>115.66666666666666</ele><time>2026-04-19T10:27:33.38Z</time></trkpt><trkpt lat="40.4481301" lon="15.2176142"><ele>113.5</ele><time>2026-04-19T10:27:34.381Z</time></trkpt><trkpt lat="40.4481809" lon="15.217692"><ele>111.33333333333333</ele><time>2026-04-19T10:27:35.38Z</time></trkpt><trkpt lat="40.4482237" lon="15.2177817"><ele>109.16666666666666</ele><time>2026-04-19T10:27:36.38Z</time></trkpt><trkpt lat="40.448266" lon="15.2178659"><ele>107.0</ele><time>2026-04-19T10:27:37.38Z</time></trkpt><trkpt lat="40.4483114" lon="15.2179417"><ele>106.99999999999999</ele><time>2026-04-19T10:27:38.381Z</time></trkpt><trkpt lat="40.4483685" lon="15.2180002"><ele>107.0</ele><time>2026-04-19T10:27:39.38Z</time></trkpt><trkpt lat="40.4484421" lon="15.2180333"><ele>107.0</ele><time>2026-04-19T10:27:40.38Z</time></trkpt><trkpt lat="40.4485293" lon="15.2180493"><ele>107.0</ele><time>2026-04-19T10:27:41.38Z</time></trkpt><trkpt lat="40.4486209" lon="15.2180498"><ele>106.99999999999999</ele><time>2026-04-19T10:27:42.38Z</time></trkpt><trkpt lat="40.4487116" lon="15.2180305"><ele>107.0</ele><time>2026-04-19T10:27:43.38Z</time></trkpt><trkpt lat="40.4487939" lon="15.2179943"><ele>105.8</ele><time>2026-04-19T10:27:44.38Z</time></trkpt><trkpt lat="40.4488723" lon="15.2179319"><ele>104.6</ele><time>2026-04-19T10:27:45.38Z</time></trkpt><trkpt lat="40.4489567" lon="15.2178477"><ele>103.39999999999999</ele><time>2026-04-19T10:27:46.38Z</time></trkpt><trkpt lat="40.449041" lon="15.2177572"><ele>102.19999999999999</ele><time>2026-04-19T10:27:47.38Z</time></trkpt><trkpt lat="40.4491198" lon="15.2176676"><ele>101.0</ele><time>2026-04-19T10:27:48.38Z</time></trkpt><trkpt lat="40.449198" lon="15.2175709"><ele>101.0</ele><time>2026-04-19T10:27:49.381Z</time></trkpt><trkpt lat="40.4492811" lon="15.2174734"><ele>101.0</ele><time>2026-04-19T10:27:50.381Z</time></trkpt><trkpt lat="40.44937" lon="15.2173817"><ele>101.0</ele><time>2026-04-19T10:27:51.38Z</time></trkpt><trkpt lat="40.4494543" lon="15.2172951"><ele>101.0</ele><time>2026-04-19T10:27:52.38Z</time></trkpt><trkpt lat="40.4495277" lon="15.2172094"><ele>101.0</ele><time>2026-04-19T10:27:53.38Z</time></trkpt><trkpt lat="40.4495892" lon="15.2171219"><ele>99.8</ele><time>2026-04-19T10:27:54.38Z</time></trkpt><trkpt lat="40.4496479" lon="15.2170263"><ele>98.6</ele><time>2026-04-19T10:27:55.38Z</time></trkpt><trkpt lat="40.4497083" lon="15.2169236"><ele>97.4</ele><time>2026-04-19T10:27:56.38Z</time></trkpt><trkpt lat="40.4497648" lon="15.2168229"><ele>96.2</ele><time>2026-04-19T10:27:57.38Z</time></trkpt><trkpt lat="40.4498179" lon="15.2167299"><ele>95.0</ele><time>2026-04-19T10:27:58.38Z</time></trkpt><trkpt lat="40.4498684" lon="15.2166429"><ele>95.0</ele><time>2026-04-19T10:27:59.38Z</time></trkpt><trkpt lat="40.4499132" lon="15.2165599"><ele>95.0</ele><time>2026-04-19T10:28:00.38Z</time></trkpt><trkpt lat="40.4499515" lon="15.2164842"><ele>95.0</ele><time>2026-04-19T10:28:01.381Z</time></trkpt><trkpt lat="40.4499853" lon="15.2164105"><ele>95.0</ele><time>2026-04-19T10:28:02.381Z</time></trkpt><trkpt lat="40.4500136" lon="15.2163292"><ele>95.0</ele><time>2026-04-19T10:28:03.38Z</time></trkpt><trkpt lat="40.4500316" lon="15.2162315"><ele>95.0</ele><time>2026-04-19T10:28:04.38Z</time></trkpt><trkpt lat="40.450036" lon="15.216135"><ele>95.0</ele><time>2026-04-19T10:28:05.381Z</time></trkpt><trkpt lat="40.4500196" lon="15.216034"><ele>94.8</ele><time>2026-04-19T10:28:06.38Z</time></trkpt><trkpt lat="40.4499879" lon="15.2159285"><ele>94.6</ele><time>2026-04-19T10:28:07.38Z</time></trkpt><trkpt lat="40.449951" lon="15.215811"><ele>94.4</ele><time>2026-04-19T10:28:08.38Z</time></trkpt><trkpt lat="40.4499118" lon="15.2156907"><ele>94.2</ele><time>2026-04-19T10:28:09.38Z</time></trkpt><trkpt lat="40.4498674" lon="15.2155659"><ele>94.0</ele><time>2026-04-19T10:28:10.38Z</time></trkpt><trkpt lat="40.4498253" lon="15.2154366"><ele>93.75</ele><time>2026-04-19T10:28:11.38Z</time></trkpt><trkpt lat="40.4497901" lon="15.2152861"><ele>93.5</ele><time>2026-04-19T10:28:12.38Z</time></trkpt><trkpt lat="40.449757" lon="15.2151138"><ele>93.25</ele><time>2026-04-19T10:28:13.38Z</time></trkpt><trkpt lat="40.449722" lon="15.2149356"><ele>93.0</ele><time>2026-04-19T10:28:14.381Z</time></trkpt><trkpt lat="40.4496914" lon="15.2147676"><ele>93.0</ele><time>2026-04-19T10:28:15.381Z</time></trkpt><trkpt lat="40.4496624" lon="15.2146032"><ele>93.0</ele><time>2026-04-19T10:28:16.38Z</time></trkpt><trkpt lat="40.4496349" lon="15.2144428"><ele>93.0</ele><time>2026-04-19T10:28:17.38Z</time></trkpt><trkpt lat="40.4496099" lon="15.2142898"><ele>93.0</ele><time>2026-04-19T10:28:18.38Z</time></trkpt><trkpt lat="40.4495796" lon="15.2141413"><ele>94.0</ele><time>2026-04-19T10:28:19.38Z</time></trkpt><trkpt lat="40.449546" lon="15.2140017"><ele>95.0</ele><time>2026-04-19T10:28:20.38Z</time></trkpt><trkpt lat="40.4495118" lon="15.213866"><ele>96.0</ele><time>2026-04-19T10:28:21.38Z</time></trkpt><trkpt lat="40.4494789" lon="15.2137337"><ele>97.0</ele><time>2026-04-19T10:28:22.38Z</time></trkpt><trkpt lat="40.4494444" lon="15.2136085"><ele>98.0</ele><time>2026-04-19T10:28:23.38Z</time></trkpt><trkpt lat="40.4494095" lon="15.2134886"><ele>97.99999999999999</ele><time>2026-04-19T10:28:24.38Z</time></trkpt><trkpt lat="40.4493733" lon="15.2133725"><ele>98.0</ele><time>2026-04-19T10:28:25.38Z</time></trkpt><trkpt lat="40.4493369" lon="15.2132628"><ele>98.0</ele><time>2026-04-19T10:28:26.38Z</time></trkpt><trkpt lat="40.4492988" lon="15.2131576"><ele>98.0</ele><time>2026-04-19T10:28:27.38Z</time></trkpt><trkpt lat="40.4492657" lon="15.2130572"><ele>97.99999999999999</ele><time>2026-04-19T10:28:28.381Z</time></trkpt><trkpt lat="40.449232" lon="15.212957"><ele>98.0</ele><time>2026-04-19T10:28:29.38Z</time></trkpt><trkpt lat="40.4491958" lon="15.2128537"><ele>97.25</ele><time>2026-04-19T10:28:30.38Z</time></trkpt><trkpt lat="40.449117" lon="15.2126327"><ele>96.5</ele><time>2026-04-19T10:28:32.38Z</time></trkpt><trkpt lat="40.4490754" lon="15.2125201"><ele>95.75</ele><time>2026-04-19T10:28:33.38Z</time></trkpt><trkpt lat="40.449041" lon="15.2124126"><ele>95.0</ele><time>2026-04-19T10:28:34.38Z</time></trkpt><trkpt lat="40.4490177" lon="15.2123016"><ele>95.0</ele><time>2026-04-19T10:28:35.38Z</time></trkpt><trkpt lat="40.4490071" lon="15.2121739"><ele>95.0</ele><time>2026-04-19T10:28:36.38Z</time></trkpt><trkpt lat="40.4490074" lon="15.2120162"><ele>95.0</ele><time>2026-04-19T10:28:37.381Z</time></trkpt><trkpt lat="40.4490105" lon="15.2118164"><ele>95.0</ele><time>2026-04-19T10:28:38.38Z</time></trkpt><trkpt lat="40.4490156" lon="15.2116094"><ele>95.0</ele><time>2026-04-19T10:28:39.38Z</time></trkpt><trkpt lat="40.4490207" lon="15.2114137"><ele>95.0</ele><time>2026-04-19T10:28:40.38Z</time></trkpt><trkpt lat="40.4490292" lon="15.211232"><ele>95.0</ele><time>2026-04-19T10:28:41.38Z</time></trkpt><trkpt lat="40.4490442" lon="15.211062"><ele>95.0</ele><time>2026-04-19T10:28:42.38Z</time></trkpt><trkpt lat="40.4490646" lon="15.2108995"><ele>95.0</ele><time>2026-04-19T10:28:43.38Z</time></trkpt><trkpt lat="40.4490942" lon="15.2107337"><ele>95.0</ele><time>2026-04-19T10:28:44.38Z</time></trkpt><trkpt lat="40.4491239" lon="15.2105546"><ele>95.0</ele><time>2026-04-19T10:28:45.38Z</time></trkpt><trkpt lat="40.449152" lon="15.2103526"><ele>95.0</ele><time>2026-04-19T10:28:46.38Z</time></trkpt><trkpt lat="40.4491779" lon="15.210159"><ele>95.0</ele><time>2026-04-19T10:28:47.38Z</time></trkpt><trkpt lat="40.4491999" lon="15.2099733"><ele>95.0</ele><time>2026-04-19T10:28:48.38Z</time></trkpt><trkpt lat="40.449218" lon="15.2098002"><ele>95.0</ele><time>2026-04-19T10:28:49.38Z</time></trkpt><trkpt lat="40.4492357" lon="15.2096413"><ele>95.0</ele><time>2026-04-19T10:28:50.38Z</time></trkpt><trkpt lat="40.4492582" lon="15.209481"><ele>95.2</ele><time>2026-04-19T10:28:51.38Z</time></trkpt><trkpt lat="40.44928" lon="15.2093165"><ele>95.4</ele><time>2026-04-19T10:28:52.38Z</time></trkpt><trkpt lat="40.4493034" lon="15.2091735"><ele>95.6</ele><time>2026-04-19T10:28:53.381Z</time></trkpt><trkpt lat="40.4493246" lon="15.2090489"><ele>95.8</ele><time>2026-04-19T10:28:54.38Z</time></trkpt><trkpt lat="40.4493549" lon="15.2089462"><ele>96.0</ele><time>2026-04-19T10:28:55.38Z</time></trkpt><trkpt lat="40.4493953" lon="15.2088633"><ele>96.0</ele><time>2026-04-19T10:28:56.38Z</time></trkpt><trkpt lat="40.4494549" lon="15.2088053"><ele>96.0</ele><time>2026-04-19T10:28:57.38Z</time></trkpt><trkpt lat="40.4495374" lon="15.2087516"><ele>96.0</ele><time>2026-04-19T10:28:58.38Z</time></trkpt><trkpt lat="40.4496378" lon="15.2086904"><ele>96.0</ele><time>2026-04-19T10:28:59.38Z</time></trkpt><trkpt lat="40.4497507" lon="15.2086204"><ele>96.0</ele><time>2026-04-19T10:29:00.38Z</time></trkpt><trkpt lat="40.4498788" lon="15.2085403"><ele>95.5</ele><time>2026-04-19T10:29:01.38Z</time></trkpt><trkpt lat="40.4500089" lon="15.2084578"><ele>95.0</ele><time>2026-04-19T10:29:02.38Z</time></trkpt><trkpt lat="40.4501311" lon="15.2083748"><ele>94.5</ele><time>2026-04-19T10:29:03.381Z</time></trkpt><trkpt lat="40.4502325" lon="15.2082948"><ele>94.0</ele><time>2026-04-19T10:29:04.38Z</time></trkpt><trkpt lat="40.4503187" lon="15.2082038"><ele>94.0</ele><time>2026-04-19T10:29:05.38Z</time></trkpt><trkpt lat="40.4503833" lon="15.2081045"><ele>94.0</ele><time>2026-04-19T10:29:06.38Z</time></trkpt><trkpt lat="40.4504417" lon="15.2079909"><ele>94.0</ele><time>2026-04-19T10:29:07.38Z</time></trkpt><trkpt lat="40.4505027" lon="15.2078723"><ele>94.0</ele><time>2026-04-19T10:29:08.381Z</time></trkpt><trkpt lat="40.4505614" lon="15.20777"><ele>94.0</ele><time>2026-04-19T10:29:09.381Z</time></trkpt><trkpt lat="40.4506155" lon="15.2076842"><ele>94.2</ele><time>2026-04-19T10:29:10.38Z</time></trkpt><trkpt lat="40.4506659" lon="15.207621"><ele>94.4</ele><time>2026-04-19T10:29:11.38Z</time></trkpt><trkpt lat="40.4507517" lon="15.207565"><ele>94.6</ele><time>2026-04-19T10:29:13.38Z</time></trkpt><trkpt lat="40.4508249" lon="15.2076331"><ele>94.8</ele><time>2026-04-19T10:29:16.381Z</time></trkpt><trkpt lat="40.4508657" lon="15.2077664"><ele>95.0</ele><time>2026-04-19T10:29:18.38Z</time></trkpt><trkpt lat="40.450882" lon="15.2079187"><ele>95.0</ele><time>2026-04-19T10:29:20.381Z</time></trkpt><trkpt lat="40.4508746" lon="15.2080378"><ele>95.0</ele><time>2026-04-19T10:29:22.38Z</time></trkpt><trkpt lat="40.4508652" lon="15.2081629"><ele>95.0</ele><time>2026-04-19T10:29:24.38Z</time></trkpt><trkpt lat="40.4508773" lon="15.208269"><ele>95.0</ele><time>2026-04-19T10:29:26.38Z</time></trkpt><trkpt lat="40.4509304" lon="15.2083319"><ele>95.0</ele><time>2026-04-19T10:29:28.381Z</time></trkpt><trkpt lat="40.4510203" lon="15.2083507"><ele>95.0</ele><time>2026-04-19T10:29:30.381Z</time></trkpt><trkpt lat="40.451125" lon="15.2083551"><ele>94.4</ele><time>2026-04-19T10:29:32.38Z</time></trkpt><trkpt lat="40.4512309" lon="15.2083634"><ele>93.8</ele><time>2026-04-19T10:29:34.38Z</time></trkpt><trkpt lat="40.4513344" lon="15.2083784"><ele>93.19999999999999</ele><time>2026-04-19T10:29:36.381Z</time></trkpt><trkpt lat="40.4514444" lon="15.2083889"><ele>92.6</ele><time>2026-04-19T10:29:38.38Z</time></trkpt><trkpt lat="40.4515595" lon="15.2084047"><ele>92.0</ele><time>2026-04-19T10:29:40.38Z</time></trkpt><trkpt lat="40.451684" lon="15.2084195"><ele>91.85714285714286</ele><time>2026-04-19T10:29:42.381Z</time></trkpt><trkpt lat="40.4517509" lon="15.2084275"><ele>91.71428571428571</ele><time>2026-04-19T10:29:43.38Z</time></trkpt><trkpt lat="40.4518204" lon="15.2084368"><ele>91.57142857142857</ele><time>2026-04-19T10:29:44.38Z</time></trkpt><trkpt lat="40.4518912" lon="15.2084442"><ele>91.42857142857143</ele><time>2026-04-19T10:29:45.38Z</time></trkpt><trkpt lat="40.4519629" lon="15.2084549"><ele>91.28571428571428</ele><time>2026-04-19T10:29:46.38Z</time></trkpt><trkpt lat="40.4520461" lon="15.2084688"><ele>91.14285714285714</ele><time>2026-04-19T10:29:47.38Z</time></trkpt><trkpt lat="40.4521302" lon="15.2084844"><ele>91.0</ele><time>2026-04-19T10:29:48.381Z</time></trkpt><trkpt lat="40.4522164" lon="15.208502"><ele>91.0</ele><time>2026-04-19T10:29:49.38Z</time></trkpt><trkpt lat="40.452299" lon="15.2085197"><ele>91.0</ele><time>2026-04-19T10:29:50.381Z</time></trkpt><trkpt lat="40.4523819" lon="15.2085357"><ele>91.0</ele><time>2026-04-19T10:29:51.38Z</time></trkpt><trkpt lat="40.4524656" lon="15.2085535"><ele>91.0</ele><time>2026-04-19T10:29:52.38Z</time></trkpt><trkpt lat="40.4525501" lon="15.2085677"><ele>91.0</ele><time>2026-04-19T10:29:53.38Z</time></trkpt><trkpt lat="40.4526363" lon="15.2085874"><ele>91.0</ele><time>2026-04-19T10:29:54.38Z</time></trkpt><trkpt lat="40.4527209" lon="15.2086069"><ele>91.0</ele><time>2026-04-19T10:29:55.38Z</time></trkpt><trkpt lat="40.4528052" lon="15.2086245"><ele>91.0</ele><time>2026-04-19T10:29:56.38Z</time></trkpt><trkpt lat="40.4528898" lon="15.208637"><ele>91.0</ele><time>2026-04-19T10:29:57.38Z</time></trkpt><trkpt lat="40.4529761" lon="15.2086466"><ele>91.0</ele><time>2026-04-19T10:29:58.381Z</time></trkpt><trkpt lat="40.453063" lon="15.2086618"><ele>91.0</ele><time>2026-04-19T10:29:59.38Z</time></trkpt><trkpt lat="40.4531513" lon="15.2086783"><ele>91.0</ele><time>2026-04-19T10:30:00.381Z</time></trkpt><trkpt lat="40.4532409" lon="15.2086983"><ele>90.8</ele><time>2026-04-19T10:30:01.38Z</time></trkpt><trkpt lat="40.4533294" lon="15.2087214"><ele>90.6</ele><time>2026-04-19T10:30:02.381Z</time></trkpt><trkpt lat="40.4534183" lon="15.2087462"><ele>90.4</ele><time>2026-04-19T10:30:03.38Z</time></trkpt><trkpt lat="40.4535088" lon="15.2087619"><ele>90.2</ele><time>2026-04-19T10:30:04.38Z</time></trkpt><trkpt lat="40.4536002" lon="15.2087768"><ele>90.0</ele><time>2026-04-19T10:30:05.38Z</time></trkpt><trkpt lat="40.4536966" lon="15.2087915"><ele>90.33333333333333</ele><time>2026-04-19T10:30:06.38Z</time></trkpt><trkpt lat="40.4537913" lon="15.2088087"><ele>90.66666666666667</ele><time>2026-04-19T10:30:07.38Z</time></trkpt><trkpt lat="40.4538775" lon="15.2088246"><ele>91.0</ele><time>2026-04-19T10:30:08.38Z</time></trkpt><trkpt lat="40.4539567" lon="15.2088392"><ele>91.33333333333334</ele><time>2026-04-19T10:30:09.38Z</time></trkpt><trkpt lat="40.4540266" lon="15.208857"><ele>91.66666666666667</ele><time>2026-04-19T10:30:10.38Z</time></trkpt><trkpt lat="40.4540999" lon="15.2088726"><ele>92.0</ele><time>2026-04-19T10:30:11.38Z</time></trkpt><trkpt lat="40.4541631" lon="15.2088883"><ele>92.0</ele><time>2026-04-19T10:30:12.381Z</time></trkpt><trkpt lat="40.4542569" lon="15.2088664"><ele>92.0</ele><time>2026-04-19T10:30:14.38Z</time></trkpt><trkpt lat="40.4543004" lon="15.2087336"><ele>92.0</ele><time>2026-04-19T10:30:16.38Z</time></trkpt><trkpt lat="40.454315" lon="15.2086381"><ele>92.0</ele><time>2026-04-19T10:30:17.38Z</time></trkpt><trkpt lat="40.4543334" lon="15.2085487"><ele>92.0</ele><time>2026-04-19T10:30:18.38Z</time></trkpt><trkpt lat="40.454397" lon="15.2084648"><ele>92.0</ele><time>2026-04-19T10:30:20.38Z</time></trkpt><trkpt lat="40.4545131" lon="15.2084261"><ele>92.0</ele><time>2026-04-19T10:30:22.38Z</time></trkpt><trkpt lat="40.454575" lon="15.2083933"><ele>92.0</ele><time>2026-04-19T10:30:23.38Z</time></trkpt><trkpt lat="40.454646" lon="15.2083619"><ele>92.0</ele><time>2026-04-19T10:30:24.38Z</time></trkpt><trkpt lat="40.4547186" lon="15.2083322"><ele>92.0</ele><time>2026-04-19T10:30:25.381Z</time></trkpt><trkpt lat="40.4547944" lon="15.2083004"><ele>92.0</ele><time>2026-04-19T10:30:26.38Z</time></trkpt><trkpt lat="40.4548727" lon="15.2082762"><ele>92.0</ele><time>2026-04-19T10:30:27.38Z</time></trkpt><trkpt lat="40.4549535" lon="15.2082637"><ele>92.16666666666667</ele><time>2026-04-19T10:30:28.38Z</time></trkpt><trkpt lat="40.4550343" lon="15.2082449"><ele>92.33333333333334</ele><time>2026-04-19T10:30:29.38Z</time></trkpt><trkpt lat="40.4551122" lon="15.20823"><ele>92.5</ele><time>2026-04-19T10:30:30.38Z</time></trkpt><trkpt lat="40.455193" lon="15.2082116"><ele>92.66666666666667</ele><time>2026-04-19T10:30:31.38Z</time></trkpt><trkpt lat="40.4552611" lon="15.2082037"><ele>92.83333333333333</ele><time>2026-04-19T10:30:32.38Z</time></trkpt><trkpt lat="40.4553564" lon="15.2082063"><ele>93.0</ele><time>2026-04-19T10:30:34.381Z</time></trkpt><trkpt lat="40.4554152" lon="15.2082431"><ele>93.00000000000001</ele><time>2026-04-19T10:30:36.38Z</time></trkpt><trkpt lat="40.4554323" lon="15.2083452"><ele>93.0</ele><time>2026-04-19T10:30:39.381Z</time></trkpt><trkpt lat="40.4554291" lon="15.2084374"><ele>93.0</ele><time>2026-04-19T10:30:41.38Z</time></trkpt><trkpt lat="40.455437" lon="15.2085276"><ele>93.0</ele><time>2026-04-19T10:30:43.381Z</time></trkpt><trkpt lat="40.4554449" lon="15.2086105"><ele>93.0</ele><time>2026-04-19T10:30:45.38Z</time></trkpt><trkpt lat="40.4554609" lon="15.2087195"><ele>93.00000000000001</ele><time>2026-04-19T10:30:48.38Z</time></trkpt><trkpt lat="40.4554723" lon="15.2088055"><ele>93.0</ele><time>2026-04-19T10:30:50.38Z</time></trkpt><trkpt lat="40.4555464" lon="15.208858"><ele>93.0</ele><time>2026-04-19T10:31:04.38Z</time></trkpt><trkpt lat="40.4556106" lon="15.2088574"><ele>93.0</ele><time>2026-04-19T10:31:06.38Z</time></trkpt><trkpt lat="40.4556844" lon="15.2088559"><ele>93.0</ele><time>2026-04-19T10:31:08.38Z</time></trkpt><trkpt lat="40.4557649" lon="15.208912"><ele>93.0</ele><time>2026-04-19T10:31:11.38Z</time></trkpt><trkpt lat="40.4558271" lon="15.2089713"><ele>93.0</ele><time>2026-04-19T10:31:14.38Z</time></trkpt><trkpt lat="40.4559054" lon="15.209048"><ele>93.0</ele><time>2026-04-19T10:31:17.38Z</time></trkpt><trkpt lat="40.4559737" lon="15.2091112"><ele>92.66666666666667</ele><time>2026-04-19T10:31:19.38Z</time></trkpt><trkpt lat="40.4560277" lon="15.2091554"><ele>92.33333333333333</ele><time>2026-04-19T10:31:22.38Z</time></trkpt><trkpt lat="40.4561079" lon="15.2091425"><ele>92.0</ele><time>2026-04-19T10:34:46.379Z</time></trkpt><trkpt lat="40.4561775" lon="15.2090914"><ele>91.66666666666666</ele><time>2026-04-19T10:34:49.38Z</time></trkpt><trkpt lat="40.4562542" lon="15.2090603"><ele>91.33333333333333</ele><time>2026-04-19T10:34:52.38Z</time></trkpt><trkpt lat="40.4563369" lon="15.2090198"><ele>91.0</ele><time>2026-04-19T10:34:55.379Z</time></trkpt><trkpt lat="40.4564091" lon="15.2090026"><ele>91.0</ele><time>2026-04-19T10:34:58.379Z</time></trkpt><trkpt lat="40.4563203" lon="15.2090186"><ele>91.0</ele><time>2026-04-19T10:37:09.378Z</time></trkpt><trkpt lat="40.4562514" lon="15.2090506"><ele>91.0</ele><time>2026-04-19T10:37:11.378Z</time></trkpt><trkpt lat="40.4561781" lon="15.2090887"><ele>91.0</ele><time>2026-04-19T10:37:13.378Z</time></trkpt><trkpt lat="40.4561188" lon="15.2091279"><ele>91.0</ele><time>2026-04-19T10:37:15.378Z</time></trkpt><trkpt lat="40.4560514" lon="15.2091621"><ele>91.0</ele><time>2026-04-19T10:37:18.378Z</time></trkpt><trkpt lat="40.4559893" lon="15.2091129"><ele>91.0</ele><time>2026-04-19T10:37:22.378Z</time></trkpt><trkpt lat="40.4559191" lon="15.2090627"><ele>91.0</ele><time>2026-04-19T10:37:24.378Z</time></trkpt><trkpt lat="40.4558594" lon="15.2090115"><ele>91.0</ele><time>2026-04-19T10:37:26.378Z</time></trkpt><trkpt lat="40.4557882" lon="15.208944"><ele>91.0</ele><time>2026-04-19T10:37:29.379Z</time></trkpt><trkpt lat="40.4557257" lon="15.2088781"><ele>91.0</ele><time>2026-04-19T10:37:31.379Z</time></trkpt><trkpt lat="40.455695" lon="15.2088049"><ele>91.0</ele><time>2026-04-19T10:38:00.379Z</time></trkpt><trkpt lat="40.4556939" lon="15.2087018"><ele>91.16666666666666</ele><time>2026-04-19T10:38:03.378Z</time></trkpt><trkpt lat="40.4556977" lon="15.2085858"><ele>91.33333333333333</ele><time>2026-04-19T10:38:06.378Z</time></trkpt><trkpt lat="40.4556976" lon="15.2084599"><ele>91.5</ele><time>2026-04-19T10:38:09.378Z</time></trkpt><trkpt lat="40.4556993" lon="15.2083598"><ele>91.66666666666667</ele><time>2026-04-19T10:38:11.378Z</time></trkpt><trkpt lat="40.4557032" lon="15.2082633"><ele>91.83333333333334</ele><time>2026-04-19T10:38:13.38Z</time></trkpt><trkpt lat="40.4557063" lon="15.2081589"><ele>92.0</ele><time>2026-04-19T10:38:15.378Z</time></trkpt><trkpt lat="40.4557103" lon="15.208053"><ele>92.0</ele><time>2026-04-19T10:38:17.378Z</time></trkpt><trkpt lat="40.4557829" lon="15.20797"><ele>92.0</ele><time>2026-04-19T10:38:20.378Z</time></trkpt><trkpt lat="40.4558539" lon="15.2079441"><ele>92.0</ele><time>2026-04-19T10:38:23.378Z</time></trkpt><trkpt lat="40.4559365" lon="15.2079063"><ele>92.0</ele><time>2026-04-19T10:38:26.378Z</time></trkpt><trkpt lat="40.456033" lon="15.2078239"><ele>92.0</ele><time>2026-04-19T10:38:28.379Z</time></trkpt><trkpt lat="40.4560911" lon="15.207781"><ele>92.0</ele><time>2026-04-19T10:38:29.378Z</time></trkpt><trkpt lat="40.4561572" lon="15.2077413"><ele>92.0</ele><time>2026-04-19T10:38:30.378Z</time></trkpt><trkpt lat="40.4562152" lon="15.2077071"><ele>92.0</ele><time>2026-04-19T10:38:31.379Z</time></trkpt><trkpt lat="40.4563107" lon="15.2076278"><ele>92.0</ele><time>2026-04-19T10:38:33.379Z</time></trkpt><trkpt lat="40.4563409" lon="15.207497"><ele>92.0</ele><time>2026-04-19T10:38:35.377Z</time></trkpt><trkpt lat="40.4563337" lon="15.2073389"><ele>92.0</ele><time>2026-04-19T10:38:37.377Z</time></trkpt><trkpt lat="40.4563397" lon="15.2072468"><ele>93.83333333333334</ele><time>2026-04-19T10:38:38.377Z</time></trkpt><trkpt lat="40.456352" lon="15.2071443"><ele>95.66666666666667</ele><time>2026-04-19T10:38:39.378Z</time></trkpt><trkpt lat="40.4563717" lon="15.2070389"><ele>97.5</ele><time>2026-04-19T10:38:40.377Z</time></trkpt><trkpt lat="40.4563993" lon="15.2069387"><ele>99.33333333333334</ele><time>2026-04-19T10:38:41.377Z</time></trkpt><trkpt lat="40.4564275" lon="15.2068443"><ele>101.16666666666667</ele><time>2026-04-19T10:38:42.378Z</time></trkpt><trkpt lat="40.456465" lon="15.2067574"><ele>103.0</ele><time>2026-04-19T10:38:43.377Z</time></trkpt><trkpt lat="40.456503" lon="15.2066694"><ele>103.00000000000001</ele><time>2026-04-19T10:38:44.377Z</time></trkpt><trkpt lat="40.4565316" lon="15.2065757"><ele>103.0</ele><time>2026-04-19T10:38:45.378Z</time></trkpt><trkpt lat="40.4565612" lon="15.2064822"><ele>103.0</ele><time>2026-04-19T10:38:46.377Z</time></trkpt><trkpt lat="40.4565867" lon="15.206392"><ele>103.0</ele><time>2026-04-19T10:38:47.377Z</time></trkpt><trkpt lat="40.4566033" lon="15.206303"><ele>103.00000000000001</ele><time>2026-04-19T10:38:48.377Z</time></trkpt><trkpt lat="40.4566282" lon="15.2061949"><ele>103.0</ele><time>2026-04-19T10:38:50.377Z</time></trkpt><trkpt lat="40.4567255" lon="15.2061554"><ele>104.0</ele><time>2026-04-19T10:38:53.378Z</time></trkpt><trkpt lat="40.4568704" lon="15.206204"><ele>105.0</ele><time>2026-04-19T10:38:55.377Z</time></trkpt><trkpt lat="40.4569692" lon="15.2062316"><ele>106.0</ele><time>2026-04-19T10:38:56.377Z</time></trkpt><trkpt lat="40.4570826" lon="15.2062648"><ele>107.0</ele><time>2026-04-19T10:38:57.377Z</time></trkpt><trkpt lat="40.4571892" lon="15.2062964"><ele>108.0</ele><time>2026-04-19T10:38:58.378Z</time></trkpt><trkpt lat="40.4573053" lon="15.2063236"><ele>109.0</ele><time>2026-04-19T10:38:59.377Z</time></trkpt><trkpt lat="40.4574247" lon="15.2063358"><ele>110.0</ele><time>2026-04-19T10:39:00.377Z</time></trkpt><trkpt lat="40.4575473" lon="15.206331"><ele>111.0</ele><time>2026-04-19T10:39:01.377Z</time></trkpt><trkpt lat="40.4576658" lon="15.2063193"><ele>111.0</ele><time>2026-04-19T10:39:02.377Z</time></trkpt><trkpt lat="40.4577719" lon="15.2063009"><ele>111.0</ele><time>2026-04-19T10:39:03.377Z</time></trkpt><trkpt lat="40.4578734" lon="15.2062818"><ele>111.0</ele><time>2026-04-19T10:39:04.377Z</time></trkpt><trkpt lat="40.4579685" lon="15.2062681"><ele>111.0</ele><time>2026-04-19T10:39:05.377Z</time></trkpt><trkpt lat="40.4580602" lon="15.2062659"><ele>111.0</ele><time>2026-04-19T10:39:06.377Z</time></trkpt><trkpt lat="40.4581486" lon="15.2062767"><ele>110.0</ele><time>2026-04-19T10:39:07.377Z</time></trkpt><trkpt lat="40.4582404" lon="15.2062959"><ele>109.0</ele><time>2026-04-19T10:39:08.377Z</time></trkpt><trkpt lat="40.4583348" lon="15.2063219"><ele>108.0</ele><time>2026-04-19T10:39:09.377Z</time></trkpt><trkpt lat="40.4584315" lon="15.2063508"><ele>107.0</ele><time>2026-04-19T10:39:10.378Z</time></trkpt><trkpt lat="40.4585347" lon="15.2063835"><ele>106.0</ele><time>2026-04-19T10:39:11.377Z</time></trkpt><trkpt lat="40.4586439" lon="15.206417"><ele>106.0</ele><time>2026-04-19T10:39:12.377Z</time></trkpt><trkpt lat="40.4587538" lon="15.2064488"><ele>106.0</ele><time>2026-04-19T10:39:13.377Z</time></trkpt><trkpt lat="40.458865" lon="15.2064852"><ele>106.0</ele><time>2026-04-19T10:39:14.378Z</time></trkpt><trkpt lat="40.4589799" lon="15.2065229"><ele>106.0</ele><time>2026-04-19T10:39:15.377Z</time></trkpt><trkpt lat="40.4590971" lon="15.2065583"><ele>102.5</ele><time>2026-04-19T10:39:16.378Z</time></trkpt><trkpt lat="40.4592129" lon="15.2065933"><ele>99.0</ele><time>2026-04-19T10:39:17.378Z</time></trkpt><trkpt lat="40.4593301" lon="15.2066274"><ele>95.5</ele><time>2026-04-19T10:39:18.377Z</time></trkpt><trkpt lat="40.4594452" lon="15.2066587"><ele>92.0</ele><time>2026-04-19T10:39:19.377Z</time></trkpt><trkpt lat="40.45956" lon="15.2066897"><ele>91.5</ele><time>2026-04-19T10:39:20.377Z</time></trkpt><trkpt lat="40.4596743" lon="15.2067228"><ele>91.0</ele><time>2026-04-19T10:39:21.377Z</time></trkpt><trkpt lat="40.4597844" lon="15.2067555"><ele>90.5</ele><time>2026-04-19T10:39:22.377Z</time></trkpt><trkpt lat="40.4598957" lon="15.2067876"><ele>90.0</ele><time>2026-04-19T10:39:23.377Z</time></trkpt><trkpt lat="40.4600081" lon="15.2068239"><ele>90.0</ele><time>2026-04-19T10:39:24.378Z</time></trkpt><trkpt lat="40.4601186" lon="15.2068681"><ele>90.0</ele><time>2026-04-19T10:39:25.377Z</time></trkpt><trkpt lat="40.4602288" lon="15.2069163"><ele>90.0</ele><time>2026-04-19T10:39:26.377Z</time></trkpt><trkpt lat="40.4603392" lon="15.2069675"><ele>90.0</ele><time>2026-04-19T10:39:27.377Z</time></trkpt><trkpt lat="40.4604533" lon="15.2070211"><ele>89.25</ele><time>2026-04-19T10:39:28.377Z</time></trkpt><trkpt lat="40.4605691" lon="15.207074"><ele>88.5</ele><time>2026-04-19T10:39:29.377Z</time></trkpt><trkpt lat="40.4606781" lon="15.2071223"><ele>87.75</ele><time>2026-04-19T10:39:30.377Z</time></trkpt><trkpt lat="40.4607812" lon="15.2071683"><ele>87.0</ele><time>2026-04-19T10:39:31.378Z</time></trkpt><trkpt lat="40.4608793" lon="15.20721"><ele>87.0</ele><time>2026-04-19T10:39:32.377Z</time></trkpt><trkpt lat="40.4609817" lon="15.2072598"><ele>87.0</ele><time>2026-04-19T10:39:33.377Z</time></trkpt><trkpt lat="40.4610819" lon="15.2073166"><ele>87.0</ele><time>2026-04-19T10:39:34.378Z</time></trkpt><trkpt lat="40.4611804" lon="15.2073824"><ele>87.0</ele><time>2026-04-19T10:39:35.379Z</time></trkpt><trkpt lat="40.4612608" lon="15.207453"><ele>87.0</ele><time>2026-04-19T10:39:36.377Z</time></trkpt><trkpt lat="40.461328" lon="15.207523"><ele>88.0</ele><time>2026-04-19T10:39:37.377Z</time></trkpt><trkpt lat="40.4613794" lon="15.2075952"><ele>89.0</ele><time>2026-04-19T10:39:38.377Z</time></trkpt><trkpt lat="40.4614157" lon="15.2076674"><ele>90.0</ele><time>2026-04-19T10:39:39.377Z</time></trkpt><trkpt lat="40.4614567" lon="15.2078255"><ele>91.0</ele><time>2026-04-19T10:39:41.377Z</time></trkpt><trkpt lat="40.4614659" lon="15.2079076"><ele>92.0</ele><time>2026-04-19T10:39:42.377Z</time></trkpt><trkpt lat="40.461466" lon="15.2080499"><ele>93.0</ele><time>2026-04-19T10:39:44.377Z</time></trkpt><trkpt lat="40.4614678" lon="15.2081396"><ele>94.33333333333333</ele><time>2026-04-19T10:39:47.378Z</time></trkpt><trkpt lat="40.4614699" lon="15.2082665"><ele>95.66666666666666</ele><time>2026-04-19T10:40:13.377Z</time></trkpt><trkpt lat="40.4614735" lon="15.2083654"><ele>97.0</ele><time>2026-04-19T10:40:14.377Z</time></trkpt><trkpt lat="40.4614736" lon="15.2084736"><ele>98.33333333333333</ele><time>2026-04-19T10:40:15.378Z</time></trkpt><trkpt lat="40.4614731" lon="15.2085933"><ele>99.66666666666666</ele><time>2026-04-19T10:40:16.377Z</time></trkpt><trkpt lat="40.4614624" lon="15.2087248"><ele>101.0</ele><time>2026-04-19T10:40:17.377Z</time></trkpt><trkpt lat="40.4614344" lon="15.2088523"><ele>101.0</ele><time>2026-04-19T10:40:18.377Z</time></trkpt><trkpt lat="40.4613861" lon="15.2089525"><ele>101.0</ele><time>2026-04-19T10:40:19.377Z</time></trkpt><trkpt lat="40.4613222" lon="15.2090537"><ele>101.0</ele><time>2026-04-19T10:40:20.377Z</time></trkpt><trkpt lat="40.4612351" lon="15.2091669"><ele>101.0</ele><time>2026-04-19T10:40:21.377Z</time></trkpt><trkpt lat="40.4611491" lon="15.2092774"><ele>101.0</ele><time>2026-04-19T10:40:22.377Z</time></trkpt><trkpt lat="40.4610506" lon="15.2094069"><ele>100.75</ele><time>2026-04-19T10:40:23.377Z</time></trkpt><trkpt lat="40.460957" lon="15.2095248"><ele>100.5</ele><time>2026-04-19T10:40:24.377Z</time></trkpt><trkpt lat="40.460872" lon="15.2096314"><ele>100.25</ele><time>2026-04-19T10:40:25.377Z</time></trkpt><trkpt lat="40.4607975" lon="15.2097331"><ele>100.0</ele><time>2026-04-19T10:40:26.377Z</time></trkpt><trkpt lat="40.4607348" lon="15.2098328"><ele>101.8</ele><time>2026-04-19T10:40:27.377Z</time></trkpt><trkpt lat="40.4606872" lon="15.2099357"><ele>103.6</ele><time>2026-04-19T10:40:28.377Z</time></trkpt><trkpt lat="40.4606403" lon="15.2100555"><ele>105.4</ele><time>2026-04-19T10:40:29.378Z</time></trkpt><trkpt lat="40.4605963" lon="15.2101859"><ele>107.2</ele><time>2026-04-19T10:40:30.378Z</time></trkpt><trkpt lat="40.4605596" lon="15.2103111"><ele>109.0</ele><time>2026-04-19T10:40:31.377Z</time></trkpt><trkpt lat="40.4605256" lon="15.2104378"><ele>109.0</ele><time>2026-04-19T10:40:32.377Z</time></trkpt><trkpt lat="40.4604949" lon="15.2105646"><ele>109.0</ele><time>2026-04-19T10:40:33.378Z</time></trkpt><trkpt lat="40.4604687" lon="15.2106929"><ele>109.0</ele><time>2026-04-19T10:40:34.377Z</time></trkpt><trkpt lat="40.4604432" lon="15.2108229"><ele>109.0</ele><time>2026-04-19T10:40:35.377Z</time></trkpt><trkpt lat="40.4604174" lon="15.2109645"><ele>109.0</ele><time>2026-04-19T10:40:36.377Z</time></trkpt><trkpt lat="40.4603882" lon="15.2111255"><ele>108.25</ele><time>2026-04-19T10:40:37.377Z</time></trkpt><trkpt lat="40.4603562" lon="15.2112932"><ele>107.5</ele><time>2026-04-19T10:40:38.378Z</time></trkpt><trkpt lat="40.460327" lon="15.2114613"><ele>106.75</ele><time>2026-04-19T10:40:39.377Z</time></trkpt><trkpt lat="40.4602992" lon="15.2116229"><ele>106.0</ele><time>2026-04-19T10:40:40.377Z</time></trkpt><trkpt lat="40.4602704" lon="15.2117773"><ele>106.0</ele><time>2026-04-19T10:40:41.377Z</time></trkpt><trkpt lat="40.4602421" lon="15.2119225"><ele>106.0</ele><time>2026-04-19T10:40:42.377Z</time></trkpt><trkpt lat="40.4602169" lon="15.2120617"><ele>106.0</ele><time>2026-04-19T10:40:43.377Z</time></trkpt><trkpt lat="40.4602137" lon="15.2122088"><ele>106.0</ele><time>2026-04-19T10:40:44.377Z</time></trkpt><trkpt lat="40.4602252" lon="15.21236"><ele>108.0</ele><time>2026-04-19T10:40:45.378Z</time></trkpt><trkpt lat="40.4602414" lon="15.2125181"><ele>110.0</ele><time>2026-04-19T10:40:46.377Z</time></trkpt><trkpt lat="40.4602596" lon="15.2126778"><ele>112.0</ele><time>2026-04-19T10:40:47.377Z</time></trkpt><trkpt lat="40.4602769" lon="15.2128433"><ele>114.0</ele><time>2026-04-19T10:40:48.377Z</time></trkpt><trkpt lat="40.4602907" lon="15.2130145"><ele>115.25</ele><time>2026-04-19T10:40:49.377Z</time></trkpt><trkpt lat="40.4602998" lon="15.2131892"><ele>116.5</ele><time>2026-04-19T10:40:50.377Z</time></trkpt><trkpt lat="40.4603023" lon="15.2133622"><ele>117.75</ele><time>2026-04-19T10:40:51.377Z</time></trkpt><trkpt lat="40.4602962" lon="15.2135316"><ele>119.0</ele><time>2026-04-19T10:40:52.377Z</time></trkpt><trkpt lat="40.4602811" lon="15.2136941"><ele>119.0</ele><time>2026-04-19T10:40:53.377Z</time></trkpt><trkpt lat="40.4602598" lon="15.2138495"><ele>119.0</ele><time>2026-04-19T10:40:54.378Z</time></trkpt><trkpt lat="40.4602371" lon="15.2139947"><ele>119.0</ele><time>2026-04-19T10:40:55.378Z</time></trkpt><trkpt lat="40.4602122" lon="15.2141162"><ele>119.0</ele><time>2026-04-19T10:40:56.377Z</time></trkpt><trkpt lat="40.4601734" lon="15.2142328"><ele>119.0</ele><time>2026-04-19T10:40:57.377Z</time></trkpt><trkpt lat="40.4601221" lon="15.2143412"><ele>120.0</ele><time>2026-04-19T10:40:58.378Z</time></trkpt><trkpt lat="40.4600557" lon="15.2144459"><ele>121.0</ele><time>2026-04-19T10:40:59.377Z</time></trkpt><trkpt lat="40.4599762" lon="15.2145511"><ele>122.0</ele><time>2026-04-19T10:41:00.377Z</time></trkpt><trkpt lat="40.4598915" lon="15.2146516"><ele>123.0</ele><time>2026-04-19T10:41:01.377Z</time></trkpt><trkpt lat="40.4598163" lon="15.2147408"><ele>124.0</ele><time>2026-04-19T10:41:02.377Z</time></trkpt><trkpt lat="40.4597531" lon="15.2148246"><ele>124.00000000000001</ele><time>2026-04-19T10:41:03.377Z</time></trkpt><trkpt lat="40.4597039" lon="15.2149044"><ele>124.0</ele><time>2026-04-19T10:41:04.377Z</time></trkpt><trkpt lat="40.4596613" lon="15.21499"><ele>124.0</ele><time>2026-04-19T10:41:05.377Z</time></trkpt><trkpt lat="40.4596198" lon="15.2150829"><ele>124.0</ele><time>2026-04-19T10:41:06.378Z</time></trkpt><trkpt lat="40.4595781" lon="15.215182"><ele>124.00000000000001</ele><time>2026-04-19T10:41:07.377Z</time></trkpt><trkpt lat="40.4595367" lon="15.215288"><ele>124.0</ele><time>2026-04-19T10:41:08.377Z</time></trkpt><trkpt lat="40.4595002" lon="15.2154069"><ele>124.4</ele><time>2026-04-19T10:41:09.378Z</time></trkpt><trkpt lat="40.4594691" lon="15.2155351"><ele>124.80000000000001</ele><time>2026-04-19T10:41:10.378Z</time></trkpt><trkpt lat="40.4594361" lon="15.2156729"><ele>125.19999999999999</ele><time>2026-04-19T10:41:11.377Z</time></trkpt><trkpt lat="40.4594008" lon="15.2158131"><ele>125.6</ele><time>2026-04-19T10:41:12.378Z</time></trkpt><trkpt lat="40.459366" lon="15.2159371"><ele>126.0</ele><time>2026-04-19T10:41:13.378Z</time></trkpt><trkpt lat="40.4593343" lon="15.2160381"><ele>127.0</ele><time>2026-04-19T10:41:14.378Z</time></trkpt><trkpt lat="40.4592888" lon="15.2161744"><ele>128.0</ele><time>2026-04-19T10:41:16.377Z</time></trkpt><trkpt lat="40.4592542" lon="15.2162944"><ele>129.0</ele><time>2026-04-19T10:41:18.378Z</time></trkpt><trkpt lat="40.4592351" lon="15.2164067"><ele>130.0</ele><time>2026-04-19T10:41:20.377Z</time></trkpt><trkpt lat="40.4592112" lon="15.2165295"><ele>131.0</ele><time>2026-04-19T10:41:22.377Z</time></trkpt><trkpt lat="40.4591875" lon="15.216679"><ele>131.33333333333331</ele><time>2026-04-19T10:41:24.377Z</time></trkpt><trkpt lat="40.4591729" lon="15.2167602"><ele>131.66666666666666</ele><time>2026-04-19T10:41:25.377Z</time></trkpt><trkpt lat="40.4591492" lon="15.2169165"><ele>132.0</ele><time>2026-04-19T10:41:27.377Z</time></trkpt><trkpt lat="40.4591379" lon="15.2169993"><ele>132.33333333333334</ele><time>2026-04-19T10:41:28.378Z</time></trkpt><trkpt lat="40.4591234" lon="15.217083"><ele>132.66666666666669</ele><time>2026-04-19T10:41:29.377Z</time></trkpt><trkpt lat="40.4591061" lon="15.2171938"><ele>133.0</ele><time>2026-04-19T10:41:31.377Z</time></trkpt><trkpt lat="40.4590895" lon="15.2172923"><ele>133.33333333333334</ele><time>2026-04-19T10:41:33.377Z</time></trkpt><trkpt lat="40.4590653" lon="15.2174078"><ele>133.66666666666669</ele><time>2026-04-19T10:41:35.377Z</time></trkpt><trkpt lat="40.4590319" lon="15.2175446"><ele>134.0</ele><time>2026-04-19T10:41:37.377Z</time></trkpt><trkpt lat="40.4590075" lon="15.2176256"><ele>134.33333333333334</ele><time>2026-04-19T10:41:38.377Z</time></trkpt><trkpt lat="40.4589826" lon="15.2177255"><ele>134.66666666666666</ele><time>2026-04-19T10:41:39.377Z</time></trkpt><trkpt lat="40.4589564" lon="15.2178277"><ele>135.0</ele><time>2026-04-19T10:41:40.377Z</time></trkpt><trkpt lat="40.458934" lon="15.2179242"><ele>135.0</ele><time>2026-04-19T10:41:41.378Z</time></trkpt><trkpt lat="40.4589128" lon="15.2180289"><ele>135.0</ele><time>2026-04-19T10:41:42.377Z</time></trkpt><trkpt lat="40.4588956" lon="15.2181563"><ele>135.0</ele><time>2026-04-19T10:41:43.378Z</time></trkpt><trkpt lat="40.4588836" lon="15.2183011"><ele>135.0</ele><time>2026-04-19T10:41:44.377Z</time></trkpt><trkpt lat="40.4588807" lon="15.2184399"><ele>135.0</ele><time>2026-04-19T10:41:45.377Z</time></trkpt><trkpt lat="40.458882" lon="15.2185889"><ele>135.2</ele><time>2026-04-19T10:41:46.377Z</time></trkpt><trkpt lat="40.4588787" lon="15.2187443"><ele>135.4</ele><time>2026-04-19T10:41:47.377Z</time></trkpt><trkpt lat="40.4588732" lon="15.2188921"><ele>135.6</ele><time>2026-04-19T10:41:48.377Z</time></trkpt><trkpt lat="40.458865" lon="15.2190305"><ele>135.8</ele><time>2026-04-19T10:41:49.377Z</time></trkpt><trkpt lat="40.4588556" lon="15.2191594"><ele>136.0</ele><time>2026-04-19T10:41:50.377Z</time></trkpt><trkpt lat="40.4588465" lon="15.2192799"><ele>136.0</ele><time>2026-04-19T10:41:51.377Z</time></trkpt><trkpt lat="40.4588365" lon="15.2193904"><ele>136.0</ele><time>2026-04-19T10:41:52.378Z</time></trkpt><trkpt lat="40.4588295" lon="15.2194944"><ele>136.0</ele><time>2026-04-19T10:41:53.377Z</time></trkpt><trkpt lat="40.4588228" lon="15.2195787"><ele>136.0</ele><time>2026-04-19T10:41:54.377Z</time></trkpt><trkpt lat="40.4588457" lon="15.2196966"><ele>136.0</ele><time>2026-04-19T10:41:56.378Z</time></trkpt><trkpt lat="40.45893" lon="15.2197466"><ele>136.0</ele><time>2026-04-19T10:41:58.377Z</time></trkpt><trkpt lat="40.459072" lon="15.2197554"><ele>136.0</ele><time>2026-04-19T10:42:00.377Z</time></trkpt><trkpt lat="40.4591537" lon="15.2197467"><ele>136.0</ele><time>2026-04-19T10:42:01.377Z</time></trkpt><trkpt lat="40.4592417" lon="15.2197344"><ele>136.0</ele><time>2026-04-19T10:42:02.377Z</time></trkpt><trkpt lat="40.4593344" lon="15.2197171"><ele>136.0</ele><time>2026-04-19T10:42:03.377Z</time></trkpt><trkpt lat="40.4594303" lon="15.2196925"><ele>136.0</ele><time>2026-04-19T10:42:04.378Z</time></trkpt><trkpt lat="40.4595254" lon="15.2196527"><ele>136.0</ele><time>2026-04-19T10:42:05.377Z</time></trkpt><trkpt lat="40.4596122" lon="15.2195976"><ele>136.0</ele><time>2026-04-19T10:42:06.377Z</time></trkpt><trkpt lat="40.4596947" lon="15.2195409"><ele>136.0</ele><time>2026-04-19T10:42:07.376Z</time></trkpt><trkpt lat="40.4597751" lon="15.2194992"><ele>136.0</ele><time>2026-04-19T10:42:08.376Z</time></trkpt><trkpt lat="40.4598525" lon="15.219467"><ele>136.0</ele><time>2026-04-19T10:42:09.378Z</time></trkpt><trkpt lat="40.4599317" lon="15.2194518"><ele>136.0</ele><time>2026-04-19T10:42:10.376Z</time></trkpt><trkpt lat="40.4600115" lon="15.2194502"><ele>135.16666666666669</ele><time>2026-04-19T10:42:11.376Z</time></trkpt><trkpt lat="40.4600922" lon="15.2194564"><ele>134.33333333333334</ele><time>2026-04-19T10:42:12.376Z</time></trkpt><trkpt lat="40.4601696" lon="15.2194623"><ele>133.5</ele><time>2026-04-19T10:42:13.376Z</time></trkpt><trkpt lat="40.4602526" lon="15.2194658"><ele>132.66666666666666</ele><time>2026-04-19T10:42:14.377Z</time></trkpt><trkpt lat="40.4603376" lon="15.2194679"><ele>131.83333333333331</ele><time>2026-04-19T10:42:15.376Z</time></trkpt><trkpt lat="40.4604241" lon="15.2194713"><ele>131.0</ele><time>2026-04-19T10:42:16.376Z</time></trkpt><trkpt lat="40.4605104" lon="15.2194793"><ele>131.0</ele><time>2026-04-19T10:42:17.376Z</time></trkpt><trkpt lat="40.4605993" lon="15.2194926"><ele>131.0</ele><time>2026-04-19T10:42:18.376Z</time></trkpt><trkpt lat="40.4606876" lon="15.2195115"><ele>131.0</ele><time>2026-04-19T10:42:19.376Z</time></trkpt><trkpt lat="40.4607793" lon="15.2195355"><ele>131.0</ele><time>2026-04-19T10:42:20.376Z</time></trkpt><trkpt lat="40.4608697" lon="15.2195661"><ele>131.0</ele><time>2026-04-19T10:42:21.376Z</time></trkpt><trkpt lat="40.4609564" lon="15.2196117"><ele>131.0</ele><time>2026-04-19T10:42:22.376Z</time></trkpt><trkpt lat="40.4610376" lon="15.2196763"><ele>131.0</ele><time>2026-04-19T10:42:23.376Z</time></trkpt><trkpt lat="40.4611137" lon="15.2197533"><ele>131.0</ele><time>2026-04-19T10:42:24.376Z</time></trkpt><trkpt lat="40.4611807" lon="15.2198252"><ele>131.0</ele><time>2026-04-19T10:42:25.377Z</time></trkpt><trkpt lat="40.4612406" lon="15.2199034"><ele>131.0</ele><time>2026-04-19T10:42:26.376Z</time></trkpt><trkpt lat="40.4612911" lon="15.219971"><ele>131.0</ele><time>2026-04-19T10:42:27.377Z</time></trkpt><trkpt lat="40.4613392" lon="15.2200398"><ele>133.83333333333331</ele><time>2026-04-19T10:42:28.377Z</time></trkpt><trkpt lat="40.4613887" lon="15.220111"><ele>136.66666666666666</ele><time>2026-04-19T10:42:29.376Z</time></trkpt><trkpt lat="40.4614363" lon="15.2201866"><ele>139.5</ele><time>2026-04-19T10:42:30.376Z</time></trkpt><trkpt lat="40.4614845" lon="15.2202614"><ele>142.33333333333334</ele><time>2026-04-19T10:42:31.376Z</time></trkpt><trkpt lat="40.461544" lon="15.2203369"><ele>145.16666666666669</ele><time>2026-04-19T10:42:32.377Z</time></trkpt><trkpt lat="40.4616127" lon="15.2204036"><ele>148.0</ele><time>2026-04-19T10:42:33.377Z</time></trkpt><trkpt lat="40.4616871" lon="15.2204571"><ele>148.0</ele><time>2026-04-19T10:42:34.376Z</time></trkpt><trkpt lat="40.4617487" lon="15.2204898"><ele>148.0</ele><time>2026-04-19T10:42:35.377Z</time></trkpt><trkpt lat="40.4618324" lon="15.2205454"><ele>148.0</ele><time>2026-04-19T10:42:37.376Z</time></trkpt><trkpt lat="40.4618641" lon="15.220621"><ele>148.0</ele><time>2026-04-19T10:42:39.376Z</time></trkpt><trkpt lat="40.4618421" lon="15.2207295"><ele>148.0</ele><time>2026-04-19T10:42:41.376Z</time></trkpt><trkpt lat="40.4618068" lon="15.2208013"><ele>148.0</ele><time>2026-04-19T10:42:42.376Z</time></trkpt><trkpt lat="40.4617636" lon="15.2208834"><ele>150.20000000000002</ele><time>2026-04-19T10:42:43.376Z</time></trkpt><trkpt lat="40.4617123" lon="15.2209856"><ele>152.4</ele><time>2026-04-19T10:42:44.376Z</time></trkpt><trkpt lat="40.4616587" lon="15.2210918"><ele>154.60000000000002</ele><time>2026-04-19T10:42:45.377Z</time></trkpt><trkpt lat="40.4616029" lon="15.2211988"><ele>156.8</ele><time>2026-04-19T10:42:46.376Z</time></trkpt><trkpt lat="40.4615527" lon="15.2212987"><ele>159.0</ele><time>2026-04-19T10:42:47.376Z</time></trkpt><trkpt lat="40.4615207" lon="15.2213825"><ele>160.6</ele><time>2026-04-19T10:42:48.376Z</time></trkpt><trkpt lat="40.4614922" lon="15.2214848"><ele>162.2</ele><time>2026-04-19T10:42:49.376Z</time></trkpt><trkpt lat="40.4614774" lon="15.2215891"><ele>163.79999999999998</ele><time>2026-04-19T10:42:50.376Z</time></trkpt><trkpt lat="40.46147" lon="15.2217011"><ele>165.4</ele><time>2026-04-19T10:42:51.377Z</time></trkpt><trkpt lat="40.4614667" lon="15.2218043"><ele>167.0</ele><time>2026-04-19T10:42:52.376Z</time></trkpt><trkpt lat="40.46146" lon="15.2219684"><ele>167.0</ele><time>2026-04-19T10:42:54.376Z</time></trkpt><trkpt lat="40.4614585" lon="15.2220549"><ele>167.0</ele><time>2026-04-19T10:42:55.376Z</time></trkpt><trkpt lat="40.4614606" lon="15.2221481"><ele>167.0</ele><time>2026-04-19T10:42:56.376Z</time></trkpt><trkpt lat="40.4614684" lon="15.2222331"><ele>167.0</ele><time>2026-04-19T10:42:57.376Z</time></trkpt><trkpt lat="40.4614853" lon="15.2223295"><ele>167.0</ele><time>2026-04-19T10:42:58.377Z</time></trkpt><trkpt lat="40.4615134" lon="15.2224187"><ele>167.0</ele><time>2026-04-19T10:42:59.376Z</time></trkpt><trkpt lat="40.4615478" lon="15.2225152"><ele>167.0</ele><time>2026-04-19T10:43:00.377Z</time></trkpt><trkpt lat="40.4615834" lon="15.2225982"><ele>167.83333333333331</ele><time>2026-04-19T10:43:01.376Z</time></trkpt><trkpt lat="40.461623" lon="15.2227"><ele>168.66666666666666</ele><time>2026-04-19T10:43:03.376Z</time></trkpt><trkpt lat="40.4616508" lon="15.2227781"><ele>169.5</ele><time>2026-04-19T10:43:06.377Z</time></trkpt><trkpt lat="40.4616874" lon="15.222848"><ele>170.33333333333334</ele><time>2026-04-19T10:44:19.376Z</time></trkpt><trkpt lat="40.4616395" lon="15.222771"><ele>171.16666666666669</ele><time>2026-04-19T10:44:25.376Z</time></trkpt><trkpt lat="40.4616073" lon="15.2226482"><ele>172.0</ele><time>2026-04-19T10:44:27.376Z</time></trkpt><trkpt lat="40.4615734" lon="15.2225621"><ele>172.00000000000003</ele><time>2026-04-19T10:44:28.376Z</time></trkpt><trkpt lat="40.4615389" lon="15.2224609"><ele>172.0</ele><time>2026-04-19T10:44:29.376Z</time></trkpt><trkpt lat="40.4615102" lon="15.2223722"><ele>172.0</ele><time>2026-04-19T10:44:30.376Z</time></trkpt><trkpt lat="40.4614801" lon="15.2222873"><ele>172.0</ele><time>2026-04-19T10:44:31.376Z</time></trkpt><trkpt lat="40.4614627" lon="15.2222033"><ele>172.0</ele><time>2026-04-19T10:44:32.376Z</time></trkpt><trkpt lat="40.4614596" lon="15.2221185"><ele>172.00000000000003</ele><time>2026-04-19T10:44:33.376Z</time></trkpt><trkpt lat="40.4614559" lon="15.2220187"><ele>172.0</ele><time>2026-04-19T10:44:34.376Z</time></trkpt><trkpt lat="40.4614522" lon="15.2219339"><ele>171.16666666666669</ele><time>2026-04-19T10:44:35.376Z</time></trkpt><trkpt lat="40.4614577" lon="15.2218364"><ele>170.33333333333334</ele><time>2026-04-19T10:44:36.376Z</time></trkpt><trkpt lat="40.4614666" lon="15.2217289"><ele>169.5</ele><time>2026-04-19T10:44:37.376Z</time></trkpt><trkpt lat="40.4614761" lon="15.2216264"><ele>168.66666666666666</ele><time>2026-04-19T10:44:38.376Z</time></trkpt><trkpt lat="40.4614913" lon="15.2215263"><ele>167.83333333333331</ele><time>2026-04-19T10:44:39.376Z</time></trkpt><trkpt lat="40.4615139" lon="15.221428"><ele>167.0</ele><time>2026-04-19T10:44:40.376Z</time></trkpt><trkpt lat="40.4615493" lon="15.2213331"><ele>165.66666666666666</ele><time>2026-04-19T10:44:41.376Z</time></trkpt><trkpt lat="40.461592" lon="15.2212358"><ele>164.33333333333331</ele><time>2026-04-19T10:44:42.376Z</time></trkpt><trkpt lat="40.4616402" lon="15.2211417"><ele>163.0</ele><time>2026-04-19T10:44:43.376Z</time></trkpt><trkpt lat="40.4616898" lon="15.2210469"><ele>161.66666666666666</ele><time>2026-04-19T10:44:44.376Z</time></trkpt><trkpt lat="40.4617342" lon="15.220963"><ele>160.33333333333334</ele><time>2026-04-19T10:44:45.376Z</time></trkpt><trkpt lat="40.4617733" lon="15.2208822"><ele>159.0</ele><time>2026-04-19T10:44:46.377Z</time></trkpt><trkpt lat="40.4618105" lon="15.2208063"><ele>159.0</ele><time>2026-04-19T10:44:47.376Z</time></trkpt><trkpt lat="40.4618453" lon="15.2207335"><ele>159.0</ele><time>2026-04-19T10:44:48.376Z</time></trkpt><trkpt lat="40.4619052" lon="15.2206157"><ele>159.0</ele><time>2026-04-19T10:44:50.376Z</time></trkpt><trkpt lat="40.461973" lon="15.2205723"><ele>159.0</ele><time>2026-04-19T10:44:52.378Z</time></trkpt><trkpt lat="40.462067" lon="15.2205811"><ele>159.0</ele><time>2026-04-19T10:44:54.376Z</time></trkpt><trkpt lat="40.4621824" lon="15.2206212"><ele>156.25</ele><time>2026-04-19T10:44:56.377Z</time></trkpt><trkpt lat="40.4622863" lon="15.2206712"><ele>153.5</ele><time>2026-04-19T10:44:58.376Z</time></trkpt><trkpt lat="40.4623944" lon="15.2207143"><ele>150.75</ele><time>2026-04-19T10:45:00.376Z</time></trkpt><trkpt lat="40.4624999" lon="15.220781"><ele>148.0</ele><time>2026-04-19T10:45:02.376Z</time></trkpt><trkpt lat="40.4626027" lon="15.22084"><ele>148.0</ele><time>2026-04-19T10:45:04.376Z</time></trkpt><trkpt lat="40.4627144" lon="15.2209095"><ele>148.0</ele><time>2026-04-19T10:45:06.378Z</time></trkpt><trkpt lat="40.4628206" lon="15.2209641"><ele>148.0</ele><time>2026-04-19T10:45:08.377Z</time></trkpt><trkpt lat="40.4629203" lon="15.2210129"><ele>148.0</ele><time>2026-04-19T10:45:10.376Z</time></trkpt><trkpt lat="40.463035" lon="15.2210636"><ele>146.20000000000002</ele><time>2026-04-19T10:45:12.377Z</time></trkpt><trkpt lat="40.4631316" lon="15.2210859"><ele>144.4</ele><time>2026-04-19T10:45:14.376Z</time></trkpt><trkpt lat="40.4632081" lon="15.2210337"><ele>142.60000000000002</ele><time>2026-04-19T10:45:16.376Z</time></trkpt><trkpt lat="40.4632913" lon="15.2209264"><ele>140.8</ele><time>2026-04-19T10:45:18.376Z</time></trkpt><trkpt lat="40.4633407" lon="15.2208502"><ele>139.0</ele><time>2026-04-19T10:45:19.378Z</time></trkpt><trkpt lat="40.4633948" lon="15.2207661"><ele>139.0</ele><time>2026-04-19T10:45:20.377Z</time></trkpt><trkpt lat="40.4634479" lon="15.2206858"><ele>139.0</ele><time>2026-04-19T10:45:21.376Z</time></trkpt><trkpt lat="40.4635008" lon="15.2206015"><ele>139.0</ele><time>2026-04-19T10:45:22.376Z</time></trkpt><trkpt lat="40.4635438" lon="15.2205203"><ele>139.0</ele><time>2026-04-19T10:45:23.377Z</time></trkpt><trkpt lat="40.4635785" lon="15.2204404"><ele>139.0</ele><time>2026-04-19T10:45:24.376Z</time></trkpt><trkpt lat="40.463618" lon="15.2203543"><ele>139.0</ele><time>2026-04-19T10:45:25.376Z</time></trkpt><trkpt lat="40.4636632" lon="15.2202628"><ele>138.83333333333334</ele><time>2026-04-19T10:45:26.376Z</time></trkpt><trkpt lat="40.4637078" lon="15.2201693"><ele>138.66666666666669</ele><time>2026-04-19T10:45:27.377Z</time></trkpt><trkpt lat="40.4637532" lon="15.2200735"><ele>138.5</ele><time>2026-04-19T10:45:28.376Z</time></trkpt><trkpt lat="40.4638009" lon="15.219977"><ele>138.33333333333334</ele><time>2026-04-19T10:45:29.376Z</time></trkpt><trkpt lat="40.4638511" lon="15.2198772"><ele>138.16666666666666</ele><time>2026-04-19T10:45:30.376Z</time></trkpt><trkpt lat="40.4639001" lon="15.2197831"><ele>138.0</ele><time>2026-04-19T10:45:31.376Z</time></trkpt><trkpt lat="40.4639422" lon="15.2196991"><ele>137.5</ele><time>2026-04-19T10:45:32.376Z</time></trkpt><trkpt lat="40.4639955" lon="15.2196289"><ele>137.0</ele><time>2026-04-19T10:45:33.376Z</time></trkpt><trkpt lat="40.4640612" lon="15.2195529"><ele>136.5</ele><time>2026-04-19T10:45:34.376Z</time></trkpt><trkpt lat="40.4641375" lon="15.219484"><ele>136.0</ele><time>2026-04-19T10:45:35.376Z</time></trkpt><trkpt lat="40.4642078" lon="15.2194216"><ele>135.5</ele><time>2026-04-19T10:45:36.376Z</time></trkpt><trkpt lat="40.464276" lon="15.2193681"><ele>135.0</ele><time>2026-04-19T10:45:37.377Z</time></trkpt><trkpt lat="40.4643449" lon="15.2193215"><ele>135.0</ele><time>2026-04-19T10:45:38.377Z</time></trkpt><trkpt lat="40.464415" lon="15.2192769"><ele>135.0</ele><time>2026-04-19T10:45:39.376Z</time></trkpt><trkpt lat="40.4644839" lon="15.2192394"><ele>135.0</ele><time>2026-04-19T10:45:40.376Z</time></trkpt><trkpt lat="40.4645571" lon="15.2192005"><ele>135.0</ele><time>2026-04-19T10:45:41.376Z</time></trkpt><trkpt lat="40.4646274" lon="15.2191646"><ele>135.0</ele><time>2026-04-19T10:45:42.376Z</time></trkpt><trkpt lat="40.4646953" lon="15.2191279"><ele>135.0</ele><time>2026-04-19T10:45:43.376Z</time></trkpt><trkpt lat="40.4647621" lon="15.219102"><ele>134.66666666666666</ele><time>2026-04-19T10:45:44.377Z</time></trkpt><trkpt lat="40.4648263" lon="15.2190955"><ele>134.33333333333334</ele><time>2026-04-19T10:45:45.376Z</time></trkpt><trkpt lat="40.4649456" lon="15.2191174"><ele>134.0</ele><time>2026-04-19T10:45:47.377Z</time></trkpt><trkpt lat="40.4650484" lon="15.2191496"><ele>133.66666666666669</ele><time>2026-04-19T10:45:49.376Z</time></trkpt><trkpt lat="40.4651061" lon="15.219199"><ele>133.33333333333334</ele><time>2026-04-19T10:45:52.377Z</time></trkpt><trkpt lat="40.4651485" lon="15.2192902"><ele>133.0</ele><time>2026-04-19T10:45:55.375Z</time></trkpt><trkpt lat="40.4651641" lon="15.2193782"><ele>133.0</ele><time>2026-04-19T10:45:57.376Z</time></trkpt><trkpt lat="40.4651415" lon="15.21949"><ele>133.0</ele><time>2026-04-19T10:45:59.375Z</time></trkpt><trkpt lat="40.4651101" lon="15.2195921"><ele>133.0</ele><time>2026-04-19T10:46:01.376Z</time></trkpt><trkpt lat="40.4650772" lon="15.2197024"><ele>133.0</ele><time>2026-04-19T10:46:03.375Z</time></trkpt><trkpt lat="40.4650335" lon="15.2198376"><ele>133.0</ele><time>2026-04-19T10:46:05.376Z</time></trkpt><trkpt lat="40.4649831" lon="15.2199714"><ele>133.8</ele><time>2026-04-19T10:46:07.376Z</time></trkpt><trkpt lat="40.4649372" lon="15.2200824"><ele>134.60000000000002</ele><time>2026-04-19T10:46:09.375Z</time></trkpt><trkpt lat="40.4648799" lon="15.2201793"><ele>135.39999999999998</ele><time>2026-04-19T10:46:11.375Z</time></trkpt><trkpt lat="40.4648405" lon="15.2202842"><ele>136.2</ele><time>2026-04-19T10:46:13.375Z</time></trkpt><trkpt lat="40.4647893" lon="15.220398"><ele>137.0</ele><time>2026-04-19T10:46:15.375Z</time></trkpt><trkpt lat="40.4647352" lon="15.2205133"><ele>137.0</ele><time>2026-04-19T10:46:17.375Z</time></trkpt><trkpt lat="40.4646917" lon="15.2206339"><ele>137.0</ele><time>2026-04-19T10:46:19.375Z</time></trkpt><trkpt lat="40.4646458" lon="15.22075"><ele>137.0</ele><time>2026-04-19T10:46:21.375Z</time></trkpt><trkpt lat="40.4645872" lon="15.2208726"><ele>137.0</ele><time>2026-04-19T10:46:23.375Z</time></trkpt><trkpt lat="40.4645351" lon="15.2210021"><ele>137.0</ele><time>2026-04-19T10:46:25.375Z</time></trkpt><trkpt lat="40.4644801" lon="15.2211251"><ele>139.2</ele><time>2026-04-19T10:46:27.375Z</time></trkpt><trkpt lat="40.464428" lon="15.2212358"><ele>141.39999999999998</ele><time>2026-04-19T10:46:29.375Z</time></trkpt><trkpt lat="40.4643861" lon="15.221367"><ele>143.60000000000002</ele><time>2026-04-19T10:46:31.376Z</time></trkpt><trkpt lat="40.4643573" lon="15.2215137"><ele>145.8</ele><time>2026-04-19T10:46:33.375Z</time></trkpt><trkpt lat="40.4643335" lon="15.2216611"><ele>148.0</ele><time>2026-04-19T10:46:35.375Z</time></trkpt><trkpt lat="40.4643247" lon="15.221746"><ele>148.66666666666669</ele><time>2026-04-19T10:46:36.377Z</time></trkpt><trkpt lat="40.4643144" lon="15.2218896"><ele>149.33333333333334</ele><time>2026-04-19T10:46:38.375Z</time></trkpt><trkpt lat="40.4642996" lon="15.2219985"><ele>150.0</ele><time>2026-04-19T10:46:40.375Z</time></trkpt><trkpt lat="40.4642777" lon="15.2220856"><ele>150.66666666666666</ele><time>2026-04-19T10:46:42.375Z</time></trkpt><trkpt lat="40.4642531" lon="15.2221828"><ele>151.33333333333331</ele><time>2026-04-19T10:46:45.375Z</time></trkpt><trkpt lat="40.4642168" lon="15.2222927"><ele>152.0</ele><time>2026-04-19T10:55:22.374Z</time></trkpt><trkpt lat="40.4641894" lon="15.2223796"><ele>152.4</ele><time>2026-04-19T10:55:24.375Z</time></trkpt><trkpt lat="40.4641709" lon="15.2224973"><ele>152.79999999999998</ele><time>2026-04-19T10:55:26.374Z</time></trkpt><trkpt lat="40.4641544" lon="15.2226064"><ele>153.2</ele><time>2026-04-19T10:55:28.374Z</time></trkpt><trkpt lat="40.4641466" lon="15.2227365"><ele>153.6</ele><time>2026-04-19T10:55:30.374Z</time></trkpt><trkpt lat="40.4641442" lon="15.2228635"><ele>154.0</ele><time>2026-04-19T10:55:32.374Z</time></trkpt><trkpt lat="40.4641656" lon="15.2229811"><ele>154.0</ele><time>2026-04-19T10:55:34.375Z</time></trkpt><trkpt lat="40.4642001" lon="15.2231186"><ele>154.0</ele><time>2026-04-19T10:55:36.374Z</time></trkpt><trkpt lat="40.4642478" lon="15.2232565"><ele>154.0</ele><time>2026-04-19T10:55:38.374Z</time></trkpt><trkpt lat="40.4642966" lon="15.2234068"><ele>154.0</ele><time>2026-04-19T10:55:40.374Z</time></trkpt><trkpt lat="40.4643388" lon="15.2235606"><ele>154.2</ele><time>2026-04-19T10:55:42.376Z</time></trkpt><trkpt lat="40.4643525" lon="15.2236428"><ele>154.4</ele><time>2026-04-19T10:55:43.376Z</time></trkpt><trkpt lat="40.4643622" lon="15.2237257"><ele>154.6</ele><time>2026-04-19T10:55:44.374Z</time></trkpt><trkpt lat="40.4643559" lon="15.2238648"><ele>154.8</ele><time>2026-04-19T10:55:46.374Z</time></trkpt><trkpt lat="40.4643411" lon="15.2240136"><ele>155.0</ele><time>2026-04-19T10:55:48.374Z</time></trkpt><trkpt lat="40.4643353" lon="15.2241607"><ele>155.0</ele><time>2026-04-19T10:55:50.375Z</time></trkpt><trkpt lat="40.4643563" lon="15.2243161"><ele>155.0</ele><time>2026-04-19T10:55:52.374Z</time></trkpt><trkpt lat="40.4643753" lon="15.2244126"><ele>155.0</ele><time>2026-04-19T10:55:53.374Z</time></trkpt><trkpt lat="40.4643968" lon="15.2245094"><ele>155.0</ele><time>2026-04-19T10:55:54.374Z</time></trkpt><trkpt lat="40.4644207" lon="15.2246055"><ele>155.0</ele><time>2026-04-19T10:55:55.375Z</time></trkpt><trkpt lat="40.4644475" lon="15.2247014"><ele>155.0</ele><time>2026-04-19T10:55:56.373Z</time></trkpt><trkpt lat="40.4644713" lon="15.2248002"><ele>155.66666666666666</ele><time>2026-04-19T10:55:57.373Z</time></trkpt><trkpt lat="40.4644949" lon="15.2248985"><ele>156.33333333333331</ele><time>2026-04-19T10:55:58.373Z</time></trkpt><trkpt lat="40.4645158" lon="15.2249986"><ele>157.0</ele><time>2026-04-19T10:55:59.373Z</time></trkpt><trkpt lat="40.4645368" lon="15.2250963"><ele>157.66666666666666</ele><time>2026-04-19T10:56:00.374Z</time></trkpt><trkpt lat="40.4645546" lon="15.225189"><ele>158.33333333333334</ele><time>2026-04-19T10:56:01.373Z</time></trkpt><trkpt lat="40.4645688" lon="15.2252834"><ele>159.0</ele><time>2026-04-19T10:56:02.373Z</time></trkpt><trkpt lat="40.4645762" lon="15.225375"><ele>159.0</ele><time>2026-04-19T10:56:03.373Z</time></trkpt><trkpt lat="40.4645848" lon="15.2254605"><ele>159.0</ele><time>2026-04-19T10:56:04.373Z</time></trkpt><trkpt lat="40.4645847" lon="15.2256095"><ele>159.0</ele><time>2026-04-19T10:56:06.373Z</time></trkpt><trkpt lat="40.4645789" lon="15.2257382"><ele>159.0</ele><time>2026-04-19T10:56:08.373Z</time></trkpt><trkpt lat="40.464566" lon="15.2258836"><ele>159.0</ele><time>2026-04-19T10:56:10.373Z</time></trkpt><trkpt lat="40.4645595" lon="15.2260497"><ele>159.57142857142856</ele><time>2026-04-19T10:56:12.373Z</time></trkpt><trkpt lat="40.4645559" lon="15.2261337"><ele>160.14285714285717</ele><time>2026-04-19T10:56:13.373Z</time></trkpt><trkpt lat="40.4645533" lon="15.2262165"><ele>160.71428571428572</ele><time>2026-04-19T10:56:14.374Z</time></trkpt><trkpt lat="40.4645469" lon="15.2263034"><ele>161.28571428571428</ele><time>2026-04-19T10:56:15.373Z</time></trkpt><trkpt lat="40.4645336" lon="15.2263959"><ele>161.85714285714283</ele><time>2026-04-19T10:56:16.374Z</time></trkpt><trkpt lat="40.4645214" lon="15.2264859"><ele>162.42857142857144</ele><time>2026-04-19T10:56:17.373Z</time></trkpt><trkpt lat="40.4645168" lon="15.2265819"><ele>163.0</ele><time>2026-04-19T10:56:18.373Z</time></trkpt><trkpt lat="40.4645137" lon="15.2266837"><ele>164.16666666666669</ele><time>2026-04-19T10:56:19.374Z</time></trkpt><trkpt lat="40.4645105" lon="15.2267867"><ele>165.33333333333334</ele><time>2026-04-19T10:56:20.373Z</time></trkpt><trkpt lat="40.4645117" lon="15.2268902"><ele>166.5</ele><time>2026-04-19T10:56:21.374Z</time></trkpt><trkpt lat="40.464513" lon="15.2269923"><ele>167.66666666666666</ele><time>2026-04-19T10:56:22.373Z</time></trkpt><trkpt lat="40.464511" lon="15.2270935"><ele>168.83333333333331</ele><time>2026-04-19T10:56:23.373Z</time></trkpt><trkpt lat="40.4645157" lon="15.2271893"><ele>170.0</ele><time>2026-04-19T10:56:24.373Z</time></trkpt><trkpt lat="40.464524" lon="15.2272854"><ele>171.0</ele><time>2026-04-19T10:56:25.373Z</time></trkpt><trkpt lat="40.4645347" lon="15.2273797"><ele>172.0</ele><time>2026-04-19T10:56:26.373Z</time></trkpt><trkpt lat="40.4645404" lon="15.2274747"><ele>173.0</ele><time>2026-04-19T10:56:27.373Z</time></trkpt><trkpt lat="40.4645438" lon="15.2275614"><ele>174.0</ele><time>2026-04-19T10:56:28.373Z</time></trkpt><trkpt lat="40.464547" lon="15.2276567"><ele>175.0</ele><time>2026-04-19T10:56:29.373Z</time></trkpt><trkpt lat="40.4645485" lon="15.2277497"><ele>176.0</ele><time>2026-04-19T10:56:30.374Z</time></trkpt><trkpt lat="40.4645452" lon="15.2278448"><ele>177.0</ele><time>2026-04-19T10:56:31.373Z</time></trkpt><trkpt lat="40.4645428" lon="15.2279453"><ele>177.0</ele><time>2026-04-19T10:56:32.373Z</time></trkpt><trkpt lat="40.464542" lon="15.2280477"><ele>177.0</ele><time>2026-04-19T10:56:33.373Z</time></trkpt><trkpt lat="40.4645424" lon="15.2281426"><ele>177.0</ele><time>2026-04-19T10:56:34.374Z</time></trkpt><trkpt lat="40.4645391" lon="15.2282391"><ele>177.0</ele><time>2026-04-19T10:56:35.373Z</time></trkpt><trkpt lat="40.4645322" lon="15.2283392"><ele>177.0</ele><time>2026-04-19T10:56:36.373Z</time></trkpt><trkpt lat="40.4645231" lon="15.2284245"><ele>177.0</ele><time>2026-04-19T10:56:37.373Z</time></trkpt><trkpt lat="40.4645152" lon="15.2285168"><ele>177.0</ele><time>2026-04-19T10:56:38.373Z</time></trkpt><trkpt lat="40.4645091" lon="15.2286025"><ele>178.0</ele><time>2026-04-19T10:56:39.373Z</time></trkpt><trkpt lat="40.4645054" lon="15.2286905"><ele>179.0</ele><time>2026-04-19T10:56:40.374Z</time></trkpt><trkpt lat="40.4645099" lon="15.2287797"><ele>180.0</ele><time>2026-04-19T10:56:41.373Z</time></trkpt><trkpt lat="40.4645239" lon="15.2288755"><ele>181.0</ele><time>2026-04-19T10:56:42.373Z</time></trkpt><trkpt lat="40.4645441" lon="15.2289678"><ele>182.0</ele><time>2026-04-19T10:56:43.373Z</time></trkpt><trkpt lat="40.4645642" lon="15.2290678"><ele>183.0</ele><time>2026-04-19T10:56:44.373Z</time></trkpt><trkpt lat="40.464587" lon="15.2291598"><ele>184.0</ele><time>2026-04-19T10:56:45.374Z</time></trkpt><trkpt lat="40.4646057" lon="15.229254"><ele>183.71428571428572</ele><time>2026-04-19T10:56:46.373Z</time></trkpt><trkpt lat="40.4646257" lon="15.2293499"><ele>183.42857142857142</ele><time>2026-04-19T10:56:47.373Z</time></trkpt><trkpt lat="40.4646431" lon="15.2294458"><ele>183.14285714285714</ele><time>2026-04-19T10:56:48.374Z</time></trkpt><trkpt lat="40.4646572" lon="15.2295418"><ele>182.85714285714286</ele><time>2026-04-19T10:56:49.373Z</time></trkpt><trkpt lat="40.4646678" lon="15.2296365"><ele>182.57142857142856</ele><time>2026-04-19T10:56:50.373Z</time></trkpt><trkpt lat="40.4646645" lon="15.2297241"><ele>182.28571428571428</ele><time>2026-04-19T10:56:51.373Z</time></trkpt><trkpt lat="40.4646503" lon="15.2298194"><ele>182.0</ele><time>2026-04-19T10:56:52.373Z</time></trkpt><trkpt lat="40.4646274" lon="15.2299186"><ele>184.16666666666666</ele><time>2026-04-19T10:56:53.374Z</time></trkpt><trkpt lat="40.4645987" lon="15.2300129"><ele>186.33333333333331</ele><time>2026-04-19T10:56:54.374Z</time></trkpt><trkpt lat="40.4645618" lon="15.2301072"><ele>188.5</ele><time>2026-04-19T10:56:55.373Z</time></trkpt><trkpt lat="40.464519" lon="15.230205"><ele>190.66666666666666</ele><time>2026-04-19T10:56:56.373Z</time></trkpt><trkpt lat="40.4644744" lon="15.2303084"><ele>192.83333333333334</ele><time>2026-04-19T10:56:57.373Z</time></trkpt><trkpt lat="40.4644328" lon="15.2304009"><ele>195.0</ele><time>2026-04-19T10:56:58.373Z</time></trkpt><trkpt lat="40.4643876" lon="15.2304912"><ele>195.0</ele><time>2026-04-19T10:56:59.374Z</time></trkpt><trkpt lat="40.4643376" lon="15.2305738"><ele>195.0</ele><time>2026-04-19T10:57:00.373Z</time></trkpt><trkpt lat="40.4642885" lon="15.2306551"><ele>195.0</ele><time>2026-04-19T10:57:01.373Z</time></trkpt><trkpt lat="40.4642397" lon="15.2307439"><ele>195.0</ele><time>2026-04-19T10:57:02.373Z</time></trkpt><trkpt lat="40.4641937" lon="15.2308323"><ele>195.0</ele><time>2026-04-19T10:57:03.374Z</time></trkpt><trkpt lat="40.46415" lon="15.230918"><ele>195.0</ele><time>2026-04-19T10:57:04.373Z</time></trkpt><trkpt lat="40.4641069" lon="15.2310088"><ele>196.0</ele><time>2026-04-19T10:57:05.374Z</time></trkpt><trkpt lat="40.4640674" lon="15.2311017"><ele>197.0</ele><time>2026-04-19T10:57:06.373Z</time></trkpt><trkpt lat="40.4640256" lon="15.2311947"><ele>198.0</ele><time>2026-04-19T10:57:07.373Z</time></trkpt><trkpt lat="40.4639884" lon="15.2312872"><ele>199.0</ele><time>2026-04-19T10:57:08.373Z</time></trkpt><trkpt lat="40.4639508" lon="15.2313846"><ele>200.0</ele><time>2026-04-19T10:57:09.373Z</time></trkpt><trkpt lat="40.4639154" lon="15.2314812"><ele>201.0</ele><time>2026-04-19T10:57:10.373Z</time></trkpt><trkpt lat="40.4638806" lon="15.2315845"><ele>201.66666666666666</ele><time>2026-04-19T10:57:11.375Z</time></trkpt><trkpt lat="40.4638399" lon="15.2316802"><ele>202.33333333333331</ele><time>2026-04-19T10:57:12.373Z</time></trkpt><trkpt lat="40.463793" lon="15.2317671"><ele>203.0</ele><time>2026-04-19T10:57:13.373Z</time></trkpt><trkpt lat="40.4637389" lon="15.2318355"><ele>203.66666666666666</ele><time>2026-04-19T10:57:14.373Z</time></trkpt><trkpt lat="40.4636854" lon="15.2319173"><ele>204.33333333333331</ele><time>2026-04-19T10:57:15.374Z</time></trkpt><trkpt lat="40.4636348" lon="15.2319995"><ele>205.0</ele><time>2026-04-19T10:57:16.373Z</time></trkpt><trkpt lat="40.4635896" lon="15.2320856"><ele>205.49999999999997</ele><time>2026-04-19T10:57:17.373Z</time></trkpt><trkpt lat="40.4635668" lon="15.2321814"><ele>206.0</ele><time>2026-04-19T10:57:18.373Z</time></trkpt><trkpt lat="40.4635368" lon="15.2322776"><ele>206.5</ele><time>2026-04-19T10:57:19.373Z</time></trkpt><trkpt lat="40.4635137" lon="15.232382"><ele>207.0</ele><time>2026-04-19T10:57:20.373Z</time></trkpt><trkpt lat="40.4634806" lon="15.2324869"><ele>207.49999999999997</ele><time>2026-04-19T10:57:21.373Z</time></trkpt><trkpt lat="40.4634469" lon="15.2325911"><ele>208.0</ele><time>2026-04-19T10:57:22.373Z</time></trkpt><trkpt lat="40.4634175" lon="15.2326908"><ele>209.33333333333331</ele><time>2026-04-19T10:57:23.373Z</time></trkpt><trkpt lat="40.4633845" lon="15.2327957"><ele>210.66666666666666</ele><time>2026-04-19T10:57:24.373Z</time></trkpt><trkpt lat="40.4633476" lon="15.2328965"><ele>212.0</ele><time>2026-04-19T10:57:25.374Z</time></trkpt><trkpt lat="40.4633108" lon="15.2329972"><ele>213.33333333333331</ele><time>2026-04-19T10:57:26.374Z</time></trkpt><trkpt lat="40.463273" lon="15.2330958"><ele>214.66666666666666</ele><time>2026-04-19T10:57:27.373Z</time></trkpt><trkpt lat="40.4632275" lon="15.2331922"><ele>216.0</ele><time>2026-04-19T10:57:28.373Z</time></trkpt><trkpt lat="40.4631874" lon="15.2332735"><ele>217.16666666666666</ele><time>2026-04-19T10:57:29.375Z</time></trkpt><trkpt lat="40.4631458" lon="15.2333556"><ele>218.33333333333331</ele><time>2026-04-19T10:57:30.373Z</time></trkpt><trkpt lat="40.4631034" lon="15.2334495"><ele>219.5</ele><time>2026-04-19T10:57:31.373Z</time></trkpt><trkpt lat="40.4630612" lon="15.2335342"><ele>220.66666666666666</ele><time>2026-04-19T10:57:32.373Z</time></trkpt><trkpt lat="40.4630214" lon="15.23362"><ele>221.83333333333331</ele><time>2026-04-19T10:57:33.373Z</time></trkpt><trkpt lat="40.4629825" lon="15.2337074"><ele>223.0</ele><time>2026-04-19T10:57:34.373Z</time></trkpt><trkpt lat="40.4629447" lon="15.2337971"><ele>223.49999999999997</ele><time>2026-04-19T10:57:35.373Z</time></trkpt><trkpt lat="40.4629026" lon="15.2338873"><ele>224.0</ele><time>2026-04-19T10:57:36.373Z</time></trkpt><trkpt lat="40.4628621" lon="15.2339833"><ele>224.5</ele><time>2026-04-19T10:57:37.374Z</time></trkpt><trkpt lat="40.4628131" lon="15.2340807"><ele>225.0</ele><time>2026-04-19T10:57:38.374Z</time></trkpt><trkpt lat="40.4627677" lon="15.2341715"><ele>225.49999999999997</ele><time>2026-04-19T10:57:39.373Z</time></trkpt><trkpt lat="40.4627281" lon="15.2342615"><ele>226.0</ele><time>2026-04-19T10:57:40.373Z</time></trkpt><trkpt lat="40.4626961" lon="15.2343432"><ele>227.49999999999997</ele><time>2026-04-19T10:57:41.374Z</time></trkpt><trkpt lat="40.4626589" lon="15.234475"><ele>229.0</ele><time>2026-04-19T10:57:43.373Z</time></trkpt><trkpt lat="40.4626385" lon="15.2345613"><ele>230.5</ele><time>2026-04-19T10:57:46.374Z</time></trkpt><trkpt lat="40.4625974" lon="15.2346272"><ele>232.0</ele><time>2026-04-19T10:57:48.373Z</time></trkpt><trkpt lat="40.4625109" lon="15.2346903"><ele>233.49999999999997</ele><time>2026-04-19T10:57:50.373Z</time></trkpt><trkpt lat="40.4624555" lon="15.2347301"><ele>235.0</ele><time>2026-04-19T10:57:51.374Z</time></trkpt><trkpt lat="40.4623956" lon="15.2347778"><ele>235.99999999999997</ele><time>2026-04-19T10:57:52.373Z</time></trkpt><trkpt lat="40.4623342" lon="15.2348322"><ele>237.0</ele><time>2026-04-19T10:57:53.373Z</time></trkpt><trkpt lat="40.4622774" lon="15.2348821"><ele>238.0</ele><time>2026-04-19T10:57:54.373Z</time></trkpt><trkpt lat="40.46219" lon="15.2349578"><ele>239.0</ele><time>2026-04-19T10:57:56.373Z</time></trkpt><trkpt lat="40.4621337" lon="15.2350051"><ele>239.99999999999997</ele><time>2026-04-19T10:57:58.373Z</time></trkpt><trkpt lat="40.4620549" lon="15.2350717"><ele>241.0</ele><time>2026-04-19T10:58:12.373Z</time></trkpt><trkpt lat="40.4620653" lon="15.2351634"><ele>241.0</ele><time>2026-04-19T10:58:14.373Z</time></trkpt><trkpt lat="40.4621204" lon="15.2352933"><ele>241.00000000000003</ele><time>2026-04-19T10:58:16.373Z</time></trkpt><trkpt lat="40.4621416" lon="15.2354197"><ele>241.00000000000003</ele><time>2026-04-19T10:58:18.374Z</time></trkpt><trkpt lat="40.4621782" lon="15.2355446"><ele>241.0</ele><time>2026-04-19T10:58:20.373Z</time></trkpt><trkpt lat="40.4622478" lon="15.2356567"><ele>241.0</ele><time>2026-04-19T10:58:22.373Z</time></trkpt><trkpt lat="40.4623244" lon="15.2357467"><ele>242.0</ele><time>2026-04-19T10:58:24.373Z</time></trkpt><trkpt lat="40.4623839" lon="15.2358341"><ele>243.00000000000003</ele><time>2026-04-19T10:58:26.373Z</time></trkpt><trkpt lat="40.4624283" lon="15.2359081"><ele>244.0</ele><time>2026-04-19T10:58:28.373Z</time></trkpt><trkpt lat="40.4624706" lon="15.2359763"><ele>245.0</ele><time>2026-04-19T10:58:30.373Z</time></trkpt><trkpt lat="40.4625107" lon="15.2360702"><ele>246.00000000000003</ele><time>2026-04-19T10:58:33.373Z</time></trkpt><trkpt lat="40.4625553" lon="15.2361433"><ele>247.0</ele><time>2026-04-19T10:58:36.373Z</time></trkpt><trkpt lat="40.4626005" lon="15.2362082"><ele>248.0</ele><time>2026-04-19T10:58:42.374Z</time></trkpt><trkpt lat="40.4626551" lon="15.2362693"><ele>248.00000000000003</ele><time>2026-04-19T10:58:55.373Z</time></trkpt><trkpt lat="40.4627158" lon="15.2362983"><ele>248.0</ele><time>2026-04-19T10:58:57.373Z</time></trkpt><trkpt lat="40.4627882" lon="15.2363419"><ele>248.0</ele><time>2026-04-19T10:58:59.374Z</time></trkpt><trkpt lat="40.4628477" lon="15.2364102"><ele>248.0</ele><time>2026-04-19T10:59:01.373Z</time></trkpt><trkpt lat="40.4629048" lon="15.236474"><ele>248.00000000000003</ele><time>2026-04-19T10:59:03.373Z</time></trkpt><trkpt lat="40.4629799" lon="15.2365748"><ele>248.0</ele><time>2026-04-19T10:59:05.374Z</time></trkpt><trkpt lat="40.4630531" lon="15.2366599"><ele>247.0</ele><time>2026-04-19T10:59:07.374Z</time></trkpt><trkpt lat="40.4631284" lon="15.2367364"><ele>246.0</ele><time>2026-04-19T10:59:09.374Z</time></trkpt><trkpt lat="40.4632005" lon="15.2368313"><ele>245.0</ele><time>2026-04-19T10:59:11.373Z</time></trkpt><trkpt lat="40.463266" lon="15.2369367"><ele>244.0</ele><time>2026-04-19T10:59:13.373Z</time></trkpt><trkpt lat="40.4633252" lon="15.2370437"><ele>243.0</ele><time>2026-04-19T10:59:15.373Z</time></trkpt><trkpt lat="40.4633742" lon="15.237134"><ele>243.0</ele><time>2026-04-19T10:59:17.374Z</time></trkpt><trkpt lat="40.4634191" lon="15.2372134"><ele>243.0</ele><time>2026-04-19T10:59:19.374Z</time></trkpt><trkpt lat="40.4634723" lon="15.237274"><ele>243.0</ele><time>2026-04-19T10:59:21.373Z</time></trkpt><trkpt lat="40.4635299" lon="15.2373304"><ele>243.0</ele><time>2026-04-19T10:59:23.375Z</time></trkpt><trkpt lat="40.4636014" lon="15.2373926"><ele>243.0</ele><time>2026-04-19T10:59:26.373Z</time></trkpt><trkpt lat="40.4636855" lon="15.2374196"><ele>243.0</ele><time>2026-04-19T10:59:29.373Z</time></trkpt><trkpt lat="40.4637664" lon="15.2374244"><ele>242.33333333333334</ele><time>2026-04-19T10:59:32.374Z</time></trkpt><trkpt lat="40.4638327" lon="15.2374225"><ele>241.66666666666669</ele><time>2026-04-19T10:59:34.373Z</time></trkpt><trkpt lat="40.4639272" lon="15.2374031"><ele>241.0</ele><time>2026-04-19T10:59:37.373Z</time></trkpt><trkpt lat="40.4639972" lon="15.2373931"><ele>240.33333333333334</ele><time>2026-04-19T10:59:39.373Z</time></trkpt><trkpt lat="40.4640784" lon="15.2373742"><ele>239.66666666666669</ele><time>2026-04-19T10:59:42.372Z</time></trkpt><trkpt lat="40.464168" lon="15.2373628"><ele>239.0</ele><time>2026-04-19T10:59:45.372Z</time></trkpt><trkpt lat="40.4642317" lon="15.2373251"><ele>238.0</ele><time>2026-04-19T10:59:47.373Z</time></trkpt><trkpt lat="40.4642817" lon="15.2372026"><ele>236.99999999999997</ele><time>2026-04-19T10:59:49.372Z</time></trkpt><trkpt lat="40.4643385" lon="15.2370937"><ele>235.99999999999997</ele><time>2026-04-19T10:59:51.372Z</time></trkpt><trkpt lat="40.4643922" lon="15.2369945"><ele>235.0</ele><time>2026-04-19T10:59:53.373Z</time></trkpt><trkpt lat="40.4644493" lon="15.2368921"><ele>234.0</ele><time>2026-04-19T10:59:55.372Z</time></trkpt><trkpt lat="40.4645037" lon="15.2368105"><ele>234.0</ele><time>2026-04-19T10:59:57.373Z</time></trkpt><trkpt lat="40.4645751" lon="15.2367427"><ele>234.0</ele><time>2026-04-19T11:00:00.372Z</time></trkpt><trkpt lat="40.4646544" lon="15.2367182"><ele>234.0</ele><time>2026-04-19T11:00:02.372Z</time></trkpt><trkpt lat="40.4647371" lon="15.2367081"><ele>234.0</ele><time>2026-04-19T11:00:04.372Z</time></trkpt><trkpt lat="40.4648237" lon="15.2367267"><ele>234.0</ele><time>2026-04-19T11:00:07.372Z</time></trkpt><trkpt lat="40.4649237" lon="15.2367528"><ele>234.0</ele><time>2026-04-19T11:00:10.372Z</time></trkpt><trkpt lat="40.4649989" lon="15.2367778"><ele>233.0</ele><time>2026-04-19T11:00:12.372Z</time></trkpt><trkpt lat="40.4650792" lon="15.2368182"><ele>232.0</ele><time>2026-04-19T11:00:15.372Z</time></trkpt><trkpt lat="40.4651613" lon="15.2368456"><ele>231.0</ele><time>2026-04-19T11:00:18.373Z</time></trkpt><trkpt lat="40.4652358" lon="15.2368798"><ele>230.0</ele><time>2026-04-19T11:00:21.372Z</time></trkpt><trkpt lat="40.4652959" lon="15.2369308"><ele>229.0</ele><time>2026-04-19T11:00:24.372Z</time></trkpt><trkpt lat="40.4653404" lon="15.2369925"><ele>228.0</ele><time>2026-04-19T11:01:24.372Z</time></trkpt><trkpt lat="40.4654035" lon="15.2370581"><ele>227.7142857142857</ele><time>2026-04-19T11:01:30.372Z</time></trkpt><trkpt lat="40.4654558" lon="15.2371078"><ele>227.4285714285714</ele><time>2026-04-19T11:01:34.372Z</time></trkpt><trkpt lat="40.4655094" lon="15.2371792"><ele>227.14285714285714</ele><time>2026-04-19T11:03:05.371Z</time></trkpt><trkpt lat="40.4655552" lon="15.2372638"><ele>226.85714285714283</ele><time>2026-04-19T11:03:08.371Z</time></trkpt><trkpt lat="40.4655991" lon="15.2373362"><ele>226.57142857142856</ele><time>2026-04-19T11:03:12.371Z</time></trkpt><trkpt lat="40.4656395" lon="15.2374154"><ele>226.28571428571428</ele><time>2026-04-19T11:03:15.371Z</time></trkpt><trkpt lat="40.4656963" lon="15.2375006"><ele>226.0</ele><time>2026-04-19T11:03:18.372Z</time></trkpt><trkpt lat="40.4657669" lon="15.2375769"><ele>226.0</ele><time>2026-04-19T11:03:21.372Z</time></trkpt><trkpt lat="40.4658314" lon="15.2376551"><ele>226.0</ele><time>2026-04-19T11:03:24.371Z</time></trkpt><trkpt lat="40.4658817" lon="15.2377127"><ele>226.0</ele><time>2026-04-19T11:03:26.372Z</time></trkpt><trkpt lat="40.4659357" lon="15.237764"><ele>226.0</ele><time>2026-04-19T11:03:28.371Z</time></trkpt><trkpt lat="40.4659919" lon="15.2378095"><ele>226.0</ele><time>2026-04-19T11:03:30.371Z</time></trkpt><trkpt lat="40.4660486" lon="15.2378625"><ele>226.0</ele><time>2026-04-19T11:03:32.371Z</time></trkpt><trkpt lat="40.4661043" lon="15.2379133"><ele>226.0</ele><time>2026-04-19T11:03:34.371Z</time></trkpt><trkpt lat="40.4661539" lon="15.2379743"><ele>225.99999999999997</ele><time>2026-04-19T11:03:36.371Z</time></trkpt><trkpt lat="40.4662057" lon="15.2380635"><ele>226.0</ele><time>2026-04-19T11:03:39.372Z</time></trkpt><trkpt lat="40.4662607" lon="15.2381534"><ele>226.0</ele><time>2026-04-19T11:03:42.372Z</time></trkpt><trkpt lat="40.4663508" lon="15.2382049"><ele>226.0</ele><time>2026-04-19T11:03:45.371Z</time></trkpt><trkpt lat="40.4664263" lon="15.2382012"><ele>225.99999999999997</ele><time>2026-04-19T11:03:47.373Z</time></trkpt><trkpt lat="40.4665269" lon="15.2381779"><ele>226.0</ele><time>2026-04-19T11:03:49.371Z</time></trkpt><trkpt lat="40.4666477" lon="15.2381105"><ele>225.83333333333331</ele><time>2026-04-19T11:03:51.371Z</time></trkpt><trkpt lat="40.466714" lon="15.2380641"><ele>225.66666666666666</ele><time>2026-04-19T11:03:52.372Z</time></trkpt><trkpt lat="40.4667857" lon="15.238013"><ele>225.5</ele><time>2026-04-19T11:03:53.371Z</time></trkpt><trkpt lat="40.4668468" lon="15.2379723"><ele>225.33333333333331</ele><time>2026-04-19T11:03:54.371Z</time></trkpt><trkpt lat="40.4669085" lon="15.2379371"><ele>225.16666666666666</ele><time>2026-04-19T11:03:55.371Z</time></trkpt><trkpt lat="40.4669692" lon="15.2379092"><ele>225.0</ele><time>2026-04-19T11:03:56.371Z</time></trkpt><trkpt lat="40.4670806" lon="15.237862"><ele>226.0</ele><time>2026-04-19T11:03:58.372Z</time></trkpt><trkpt lat="40.4671847" lon="15.2378289"><ele>227.0</ele><time>2026-04-19T11:04:00.371Z</time></trkpt><trkpt lat="40.4672843" lon="15.2378104"><ele>228.0</ele><time>2026-04-19T11:04:02.372Z</time></trkpt><trkpt lat="40.4673939" lon="15.2377965"><ele>229.0</ele><time>2026-04-19T11:04:04.371Z</time></trkpt><trkpt lat="40.4675054" lon="15.2377954"><ele>230.0</ele><time>2026-04-19T11:04:06.371Z</time></trkpt><trkpt lat="40.4676089" lon="15.237796"><ele>230.0</ele><time>2026-04-19T11:04:08.371Z</time></trkpt><trkpt lat="40.4677185" lon="15.2378027"><ele>230.0</ele><time>2026-04-19T11:04:10.371Z</time></trkpt><trkpt lat="40.4678369" lon="15.2378161"><ele>230.0</ele><time>2026-04-19T11:04:12.371Z</time></trkpt><trkpt lat="40.4679564" lon="15.2378251"><ele>230.0</ele><time>2026-04-19T11:04:14.371Z</time></trkpt><trkpt lat="40.4680195" lon="15.2378248"><ele>230.0</ele><time>2026-04-19T11:04:15.371Z</time></trkpt><trkpt lat="40.4681413" lon="15.2378248"><ele>230.16666666666669</ele><time>2026-04-19T11:04:17.371Z</time></trkpt><trkpt lat="40.4682586" lon="15.2378271"><ele>230.33333333333334</ele><time>2026-04-19T11:04:19.372Z</time></trkpt><trkpt lat="40.468347" lon="15.2378452"><ele>230.5</ele><time>2026-04-19T11:04:21.371Z</time></trkpt><trkpt lat="40.4684164" lon="15.2378719"><ele>230.66666666666669</ele><time>2026-04-19T11:04:23.373Z</time></trkpt><trkpt lat="40.4684641" lon="15.237932"><ele>230.83333333333334</ele><time>2026-04-19T11:04:27.372Z</time></trkpt><trkpt lat="40.4684191" lon="15.238038"><ele>231.0</ele><time>2026-04-19T11:04:30.372Z</time></trkpt><trkpt lat="40.4683599" lon="15.2380929"><ele>231.8</ele><time>2026-04-19T11:04:55.372Z</time></trkpt><trkpt lat="40.4682858" lon="15.2381896"><ele>232.60000000000002</ele><time>2026-04-19T11:04:57.372Z</time></trkpt><trkpt lat="40.4681884" lon="15.2383101"><ele>233.4</ele><time>2026-04-19T11:04:59.371Z</time></trkpt><trkpt lat="40.46813" lon="15.238377"><ele>234.2</ele><time>2026-04-19T11:05:00.371Z</time></trkpt><trkpt lat="40.4680733" lon="15.238436"><ele>235.0</ele><time>2026-04-19T11:05:01.372Z</time></trkpt><trkpt lat="40.4680178" lon="15.2384928"><ele>234.99999999999997</ele><time>2026-04-19T11:05:02.371Z</time></trkpt><trkpt lat="40.4679615" lon="15.2385497"><ele>235.0</ele><time>2026-04-19T11:05:03.371Z</time></trkpt><trkpt lat="40.4679021" lon="15.2386089"><ele>235.0</ele><time>2026-04-19T11:05:04.371Z</time></trkpt><trkpt lat="40.4678414" lon="15.2386756"><ele>235.0</ele><time>2026-04-19T11:05:05.371Z</time></trkpt><trkpt lat="40.4677781" lon="15.238746"><ele>234.99999999999997</ele><time>2026-04-19T11:05:06.371Z</time></trkpt><trkpt lat="40.4677176" lon="15.2388242"><ele>235.0</ele><time>2026-04-19T11:05:07.371Z</time></trkpt><trkpt lat="40.4676528" lon="15.2389112"><ele>236.33333333333331</ele><time>2026-04-19T11:05:08.371Z</time></trkpt><trkpt lat="40.4675971" lon="15.2389979"><ele>237.66666666666666</ele><time>2026-04-19T11:05:09.371Z</time></trkpt><trkpt lat="40.4675418" lon="15.2390818"><ele>239.0</ele><time>2026-04-19T11:05:10.371Z</time></trkpt><trkpt lat="40.4674955" lon="15.2391548"><ele>240.33333333333331</ele><time>2026-04-19T11:05:11.371Z</time></trkpt><trkpt lat="40.4674487" lon="15.2392315"><ele>241.66666666666666</ele><time>2026-04-19T11:05:12.371Z</time></trkpt><trkpt lat="40.4674005" lon="15.2393101"><ele>243.0</ele><time>2026-04-19T11:05:13.372Z</time></trkpt><trkpt lat="40.4673592" lon="15.2393934"><ele>243.0</ele><time>2026-04-19T11:05:14.371Z</time></trkpt><trkpt lat="40.4673074" lon="15.2394779"><ele>243.0</ele><time>2026-04-19T11:05:15.371Z</time></trkpt><trkpt lat="40.4672498" lon="15.2395728"><ele>243.0</ele><time>2026-04-19T11:05:16.371Z</time></trkpt><trkpt lat="40.4671868" lon="15.2396865"><ele>243.0</ele><time>2026-04-19T11:05:17.371Z</time></trkpt><trkpt lat="40.4671294" lon="15.2397912"><ele>243.0</ele><time>2026-04-19T11:05:18.371Z</time></trkpt><trkpt lat="40.4670725" lon="15.2398925"><ele>244.8</ele><time>2026-04-19T11:05:19.371Z</time></trkpt><trkpt lat="40.4670099" lon="15.2400017"><ele>246.60000000000002</ele><time>2026-04-19T11:05:20.372Z</time></trkpt><trkpt lat="40.4669459" lon="15.2401032"><ele>248.39999999999998</ele><time>2026-04-19T11:05:21.371Z</time></trkpt><trkpt lat="40.4668879" lon="15.2401922"><ele>250.2</ele><time>2026-04-19T11:05:22.371Z</time></trkpt><trkpt lat="40.4668351" lon="15.2402807"><ele>252.0</ele><time>2026-04-19T11:05:23.371Z</time></trkpt><trkpt lat="40.466789" lon="15.2403717"><ele>252.0</ele><time>2026-04-19T11:05:24.371Z</time></trkpt><trkpt lat="40.4667397" lon="15.2404829"><ele>252.0</ele><time>2026-04-19T11:05:25.371Z</time></trkpt><trkpt lat="40.4666951" lon="15.2406004"><ele>252.0</ele><time>2026-04-19T11:05:26.371Z</time></trkpt><trkpt lat="40.4666399" lon="15.2407124"><ele>252.0</ele><time>2026-04-19T11:05:27.371Z</time></trkpt><trkpt lat="40.4665909" lon="15.2408201"><ele>252.0</ele><time>2026-04-19T11:05:28.371Z</time></trkpt><trkpt lat="40.4665502" lon="15.2409175"><ele>252.83333333333334</ele><time>2026-04-19T11:05:29.371Z</time></trkpt><trkpt lat="40.4665207" lon="15.241012"><ele>253.66666666666669</ele><time>2026-04-19T11:05:30.371Z</time></trkpt><trkpt lat="40.4665015" lon="15.2411167"><ele>254.5</ele><time>2026-04-19T11:05:31.372Z</time></trkpt><trkpt lat="40.4664753" lon="15.2412214"><ele>255.33333333333334</ele><time>2026-04-19T11:05:32.371Z</time></trkpt><trkpt lat="40.4664508" lon="15.2413231"><ele>256.1666666666667</ele><time>2026-04-19T11:05:33.371Z</time></trkpt><trkpt lat="40.4664328" lon="15.2414153"><ele>257.0</ele><time>2026-04-19T11:05:34.372Z</time></trkpt><trkpt lat="40.46641" lon="15.2414978"><ele>257.83333333333337</ele><time>2026-04-19T11:05:35.372Z</time></trkpt><trkpt lat="40.4663942" lon="15.2415791"><ele>258.6666666666667</ele><time>2026-04-19T11:05:36.371Z</time></trkpt><trkpt lat="40.4663702" lon="15.2416791"><ele>259.5</ele><time>2026-04-19T11:05:37.371Z</time></trkpt><trkpt lat="40.466346" lon="15.2417649"><ele>260.3333333333333</ele><time>2026-04-19T11:05:38.371Z</time></trkpt><trkpt lat="40.4663088" lon="15.2418516"><ele>261.16666666666663</ele><time>2026-04-19T11:05:39.371Z</time></trkpt><trkpt lat="40.4662672" lon="15.2419331"><ele>262.0</ele><time>2026-04-19T11:05:40.371Z</time></trkpt><trkpt lat="40.4662124" lon="15.2420202"><ele>263.16666666666663</ele><time>2026-04-19T11:05:41.371Z</time></trkpt><trkpt lat="40.4661566" lon="15.2421114"><ele>264.3333333333333</ele><time>2026-04-19T11:05:42.372Z</time></trkpt><trkpt lat="40.4661065" lon="15.242198"><ele>265.5</ele><time>2026-04-19T11:05:43.371Z</time></trkpt><trkpt lat="40.4660613" lon="15.2422794"><ele>266.6666666666667</ele><time>2026-04-19T11:05:44.371Z</time></trkpt><trkpt lat="40.4660164" lon="15.2423555"><ele>267.83333333333337</ele><time>2026-04-19T11:05:45.371Z</time></trkpt><trkpt lat="40.4659559" lon="15.2424316"><ele>269.0</ele><time>2026-04-19T11:05:46.371Z</time></trkpt><trkpt lat="40.4658898" lon="15.2425095"><ele>270.2</ele><time>2026-04-19T11:05:47.371Z</time></trkpt><trkpt lat="40.4658156" lon="15.2425865"><ele>271.4</ele><time>2026-04-19T11:05:48.371Z</time></trkpt><trkpt lat="40.4657364" lon="15.2426647"><ele>272.6</ele><time>2026-04-19T11:05:49.371Z</time></trkpt><trkpt lat="40.4656563" lon="15.2427314"><ele>273.8</ele><time>2026-04-19T11:05:50.372Z</time></trkpt><trkpt lat="40.4655757" lon="15.2428032"><ele>275.0</ele><time>2026-04-19T11:05:51.371Z</time></trkpt><trkpt lat="40.4655049" lon="15.242866"><ele>275.57142857142856</ele><time>2026-04-19T11:05:52.371Z</time></trkpt><trkpt lat="40.4654436" lon="15.2429167"><ele>276.1428571428571</ele><time>2026-04-19T11:05:53.371Z</time></trkpt><trkpt lat="40.4653756" lon="15.2429648"><ele>276.71428571428567</ele><time>2026-04-19T11:05:54.372Z</time></trkpt><trkpt lat="40.4653116" lon="15.2430124"><ele>277.2857142857143</ele><time>2026-04-19T11:05:55.371Z</time></trkpt><trkpt lat="40.4652547" lon="15.2430491"><ele>277.85714285714283</ele><time>2026-04-19T11:05:56.371Z</time></trkpt><trkpt lat="40.4651882" lon="15.2430839"><ele>278.4285714285714</ele><time>2026-04-19T11:05:57.371Z</time></trkpt><trkpt lat="40.4651231" lon="15.2431165"><ele>279.0</ele><time>2026-04-19T11:05:58.371Z</time></trkpt><trkpt lat="40.4649946" lon="15.2431429"><ele>280.2857142857143</ele><time>2026-04-19T11:06:00.371Z</time></trkpt><trkpt lat="40.4649184" lon="15.243149"><ele>281.57142857142856</ele><time>2026-04-19T11:06:01.371Z</time></trkpt><trkpt lat="40.4648482" lon="15.2431562"><ele>282.8571428571429</ele><time>2026-04-19T11:06:02.371Z</time></trkpt><trkpt lat="40.4647753" lon="15.2431724"><ele>284.1428571428571</ele><time>2026-04-19T11:06:03.371Z</time></trkpt><trkpt lat="40.4647057" lon="15.2432036"><ele>285.42857142857144</ele><time>2026-04-19T11:06:04.371Z</time></trkpt><trkpt lat="40.4646415" lon="15.2432435"><ele>286.7142857142857</ele><time>2026-04-19T11:06:05.372Z</time></trkpt><trkpt lat="40.4645853" lon="15.2432903"><ele>288.0</ele><time>2026-04-19T11:06:06.371Z</time></trkpt><trkpt lat="40.4645444" lon="15.2433899"><ele>288.0</ele><time>2026-04-19T11:06:08.371Z</time></trkpt><trkpt lat="40.4645772" lon="15.2434901"><ele>288.0</ele><time>2026-04-19T11:06:10.371Z</time></trkpt><trkpt lat="40.4646298" lon="15.2436156"><ele>288.0</ele><time>2026-04-19T11:06:12.371Z</time></trkpt><trkpt lat="40.4646668" lon="15.2437337"><ele>288.0</ele><time>2026-04-19T11:06:14.372Z</time></trkpt><trkpt lat="40.4646998" lon="15.2438145"><ele>288.0</ele><time>2026-04-19T11:06:17.371Z</time></trkpt><trkpt lat="40.4647289" lon="15.2439049"><ele>288.0</ele><time>2026-04-19T11:06:36.37Z</time></trkpt><trkpt lat="40.4647772" lon="15.2440509"><ele>290.2</ele><time>2026-04-19T11:06:38.371Z</time></trkpt><trkpt lat="40.4648033" lon="15.24419"><ele>292.4</ele><time>2026-04-19T11:06:40.37Z</time></trkpt><trkpt lat="40.4648062" lon="15.2443398"><ele>294.59999999999997</ele><time>2026-04-19T11:06:42.37Z</time></trkpt><trkpt lat="40.4647926" lon="15.2444856"><ele>296.8</ele><time>2026-04-19T11:06:44.37Z</time></trkpt><trkpt lat="40.4647791" lon="15.2446161"><ele>299.0</ele><time>2026-04-19T11:06:46.371Z</time></trkpt><trkpt lat="40.4647158" lon="15.2446901"><ele>299.0</ele><time>2026-04-19T11:06:48.37Z</time></trkpt><trkpt lat="40.4646294" lon="15.2447273"><ele>299.0</ele><time>2026-04-19T11:06:50.37Z</time></trkpt><trkpt lat="40.4645317" lon="15.244758"><ele>299.0</ele><time>2026-04-19T11:06:52.37Z</time></trkpt><trkpt lat="40.4644692" lon="15.2448406"><ele>299.0</ele><time>2026-04-19T11:06:54.37Z</time></trkpt><trkpt lat="40.4643867" lon="15.2449583"><ele>299.0</ele><time>2026-04-19T11:06:56.371Z</time></trkpt><trkpt lat="40.4643002" lon="15.2450348"><ele>303.0</ele><time>2026-04-19T11:06:58.37Z</time></trkpt><trkpt lat="40.464213" lon="15.2450863"><ele>307.0</ele><time>2026-04-19T11:07:00.371Z</time></trkpt><trkpt lat="40.464143" lon="15.2451689"><ele>311.0</ele><time>2026-04-19T11:07:02.371Z</time></trkpt><trkpt lat="40.4640674" lon="15.2452884"><ele>315.0</ele><time>2026-04-19T11:07:04.37Z</time></trkpt><trkpt lat="40.464009" lon="15.245419"><ele>319.0</ele><time>2026-04-19T11:07:06.37Z</time></trkpt><trkpt lat="40.4639646" lon="15.2455623"><ele>321.5</ele><time>2026-04-19T11:07:08.37Z</time></trkpt><trkpt lat="40.4638996" lon="15.2456912"><ele>324.0</ele><time>2026-04-19T11:07:10.37Z</time></trkpt><trkpt lat="40.4638468" lon="15.2458352"><ele>326.5</ele><time>2026-04-19T11:07:12.37Z</time></trkpt><trkpt lat="40.4637897" lon="15.245966"><ele>329.0</ele><time>2026-04-19T11:07:14.37Z</time></trkpt><trkpt lat="40.4637153" lon="15.2460726"><ele>329.79999999999995</ele><time>2026-04-19T11:07:16.37Z</time></trkpt><trkpt lat="40.4636657" lon="15.2461879"><ele>330.59999999999997</ele><time>2026-04-19T11:07:18.37Z</time></trkpt><trkpt lat="40.4636275" lon="15.246331"><ele>331.4</ele><time>2026-04-19T11:07:20.37Z</time></trkpt><trkpt lat="40.4635425" lon="15.2464411"><ele>332.2</ele><time>2026-04-19T11:07:22.37Z</time></trkpt><trkpt lat="40.4634922" lon="15.2464978"><ele>333.0</ele><time>2026-04-19T11:07:23.371Z</time></trkpt><trkpt lat="40.4634378" lon="15.2465476"><ele>334.5</ele><time>2026-04-19T11:07:24.37Z</time></trkpt><trkpt lat="40.4633851" lon="15.246604"><ele>336.0</ele><time>2026-04-19T11:07:25.37Z</time></trkpt><trkpt lat="40.4632869" lon="15.2466975"><ele>337.5</ele><time>2026-04-19T11:07:27.371Z</time></trkpt><trkpt lat="40.4632335" lon="15.2467498"><ele>339.0</ele><time>2026-04-19T11:07:28.371Z</time></trkpt><trkpt lat="40.4631751" lon="15.2468104"><ele>340.5</ele><time>2026-04-19T11:07:29.37Z</time></trkpt><trkpt lat="40.4631188" lon="15.2468787"><ele>342.0</ele><time>2026-04-19T11:07:30.371Z</time></trkpt><trkpt lat="40.4630704" lon="15.2469386"><ele>341.99999999999994</ele><time>2026-04-19T11:07:31.37Z</time></trkpt><trkpt lat="40.4630239" lon="15.2470147"><ele>342.0</ele><time>2026-04-19T11:07:32.37Z</time></trkpt><trkpt lat="40.4629852" lon="15.2470975"><ele>342.0</ele><time>2026-04-19T11:07:33.371Z</time></trkpt><trkpt lat="40.4629487" lon="15.2471823"><ele>342.0</ele><time>2026-04-19T11:07:34.37Z</time></trkpt><trkpt lat="40.4629197" lon="15.2472649"><ele>342.0</ele><time>2026-04-19T11:07:35.371Z</time></trkpt><trkpt lat="40.4628955" lon="15.247354"><ele>341.99999999999994</ele><time>2026-04-19T11:07:36.37Z</time></trkpt><trkpt lat="40.4628753" lon="15.2474471"><ele>342.0</ele><time>2026-04-19T11:07:37.37Z</time></trkpt><trkpt lat="40.4628625" lon="15.24754"><ele>344.6666666666667</ele><time>2026-04-19T11:07:38.37Z</time></trkpt><trkpt lat="40.4628544" lon="15.2476286"><ele>347.3333333333333</ele><time>2026-04-19T11:07:39.37Z</time></trkpt><trkpt lat="40.4628425" lon="15.2477602"><ele>350.0</ele><time>2026-04-19T11:07:41.37Z</time></trkpt><trkpt lat="40.4628345" lon="15.2478427"><ele>352.66666666666663</ele><time>2026-04-19T11:07:44.37Z</time></trkpt><trkpt lat="40.4627516" lon="15.2478954"><ele>355.3333333333333</ele><time>2026-04-19T11:07:57.37Z</time></trkpt><trkpt lat="40.462687" lon="15.2478745"><ele>358.0</ele><time>2026-04-19T11:07:58.37Z</time></trkpt><trkpt lat="40.4626089" lon="15.2478549"><ele>358.0</ele><time>2026-04-19T11:07:59.37Z</time></trkpt><trkpt lat="40.4625282" lon="15.2478335"><ele>358.0</ele><time>2026-04-19T11:08:00.37Z</time></trkpt><trkpt lat="40.4624637" lon="15.2477971"><ele>358.0</ele><time>2026-04-19T11:08:01.371Z</time></trkpt><trkpt lat="40.4623946" lon="15.2477407"><ele>358.0</ele><time>2026-04-19T11:08:02.37Z</time></trkpt><trkpt lat="40.4623242" lon="15.2476823"><ele>358.0</ele><time>2026-04-19T11:08:03.371Z</time></trkpt><trkpt lat="40.462262" lon="15.2476152"><ele>358.0</ele><time>2026-04-19T11:08:04.37Z</time></trkpt><trkpt lat="40.462209" lon="15.2475344"><ele>358.0</ele><time>2026-04-19T11:08:05.37Z</time></trkpt><trkpt lat="40.4621577" lon="15.2474463"><ele>358.0</ele><time>2026-04-19T11:08:06.37Z</time></trkpt><trkpt lat="40.462105" lon="15.2473518"><ele>358.0</ele><time>2026-04-19T11:08:07.37Z</time></trkpt><trkpt lat="40.4620477" lon="15.2472682"><ele>358.0</ele><time>2026-04-19T11:08:08.37Z</time></trkpt><trkpt lat="40.4619808" lon="15.2471917"><ele>358.0</ele><time>2026-04-19T11:08:09.371Z</time></trkpt><trkpt lat="40.4619139" lon="15.2471064"><ele>358.0</ele><time>2026-04-19T11:08:10.37Z</time></trkpt><trkpt lat="40.4618436" lon="15.2470195"><ele>359.3333333333333</ele><time>2026-04-19T11:08:11.371Z</time></trkpt><trkpt lat="40.4617758" lon="15.2469302"><ele>360.66666666666663</ele><time>2026-04-19T11:08:12.37Z</time></trkpt><trkpt lat="40.4617095" lon="15.2468398"><ele>362.0</ele><time>2026-04-19T11:08:13.37Z</time></trkpt><trkpt lat="40.46165" lon="15.2467655"><ele>363.3333333333333</ele><time>2026-04-19T11:08:14.37Z</time></trkpt><trkpt lat="40.4615921" lon="15.2466975"><ele>364.6666666666667</ele><time>2026-04-19T11:08:15.371Z</time></trkpt><trkpt lat="40.461521" lon="15.246637"><ele>366.0</ele><time>2026-04-19T11:08:16.37Z</time></trkpt><trkpt lat="40.4614448" lon="15.2465917"><ele>366.0</ele><time>2026-04-19T11:08:17.371Z</time></trkpt><trkpt lat="40.4613704" lon="15.2465714"><ele>366.0</ele><time>2026-04-19T11:08:18.37Z</time></trkpt><trkpt lat="40.4612862" lon="15.2465699"><ele>366.0</ele><time>2026-04-19T11:08:19.371Z</time></trkpt><trkpt lat="40.4611996" lon="15.2465794"><ele>366.0</ele><time>2026-04-19T11:08:20.37Z</time></trkpt><trkpt lat="40.4611183" lon="15.2465752"><ele>366.0</ele><time>2026-04-19T11:08:21.37Z</time></trkpt><trkpt lat="40.461033" lon="15.2465626"><ele>366.0</ele><time>2026-04-19T11:08:22.37Z</time></trkpt><trkpt lat="40.4609532" lon="15.2465326"><ele>365.5</ele><time>2026-04-19T11:08:23.37Z</time></trkpt><trkpt lat="40.460872" lon="15.2464974"><ele>365.0</ele><time>2026-04-19T11:08:24.37Z</time></trkpt><trkpt lat="40.4607879" lon="15.2464695"><ele>364.5</ele><time>2026-04-19T11:08:25.37Z</time></trkpt><trkpt lat="40.4607021" lon="15.2464431"><ele>364.0</ele><time>2026-04-19T11:08:26.37Z</time></trkpt><trkpt lat="40.4606227" lon="15.2464062"><ele>363.5</ele><time>2026-04-19T11:08:27.37Z</time></trkpt><trkpt lat="40.4605414" lon="15.2463668"><ele>363.0</ele><time>2026-04-19T11:08:28.371Z</time></trkpt><trkpt lat="40.4604638" lon="15.2463249"><ele>366.1666666666667</ele><time>2026-04-19T11:08:29.371Z</time></trkpt><trkpt lat="40.46039" lon="15.2462782"><ele>369.3333333333333</ele><time>2026-04-19T11:08:30.37Z</time></trkpt><trkpt lat="40.4603065" lon="15.2462398"><ele>372.5</ele><time>2026-04-19T11:08:31.37Z</time></trkpt><trkpt lat="40.46023" lon="15.2462062"><ele>375.66666666666663</ele><time>2026-04-19T11:08:32.37Z</time></trkpt><trkpt lat="40.4601681" lon="15.2461768"><ele>378.8333333333333</ele><time>2026-04-19T11:08:33.37Z</time></trkpt><trkpt lat="40.460081" lon="15.2461355"><ele>382.0</ele><time>2026-04-19T11:08:35.37Z</time></trkpt><trkpt lat="40.4600061" lon="15.2461059"><ele>382.0</ele><time>2026-04-19T11:08:50.37Z</time></trkpt><trkpt lat="40.459954" lon="15.2461948"><ele>382.0</ele><time>2026-04-19T11:08:54.37Z</time></trkpt><trkpt lat="40.4599699" lon="15.246326"><ele>382.0</ele><time>2026-04-19T11:08:56.371Z</time></trkpt><trkpt lat="40.4599894" lon="15.2464859"><ele>382.0</ele><time>2026-04-19T11:08:58.37Z</time></trkpt><trkpt lat="40.4599986" lon="15.2465861"><ele>382.0</ele><time>2026-04-19T11:08:59.37Z</time></trkpt><trkpt lat="40.4600187" lon="15.2466741"><ele>383.8333333333333</ele><time>2026-04-19T11:09:00.37Z</time></trkpt><trkpt lat="40.4600559" lon="15.2467588"><ele>385.66666666666663</ele><time>2026-04-19T11:09:01.371Z</time></trkpt><trkpt lat="40.4600967" lon="15.2468403"><ele>387.5</ele><time>2026-04-19T11:09:02.37Z</time></trkpt><trkpt lat="40.4601535" lon="15.2469391"><ele>389.3333333333333</ele><time>2026-04-19T11:09:04.37Z</time></trkpt><trkpt lat="40.4602146" lon="15.2470239"><ele>391.1666666666667</ele><time>2026-04-19T11:09:06.371Z</time></trkpt><trkpt lat="40.4602975" lon="15.2471112"><ele>393.0</ele><time>2026-04-19T11:09:08.37Z</time></trkpt><trkpt lat="40.460348" lon="15.2471627"><ele>393.0</ele><time>2026-04-19T11:09:09.371Z</time></trkpt><trkpt lat="40.4604058" lon="15.2472182"><ele>393.0</ele><time>2026-04-19T11:09:10.37Z</time></trkpt><trkpt lat="40.4604679" lon="15.2472834"><ele>393.0</ele><time>2026-04-19T11:09:11.371Z</time></trkpt><trkpt lat="40.4605224" lon="15.2473525"><ele>393.0</ele><time>2026-04-19T11:09:12.37Z</time></trkpt><trkpt lat="40.460561" lon="15.2474269"><ele>393.0</ele><time>2026-04-19T11:09:13.37Z</time></trkpt><trkpt lat="40.4605902" lon="15.2475162"><ele>393.0</ele><time>2026-04-19T11:09:14.37Z</time></trkpt><trkpt lat="40.4606295" lon="15.247612"><ele>392.7142857142857</ele><time>2026-04-19T11:09:15.37Z</time></trkpt><trkpt lat="40.4606591" lon="15.2477065"><ele>392.42857142857144</ele><time>2026-04-19T11:09:16.37Z</time></trkpt><trkpt lat="40.4606871" lon="15.247796"><ele>392.1428571428571</ele><time>2026-04-19T11:09:17.371Z</time></trkpt><trkpt lat="40.4607023" lon="15.2478891"><ele>391.8571428571429</ele><time>2026-04-19T11:09:18.371Z</time></trkpt><trkpt lat="40.4607129" lon="15.2479955"><ele>391.57142857142856</ele><time>2026-04-19T11:09:19.37Z</time></trkpt><trkpt lat="40.4607181" lon="15.2480935"><ele>391.2857142857143</ele><time>2026-04-19T11:09:20.37Z</time></trkpt><trkpt lat="40.4607171" lon="15.2481844"><ele>391.0</ele><time>2026-04-19T11:09:21.371Z</time></trkpt><trkpt lat="40.4607099" lon="15.2482806"><ele>392.4</ele><time>2026-04-19T11:09:22.37Z</time></trkpt><trkpt lat="40.4607138" lon="15.2483637"><ele>393.8</ele><time>2026-04-19T11:09:23.371Z</time></trkpt><trkpt lat="40.4607314" lon="15.2484963"><ele>395.2</ele><time>2026-04-19T11:09:25.37Z</time></trkpt><trkpt lat="40.4607465" lon="15.2486223"><ele>396.59999999999997</ele><time>2026-04-19T11:09:27.37Z</time></trkpt><trkpt lat="40.4607571" lon="15.2487651"><ele>398.0</ele><time>2026-04-19T11:09:29.371Z</time></trkpt><trkpt lat="40.4607961" lon="15.2489146"><ele>398.57142857142856</ele><time>2026-04-19T11:09:31.37Z</time></trkpt><trkpt lat="40.4608208" lon="15.2489923"><ele>399.1428571428571</ele><time>2026-04-19T11:09:32.37Z</time></trkpt><trkpt lat="40.4608461" lon="15.2490778"><ele>399.71428571428567</ele><time>2026-04-19T11:09:33.371Z</time></trkpt><trkpt lat="40.4608672" lon="15.2491607"><ele>400.2857142857143</ele><time>2026-04-19T11:09:34.37Z</time></trkpt><trkpt lat="40.4608788" lon="15.2492428"><ele>400.8571428571429</ele><time>2026-04-19T11:09:35.37Z</time></trkpt><trkpt lat="40.460881" lon="15.2493304"><ele>401.4285714285714</ele><time>2026-04-19T11:09:36.37Z</time></trkpt><trkpt lat="40.4608739" lon="15.2494185"><ele>402.0</ele><time>2026-04-19T11:09:37.37Z</time></trkpt><trkpt lat="40.4608762" lon="15.2495846"><ele>402.0</ele><time>2026-04-19T11:09:39.37Z</time></trkpt><trkpt lat="40.4608853" lon="15.2496746"><ele>402.0</ele><time>2026-04-19T11:09:40.371Z</time></trkpt><trkpt lat="40.4608996" lon="15.2497656"><ele>402.0</ele><time>2026-04-19T11:09:41.371Z</time></trkpt><trkpt lat="40.4609194" lon="15.2498534"><ele>402.0</ele><time>2026-04-19T11:09:42.37Z</time></trkpt><trkpt lat="40.4609448" lon="15.2499331"><ele>402.0</ele><time>2026-04-19T11:09:43.37Z</time></trkpt><trkpt lat="40.4609909" lon="15.2500727"><ele>402.0</ele><time>2026-04-19T11:09:45.37Z</time></trkpt><trkpt lat="40.4610591" lon="15.2502135"><ele>403.6666666666667</ele><time>2026-04-19T11:09:47.37Z</time></trkpt><trkpt lat="40.4610968" lon="15.2502929"><ele>405.33333333333337</ele><time>2026-04-19T11:09:48.37Z</time></trkpt><trkpt lat="40.4611287" lon="15.25045"><ele>407.0</ele><time>2026-04-19T11:09:50.371Z</time></trkpt><trkpt lat="40.4611433" lon="15.2505345"><ele>408.6666666666667</ele><time>2026-04-19T11:09:51.37Z</time></trkpt><trkpt lat="40.4611526" lon="15.2506301"><ele>410.33333333333337</ele><time>2026-04-19T11:09:52.37Z</time></trkpt><trkpt lat="40.4611497" lon="15.2507178"><ele>412.0</ele><time>2026-04-19T11:09:53.37Z</time></trkpt><trkpt lat="40.4611561" lon="15.25081"><ele>412.20000000000005</ele><time>2026-04-19T11:09:54.37Z</time></trkpt><trkpt lat="40.4611744" lon="15.2509051"><ele>412.4</ele><time>2026-04-19T11:09:55.37Z</time></trkpt><trkpt lat="40.4611864" lon="15.2509868"><ele>412.6</ele><time>2026-04-19T11:09:56.37Z</time></trkpt><trkpt lat="40.4612007" lon="15.2511391"><ele>412.79999999999995</ele><time>2026-04-19T11:09:58.37Z</time></trkpt><trkpt lat="40.4612649" lon="15.2512868"><ele>413.0</ele><time>2026-04-19T11:10:00.37Z</time></trkpt><trkpt lat="40.4612964" lon="15.2513668"><ele>414.66666666666663</ele><time>2026-04-19T11:10:01.37Z</time></trkpt><trkpt lat="40.4613266" lon="15.2514614"><ele>416.3333333333333</ele><time>2026-04-19T11:10:02.37Z</time></trkpt><trkpt lat="40.4613493" lon="15.2515617"><ele>418.0</ele><time>2026-04-19T11:10:03.37Z</time></trkpt><trkpt lat="40.461368" lon="15.2516759"><ele>419.66666666666663</ele><time>2026-04-19T11:10:04.37Z</time></trkpt><trkpt lat="40.461386" lon="15.2517976"><ele>421.3333333333333</ele><time>2026-04-19T11:10:05.37Z</time></trkpt><trkpt lat="40.461406" lon="15.2519164"><ele>423.0</ele><time>2026-04-19T11:10:06.37Z</time></trkpt><trkpt lat="40.4614264" lon="15.2520275"><ele>423.0</ele><time>2026-04-19T11:10:07.37Z</time></trkpt><trkpt lat="40.4614506" lon="15.252144"><ele>423.0</ele><time>2026-04-19T11:10:08.371Z</time></trkpt><trkpt lat="40.461472" lon="15.2522465"><ele>423.0</ele><time>2026-04-19T11:10:09.37Z</time></trkpt><trkpt lat="40.4614971" lon="15.2523548"><ele>423.0</ele><time>2026-04-19T11:10:10.37Z</time></trkpt><trkpt lat="40.4615191" lon="15.2524605"><ele>423.0</ele><time>2026-04-19T11:10:11.371Z</time></trkpt><trkpt lat="40.4615429" lon="15.2525631"><ele>423.0</ele><time>2026-04-19T11:10:12.37Z</time></trkpt><trkpt lat="40.4615598" lon="15.2526689"><ele>424.0</ele><time>2026-04-19T11:10:13.37Z</time></trkpt><trkpt lat="40.4615781" lon="15.2527747"><ele>425.0</ele><time>2026-04-19T11:10:14.37Z</time></trkpt><trkpt lat="40.461596" lon="15.2528789"><ele>426.0</ele><time>2026-04-19T11:10:15.37Z</time></trkpt><trkpt lat="40.4616085" lon="15.2529852"><ele>427.0</ele><time>2026-04-19T11:10:16.37Z</time></trkpt><trkpt lat="40.4616217" lon="15.2530859"><ele>428.0</ele><time>2026-04-19T11:10:17.37Z</time></trkpt><trkpt lat="40.4616216" lon="15.2531734"><ele>429.0</ele><time>2026-04-19T11:10:18.37Z</time></trkpt><trkpt lat="40.4616258" lon="15.2532593"><ele>429.79999999999995</ele><time>2026-04-19T11:10:19.37Z</time></trkpt><trkpt lat="40.4616206" lon="15.2534037"><ele>430.59999999999997</ele><time>2026-04-19T11:10:21.37Z</time></trkpt><trkpt lat="40.4615909" lon="15.2535031"><ele>431.4</ele><time>2026-04-19T11:10:23.37Z</time></trkpt><trkpt lat="40.4615216" lon="15.2535173"><ele>432.2</ele><time>2026-04-19T11:10:26.369Z</time></trkpt><trkpt lat="40.4614693" lon="15.253449"><ele>433.0</ele><time>2026-04-19T11:10:30.369Z</time></trkpt><trkpt lat="40.4614738" lon="15.2532948"><ele>433.00000000000006</ele><time>2026-04-19T11:11:14.369Z</time></trkpt><trkpt lat="40.4614996" lon="15.2531857"><ele>433.0</ele><time>2026-04-19T11:11:15.37Z</time></trkpt><trkpt lat="40.4615191" lon="15.2530815"><ele>433.0</ele><time>2026-04-19T11:11:16.369Z</time></trkpt><trkpt lat="40.4615285" lon="15.2529658"><ele>433.0</ele><time>2026-04-19T11:11:17.369Z</time></trkpt><trkpt lat="40.4615196" lon="15.2528381"><ele>433.00000000000006</ele><time>2026-04-19T11:11:18.37Z</time></trkpt><trkpt lat="40.4615022" lon="15.2527176"><ele>433.0</ele><time>2026-04-19T11:11:19.369Z</time></trkpt><trkpt lat="40.4614811" lon="15.2526231"><ele>432.2</ele><time>2026-04-19T11:11:20.369Z</time></trkpt><trkpt lat="40.4614121" lon="15.2525232"><ele>431.4</ele><time>2026-04-19T11:11:22.369Z</time></trkpt><trkpt lat="40.4613483" lon="15.2524769"><ele>430.59999999999997</ele><time>2026-04-19T11:11:23.369Z</time></trkpt><trkpt lat="40.4613411" lon="15.2523703"><ele>429.79999999999995</ele><time>2026-04-19T11:11:26.369Z</time></trkpt><trkpt lat="40.4613941" lon="15.2522778"><ele>429.0</ele><time>2026-04-19T11:11:28.369Z</time></trkpt><trkpt lat="40.4613614" lon="15.2521175"><ele>427.79999999999995</ele><time>2026-04-19T11:11:30.37Z</time></trkpt><trkpt lat="40.4613353" lon="15.2520147"><ele>426.59999999999997</ele><time>2026-04-19T11:11:31.369Z</time></trkpt><trkpt lat="40.4613013" lon="15.2518775"><ele>425.4</ele><time>2026-04-19T11:11:33.369Z</time></trkpt><trkpt lat="40.4612872" lon="15.2517367"><ele>424.2</ele><time>2026-04-19T11:11:35.369Z</time></trkpt><trkpt lat="40.4612796" lon="15.2515938"><ele>423.0</ele><time>2026-04-19T11:11:37.369Z</time></trkpt><trkpt lat="40.4612283" lon="15.2514392"><ele>423.0</ele><time>2026-04-19T11:11:39.369Z</time></trkpt><trkpt lat="40.4611847" lon="15.2513581"><ele>423.0</ele><time>2026-04-19T11:11:40.369Z</time></trkpt><trkpt lat="40.4611303" lon="15.2512032"><ele>423.0</ele><time>2026-04-19T11:11:42.369Z</time></trkpt><trkpt lat="40.4611058" lon="15.2511187"><ele>423.0</ele><time>2026-04-19T11:11:43.369Z</time></trkpt><trkpt lat="40.4610854" lon="15.2510279"><ele>423.0</ele><time>2026-04-19T11:11:44.37Z</time></trkpt><trkpt lat="40.4610649" lon="15.2509412"><ele>423.0</ele><time>2026-04-19T11:11:45.369Z</time></trkpt><trkpt lat="40.4610357" lon="15.2508095"><ele>423.0</ele><time>2026-04-19T11:11:47.369Z</time></trkpt><trkpt lat="40.461022" lon="15.2506935"><ele>423.0</ele><time>2026-04-19T11:11:49.369Z</time></trkpt><trkpt lat="40.4609988" lon="15.2506142"><ele>423.0</ele><time>2026-04-19T11:11:51.371Z</time></trkpt><trkpt lat="40.4609124" lon="15.2505712"><ele>423.0</ele><time>2026-04-19T11:11:54.37Z</time></trkpt><trkpt lat="40.4609711" lon="15.2504573"><ele>423.0</ele><time>2026-04-19T11:11:57.369Z</time></trkpt><trkpt lat="40.4609882" lon="15.2503479"><ele>423.0</ele><time>2026-04-19T11:12:00.369Z</time></trkpt><trkpt lat="40.4609303" lon="15.2503121"><ele>423.0</ele><time>2026-04-19T11:12:02.369Z</time></trkpt><trkpt lat="40.4608546" lon="15.2503652"><ele>423.0</ele><time>2026-04-19T11:12:04.369Z</time></trkpt><trkpt lat="40.4608384" lon="15.2505102"><ele>423.0</ele><time>2026-04-19T11:12:06.369Z</time></trkpt><trkpt lat="40.4607742" lon="15.250519"><ele>423.0</ele><time>2026-04-19T11:12:09.369Z</time></trkpt><trkpt lat="40.460716" lon="15.2504386"><ele>423.0</ele><time>2026-04-19T11:12:11.369Z</time></trkpt><trkpt lat="40.4606794" lon="15.2505295"><ele>423.0</ele><time>2026-04-19T11:12:15.37Z</time></trkpt><trkpt lat="40.4607152" lon="15.2506866"><ele>423.0</ele><time>2026-04-19T11:12:17.369Z</time></trkpt><trkpt lat="40.4607382" lon="15.2507953"><ele>423.0</ele><time>2026-04-19T11:12:19.369Z</time></trkpt><trkpt lat="40.4608477" lon="15.2508364"><ele>423.0</ele><time>2026-04-19T11:12:21.37Z</time></trkpt><trkpt lat="40.4609509" lon="15.2509098"><ele>423.0</ele><time>2026-04-19T11:12:23.369Z</time></trkpt><trkpt lat="40.4609896" lon="15.2509814"><ele>423.0</ele><time>2026-04-19T11:12:24.369Z</time></trkpt><trkpt lat="40.4610234" lon="15.2510678"><ele>423.0</ele><time>2026-04-19T11:12:25.369Z</time></trkpt><trkpt lat="40.4610634" lon="15.2511892"><ele>423.0</ele><time>2026-04-19T11:12:26.369Z</time></trkpt><trkpt lat="40.4611031" lon="15.251319"><ele>423.0</ele><time>2026-04-19T11:12:27.369Z</time></trkpt><trkpt lat="40.4611301" lon="15.2514286"><ele>423.0</ele><time>2026-04-19T11:12:28.369Z</time></trkpt><trkpt lat="40.4611494" lon="15.2515326"><ele>423.0</ele><time>2026-04-19T11:12:29.369Z</time></trkpt><trkpt lat="40.4611507" lon="15.2516608"><ele>425.0</ele><time>2026-04-19T11:12:31.37Z</time></trkpt><trkpt lat="40.4610854" lon="15.2517366"><ele>427.0</ele><time>2026-04-19T11:12:33.369Z</time></trkpt><trkpt lat="40.4610146" lon="15.2517762"><ele>429.0</ele><time>2026-04-19T11:12:34.369Z</time></trkpt><trkpt lat="40.4609352" lon="15.2518341"><ele>431.0</ele><time>2026-04-19T11:12:35.369Z</time></trkpt><trkpt lat="40.460851" lon="15.2518953"><ele>433.0</ele><time>2026-04-19T11:12:36.369Z</time></trkpt><trkpt lat="40.4607653" lon="15.2519552"><ele>435.0</ele><time>2026-04-19T11:12:37.369Z</time></trkpt><trkpt lat="40.4607017" lon="15.2520023"><ele>435.0</ele><time>2026-04-19T11:12:38.371Z</time></trkpt><trkpt lat="40.4606265" lon="15.2520755"><ele>435.0</ele><time>2026-04-19T11:12:40.37Z</time></trkpt><trkpt lat="40.4606507" lon="15.2521979"><ele>435.0</ele><time>2026-04-19T11:12:42.369Z</time></trkpt><trkpt lat="40.4607038" lon="15.2523492"><ele>435.0</ele><time>2026-04-19T11:12:44.37Z</time></trkpt><trkpt lat="40.4607209" lon="15.2524397"><ele>435.0</ele><time>2026-04-19T11:12:45.369Z</time></trkpt><trkpt lat="40.4607534" lon="15.2525597"><ele>435.0</ele><time>2026-04-19T11:12:47.369Z</time></trkpt><trkpt lat="40.4608172" lon="15.2525442"><ele>435.0</ele><time>2026-04-19T11:12:49.369Z</time></trkpt><trkpt lat="40.4608836" lon="15.2524955"><ele>435.0</ele><time>2026-04-19T11:12:50.369Z</time></trkpt><trkpt lat="40.460971" lon="15.2524334"><ele>435.0</ele><time>2026-04-19T11:12:51.37Z</time></trkpt><trkpt lat="40.461049" lon="15.2523775"><ele>435.0</ele><time>2026-04-19T11:12:52.369Z</time></trkpt><trkpt lat="40.4611147" lon="15.25232"><ele>435.0</ele><time>2026-04-19T11:12:53.369Z</time></trkpt><trkpt lat="40.4612" lon="15.2522674"><ele>436.0</ele><time>2026-04-19T11:12:55.37Z</time></trkpt><trkpt lat="40.4611995" lon="15.2523921"><ele>437.0</ele><time>2026-04-19T11:12:59.369Z</time></trkpt><trkpt lat="40.4612121" lon="15.2525192"><ele>438.0</ele><time>2026-04-19T11:13:01.369Z</time></trkpt><trkpt lat="40.4613444" lon="15.2526211"><ele>439.0</ele><time>2026-04-19T11:13:03.37Z</time></trkpt><trkpt lat="40.4614047" lon="15.2527018"><ele>440.0</ele><time>2026-04-19T11:13:05.369Z</time></trkpt><trkpt lat="40.4614293" lon="15.2527808"><ele>437.8</ele><time>2026-04-19T11:13:06.37Z</time></trkpt><trkpt lat="40.4614389" lon="15.2528834"><ele>435.6</ele><time>2026-04-19T11:13:07.369Z</time></trkpt><trkpt lat="40.4614277" lon="15.2530034"><ele>433.4</ele><time>2026-04-19T11:13:09.369Z</time></trkpt><trkpt lat="40.4613529" lon="15.2529867"><ele>431.2</ele><time>2026-04-19T11:13:12.369Z</time></trkpt><trkpt lat="40.4613402" lon="15.2528213"><ele>429.0</ele><time>2026-04-19T11:13:14.369Z</time></trkpt><trkpt lat="40.4612982" lon="15.2527099"><ele>430.8333333333333</ele><time>2026-04-19T11:13:16.369Z</time></trkpt><trkpt lat="40.4612417" lon="15.2526647"><ele>432.66666666666663</ele><time>2026-04-19T11:13:17.369Z</time></trkpt><trkpt lat="40.4611672" lon="15.2526358"><ele>434.5</ele><time>2026-04-19T11:13:18.369Z</time></trkpt><trkpt lat="40.4610761" lon="15.2526266"><ele>436.3333333333333</ele><time>2026-04-19T11:13:19.369Z</time></trkpt><trkpt lat="40.4609792" lon="15.2526438"><ele>438.16666666666663</ele><time>2026-04-19T11:13:20.37Z</time></trkpt><trkpt lat="40.4609039" lon="15.2526739"><ele>440.0</ele><time>2026-04-19T11:13:21.369Z</time></trkpt><trkpt lat="40.4608381" lon="15.2527531"><ele>439.99999999999994</ele><time>2026-04-19T11:13:23.369Z</time></trkpt><trkpt lat="40.4608937" lon="15.2528014"><ele>440.0</ele><time>2026-04-19T11:13:25.37Z</time></trkpt><trkpt lat="40.4609623" lon="15.2527812"><ele>440.0</ele><time>2026-04-19T11:13:26.369Z</time></trkpt><trkpt lat="40.4610427" lon="15.2527468"><ele>440.0</ele><time>2026-04-19T11:13:27.369Z</time></trkpt><trkpt lat="40.4611305" lon="15.2527553"><ele>439.99999999999994</ele><time>2026-04-19T11:13:29.369Z</time></trkpt><trkpt lat="40.461185" lon="15.2527974"><ele>440.0</ele><time>2026-04-19T11:13:30.369Z</time></trkpt><trkpt lat="40.4612453" lon="15.2528962"><ele>439.99999999999994</ele><time>2026-04-19T11:13:32.369Z</time></trkpt><trkpt lat="40.4611967" lon="15.2529692"><ele>440.0</ele><time>2026-04-19T11:13:35.369Z</time></trkpt><trkpt lat="40.4610738" lon="15.2529175"><ele>440.0</ele><time>2026-04-19T11:13:37.369Z</time></trkpt><trkpt lat="40.4609999" lon="15.2528976"><ele>440.0</ele><time>2026-04-19T11:13:38.369Z</time></trkpt><trkpt lat="40.4609201" lon="15.2529408"><ele>439.99999999999994</ele><time>2026-04-19T11:13:40.369Z</time></trkpt><trkpt lat="40.4609591" lon="15.2530208"><ele>440.0</ele><time>2026-04-19T11:13:42.369Z</time></trkpt><trkpt lat="40.4610392" lon="15.2530406"><ele>439.99999999999994</ele><time>2026-04-19T11:13:43.371Z</time></trkpt><trkpt lat="40.4611568" lon="15.2530545"><ele>440.0</ele><time>2026-04-19T11:13:44.37Z</time></trkpt><trkpt lat="40.461237" lon="15.2530731"><ele>440.0</ele><time>2026-04-19T11:13:45.369Z</time></trkpt><trkpt lat="40.4613047" lon="15.2530975"><ele>440.0</ele><time>2026-04-19T11:13:46.37Z</time></trkpt><trkpt lat="40.4613564" lon="15.2531561"><ele>439.99999999999994</ele><time>2026-04-19T11:13:48.37Z</time></trkpt><trkpt lat="40.4612754" lon="15.2532082"><ele>440.0</ele><time>2026-04-19T11:13:51.369Z</time></trkpt><trkpt lat="40.461199" lon="15.2531813"><ele>441.66666666666663</ele><time>2026-04-19T11:13:52.369Z</time></trkpt><trkpt lat="40.4611066" lon="15.253164"><ele>443.3333333333333</ele><time>2026-04-19T11:13:53.371Z</time></trkpt><trkpt lat="40.4610406" lon="15.2531775"><ele>445.0</ele><time>2026-04-19T11:13:54.369Z</time></trkpt><trkpt lat="40.4609764" lon="15.2532696"><ele>446.66666666666663</ele><time>2026-04-19T11:13:56.369Z</time></trkpt><trkpt lat="40.4610295" lon="15.2533299"><ele>448.3333333333333</ele><time>2026-04-19T11:13:58.369Z</time></trkpt><trkpt lat="40.4611344" lon="15.2532717"><ele>450.0</ele><time>2026-04-19T11:14:00.369Z</time></trkpt><trkpt lat="40.461183" lon="15.2533484"><ele>450.0</ele><time>2026-04-19T11:14:04.369Z</time></trkpt><trkpt lat="40.4611173" lon="15.2534394"><ele>450.0</ele><time>2026-04-19T11:14:06.369Z</time></trkpt><trkpt lat="40.4610728" lon="15.2535061"><ele>450.0</ele><time>2026-04-19T11:14:07.369Z</time></trkpt><trkpt lat="40.4610922" lon="15.2536246"><ele>450.0</ele><time>2026-04-19T11:14:09.37Z</time></trkpt><trkpt lat="40.4611874" lon="15.253625"><ele>450.0</ele><time>2026-04-19T11:14:11.369Z</time></trkpt><trkpt lat="40.4612925" lon="15.2535279"><ele>447.1666666666667</ele><time>2026-04-19T11:14:13.369Z</time></trkpt><trkpt lat="40.4613401" lon="15.2534598"><ele>444.33333333333337</ele><time>2026-04-19T11:14:14.369Z</time></trkpt><trkpt lat="40.4613839" lon="15.253393"><ele>441.5</ele><time>2026-04-19T11:14:15.369Z</time></trkpt><trkpt lat="40.4614668" lon="15.2532826"><ele>438.6666666666667</ele><time>2026-04-19T11:14:17.369Z</time></trkpt><trkpt lat="40.4615192" lon="15.2532006"><ele>435.83333333333337</ele><time>2026-04-19T11:14:19.369Z</time></trkpt><trkpt lat="40.461537" lon="15.2531098"><ele>433.0</ele><time>2026-04-19T11:14:22.369Z</time></trkpt><trkpt lat="40.4615333" lon="15.2530087"><ele>432.33333333333337</ele><time>2026-04-19T11:14:24.369Z</time></trkpt><trkpt lat="40.4615268" lon="15.2529213"><ele>431.6666666666667</ele><time>2026-04-19T11:14:25.369Z</time></trkpt><trkpt lat="40.461516" lon="15.252807"><ele>431.0</ele><time>2026-04-19T11:14:26.369Z</time></trkpt><trkpt lat="40.4614973" lon="15.2527034"><ele>430.33333333333337</ele><time>2026-04-19T11:14:27.369Z</time></trkpt><trkpt lat="40.4614736" lon="15.2526172"><ele>429.6666666666667</ele><time>2026-04-19T11:14:28.369Z</time></trkpt><trkpt lat="40.4614094" lon="15.2525252"><ele>429.0</ele><time>2026-04-19T11:14:30.369Z</time></trkpt><trkpt lat="40.4613492" lon="15.2524825"><ele>429.0</ele><time>2026-04-19T11:14:31.369Z</time></trkpt><trkpt lat="40.461336" lon="15.2523825"><ele>429.0</ele><time>2026-04-19T11:14:34.369Z</time></trkpt><trkpt lat="40.4613883" lon="15.2522839"><ele>429.0</ele><time>2026-04-19T11:14:36.368Z</time></trkpt><trkpt lat="40.4613714" lon="15.2521364"><ele>429.0</ele><time>2026-04-19T11:14:38.369Z</time></trkpt><trkpt lat="40.461337" lon="15.2520131"><ele>429.0</ele><time>2026-04-19T11:14:39.369Z</time></trkpt><trkpt lat="40.461309" lon="15.2519009"><ele>428.0</ele><time>2026-04-19T11:14:40.368Z</time></trkpt><trkpt lat="40.4612921" lon="15.2518053"><ele>427.0</ele><time>2026-04-19T11:14:41.368Z</time></trkpt><trkpt lat="40.4612911" lon="15.2517138"><ele>426.0</ele><time>2026-04-19T11:14:42.368Z</time></trkpt><trkpt lat="40.4612873" lon="15.2516276"><ele>425.0</ele><time>2026-04-19T11:14:43.368Z</time></trkpt><trkpt lat="40.4612526" lon="15.2514793"><ele>424.0</ele><time>2026-04-19T11:14:45.369Z</time></trkpt><trkpt lat="40.4612127" lon="15.2514071"><ele>423.0</ele><time>2026-04-19T11:14:46.369Z</time></trkpt><trkpt lat="40.4611689" lon="15.2513188"><ele>423.0</ele><time>2026-04-19T11:14:47.368Z</time></trkpt><trkpt lat="40.4611406" lon="15.2512288"><ele>423.0</ele><time>2026-04-19T11:14:48.369Z</time></trkpt><trkpt lat="40.4611078" lon="15.251113"><ele>423.0</ele><time>2026-04-19T11:14:49.368Z</time></trkpt><trkpt lat="40.4610814" lon="15.2510032"><ele>423.0</ele><time>2026-04-19T11:14:50.369Z</time></trkpt><trkpt lat="40.461059" lon="15.2509134"><ele>423.0</ele><time>2026-04-19T11:14:51.368Z</time></trkpt><trkpt lat="40.4610363" lon="15.2507731"><ele>423.0</ele><time>2026-04-19T11:14:53.368Z</time></trkpt><trkpt lat="40.4610193" lon="15.2506533"><ele>421.1666666666667</ele><time>2026-04-19T11:14:55.368Z</time></trkpt><trkpt lat="40.460945" lon="15.2505895"><ele>419.33333333333337</ele><time>2026-04-19T11:14:58.368Z</time></trkpt><trkpt lat="40.4609283" lon="15.2505015"><ele>417.5</ele><time>2026-04-19T11:15:01.368Z</time></trkpt><trkpt lat="40.4609914" lon="15.2504376"><ele>415.6666666666667</ele><time>2026-04-19T11:15:03.368Z</time></trkpt><trkpt lat="40.4609809" lon="15.2503318"><ele>413.83333333333337</ele><time>2026-04-19T11:15:06.369Z</time></trkpt><trkpt lat="40.4608839" lon="15.2503261"><ele>412.0</ele><time>2026-04-19T11:15:09.368Z</time></trkpt><trkpt lat="40.4608449" lon="15.2504367"><ele>412.0</ele><time>2026-04-19T11:15:11.368Z</time></trkpt><trkpt lat="40.460819" lon="15.2505361"><ele>412.0</ele><time>2026-04-19T11:15:13.368Z</time></trkpt><trkpt lat="40.4607365" lon="15.2504666"><ele>412.0</ele><time>2026-04-19T11:15:16.37Z</time></trkpt><trkpt lat="40.4606693" lon="15.2504797"><ele>412.0</ele><time>2026-04-19T11:15:19.368Z</time></trkpt><trkpt lat="40.4606983" lon="15.2506136"><ele>412.0</ele><time>2026-04-19T11:15:21.37Z</time></trkpt><trkpt lat="40.4607194" lon="15.2507533"><ele>414.20000000000005</ele><time>2026-04-19T11:15:23.369Z</time></trkpt><trkpt lat="40.4607725" lon="15.2508131"><ele>416.4</ele><time>2026-04-19T11:15:25.368Z</time></trkpt><trkpt lat="40.4608849" lon="15.2508515"><ele>418.6</ele><time>2026-04-19T11:15:27.369Z</time></trkpt><trkpt lat="40.4609744" lon="15.2509542"><ele>420.79999999999995</ele><time>2026-04-19T11:15:29.368Z</time></trkpt><trkpt lat="40.4610097" lon="15.2510341"><ele>423.0</ele><time>2026-04-19T11:15:30.368Z</time></trkpt><trkpt lat="40.4610462" lon="15.2511495"><ele>423.0</ele><time>2026-04-19T11:15:31.368Z</time></trkpt><trkpt lat="40.4610879" lon="15.2512813"><ele>423.0</ele><time>2026-04-19T11:15:32.369Z</time></trkpt><trkpt lat="40.4611195" lon="15.2513947"><ele>423.0</ele><time>2026-04-19T11:15:33.369Z</time></trkpt><trkpt lat="40.4611425" lon="15.2515097"><ele>423.0</ele><time>2026-04-19T11:15:34.368Z</time></trkpt><trkpt lat="40.461155" lon="15.2516438"><ele>423.0</ele><time>2026-04-19T11:15:36.368Z</time></trkpt><trkpt lat="40.4611078" lon="15.2517231"><ele>425.4</ele><time>2026-04-19T11:15:38.368Z</time></trkpt><trkpt lat="40.461047" lon="15.2517644"><ele>427.79999999999995</ele><time>2026-04-19T11:15:39.368Z</time></trkpt><trkpt lat="40.4609662" lon="15.2518212"><ele>430.2</ele><time>2026-04-19T11:15:40.368Z</time></trkpt><trkpt lat="40.4608647" lon="15.2518967"><ele>432.6</ele><time>2026-04-19T11:15:41.368Z</time></trkpt><trkpt lat="40.4607802" lon="15.251954"><ele>435.0</ele><time>2026-04-19T11:15:42.368Z</time></trkpt><trkpt lat="40.4607082" lon="15.2520084"><ele>435.0</ele><time>2026-04-19T11:15:43.368Z</time></trkpt><trkpt lat="40.4606252" lon="15.252081"><ele>435.0</ele><time>2026-04-19T11:15:45.368Z</time></trkpt><trkpt lat="40.4606345" lon="15.2521777"><ele>435.0</ele><time>2026-04-19T11:15:47.368Z</time></trkpt><trkpt lat="40.4606827" lon="15.2523257"><ele>435.0</ele><time>2026-04-19T11:15:49.368Z</time></trkpt><trkpt lat="40.4607048" lon="15.2524182"><ele>435.0</ele><time>2026-04-19T11:15:50.368Z</time></trkpt><trkpt lat="40.4607275" lon="15.252501"><ele>435.0</ele><time>2026-04-19T11:15:51.368Z</time></trkpt><trkpt lat="40.4607679" lon="15.2525853"><ele>435.0</ele><time>2026-04-19T11:15:53.368Z</time></trkpt><trkpt lat="40.46084" lon="15.2525379"><ele>435.0</ele><time>2026-04-19T11:15:55.368Z</time></trkpt><trkpt lat="40.4609184" lon="15.2524753"><ele>435.0</ele><time>2026-04-19T11:15:56.369Z</time></trkpt><trkpt lat="40.4610052" lon="15.2524124"><ele>435.0</ele><time>2026-04-19T11:15:57.368Z</time></trkpt><trkpt lat="40.4610794" lon="15.2523488"><ele>435.0</ele><time>2026-04-19T11:15:58.369Z</time></trkpt><trkpt lat="40.461135" lon="15.2523022"><ele>435.0</ele><time>2026-04-19T11:15:59.367Z</time></trkpt><trkpt lat="40.4611943" lon="15.2522706"><ele>435.8333333333333</ele><time>2026-04-19T11:16:01.368Z</time></trkpt><trkpt lat="40.4612146" lon="15.2523583"><ele>436.66666666666663</ele><time>2026-04-19T11:16:05.368Z</time></trkpt><trkpt lat="40.4611989" lon="15.2524631"><ele>437.5</ele><time>2026-04-19T11:16:07.368Z</time></trkpt><trkpt lat="40.4612601" lon="15.2525621"><ele>438.3333333333333</ele><time>2026-04-19T11:16:09.368Z</time></trkpt><trkpt lat="40.4613315" lon="15.2526037"><ele>439.16666666666663</ele><time>2026-04-19T11:16:10.369Z</time></trkpt><trkpt lat="40.4613967" lon="15.252671"><ele>440.0</ele><time>2026-04-19T11:16:12.368Z</time></trkpt><trkpt lat="40.4614348" lon="15.2528058"><ele>437.8</ele><time>2026-04-19T11:16:14.368Z</time></trkpt><trkpt lat="40.4614417" lon="15.2529094"><ele>435.6</ele><time>2026-04-19T11:16:15.367Z</time></trkpt><trkpt lat="40.4614211" lon="15.2530205"><ele>433.4</ele><time>2026-04-19T11:16:17.367Z</time></trkpt><trkpt lat="40.461344" lon="15.2530021"><ele>431.2</ele><time>2026-04-19T11:16:20.367Z</time></trkpt><trkpt lat="40.4613372" lon="15.2528737"><ele>429.0</ele><time>2026-04-19T11:16:22.369Z</time></trkpt><trkpt lat="40.4613125" lon="15.2527329"><ele>431.2</ele><time>2026-04-19T11:16:24.368Z</time></trkpt><trkpt lat="40.461207" lon="15.2526509"><ele>433.4</ele><time>2026-04-19T11:16:26.368Z</time></trkpt><trkpt lat="40.4611237" lon="15.2526286"><ele>435.6</ele><time>2026-04-19T11:16:27.368Z</time></trkpt><trkpt lat="40.4610358" lon="15.2526348"><ele>437.8</ele><time>2026-04-19T11:16:28.369Z</time></trkpt><trkpt lat="40.4609503" lon="15.2526595"><ele>440.0</ele><time>2026-04-19T11:16:29.367Z</time></trkpt><trkpt lat="40.4608844" lon="15.2526883"><ele>440.0</ele><time>2026-04-19T11:16:30.368Z</time></trkpt><trkpt lat="40.4608428" lon="15.2527687"><ele>440.0</ele><time>2026-04-19T11:16:32.367Z</time></trkpt><trkpt lat="40.460912" lon="15.2527966"><ele>440.0</ele><time>2026-04-19T11:16:34.368Z</time></trkpt><trkpt lat="40.460991" lon="15.2527678"><ele>440.0</ele><time>2026-04-19T11:16:35.369Z</time></trkpt><trkpt lat="40.4611025" lon="15.2527484"><ele>440.0</ele><time>2026-04-19T11:16:37.37Z</time></trkpt><trkpt lat="40.4612009" lon="15.2528161"><ele>439.99999999999994</ele><time>2026-04-19T11:16:39.368Z</time></trkpt><trkpt lat="40.4612528" lon="15.2529117"><ele>440.0</ele><time>2026-04-19T11:16:41.368Z</time></trkpt><trkpt lat="40.4611801" lon="15.2529666"><ele>440.0</ele><time>2026-04-19T11:16:44.368Z</time></trkpt><trkpt lat="40.4610475" lon="15.2529174"><ele>440.0</ele><time>2026-04-19T11:16:46.368Z</time></trkpt><trkpt lat="40.4609827" lon="15.2529116"><ele>439.99999999999994</ele><time>2026-04-19T11:16:47.368Z</time></trkpt><trkpt lat="40.4609145" lon="15.2529479"><ele>440.0</ele><time>2026-04-19T11:16:49.368Z</time></trkpt><trkpt lat="40.4610025" lon="15.253032"><ele>439.99999999999994</ele><time>2026-04-19T11:16:52.368Z</time></trkpt><trkpt lat="40.4611036" lon="15.2530481"><ele>440.0</ele><time>2026-04-19T11:16:53.368Z</time></trkpt><trkpt lat="40.46119" lon="15.2530656"><ele>440.0</ele><time>2026-04-19T11:16:54.367Z</time></trkpt><trkpt lat="40.4612687" lon="15.2530831"><ele>440.0</ele><time>2026-04-19T11:16:55.368Z</time></trkpt><trkpt lat="40.4613476" lon="15.2531377"><ele>439.99999999999994</ele><time>2026-04-19T11:16:57.368Z</time></trkpt><trkpt lat="40.4613057" lon="15.2532051"><ele>440.0</ele><time>2026-04-19T11:17:00.368Z</time></trkpt><trkpt lat="40.4611752" lon="15.2531855"><ele>441.66666666666663</ele><time>2026-04-19T11:17:02.368Z</time></trkpt><trkpt lat="40.4610946" lon="15.2531757"><ele>443.3333333333333</ele><time>2026-04-19T11:17:03.368Z</time></trkpt><trkpt lat="40.4610271" lon="15.2531865"><ele>445.0</ele><time>2026-04-19T11:17:04.368Z</time></trkpt><trkpt lat="40.4609749" lon="15.2532818"><ele>446.66666666666663</ele><time>2026-04-19T11:17:06.368Z</time></trkpt><trkpt lat="40.4610357" lon="15.2533328"><ele>448.3333333333333</ele><time>2026-04-19T11:17:08.368Z</time></trkpt><trkpt lat="40.461138" lon="15.2532756"><ele>450.0</ele><time>2026-04-19T11:17:10.368Z</time></trkpt><trkpt lat="40.4611903" lon="15.2533334"><ele>450.0</ele><time>2026-04-19T11:17:14.368Z</time></trkpt><trkpt lat="40.461196" lon="15.2534615"><ele>450.0</ele><time>2026-04-19T11:17:16.368Z</time></trkpt><trkpt lat="40.4612546" lon="15.253535"><ele>450.0</ele><time>2026-04-19T11:17:18.368Z</time></trkpt><trkpt lat="40.4613458" lon="15.253451"><ele>450.0</ele><time>2026-04-19T11:17:20.368Z</time></trkpt><trkpt lat="40.4614203" lon="15.2533314"><ele>450.0</ele><time>2026-04-19T11:17:21.367Z</time></trkpt><trkpt lat="40.4614719" lon="15.2532325"><ele>433.0</ele><time>2026-04-19T11:17:22.369Z</time></trkpt><trkpt lat="40.4615286" lon="15.2531207"><ele>429.0</ele><time>2026-04-19T11:17:24.368Z</time></trkpt></trkseg></trk></gpx>